<?xml version="1.0" encoding="UTF-8" standalone="no" ?>
<gpx xmlns="http://www.topografix.com/GPX/1/1" xmlns:xsi="http://www.w3.org/2001/XMLSchema-instance" xsi:schemaLocation="http://www.topografix.com/GPX/1/1 http://www.topografix.com/GPX/1/1/gpx.xsd" version="1.1" creator="VisuGPX - https://www.visugpx.com">
  <metadata>
    <name>Tour du Thabor J1</name>
    <desc><![CDATA[Départ de Fontcouverte pour le col de la Tempête, descente vers le refuge des Drayères]]></desc>
  </metadata>
  <trk>
    <name><![CDATA[2017-04-20 09-52]]></name>
    <trkseg>
      <trkpt lat="45.03435" lon="6.5452">
        <ele>1872.6</ele>
        <time>2017-04-20T08:05:17Z</time>
      </trkpt>
      <trkpt lat="45.03431" lon="6.54518">
        <ele>1868.8</ele>
        <time>2017-04-20T08:05:22Z</time>
      </trkpt>
      <trkpt lat="45.03427" lon="6.54516">
        <ele>1868.2</ele>
        <time>2017-04-20T08:05:27Z</time>
      </trkpt>
      <trkpt lat="45.03422" lon="6.54513">
        <ele>1871.4</ele>
        <time>2017-04-20T08:05:32Z</time>
      </trkpt>
      <trkpt lat="45.03418" lon="6.54511">
        <ele>1873.6</ele>
        <time>2017-04-20T08:05:37Z</time>
      </trkpt>
      <trkpt lat="45.03414" lon="6.54512">
        <ele>1871.4</ele>
        <time>2017-04-20T08:05:42Z</time>
      </trkpt>
      <trkpt lat="45.03409" lon="6.54514">
        <ele>1871.8</ele>
        <time>2017-04-20T08:05:47Z</time>
      </trkpt>
      <trkpt lat="45.03404" lon="6.54518">
        <ele>1874.2</ele>
        <time>2017-04-20T08:05:52Z</time>
      </trkpt>
      <trkpt lat="45.034" lon="6.54524">
        <ele>1873</ele>
        <time>2017-04-20T08:05:57Z</time>
      </trkpt>
      <trkpt lat="45.03395" lon="6.54528">
        <ele>1870.4</ele>
        <time>2017-04-20T08:06:02Z</time>
      </trkpt>
      <trkpt lat="45.03391" lon="6.54534">
        <ele>1871.2</ele>
        <time>2017-04-20T08:06:07Z</time>
      </trkpt>
      <trkpt lat="45.03386" lon="6.54538">
        <ele>1871.8</ele>
        <time>2017-04-20T08:06:12Z</time>
      </trkpt>
      <trkpt lat="45.03382" lon="6.54543">
        <ele>1872.2</ele>
        <time>2017-04-20T08:06:17Z</time>
      </trkpt>
      <trkpt lat="45.03378" lon="6.54548">
        <ele>1876</ele>
        <time>2017-04-20T08:06:22Z</time>
      </trkpt>
      <trkpt lat="45.03374" lon="6.54554">
        <ele>1874.2</ele>
        <time>2017-04-20T08:06:27Z</time>
      </trkpt>
      <trkpt lat="45.03369" lon="6.54558">
        <ele>1870.8</ele>
        <time>2017-04-20T08:06:32Z</time>
      </trkpt>
      <trkpt lat="45.03364" lon="6.54564">
        <ele>1871.6</ele>
        <time>2017-04-20T08:06:37Z</time>
      </trkpt>
      <trkpt lat="45.0336" lon="6.5457">
        <ele>1870</ele>
        <time>2017-04-20T08:06:42Z</time>
      </trkpt>
      <trkpt lat="45.03356" lon="6.54577">
        <ele>1871</ele>
        <time>2017-04-20T08:06:47Z</time>
      </trkpt>
      <trkpt lat="45.03357" lon="6.54586">
        <ele>1868.2</ele>
        <time>2017-04-20T08:06:52Z</time>
      </trkpt>
      <trkpt lat="45.03357" lon="6.54595">
        <ele>1868.4</ele>
        <time>2017-04-20T08:06:57Z</time>
      </trkpt>
      <trkpt lat="45.03356" lon="6.54603">
        <ele>1869</ele>
        <time>2017-04-20T08:07:02Z</time>
      </trkpt>
      <trkpt lat="45.03355" lon="6.54611">
        <ele>1868</ele>
        <time>2017-04-20T08:07:07Z</time>
      </trkpt>
      <trkpt lat="45.03356" lon="6.54618">
        <ele>1869</ele>
        <time>2017-04-20T08:07:12Z</time>
      </trkpt>
      <trkpt lat="45.03358" lon="6.54624">
        <ele>1868.4</ele>
        <time>2017-04-20T08:07:17Z</time>
      </trkpt>
      <trkpt lat="45.03359" lon="6.54628">
        <ele>1866.8</ele>
        <time>2017-04-20T08:07:22Z</time>
      </trkpt>
      <trkpt lat="45.03359" lon="6.54629">
        <ele>1867.6</ele>
        <time>2017-04-20T08:07:47Z</time>
      </trkpt>
      <trkpt lat="45.03359" lon="6.54633">
        <ele>1869.4</ele>
        <time>2017-04-20T08:07:52Z</time>
      </trkpt>
      <trkpt lat="45.0336" lon="6.54639">
        <ele>1867.4</ele>
        <time>2017-04-20T08:07:57Z</time>
      </trkpt>
      <trkpt lat="45.03361" lon="6.54647">
        <ele>1868.2</ele>
        <time>2017-04-20T08:08:03Z</time>
      </trkpt>
      <trkpt lat="45.03363" lon="6.54653">
        <ele>1866.6</ele>
        <time>2017-04-20T08:08:08Z</time>
      </trkpt>
      <trkpt lat="45.03363" lon="6.54653">
        <ele>1869.4</ele>
        <time>2017-04-20T08:08:24Z</time>
      </trkpt>
      <trkpt lat="45.03363" lon="6.54657">
        <ele>1869.4</ele>
        <time>2017-04-20T08:08:29Z</time>
      </trkpt>
      <trkpt lat="45.03363" lon="6.54667">
        <ele>1868.6</ele>
        <time>2017-04-20T08:08:34Z</time>
      </trkpt>
      <trkpt lat="45.03362" lon="6.54676">
        <ele>1871</ele>
        <time>2017-04-20T08:08:39Z</time>
      </trkpt>
      <trkpt lat="45.0336" lon="6.54683">
        <ele>1872</ele>
        <time>2017-04-20T08:08:44Z</time>
      </trkpt>
      <trkpt lat="45.03357" lon="6.54691">
        <ele>1868.2</ele>
        <time>2017-04-20T08:08:49Z</time>
      </trkpt>
      <trkpt lat="45.03355" lon="6.54699">
        <ele>1870.8</ele>
        <time>2017-04-20T08:08:54Z</time>
      </trkpt>
      <trkpt lat="45.03353" lon="6.54706">
        <ele>1871.6</ele>
        <time>2017-04-20T08:08:59Z</time>
      </trkpt>
      <trkpt lat="45.03354" lon="6.5471">
        <ele>1873.2</ele>
        <time>2017-04-20T08:09:04Z</time>
      </trkpt>
      <trkpt lat="45.03355" lon="6.5471">
        <ele>1872.4</ele>
        <time>2017-04-20T08:09:09Z</time>
      </trkpt>
      <trkpt lat="45.03356" lon="6.54707">
        <ele>1870</ele>
        <time>2017-04-20T08:09:14Z</time>
      </trkpt>
      <trkpt lat="45.03358" lon="6.54705">
        <ele>1871.6</ele>
        <time>2017-04-20T08:09:19Z</time>
      </trkpt>
      <trkpt lat="45.0336" lon="6.54701">
        <ele>1868</ele>
        <time>2017-04-20T08:09:24Z</time>
      </trkpt>
      <trkpt lat="45.03362" lon="6.54697">
        <ele>1872</ele>
        <time>2017-04-20T08:09:29Z</time>
      </trkpt>
      <trkpt lat="45.03364" lon="6.54692">
        <ele>1870.8</ele>
        <time>2017-04-20T08:09:34Z</time>
      </trkpt>
      <trkpt lat="45.03366" lon="6.54687">
        <ele>1872.8</ele>
        <time>2017-04-20T08:09:39Z</time>
      </trkpt>
      <trkpt lat="45.03369" lon="6.54684">
        <ele>1873</ele>
        <time>2017-04-20T08:09:44Z</time>
      </trkpt>
      <trkpt lat="45.03372" lon="6.54681">
        <ele>1872.8</ele>
        <time>2017-04-20T08:09:49Z</time>
      </trkpt>
      <trkpt lat="45.03376" lon="6.54679">
        <ele>1875.8</ele>
        <time>2017-04-20T08:09:54Z</time>
      </trkpt>
      <trkpt lat="45.0338" lon="6.54678">
        <ele>1875.6</ele>
        <time>2017-04-20T08:09:59Z</time>
      </trkpt>
      <trkpt lat="45.03383" lon="6.54678">
        <ele>1879.2</ele>
        <time>2017-04-20T08:10:04Z</time>
      </trkpt>
      <trkpt lat="45.03387" lon="6.54679">
        <ele>1874</ele>
        <time>2017-04-20T08:10:09Z</time>
      </trkpt>
      <trkpt lat="45.0339" lon="6.54679">
        <ele>1876.2</ele>
        <time>2017-04-20T08:10:14Z</time>
      </trkpt>
      <trkpt lat="45.03393" lon="6.5468">
        <ele>1882</ele>
        <time>2017-04-20T08:10:19Z</time>
      </trkpt>
      <trkpt lat="45.03396" lon="6.54682">
        <ele>1880</ele>
        <time>2017-04-20T08:10:24Z</time>
      </trkpt>
      <trkpt lat="45.03399" lon="6.54682">
        <ele>1880.6</ele>
        <time>2017-04-20T08:10:29Z</time>
      </trkpt>
      <trkpt lat="45.03403" lon="6.54682">
        <ele>1883.2</ele>
        <time>2017-04-20T08:10:34Z</time>
      </trkpt>
      <trkpt lat="45.03405" lon="6.54683">
        <ele>1881.4</ele>
        <time>2017-04-20T08:10:39Z</time>
      </trkpt>
      <trkpt lat="45.03407" lon="6.54685">
        <ele>1884</ele>
        <time>2017-04-20T08:10:44Z</time>
      </trkpt>
      <trkpt lat="45.03409" lon="6.54685">
        <ele>1882.2</ele>
        <time>2017-04-20T08:10:49Z</time>
      </trkpt>
      <trkpt lat="45.03411" lon="6.54685">
        <ele>1880.4</ele>
        <time>2017-04-20T08:10:54Z</time>
      </trkpt>
      <trkpt lat="45.03414" lon="6.54686">
        <ele>1884</ele>
        <time>2017-04-20T08:10:59Z</time>
      </trkpt>
      <trkpt lat="45.03416" lon="6.54687">
        <ele>1883</ele>
        <time>2017-04-20T08:11:04Z</time>
      </trkpt>
      <trkpt lat="45.0342" lon="6.54686">
        <ele>1886.2</ele>
        <time>2017-04-20T08:11:09Z</time>
      </trkpt>
      <trkpt lat="45.03423" lon="6.54685">
        <ele>1886.4</ele>
        <time>2017-04-20T08:11:14Z</time>
      </trkpt>
      <trkpt lat="45.03426" lon="6.54685">
        <ele>1886.2</ele>
        <time>2017-04-20T08:11:19Z</time>
      </trkpt>
      <trkpt lat="45.03429" lon="6.54683">
        <ele>1887.2</ele>
        <time>2017-04-20T08:11:24Z</time>
      </trkpt>
      <trkpt lat="45.03432" lon="6.54682">
        <ele>1887.8</ele>
        <time>2017-04-20T08:11:29Z</time>
      </trkpt>
      <trkpt lat="45.03435" lon="6.54682">
        <ele>1888.2</ele>
        <time>2017-04-20T08:11:34Z</time>
      </trkpt>
      <trkpt lat="45.03437" lon="6.54681">
        <ele>1886.6</ele>
        <time>2017-04-20T08:11:39Z</time>
      </trkpt>
      <trkpt lat="45.0344" lon="6.54681">
        <ele>1888.6</ele>
        <time>2017-04-20T08:11:44Z</time>
      </trkpt>
      <trkpt lat="45.03444" lon="6.5468">
        <ele>1888.4</ele>
        <time>2017-04-20T08:11:49Z</time>
      </trkpt>
      <trkpt lat="45.03446" lon="6.5468">
        <ele>1890.8</ele>
        <time>2017-04-20T08:11:54Z</time>
      </trkpt>
      <trkpt lat="45.03449" lon="6.54682">
        <ele>1891.6</ele>
        <time>2017-04-20T08:11:59Z</time>
      </trkpt>
      <trkpt lat="45.03451" lon="6.54683">
        <ele>1889.6</ele>
        <time>2017-04-20T08:12:04Z</time>
      </trkpt>
      <trkpt lat="45.03453" lon="6.54685">
        <ele>1888.6</ele>
        <time>2017-04-20T08:12:09Z</time>
      </trkpt>
      <trkpt lat="45.03455" lon="6.54687">
        <ele>1890.4</ele>
        <time>2017-04-20T08:12:14Z</time>
      </trkpt>
      <trkpt lat="45.03458" lon="6.54689">
        <ele>1892.6</ele>
        <time>2017-04-20T08:12:19Z</time>
      </trkpt>
      <trkpt lat="45.0346" lon="6.54692">
        <ele>1893</ele>
        <time>2017-04-20T08:12:24Z</time>
      </trkpt>
      <trkpt lat="45.0346" lon="6.54697">
        <ele>1898</ele>
        <time>2017-04-20T08:12:29Z</time>
      </trkpt>
      <trkpt lat="45.03459" lon="6.54702">
        <ele>1897.6</ele>
        <time>2017-04-20T08:12:34Z</time>
      </trkpt>
      <trkpt lat="45.03456" lon="6.54705">
        <ele>1896.4</ele>
        <time>2017-04-20T08:12:39Z</time>
      </trkpt>
      <trkpt lat="45.03452" lon="6.54709">
        <ele>1898.8</ele>
        <time>2017-04-20T08:12:44Z</time>
      </trkpt>
      <trkpt lat="45.03449" lon="6.54713">
        <ele>1899</ele>
        <time>2017-04-20T08:12:49Z</time>
      </trkpt>
      <trkpt lat="45.03446" lon="6.54717">
        <ele>1900</ele>
        <time>2017-04-20T08:12:54Z</time>
      </trkpt>
      <trkpt lat="45.03444" lon="6.54721">
        <ele>1899.8</ele>
        <time>2017-04-20T08:12:59Z</time>
      </trkpt>
      <trkpt lat="45.03441" lon="6.54724">
        <ele>1898.4</ele>
        <time>2017-04-20T08:13:04Z</time>
      </trkpt>
      <trkpt lat="45.03439" lon="6.54728">
        <ele>1899.6</ele>
        <time>2017-04-20T08:13:09Z</time>
      </trkpt>
      <trkpt lat="45.03439" lon="6.54734">
        <ele>1898</ele>
        <time>2017-04-20T08:13:14Z</time>
      </trkpt>
      <trkpt lat="45.0344" lon="6.54739">
        <ele>1899</ele>
        <time>2017-04-20T08:13:19Z</time>
      </trkpt>
      <trkpt lat="45.03443" lon="6.54742">
        <ele>1898.4</ele>
        <time>2017-04-20T08:13:24Z</time>
      </trkpt>
      <trkpt lat="45.03446" lon="6.54741">
        <ele>1898.4</ele>
        <time>2017-04-20T08:13:29Z</time>
      </trkpt>
      <trkpt lat="45.03449" lon="6.5474">
        <ele>1901.6</ele>
        <time>2017-04-20T08:13:34Z</time>
      </trkpt>
      <trkpt lat="45.03452" lon="6.54738">
        <ele>1900.2</ele>
        <time>2017-04-20T08:13:39Z</time>
      </trkpt>
      <trkpt lat="45.03456" lon="6.54737">
        <ele>1901.4</ele>
        <time>2017-04-20T08:13:44Z</time>
      </trkpt>
      <trkpt lat="45.03459" lon="6.54736">
        <ele>1899.6</ele>
        <time>2017-04-20T08:13:49Z</time>
      </trkpt>
      <trkpt lat="45.03462" lon="6.54735">
        <ele>1899.8</ele>
        <time>2017-04-20T08:13:54Z</time>
      </trkpt>
      <trkpt lat="45.03465" lon="6.54734">
        <ele>1902.6</ele>
        <time>2017-04-20T08:13:59Z</time>
      </trkpt>
      <trkpt lat="45.03469" lon="6.54733">
        <ele>1905.4</ele>
        <time>2017-04-20T08:14:04Z</time>
      </trkpt>
      <trkpt lat="45.03472" lon="6.54731">
        <ele>1901.8</ele>
        <time>2017-04-20T08:14:09Z</time>
      </trkpt>
      <trkpt lat="45.03475" lon="6.5473">
        <ele>1906</ele>
        <time>2017-04-20T08:14:14Z</time>
      </trkpt>
      <trkpt lat="45.03477" lon="6.54728">
        <ele>1906.2</ele>
        <time>2017-04-20T08:14:19Z</time>
      </trkpt>
      <trkpt lat="45.0348" lon="6.54728">
        <ele>1903.4</ele>
        <time>2017-04-20T08:14:24Z</time>
      </trkpt>
      <trkpt lat="45.03482" lon="6.54726">
        <ele>1904.8</ele>
        <time>2017-04-20T08:14:29Z</time>
      </trkpt>
      <trkpt lat="45.03486" lon="6.54724">
        <ele>1909.4</ele>
        <time>2017-04-20T08:14:34Z</time>
      </trkpt>
      <trkpt lat="45.03489" lon="6.54723">
        <ele>1907</ele>
        <time>2017-04-20T08:14:39Z</time>
      </trkpt>
      <trkpt lat="45.03492" lon="6.5472">
        <ele>1908.6</ele>
        <time>2017-04-20T08:14:44Z</time>
      </trkpt>
      <trkpt lat="45.03495" lon="6.54718">
        <ele>1910.4</ele>
        <time>2017-04-20T08:14:49Z</time>
      </trkpt>
      <trkpt lat="45.03497" lon="6.54716">
        <ele>1905.4</ele>
        <time>2017-04-20T08:14:54Z</time>
      </trkpt>
      <trkpt lat="45.035" lon="6.54713">
        <ele>1908.4</ele>
        <time>2017-04-20T08:14:59Z</time>
      </trkpt>
      <trkpt lat="45.03503" lon="6.5471">
        <ele>1910.8</ele>
        <time>2017-04-20T08:15:04Z</time>
      </trkpt>
      <trkpt lat="45.03505" lon="6.54707">
        <ele>1910</ele>
        <time>2017-04-20T08:15:09Z</time>
      </trkpt>
      <trkpt lat="45.03508" lon="6.54704">
        <ele>1910</ele>
        <time>2017-04-20T08:15:14Z</time>
      </trkpt>
      <trkpt lat="45.03511" lon="6.54703">
        <ele>1911.6</ele>
        <time>2017-04-20T08:15:19Z</time>
      </trkpt>
      <trkpt lat="45.03514" lon="6.54701">
        <ele>1912.4</ele>
        <time>2017-04-20T08:15:24Z</time>
      </trkpt>
      <trkpt lat="45.03516" lon="6.54699">
        <ele>1912.8</ele>
        <time>2017-04-20T08:15:29Z</time>
      </trkpt>
      <trkpt lat="45.03519" lon="6.54699">
        <ele>1916.2</ele>
        <time>2017-04-20T08:15:34Z</time>
      </trkpt>
      <trkpt lat="45.03521" lon="6.54696">
        <ele>1915</ele>
        <time>2017-04-20T08:15:39Z</time>
      </trkpt>
      <trkpt lat="45.03524" lon="6.54694">
        <ele>1914.6</ele>
        <time>2017-04-20T08:15:44Z</time>
      </trkpt>
      <trkpt lat="45.03527" lon="6.54692">
        <ele>1914.6</ele>
        <time>2017-04-20T08:15:49Z</time>
      </trkpt>
      <trkpt lat="45.0353" lon="6.54691">
        <ele>1914</ele>
        <time>2017-04-20T08:15:54Z</time>
      </trkpt>
      <trkpt lat="45.03533" lon="6.54689">
        <ele>1914.8</ele>
        <time>2017-04-20T08:15:59Z</time>
      </trkpt>
      <trkpt lat="45.03536" lon="6.54688">
        <ele>1914.8</ele>
        <time>2017-04-20T08:16:04Z</time>
      </trkpt>
      <trkpt lat="45.0354" lon="6.54687">
        <ele>1916.8</ele>
        <time>2017-04-20T08:16:09Z</time>
      </trkpt>
      <trkpt lat="45.03543" lon="6.54686">
        <ele>1919</ele>
        <time>2017-04-20T08:16:14Z</time>
      </trkpt>
      <trkpt lat="45.03546" lon="6.54685">
        <ele>1920</ele>
        <time>2017-04-20T08:16:19Z</time>
      </trkpt>
      <trkpt lat="45.03548" lon="6.54685">
        <ele>1921.4</ele>
        <time>2017-04-20T08:16:24Z</time>
      </trkpt>
      <trkpt lat="45.0355" lon="6.54684">
        <ele>1921.4</ele>
        <time>2017-04-20T08:16:29Z</time>
      </trkpt>
      <trkpt lat="45.03553" lon="6.54685">
        <ele>1922.6</ele>
        <time>2017-04-20T08:16:34Z</time>
      </trkpt>
      <trkpt lat="45.03556" lon="6.54684">
        <ele>1920</ele>
        <time>2017-04-20T08:16:39Z</time>
      </trkpt>
      <trkpt lat="45.03559" lon="6.54684">
        <ele>1921.6</ele>
        <time>2017-04-20T08:16:44Z</time>
      </trkpt>
      <trkpt lat="45.03563" lon="6.54683">
        <ele>1920.2</ele>
        <time>2017-04-20T08:16:49Z</time>
      </trkpt>
      <trkpt lat="45.03566" lon="6.54683">
        <ele>1922</ele>
        <time>2017-04-20T08:16:54Z</time>
      </trkpt>
      <trkpt lat="45.03567" lon="6.54681">
        <ele>1926.4</ele>
        <time>2017-04-20T08:17:34Z</time>
      </trkpt>
      <trkpt lat="45.03566" lon="6.5468">
        <ele>1930.6</ele>
        <time>2017-04-20T08:17:59Z</time>
      </trkpt>
      <trkpt lat="45.03567" lon="6.5468">
        <ele>1929.2</ele>
        <time>2017-04-20T08:18:04Z</time>
      </trkpt>
      <trkpt lat="45.03569" lon="6.54678">
        <ele>1930.2</ele>
        <time>2017-04-20T08:18:09Z</time>
      </trkpt>
      <trkpt lat="45.03573" lon="6.54676">
        <ele>1930.6</ele>
        <time>2017-04-20T08:18:14Z</time>
      </trkpt>
      <trkpt lat="45.03577" lon="6.54676">
        <ele>1930</ele>
        <time>2017-04-20T08:18:19Z</time>
      </trkpt>
      <trkpt lat="45.03581" lon="6.54675">
        <ele>1931.2</ele>
        <time>2017-04-20T08:18:24Z</time>
      </trkpt>
      <trkpt lat="45.03585" lon="6.54674">
        <ele>1928.4</ele>
        <time>2017-04-20T08:18:29Z</time>
      </trkpt>
      <trkpt lat="45.03589" lon="6.54674">
        <ele>1929.4</ele>
        <time>2017-04-20T08:18:34Z</time>
      </trkpt>
      <trkpt lat="45.03592" lon="6.54673">
        <ele>1931.2</ele>
        <time>2017-04-20T08:18:39Z</time>
      </trkpt>
      <trkpt lat="45.03595" lon="6.54672">
        <ele>1927.6</ele>
        <time>2017-04-20T08:18:44Z</time>
      </trkpt>
      <trkpt lat="45.03598" lon="6.54671">
        <ele>1927.8</ele>
        <time>2017-04-20T08:18:49Z</time>
      </trkpt>
      <trkpt lat="45.03602" lon="6.5467">
        <ele>1925.4</ele>
        <time>2017-04-20T08:18:54Z</time>
      </trkpt>
      <trkpt lat="45.03605" lon="6.54668">
        <ele>1929.8</ele>
        <time>2017-04-20T08:18:59Z</time>
      </trkpt>
      <trkpt lat="45.03607" lon="6.54666">
        <ele>1930</ele>
        <time>2017-04-20T08:19:04Z</time>
      </trkpt>
      <trkpt lat="45.0361" lon="6.54663">
        <ele>1930</ele>
        <time>2017-04-20T08:19:09Z</time>
      </trkpt>
      <trkpt lat="45.03612" lon="6.5466">
        <ele>1927.6</ele>
        <time>2017-04-20T08:19:14Z</time>
      </trkpt>
      <trkpt lat="45.03614" lon="6.54657">
        <ele>1927</ele>
        <time>2017-04-20T08:19:19Z</time>
      </trkpt>
      <trkpt lat="45.03617" lon="6.54654">
        <ele>1929.8</ele>
        <time>2017-04-20T08:19:24Z</time>
      </trkpt>
      <trkpt lat="45.03619" lon="6.54651">
        <ele>1929.4</ele>
        <time>2017-04-20T08:19:29Z</time>
      </trkpt>
      <trkpt lat="45.03622" lon="6.54648">
        <ele>1928.4</ele>
        <time>2017-04-20T08:19:34Z</time>
      </trkpt>
      <trkpt lat="45.03625" lon="6.54645">
        <ele>1931</ele>
        <time>2017-04-20T08:19:39Z</time>
      </trkpt>
      <trkpt lat="45.03627" lon="6.54643">
        <ele>1930.4</ele>
        <time>2017-04-20T08:19:44Z</time>
      </trkpt>
      <trkpt lat="45.03631" lon="6.54641">
        <ele>1930.6</ele>
        <time>2017-04-20T08:19:49Z</time>
      </trkpt>
      <trkpt lat="45.03634" lon="6.5464">
        <ele>1935.4</ele>
        <time>2017-04-20T08:19:54Z</time>
      </trkpt>
      <trkpt lat="45.03637" lon="6.54639">
        <ele>1935</ele>
        <time>2017-04-20T08:19:59Z</time>
      </trkpt>
      <trkpt lat="45.03641" lon="6.54639">
        <ele>1933</ele>
        <time>2017-04-20T08:20:04Z</time>
      </trkpt>
      <trkpt lat="45.03644" lon="6.54639">
        <ele>1935.8</ele>
        <time>2017-04-20T08:20:09Z</time>
      </trkpt>
      <trkpt lat="45.03648" lon="6.54639">
        <ele>1932.8</ele>
        <time>2017-04-20T08:20:14Z</time>
      </trkpt>
      <trkpt lat="45.03651" lon="6.54639">
        <ele>1935.2</ele>
        <time>2017-04-20T08:20:19Z</time>
      </trkpt>
      <trkpt lat="45.03655" lon="6.54639">
        <ele>1932</ele>
        <time>2017-04-20T08:20:24Z</time>
      </trkpt>
      <trkpt lat="45.03659" lon="6.54639">
        <ele>1933.4</ele>
        <time>2017-04-20T08:20:29Z</time>
      </trkpt>
      <trkpt lat="45.03662" lon="6.5464">
        <ele>1935.6</ele>
        <time>2017-04-20T08:20:34Z</time>
      </trkpt>
      <trkpt lat="45.03666" lon="6.54641">
        <ele>1935.2</ele>
        <time>2017-04-20T08:20:39Z</time>
      </trkpt>
      <trkpt lat="45.03669" lon="6.54641">
        <ele>1937</ele>
        <time>2017-04-20T08:20:44Z</time>
      </trkpt>
      <trkpt lat="45.03673" lon="6.54641">
        <ele>1936.4</ele>
        <time>2017-04-20T08:20:49Z</time>
      </trkpt>
      <trkpt lat="45.03675" lon="6.54639">
        <ele>1937</ele>
        <time>2017-04-20T08:20:54Z</time>
      </trkpt>
      <trkpt lat="45.03679" lon="6.54638">
        <ele>1937</ele>
        <time>2017-04-20T08:20:59Z</time>
      </trkpt>
      <trkpt lat="45.03681" lon="6.54637">
        <ele>1940.8</ele>
        <time>2017-04-20T08:21:04Z</time>
      </trkpt>
      <trkpt lat="45.03684" lon="6.54635">
        <ele>1939</ele>
        <time>2017-04-20T08:21:09Z</time>
      </trkpt>
      <trkpt lat="45.03687" lon="6.54633">
        <ele>1939.4</ele>
        <time>2017-04-20T08:21:14Z</time>
      </trkpt>
      <trkpt lat="45.03689" lon="6.54631">
        <ele>1941.8</ele>
        <time>2017-04-20T08:21:19Z</time>
      </trkpt>
      <trkpt lat="45.03691" lon="6.54628">
        <ele>1940</ele>
        <time>2017-04-20T08:21:24Z</time>
      </trkpt>
      <trkpt lat="45.03691" lon="6.54627">
        <ele>1939.6</ele>
        <time>2017-04-20T08:21:29Z</time>
      </trkpt>
      <trkpt lat="45.03692" lon="6.54626">
        <ele>1939.8</ele>
        <time>2017-04-20T08:21:34Z</time>
      </trkpt>
      <trkpt lat="45.03695" lon="6.54622">
        <ele>1944.4</ele>
        <time>2017-04-20T08:21:39Z</time>
      </trkpt>
      <trkpt lat="45.03697" lon="6.54618">
        <ele>1938.2</ele>
        <time>2017-04-20T08:21:44Z</time>
      </trkpt>
      <trkpt lat="45.037" lon="6.54614">
        <ele>1942.6</ele>
        <time>2017-04-20T08:21:49Z</time>
      </trkpt>
      <trkpt lat="45.03703" lon="6.54611">
        <ele>1942.8</ele>
        <time>2017-04-20T08:21:54Z</time>
      </trkpt>
      <trkpt lat="45.03706" lon="6.54608">
        <ele>1941.8</ele>
        <time>2017-04-20T08:21:59Z</time>
      </trkpt>
      <trkpt lat="45.03709" lon="6.54605">
        <ele>1945</ele>
        <time>2017-04-20T08:22:04Z</time>
      </trkpt>
      <trkpt lat="45.03711" lon="6.54602">
        <ele>1943.8</ele>
        <time>2017-04-20T08:22:09Z</time>
      </trkpt>
      <trkpt lat="45.03714" lon="6.54599">
        <ele>1943.4</ele>
        <time>2017-04-20T08:22:14Z</time>
      </trkpt>
      <trkpt lat="45.03717" lon="6.54595">
        <ele>1945.2</ele>
        <time>2017-04-20T08:22:19Z</time>
      </trkpt>
      <trkpt lat="45.03721" lon="6.54593">
        <ele>1946.8</ele>
        <time>2017-04-20T08:22:24Z</time>
      </trkpt>
      <trkpt lat="45.03724" lon="6.54591">
        <ele>1948.6</ele>
        <time>2017-04-20T08:22:29Z</time>
      </trkpt>
      <trkpt lat="45.03727" lon="6.54588">
        <ele>1947</ele>
        <time>2017-04-20T08:22:34Z</time>
      </trkpt>
      <trkpt lat="45.0373" lon="6.54585">
        <ele>1946</ele>
        <time>2017-04-20T08:22:39Z</time>
      </trkpt>
      <trkpt lat="45.03733" lon="6.54584">
        <ele>1950.8</ele>
        <time>2017-04-20T08:22:44Z</time>
      </trkpt>
      <trkpt lat="45.03736" lon="6.54581">
        <ele>1950.8</ele>
        <time>2017-04-20T08:22:49Z</time>
      </trkpt>
      <trkpt lat="45.0374" lon="6.5458">
        <ele>1951.4</ele>
        <time>2017-04-20T08:22:54Z</time>
      </trkpt>
      <trkpt lat="45.03742" lon="6.54579">
        <ele>1947.6</ele>
        <time>2017-04-20T08:22:59Z</time>
      </trkpt>
      <trkpt lat="45.03743" lon="6.54579">
        <ele>1948.2</ele>
        <time>2017-04-20T08:23:34Z</time>
      </trkpt>
      <trkpt lat="45.03743" lon="6.54579">
        <ele>1947.2</ele>
        <time>2017-04-20T08:24:52Z</time>
      </trkpt>
      <trkpt lat="45.03745" lon="6.54581">
        <ele>1946.2</ele>
        <time>2017-04-20T08:24:57Z</time>
      </trkpt>
      <trkpt lat="45.03745" lon="6.54581">
        <ele>1947.2</ele>
        <time>2017-04-20T08:25:22Z</time>
      </trkpt>
      <trkpt lat="45.03747" lon="6.54581">
        <ele>1947.4</ele>
        <time>2017-04-20T08:25:27Z</time>
      </trkpt>
      <trkpt lat="45.03749" lon="6.54581">
        <ele>1947.8</ele>
        <time>2017-04-20T08:25:32Z</time>
      </trkpt>
      <trkpt lat="45.03749" lon="6.54581">
        <ele>1949.4</ele>
        <time>2017-04-20T08:26:37Z</time>
      </trkpt>
      <trkpt lat="45.03749" lon="6.54581">
        <ele>1949.4</ele>
        <time>2017-04-20T08:26:42Z</time>
      </trkpt>
      <trkpt lat="45.03752" lon="6.5458">
        <ele>1949.2</ele>
        <time>2017-04-20T08:26:47Z</time>
      </trkpt>
      <trkpt lat="45.03755" lon="6.5458">
        <ele>1947</ele>
        <time>2017-04-20T08:26:52Z</time>
      </trkpt>
      <trkpt lat="45.0376" lon="6.54579">
        <ele>1950</ele>
        <time>2017-04-20T08:26:57Z</time>
      </trkpt>
      <trkpt lat="45.03763" lon="6.54577">
        <ele>1950.6</ele>
        <time>2017-04-20T08:27:02Z</time>
      </trkpt>
      <trkpt lat="45.03766" lon="6.54575">
        <ele>1950.4</ele>
        <time>2017-04-20T08:27:07Z</time>
      </trkpt>
      <trkpt lat="45.03769" lon="6.54574">
        <ele>1950</ele>
        <time>2017-04-20T08:27:12Z</time>
      </trkpt>
      <trkpt lat="45.03773" lon="6.54572">
        <ele>1949.4</ele>
        <time>2017-04-20T08:27:17Z</time>
      </trkpt>
      <trkpt lat="45.03776" lon="6.54572">
        <ele>1951</ele>
        <time>2017-04-20T08:27:22Z</time>
      </trkpt>
      <trkpt lat="45.03779" lon="6.5457">
        <ele>1953.8</ele>
        <time>2017-04-20T08:27:27Z</time>
      </trkpt>
      <trkpt lat="45.03783" lon="6.54571">
        <ele>1949.4</ele>
        <time>2017-04-20T08:27:32Z</time>
      </trkpt>
      <trkpt lat="45.03787" lon="6.5457">
        <ele>1954.8</ele>
        <time>2017-04-20T08:27:37Z</time>
      </trkpt>
      <trkpt lat="45.03791" lon="6.54571">
        <ele>1951.6</ele>
        <time>2017-04-20T08:27:42Z</time>
      </trkpt>
      <trkpt lat="45.03794" lon="6.54571">
        <ele>1953.2</ele>
        <time>2017-04-20T08:27:47Z</time>
      </trkpt>
      <trkpt lat="45.03798" lon="6.54571">
        <ele>1954</ele>
        <time>2017-04-20T08:27:52Z</time>
      </trkpt>
      <trkpt lat="45.03802" lon="6.54572">
        <ele>1953.4</ele>
        <time>2017-04-20T08:27:57Z</time>
      </trkpt>
      <trkpt lat="45.03804" lon="6.54573">
        <ele>1954.2</ele>
        <time>2017-04-20T08:28:02Z</time>
      </trkpt>
      <trkpt lat="45.03807" lon="6.54574">
        <ele>1951.4</ele>
        <time>2017-04-20T08:28:07Z</time>
      </trkpt>
      <trkpt lat="45.03811" lon="6.54575">
        <ele>1955.2</ele>
        <time>2017-04-20T08:28:12Z</time>
      </trkpt>
      <trkpt lat="45.03815" lon="6.54575">
        <ele>1954.8</ele>
        <time>2017-04-20T08:28:17Z</time>
      </trkpt>
      <trkpt lat="45.03819" lon="6.54574">
        <ele>1957</ele>
        <time>2017-04-20T08:28:22Z</time>
      </trkpt>
      <trkpt lat="45.03822" lon="6.54574">
        <ele>1955.8</ele>
        <time>2017-04-20T08:28:27Z</time>
      </trkpt>
      <trkpt lat="45.03825" lon="6.54573">
        <ele>1957.8</ele>
        <time>2017-04-20T08:28:32Z</time>
      </trkpt>
      <trkpt lat="45.03826" lon="6.54571">
        <ele>1955.2</ele>
        <time>2017-04-20T08:28:37Z</time>
      </trkpt>
      <trkpt lat="45.03829" lon="6.54569">
        <ele>1959</ele>
        <time>2017-04-20T08:28:42Z</time>
      </trkpt>
      <trkpt lat="45.03831" lon="6.54568">
        <ele>1955.4</ele>
        <time>2017-04-20T08:28:47Z</time>
      </trkpt>
      <trkpt lat="45.03833" lon="6.54566">
        <ele>1957.8</ele>
        <time>2017-04-20T08:28:52Z</time>
      </trkpt>
      <trkpt lat="45.03836" lon="6.54564">
        <ele>1957.4</ele>
        <time>2017-04-20T08:28:57Z</time>
      </trkpt>
      <trkpt lat="45.03839" lon="6.54563">
        <ele>1961</ele>
        <time>2017-04-20T08:29:02Z</time>
      </trkpt>
      <trkpt lat="45.03842" lon="6.54563">
        <ele>1963.6</ele>
        <time>2017-04-20T08:29:07Z</time>
      </trkpt>
      <trkpt lat="45.03845" lon="6.54562">
        <ele>1964</ele>
        <time>2017-04-20T08:29:12Z</time>
      </trkpt>
      <trkpt lat="45.03849" lon="6.54562">
        <ele>1962.4</ele>
        <time>2017-04-20T08:29:17Z</time>
      </trkpt>
      <trkpt lat="45.03853" lon="6.54561">
        <ele>1964.8</ele>
        <time>2017-04-20T08:29:22Z</time>
      </trkpt>
      <trkpt lat="45.03857" lon="6.5456">
        <ele>1965</ele>
        <time>2017-04-20T08:29:27Z</time>
      </trkpt>
      <trkpt lat="45.0386" lon="6.54558">
        <ele>1965.4</ele>
        <time>2017-04-20T08:29:32Z</time>
      </trkpt>
      <trkpt lat="45.03863" lon="6.54556">
        <ele>1964.4</ele>
        <time>2017-04-20T08:29:37Z</time>
      </trkpt>
      <trkpt lat="45.03866" lon="6.54553">
        <ele>1965.2</ele>
        <time>2017-04-20T08:29:42Z</time>
      </trkpt>
      <trkpt lat="45.03869" lon="6.54551">
        <ele>1964.4</ele>
        <time>2017-04-20T08:29:47Z</time>
      </trkpt>
      <trkpt lat="45.03871" lon="6.54549">
        <ele>1963.8</ele>
        <time>2017-04-20T08:29:52Z</time>
      </trkpt>
      <trkpt lat="45.03873" lon="6.54547">
        <ele>1966.4</ele>
        <time>2017-04-20T08:29:57Z</time>
      </trkpt>
      <trkpt lat="45.03876" lon="6.54545">
        <ele>1965.4</ele>
        <time>2017-04-20T08:30:02Z</time>
      </trkpt>
      <trkpt lat="45.03878" lon="6.54544">
        <ele>1967.4</ele>
        <time>2017-04-20T08:30:07Z</time>
      </trkpt>
      <trkpt lat="45.0388" lon="6.54542">
        <ele>1967.2</ele>
        <time>2017-04-20T08:30:12Z</time>
      </trkpt>
      <trkpt lat="45.03883" lon="6.54541">
        <ele>1966.8</ele>
        <time>2017-04-20T08:30:17Z</time>
      </trkpt>
      <trkpt lat="45.03885" lon="6.54539">
        <ele>1967.2</ele>
        <time>2017-04-20T08:30:22Z</time>
      </trkpt>
      <trkpt lat="45.03887" lon="6.54538">
        <ele>1971</ele>
        <time>2017-04-20T08:30:27Z</time>
      </trkpt>
      <trkpt lat="45.0389" lon="6.54539">
        <ele>1966.4</ele>
        <time>2017-04-20T08:30:32Z</time>
      </trkpt>
      <trkpt lat="45.03892" lon="6.54538">
        <ele>1970.6</ele>
        <time>2017-04-20T08:30:37Z</time>
      </trkpt>
      <trkpt lat="45.03894" lon="6.54539">
        <ele>1973.2</ele>
        <time>2017-04-20T08:30:42Z</time>
      </trkpt>
      <trkpt lat="45.03896" lon="6.5454">
        <ele>1972.2</ele>
        <time>2017-04-20T08:30:47Z</time>
      </trkpt>
      <trkpt lat="45.03898" lon="6.54541">
        <ele>1972.8</ele>
        <time>2017-04-20T08:30:52Z</time>
      </trkpt>
      <trkpt lat="45.039" lon="6.54542">
        <ele>1972.6</ele>
        <time>2017-04-20T08:30:57Z</time>
      </trkpt>
      <trkpt lat="45.03902" lon="6.54543">
        <ele>1973.2</ele>
        <time>2017-04-20T08:31:02Z</time>
      </trkpt>
      <trkpt lat="45.03904" lon="6.54544">
        <ele>1972.8</ele>
        <time>2017-04-20T08:31:07Z</time>
      </trkpt>
      <trkpt lat="45.03907" lon="6.54545">
        <ele>1973.6</ele>
        <time>2017-04-20T08:31:12Z</time>
      </trkpt>
      <trkpt lat="45.03909" lon="6.54547">
        <ele>1974</ele>
        <time>2017-04-20T08:31:17Z</time>
      </trkpt>
      <trkpt lat="45.03912" lon="6.54548">
        <ele>1974.2</ele>
        <time>2017-04-20T08:31:22Z</time>
      </trkpt>
      <trkpt lat="45.03914" lon="6.54549">
        <ele>1976.2</ele>
        <time>2017-04-20T08:31:27Z</time>
      </trkpt>
      <trkpt lat="45.03917" lon="6.54551">
        <ele>1974.2</ele>
        <time>2017-04-20T08:31:32Z</time>
      </trkpt>
      <trkpt lat="45.0392" lon="6.54552">
        <ele>1977.6</ele>
        <time>2017-04-20T08:31:37Z</time>
      </trkpt>
      <trkpt lat="45.03922" lon="6.54554">
        <ele>1975</ele>
        <time>2017-04-20T08:31:42Z</time>
      </trkpt>
      <trkpt lat="45.03924" lon="6.54554">
        <ele>1978.2</ele>
        <time>2017-04-20T08:31:47Z</time>
      </trkpt>
      <trkpt lat="45.03927" lon="6.54554">
        <ele>1978.8</ele>
        <time>2017-04-20T08:31:52Z</time>
      </trkpt>
      <trkpt lat="45.0393" lon="6.54557">
        <ele>1977</ele>
        <time>2017-04-20T08:31:57Z</time>
      </trkpt>
      <trkpt lat="45.03932" lon="6.54558">
        <ele>1976.6</ele>
        <time>2017-04-20T08:32:02Z</time>
      </trkpt>
      <trkpt lat="45.03935" lon="6.54558">
        <ele>1978.6</ele>
        <time>2017-04-20T08:32:07Z</time>
      </trkpt>
      <trkpt lat="45.03937" lon="6.54559">
        <ele>1977.4</ele>
        <time>2017-04-20T08:32:12Z</time>
      </trkpt>
      <trkpt lat="45.0394" lon="6.54561">
        <ele>1981.4</ele>
        <time>2017-04-20T08:32:17Z</time>
      </trkpt>
      <trkpt lat="45.03943" lon="6.54563">
        <ele>1981.4</ele>
        <time>2017-04-20T08:32:22Z</time>
      </trkpt>
      <trkpt lat="45.03946" lon="6.54565">
        <ele>1977</ele>
        <time>2017-04-20T08:32:27Z</time>
      </trkpt>
      <trkpt lat="45.03949" lon="6.54568">
        <ele>1981</ele>
        <time>2017-04-20T08:32:32Z</time>
      </trkpt>
      <trkpt lat="45.03952" lon="6.5457">
        <ele>1979.6</ele>
        <time>2017-04-20T08:32:37Z</time>
      </trkpt>
      <trkpt lat="45.03953" lon="6.54569">
        <ele>1979</ele>
        <time>2017-04-20T08:32:42Z</time>
      </trkpt>
      <trkpt lat="45.03957" lon="6.54569">
        <ele>1977.8</ele>
        <time>2017-04-20T08:32:47Z</time>
      </trkpt>
      <trkpt lat="45.0396" lon="6.5457">
        <ele>1981.2</ele>
        <time>2017-04-20T08:32:52Z</time>
      </trkpt>
      <trkpt lat="45.03963" lon="6.54572">
        <ele>1982.8</ele>
        <time>2017-04-20T08:32:57Z</time>
      </trkpt>
      <trkpt lat="45.03966" lon="6.54573">
        <ele>1981</ele>
        <time>2017-04-20T08:33:02Z</time>
      </trkpt>
      <trkpt lat="45.03966" lon="6.54573">
        <ele>1981.6</ele>
        <time>2017-04-20T08:33:07Z</time>
      </trkpt>
      <trkpt lat="45.03968" lon="6.54574">
        <ele>1982.2</ele>
        <time>2017-04-20T08:33:12Z</time>
      </trkpt>
      <trkpt lat="45.03971" lon="6.54574">
        <ele>1981.8</ele>
        <time>2017-04-20T08:33:17Z</time>
      </trkpt>
      <trkpt lat="45.03974" lon="6.54575">
        <ele>1985.8</ele>
        <time>2017-04-20T08:33:22Z</time>
      </trkpt>
      <trkpt lat="45.03977" lon="6.54575">
        <ele>1983.8</ele>
        <time>2017-04-20T08:33:27Z</time>
      </trkpt>
      <trkpt lat="45.03978" lon="6.54576">
        <ele>1986</ele>
        <time>2017-04-20T08:33:32Z</time>
      </trkpt>
      <trkpt lat="45.03978" lon="6.54576">
        <ele>1986</ele>
        <time>2017-04-20T08:33:42Z</time>
      </trkpt>
      <trkpt lat="45.0398" lon="6.54576">
        <ele>1986.2</ele>
        <time>2017-04-20T08:33:47Z</time>
      </trkpt>
      <trkpt lat="45.03983" lon="6.54575">
        <ele>1985.8</ele>
        <time>2017-04-20T08:33:52Z</time>
      </trkpt>
      <trkpt lat="45.03985" lon="6.54574">
        <ele>1989.4</ele>
        <time>2017-04-20T08:33:57Z</time>
      </trkpt>
      <trkpt lat="45.03988" lon="6.54574">
        <ele>1987.8</ele>
        <time>2017-04-20T08:34:02Z</time>
      </trkpt>
      <trkpt lat="45.03991" lon="6.54573">
        <ele>1987.2</ele>
        <time>2017-04-20T08:34:07Z</time>
      </trkpt>
      <trkpt lat="45.03993" lon="6.5457">
        <ele>1989.2</ele>
        <time>2017-04-20T08:34:12Z</time>
      </trkpt>
      <trkpt lat="45.03995" lon="6.54568">
        <ele>1989</ele>
        <time>2017-04-20T08:34:17Z</time>
      </trkpt>
      <trkpt lat="45.03997" lon="6.54567">
        <ele>1987.6</ele>
        <time>2017-04-20T08:34:22Z</time>
      </trkpt>
      <trkpt lat="45.03999" lon="6.54566">
        <ele>1987</ele>
        <time>2017-04-20T08:34:27Z</time>
      </trkpt>
      <trkpt lat="45.04" lon="6.54565">
        <ele>1989.6</ele>
        <time>2017-04-20T08:34:32Z</time>
      </trkpt>
      <trkpt lat="45.04003" lon="6.54564">
        <ele>1995.2</ele>
        <time>2017-04-20T08:34:37Z</time>
      </trkpt>
      <trkpt lat="45.04004" lon="6.54563">
        <ele>1992</ele>
        <time>2017-04-20T08:34:42Z</time>
      </trkpt>
      <trkpt lat="45.04006" lon="6.54559">
        <ele>1992.8</ele>
        <time>2017-04-20T08:34:47Z</time>
      </trkpt>
      <trkpt lat="45.04009" lon="6.54558">
        <ele>1992.6</ele>
        <time>2017-04-20T08:34:52Z</time>
      </trkpt>
      <trkpt lat="45.04011" lon="6.54556">
        <ele>1994.6</ele>
        <time>2017-04-20T08:34:57Z</time>
      </trkpt>
      <trkpt lat="45.04014" lon="6.54555">
        <ele>1996</ele>
        <time>2017-04-20T08:35:02Z</time>
      </trkpt>
      <trkpt lat="45.04015" lon="6.54553">
        <ele>1993.8</ele>
        <time>2017-04-20T08:35:07Z</time>
      </trkpt>
      <trkpt lat="45.04017" lon="6.54552">
        <ele>1994</ele>
        <time>2017-04-20T08:35:12Z</time>
      </trkpt>
      <trkpt lat="45.0402" lon="6.54551">
        <ele>1993.8</ele>
        <time>2017-04-20T08:35:17Z</time>
      </trkpt>
      <trkpt lat="45.04022" lon="6.54549">
        <ele>1998</ele>
        <time>2017-04-20T08:35:22Z</time>
      </trkpt>
      <trkpt lat="45.04025" lon="6.54549">
        <ele>1997.2</ele>
        <time>2017-04-20T08:35:27Z</time>
      </trkpt>
      <trkpt lat="45.04028" lon="6.54548">
        <ele>1995</ele>
        <time>2017-04-20T08:35:32Z</time>
      </trkpt>
      <trkpt lat="45.0403" lon="6.54548">
        <ele>1998.6</ele>
        <time>2017-04-20T08:35:37Z</time>
      </trkpt>
      <trkpt lat="45.04033" lon="6.54548">
        <ele>1998.2</ele>
        <time>2017-04-20T08:35:42Z</time>
      </trkpt>
      <trkpt lat="45.04035" lon="6.54548">
        <ele>2002</ele>
        <time>2017-04-20T08:35:47Z</time>
      </trkpt>
      <trkpt lat="45.04038" lon="6.54547">
        <ele>1996.8</ele>
        <time>2017-04-20T08:35:52Z</time>
      </trkpt>
      <trkpt lat="45.0404" lon="6.54546">
        <ele>1998.8</ele>
        <time>2017-04-20T08:35:57Z</time>
      </trkpt>
      <trkpt lat="45.04043" lon="6.54545">
        <ele>2004</ele>
        <time>2017-04-20T08:36:02Z</time>
      </trkpt>
      <trkpt lat="45.04045" lon="6.54545">
        <ele>2002.8</ele>
        <time>2017-04-20T08:36:07Z</time>
      </trkpt>
      <trkpt lat="45.04048" lon="6.54546">
        <ele>2006.4</ele>
        <time>2017-04-20T08:36:12Z</time>
      </trkpt>
      <trkpt lat="45.04051" lon="6.54546">
        <ele>2007</ele>
        <time>2017-04-20T08:36:17Z</time>
      </trkpt>
      <trkpt lat="45.04053" lon="6.54544">
        <ele>2008.6</ele>
        <time>2017-04-20T08:36:22Z</time>
      </trkpt>
      <trkpt lat="45.04056" lon="6.54543">
        <ele>2009</ele>
        <time>2017-04-20T08:36:27Z</time>
      </trkpt>
      <trkpt lat="45.04058" lon="6.54541">
        <ele>2004.6</ele>
        <time>2017-04-20T08:36:32Z</time>
      </trkpt>
      <trkpt lat="45.04061" lon="6.54539">
        <ele>2007.2</ele>
        <time>2017-04-20T08:36:37Z</time>
      </trkpt>
      <trkpt lat="45.04063" lon="6.54538">
        <ele>2008.8</ele>
        <time>2017-04-20T08:36:42Z</time>
      </trkpt>
      <trkpt lat="45.04066" lon="6.54535">
        <ele>2008.4</ele>
        <time>2017-04-20T08:36:47Z</time>
      </trkpt>
      <trkpt lat="45.04069" lon="6.54533">
        <ele>2011.2</ele>
        <time>2017-04-20T08:36:52Z</time>
      </trkpt>
      <trkpt lat="45.04072" lon="6.54531">
        <ele>2009</ele>
        <time>2017-04-20T08:36:57Z</time>
      </trkpt>
      <trkpt lat="45.04074" lon="6.5453">
        <ele>2014</ele>
        <time>2017-04-20T08:37:02Z</time>
      </trkpt>
      <trkpt lat="45.04077" lon="6.54529">
        <ele>2008.6</ele>
        <time>2017-04-20T08:37:07Z</time>
      </trkpt>
      <trkpt lat="45.0408" lon="6.54531">
        <ele>2012.8</ele>
        <time>2017-04-20T08:37:12Z</time>
      </trkpt>
      <trkpt lat="45.04082" lon="6.54528">
        <ele>2010.4</ele>
        <time>2017-04-20T08:37:17Z</time>
      </trkpt>
      <trkpt lat="45.04082" lon="6.54525">
        <ele>2011.8</ele>
        <time>2017-04-20T08:37:22Z</time>
      </trkpt>
      <trkpt lat="45.04084" lon="6.54523">
        <ele>2012</ele>
        <time>2017-04-20T08:37:27Z</time>
      </trkpt>
      <trkpt lat="45.04086" lon="6.54521">
        <ele>2013.8</ele>
        <time>2017-04-20T08:37:32Z</time>
      </trkpt>
      <trkpt lat="45.04087" lon="6.54521">
        <ele>2010.6</ele>
        <time>2017-04-20T08:37:42Z</time>
      </trkpt>
      <trkpt lat="45.0409" lon="6.54519">
        <ele>2013</ele>
        <time>2017-04-20T08:37:47Z</time>
      </trkpt>
      <trkpt lat="45.04093" lon="6.54518">
        <ele>2012.6</ele>
        <time>2017-04-20T08:37:52Z</time>
      </trkpt>
      <trkpt lat="45.04096" lon="6.54517">
        <ele>2012.6</ele>
        <time>2017-04-20T08:37:57Z</time>
      </trkpt>
      <trkpt lat="45.041" lon="6.54516">
        <ele>2014.2</ele>
        <time>2017-04-20T08:38:02Z</time>
      </trkpt>
      <trkpt lat="45.04103" lon="6.54516">
        <ele>2016.2</ele>
        <time>2017-04-20T08:38:07Z</time>
      </trkpt>
      <trkpt lat="45.04105" lon="6.54516">
        <ele>2012.8</ele>
        <time>2017-04-20T08:38:12Z</time>
      </trkpt>
      <trkpt lat="45.04108" lon="6.54515">
        <ele>2015</ele>
        <time>2017-04-20T08:38:17Z</time>
      </trkpt>
      <trkpt lat="45.04111" lon="6.54516">
        <ele>2017</ele>
        <time>2017-04-20T08:38:22Z</time>
      </trkpt>
      <trkpt lat="45.04113" lon="6.54516">
        <ele>2018.6</ele>
        <time>2017-04-20T08:38:27Z</time>
      </trkpt>
      <trkpt lat="45.04116" lon="6.54516">
        <ele>2015.8</ele>
        <time>2017-04-20T08:38:32Z</time>
      </trkpt>
      <trkpt lat="45.04118" lon="6.54516">
        <ele>2015.2</ele>
        <time>2017-04-20T08:38:37Z</time>
      </trkpt>
      <trkpt lat="45.04121" lon="6.54517">
        <ele>2017</ele>
        <time>2017-04-20T08:38:42Z</time>
      </trkpt>
      <trkpt lat="45.04123" lon="6.54517">
        <ele>2016.8</ele>
        <time>2017-04-20T08:38:47Z</time>
      </trkpt>
      <trkpt lat="45.04126" lon="6.54518">
        <ele>2018.6</ele>
        <time>2017-04-20T08:38:52Z</time>
      </trkpt>
      <trkpt lat="45.04129" lon="6.54519">
        <ele>2018</ele>
        <time>2017-04-20T08:38:57Z</time>
      </trkpt>
      <trkpt lat="45.04131" lon="6.5452">
        <ele>2019.8</ele>
        <time>2017-04-20T08:39:02Z</time>
      </trkpt>
      <trkpt lat="45.04135" lon="6.54521">
        <ele>2019.2</ele>
        <time>2017-04-20T08:39:07Z</time>
      </trkpt>
      <trkpt lat="45.04138" lon="6.54522">
        <ele>2016.8</ele>
        <time>2017-04-20T08:39:12Z</time>
      </trkpt>
      <trkpt lat="45.04141" lon="6.54524">
        <ele>2019.6</ele>
        <time>2017-04-20T08:39:17Z</time>
      </trkpt>
      <trkpt lat="45.04144" lon="6.54525">
        <ele>2022.4</ele>
        <time>2017-04-20T08:39:22Z</time>
      </trkpt>
      <trkpt lat="45.04147" lon="6.54527">
        <ele>2019.4</ele>
        <time>2017-04-20T08:39:27Z</time>
      </trkpt>
      <trkpt lat="45.04149" lon="6.54529">
        <ele>2022.8</ele>
        <time>2017-04-20T08:39:32Z</time>
      </trkpt>
      <trkpt lat="45.04152" lon="6.54531">
        <ele>2025.2</ele>
        <time>2017-04-20T08:39:37Z</time>
      </trkpt>
      <trkpt lat="45.04155" lon="6.54533">
        <ele>2024.8</ele>
        <time>2017-04-20T08:39:42Z</time>
      </trkpt>
      <trkpt lat="45.04158" lon="6.54535">
        <ele>2023.2</ele>
        <time>2017-04-20T08:39:47Z</time>
      </trkpt>
      <trkpt lat="45.04161" lon="6.54536">
        <ele>2024.6</ele>
        <time>2017-04-20T08:39:52Z</time>
      </trkpt>
      <trkpt lat="45.04163" lon="6.54538">
        <ele>2020.6</ele>
        <time>2017-04-20T08:39:57Z</time>
      </trkpt>
      <trkpt lat="45.04165" lon="6.54541">
        <ele>2026.6</ele>
        <time>2017-04-20T08:40:02Z</time>
      </trkpt>
      <trkpt lat="45.04167" lon="6.54543">
        <ele>2026.8</ele>
        <time>2017-04-20T08:40:07Z</time>
      </trkpt>
      <trkpt lat="45.0417" lon="6.54545">
        <ele>2025.6</ele>
        <time>2017-04-20T08:40:12Z</time>
      </trkpt>
      <trkpt lat="45.04172" lon="6.54547">
        <ele>2027.4</ele>
        <time>2017-04-20T08:40:17Z</time>
      </trkpt>
      <trkpt lat="45.04174" lon="6.54548">
        <ele>2026.6</ele>
        <time>2017-04-20T08:40:22Z</time>
      </trkpt>
      <trkpt lat="45.04177" lon="6.54549">
        <ele>2026.4</ele>
        <time>2017-04-20T08:40:27Z</time>
      </trkpt>
      <trkpt lat="45.04179" lon="6.5455">
        <ele>2026.4</ele>
        <time>2017-04-20T08:40:32Z</time>
      </trkpt>
      <trkpt lat="45.04182" lon="6.54551">
        <ele>2025.2</ele>
        <time>2017-04-20T08:40:37Z</time>
      </trkpt>
      <trkpt lat="45.04184" lon="6.54551">
        <ele>2028.8</ele>
        <time>2017-04-20T08:40:42Z</time>
      </trkpt>
      <trkpt lat="45.04187" lon="6.54552">
        <ele>2028.4</ele>
        <time>2017-04-20T08:40:47Z</time>
      </trkpt>
      <trkpt lat="45.04189" lon="6.54552">
        <ele>2032.2</ele>
        <time>2017-04-20T08:40:52Z</time>
      </trkpt>
      <trkpt lat="45.04192" lon="6.54552">
        <ele>2032</ele>
        <time>2017-04-20T08:40:57Z</time>
      </trkpt>
      <trkpt lat="45.04194" lon="6.54551">
        <ele>2031.8</ele>
        <time>2017-04-20T08:41:02Z</time>
      </trkpt>
      <trkpt lat="45.04196" lon="6.54551">
        <ele>2030.4</ele>
        <time>2017-04-20T08:41:07Z</time>
      </trkpt>
      <trkpt lat="45.04199" lon="6.54551">
        <ele>2031.4</ele>
        <time>2017-04-20T08:41:12Z</time>
      </trkpt>
      <trkpt lat="45.04201" lon="6.54549">
        <ele>2029.2</ele>
        <time>2017-04-20T08:41:17Z</time>
      </trkpt>
      <trkpt lat="45.04204" lon="6.54549">
        <ele>2031.4</ele>
        <time>2017-04-20T08:41:22Z</time>
      </trkpt>
      <trkpt lat="45.04206" lon="6.54548">
        <ele>2033.6</ele>
        <time>2017-04-20T08:41:27Z</time>
      </trkpt>
      <trkpt lat="45.04208" lon="6.54547">
        <ele>2034.2</ele>
        <time>2017-04-20T08:41:32Z</time>
      </trkpt>
      <trkpt lat="45.04211" lon="6.54545">
        <ele>2032.2</ele>
        <time>2017-04-20T08:41:37Z</time>
      </trkpt>
      <trkpt lat="45.04214" lon="6.54544">
        <ele>2035.4</ele>
        <time>2017-04-20T08:41:42Z</time>
      </trkpt>
      <trkpt lat="45.04216" lon="6.54542">
        <ele>2036.4</ele>
        <time>2017-04-20T08:41:47Z</time>
      </trkpt>
      <trkpt lat="45.04219" lon="6.5454">
        <ele>2034.8</ele>
        <time>2017-04-20T08:41:52Z</time>
      </trkpt>
      <trkpt lat="45.04221" lon="6.54539">
        <ele>2033.2</ele>
        <time>2017-04-20T08:41:57Z</time>
      </trkpt>
      <trkpt lat="45.04224" lon="6.54538">
        <ele>2034.8</ele>
        <time>2017-04-20T08:42:02Z</time>
      </trkpt>
      <trkpt lat="45.04226" lon="6.54538">
        <ele>2035</ele>
        <time>2017-04-20T08:42:07Z</time>
      </trkpt>
      <trkpt lat="45.04229" lon="6.54538">
        <ele>2037.8</ele>
        <time>2017-04-20T08:42:12Z</time>
      </trkpt>
      <trkpt lat="45.04231" lon="6.54537">
        <ele>2039.4</ele>
        <time>2017-04-20T08:42:17Z</time>
      </trkpt>
      <trkpt lat="45.04233" lon="6.54534">
        <ele>2039.6</ele>
        <time>2017-04-20T08:42:22Z</time>
      </trkpt>
      <trkpt lat="45.04235" lon="6.54533">
        <ele>2038.2</ele>
        <time>2017-04-20T08:42:27Z</time>
      </trkpt>
      <trkpt lat="45.04238" lon="6.54532">
        <ele>2042.2</ele>
        <time>2017-04-20T08:42:32Z</time>
      </trkpt>
      <trkpt lat="45.0424" lon="6.54532">
        <ele>2039.6</ele>
        <time>2017-04-20T08:42:37Z</time>
      </trkpt>
      <trkpt lat="45.04242" lon="6.5453">
        <ele>2039.8</ele>
        <time>2017-04-20T08:42:42Z</time>
      </trkpt>
      <trkpt lat="45.04243" lon="6.54531">
        <ele>2040.4</ele>
        <time>2017-04-20T08:42:47Z</time>
      </trkpt>
      <trkpt lat="45.04246" lon="6.54529">
        <ele>2040.4</ele>
        <time>2017-04-20T08:42:52Z</time>
      </trkpt>
      <trkpt lat="45.04248" lon="6.54528">
        <ele>2042.2</ele>
        <time>2017-04-20T08:42:57Z</time>
      </trkpt>
      <trkpt lat="45.0425" lon="6.54527">
        <ele>2040.4</ele>
        <time>2017-04-20T08:43:02Z</time>
      </trkpt>
      <trkpt lat="45.04253" lon="6.54526">
        <ele>2038.4</ele>
        <time>2017-04-20T08:43:07Z</time>
      </trkpt>
      <trkpt lat="45.04255" lon="6.54525">
        <ele>2039.8</ele>
        <time>2017-04-20T08:43:12Z</time>
      </trkpt>
      <trkpt lat="45.04257" lon="6.54524">
        <ele>2041.8</ele>
        <time>2017-04-20T08:43:17Z</time>
      </trkpt>
      <trkpt lat="45.0426" lon="6.54523">
        <ele>2040</ele>
        <time>2017-04-20T08:43:22Z</time>
      </trkpt>
      <trkpt lat="45.04262" lon="6.54523">
        <ele>2043.6</ele>
        <time>2017-04-20T08:43:27Z</time>
      </trkpt>
      <trkpt lat="45.04262" lon="6.54524">
        <ele>2044</ele>
        <time>2017-04-20T08:43:32Z</time>
      </trkpt>
      <trkpt lat="45.04264" lon="6.54523">
        <ele>2045.8</ele>
        <time>2017-04-20T08:43:37Z</time>
      </trkpt>
      <trkpt lat="45.04266" lon="6.54523">
        <ele>2044.8</ele>
        <time>2017-04-20T08:43:42Z</time>
      </trkpt>
      <trkpt lat="45.04268" lon="6.54522">
        <ele>2046.4</ele>
        <time>2017-04-20T08:43:47Z</time>
      </trkpt>
      <trkpt lat="45.04271" lon="6.54521">
        <ele>2048.6</ele>
        <time>2017-04-20T08:43:52Z</time>
      </trkpt>
      <trkpt lat="45.04272" lon="6.5452">
        <ele>2051</ele>
        <time>2017-04-20T08:43:57Z</time>
      </trkpt>
      <trkpt lat="45.04275" lon="6.5452">
        <ele>2046.2</ele>
        <time>2017-04-20T08:44:02Z</time>
      </trkpt>
      <trkpt lat="45.04276" lon="6.5452">
        <ele>2048.6</ele>
        <time>2017-04-20T08:44:07Z</time>
      </trkpt>
      <trkpt lat="45.04278" lon="6.5452">
        <ele>2047.8</ele>
        <time>2017-04-20T08:44:12Z</time>
      </trkpt>
      <trkpt lat="45.0428" lon="6.5452">
        <ele>2048.2</ele>
        <time>2017-04-20T08:44:17Z</time>
      </trkpt>
      <trkpt lat="45.04282" lon="6.54519">
        <ele>2046.2</ele>
        <time>2017-04-20T08:44:22Z</time>
      </trkpt>
      <trkpt lat="45.04284" lon="6.54519">
        <ele>2049.2</ele>
        <time>2017-04-20T08:44:27Z</time>
      </trkpt>
      <trkpt lat="45.04287" lon="6.54519">
        <ele>2050</ele>
        <time>2017-04-20T08:44:32Z</time>
      </trkpt>
      <trkpt lat="45.04289" lon="6.54519">
        <ele>2049.4</ele>
        <time>2017-04-20T08:44:37Z</time>
      </trkpt>
      <trkpt lat="45.04292" lon="6.5452">
        <ele>2049.2</ele>
        <time>2017-04-20T08:44:42Z</time>
      </trkpt>
      <trkpt lat="45.04294" lon="6.54521">
        <ele>2051.4</ele>
        <time>2017-04-20T08:44:47Z</time>
      </trkpt>
      <trkpt lat="45.04296" lon="6.54522">
        <ele>2051</ele>
        <time>2017-04-20T08:44:52Z</time>
      </trkpt>
      <trkpt lat="45.04298" lon="6.54523">
        <ele>2050.8</ele>
        <time>2017-04-20T08:44:57Z</time>
      </trkpt>
      <trkpt lat="45.043" lon="6.54525">
        <ele>2052.2</ele>
        <time>2017-04-20T08:45:02Z</time>
      </trkpt>
      <trkpt lat="45.04301" lon="6.54529">
        <ele>2053.4</ele>
        <time>2017-04-20T08:45:07Z</time>
      </trkpt>
      <trkpt lat="45.04303" lon="6.54531">
        <ele>2055.8</ele>
        <time>2017-04-20T08:45:12Z</time>
      </trkpt>
      <trkpt lat="45.04303" lon="6.54534">
        <ele>2054.4</ele>
        <time>2017-04-20T08:45:17Z</time>
      </trkpt>
      <trkpt lat="45.04304" lon="6.54537">
        <ele>2054.4</ele>
        <time>2017-04-20T08:45:22Z</time>
      </trkpt>
      <trkpt lat="45.04305" lon="6.54537">
        <ele>2054.4</ele>
        <time>2017-04-20T08:45:27Z</time>
      </trkpt>
      <trkpt lat="45.04308" lon="6.5454">
        <ele>2056.6</ele>
        <time>2017-04-20T08:45:32Z</time>
      </trkpt>
      <trkpt lat="45.04311" lon="6.54542">
        <ele>2056.8</ele>
        <time>2017-04-20T08:45:37Z</time>
      </trkpt>
      <trkpt lat="45.04313" lon="6.54543">
        <ele>2057.8</ele>
        <time>2017-04-20T08:45:42Z</time>
      </trkpt>
      <trkpt lat="45.04316" lon="6.54542">
        <ele>2055.4</ele>
        <time>2017-04-20T08:45:47Z</time>
      </trkpt>
      <trkpt lat="45.04319" lon="6.54541">
        <ele>2055.6</ele>
        <time>2017-04-20T08:45:52Z</time>
      </trkpt>
      <trkpt lat="45.04321" lon="6.5454">
        <ele>2058</ele>
        <time>2017-04-20T08:45:57Z</time>
      </trkpt>
      <trkpt lat="45.04324" lon="6.54539">
        <ele>2060.2</ele>
        <time>2017-04-20T08:46:02Z</time>
      </trkpt>
      <trkpt lat="45.04326" lon="6.54539">
        <ele>2059.8</ele>
        <time>2017-04-20T08:46:07Z</time>
      </trkpt>
      <trkpt lat="45.04329" lon="6.54539">
        <ele>2061.2</ele>
        <time>2017-04-20T08:46:12Z</time>
      </trkpt>
      <trkpt lat="45.04331" lon="6.54539">
        <ele>2059.2</ele>
        <time>2017-04-20T08:46:17Z</time>
      </trkpt>
      <trkpt lat="45.04333" lon="6.54539">
        <ele>2058.4</ele>
        <time>2017-04-20T08:46:22Z</time>
      </trkpt>
      <trkpt lat="45.04335" lon="6.5454">
        <ele>2058.4</ele>
        <time>2017-04-20T08:46:27Z</time>
      </trkpt>
      <trkpt lat="45.04337" lon="6.5454">
        <ele>2060.2</ele>
        <time>2017-04-20T08:46:32Z</time>
      </trkpt>
      <trkpt lat="45.0434" lon="6.54541">
        <ele>2060.4</ele>
        <time>2017-04-20T08:46:37Z</time>
      </trkpt>
      <trkpt lat="45.04342" lon="6.54542">
        <ele>2060.2</ele>
        <time>2017-04-20T08:46:42Z</time>
      </trkpt>
      <trkpt lat="45.04344" lon="6.54543">
        <ele>2063.2</ele>
        <time>2017-04-20T08:46:47Z</time>
      </trkpt>
      <trkpt lat="45.04346" lon="6.54544">
        <ele>2061.4</ele>
        <time>2017-04-20T08:46:52Z</time>
      </trkpt>
      <trkpt lat="45.04348" lon="6.54545">
        <ele>2061.4</ele>
        <time>2017-04-20T08:46:57Z</time>
      </trkpt>
      <trkpt lat="45.04349" lon="6.54546">
        <ele>2062</ele>
        <time>2017-04-20T08:47:02Z</time>
      </trkpt>
      <trkpt lat="45.04351" lon="6.54548">
        <ele>2060.8</ele>
        <time>2017-04-20T08:47:07Z</time>
      </trkpt>
      <trkpt lat="45.04353" lon="6.54551">
        <ele>2064.2</ele>
        <time>2017-04-20T08:47:12Z</time>
      </trkpt>
      <trkpt lat="45.04355" lon="6.54554">
        <ele>2066.2</ele>
        <time>2017-04-20T08:47:17Z</time>
      </trkpt>
      <trkpt lat="45.04357" lon="6.54557">
        <ele>2067.6</ele>
        <time>2017-04-20T08:47:22Z</time>
      </trkpt>
      <trkpt lat="45.04359" lon="6.54559">
        <ele>2068</ele>
        <time>2017-04-20T08:47:27Z</time>
      </trkpt>
      <trkpt lat="45.04361" lon="6.54561">
        <ele>2070.6</ele>
        <time>2017-04-20T08:47:32Z</time>
      </trkpt>
      <trkpt lat="45.04363" lon="6.54561">
        <ele>2069.4</ele>
        <time>2017-04-20T08:47:37Z</time>
      </trkpt>
      <trkpt lat="45.04365" lon="6.54561">
        <ele>2070.4</ele>
        <time>2017-04-20T08:47:42Z</time>
      </trkpt>
      <trkpt lat="45.04368" lon="6.54561">
        <ele>2072.4</ele>
        <time>2017-04-20T08:47:47Z</time>
      </trkpt>
      <trkpt lat="45.0437" lon="6.54561">
        <ele>2076.2</ele>
        <time>2017-04-20T08:47:52Z</time>
      </trkpt>
      <trkpt lat="45.04373" lon="6.54562">
        <ele>2077.6</ele>
        <time>2017-04-20T08:47:57Z</time>
      </trkpt>
      <trkpt lat="45.04376" lon="6.54561">
        <ele>2080.2</ele>
        <time>2017-04-20T08:48:02Z</time>
      </trkpt>
      <trkpt lat="45.04379" lon="6.54562">
        <ele>2082</ele>
        <time>2017-04-20T08:48:07Z</time>
      </trkpt>
      <trkpt lat="45.04382" lon="6.54562">
        <ele>2081</ele>
        <time>2017-04-20T08:48:12Z</time>
      </trkpt>
      <trkpt lat="45.04384" lon="6.54563">
        <ele>2083</ele>
        <time>2017-04-20T08:48:17Z</time>
      </trkpt>
      <trkpt lat="45.04386" lon="6.54563">
        <ele>2079.4</ele>
        <time>2017-04-20T08:48:22Z</time>
      </trkpt>
      <trkpt lat="45.04389" lon="6.54562">
        <ele>2079.2</ele>
        <time>2017-04-20T08:48:27Z</time>
      </trkpt>
      <trkpt lat="45.0439" lon="6.54563">
        <ele>2080.8</ele>
        <time>2017-04-20T08:48:32Z</time>
      </trkpt>
      <trkpt lat="45.04392" lon="6.54562">
        <ele>2081.6</ele>
        <time>2017-04-20T08:48:37Z</time>
      </trkpt>
      <trkpt lat="45.04394" lon="6.5456">
        <ele>2082.4</ele>
        <time>2017-04-20T08:48:42Z</time>
      </trkpt>
      <trkpt lat="45.04396" lon="6.54559">
        <ele>2082.8</ele>
        <time>2017-04-20T08:48:47Z</time>
      </trkpt>
      <trkpt lat="45.04398" lon="6.54559">
        <ele>2082.2</ele>
        <time>2017-04-20T08:48:52Z</time>
      </trkpt>
      <trkpt lat="45.044" lon="6.54557">
        <ele>2082.8</ele>
        <time>2017-04-20T08:48:57Z</time>
      </trkpt>
      <trkpt lat="45.04401" lon="6.54557">
        <ele>2086.8</ele>
        <time>2017-04-20T08:49:42Z</time>
      </trkpt>
      <trkpt lat="45.04404" lon="6.54556">
        <ele>2089.2</ele>
        <time>2017-04-20T08:49:47Z</time>
      </trkpt>
      <trkpt lat="45.04406" lon="6.54554">
        <ele>2083.8</ele>
        <time>2017-04-20T08:49:52Z</time>
      </trkpt>
      <trkpt lat="45.04407" lon="6.54552">
        <ele>2084.2</ele>
        <time>2017-04-20T08:49:57Z</time>
      </trkpt>
      <trkpt lat="45.0441" lon="6.54552">
        <ele>2081.8</ele>
        <time>2017-04-20T08:50:02Z</time>
      </trkpt>
      <trkpt lat="45.0441" lon="6.54552">
        <ele>2082.4</ele>
        <time>2017-04-20T08:50:07Z</time>
      </trkpt>
      <trkpt lat="45.04412" lon="6.5455">
        <ele>2082</ele>
        <time>2017-04-20T08:50:32Z</time>
      </trkpt>
      <trkpt lat="45.04415" lon="6.54546">
        <ele>2083</ele>
        <time>2017-04-20T08:50:37Z</time>
      </trkpt>
      <trkpt lat="45.04419" lon="6.54543">
        <ele>2084.6</ele>
        <time>2017-04-20T08:50:42Z</time>
      </trkpt>
      <trkpt lat="45.04423" lon="6.54542">
        <ele>2083.2</ele>
        <time>2017-04-20T08:50:47Z</time>
      </trkpt>
      <trkpt lat="45.04427" lon="6.54541">
        <ele>2086</ele>
        <time>2017-04-20T08:50:52Z</time>
      </trkpt>
      <trkpt lat="45.04429" lon="6.5454">
        <ele>2082.6</ele>
        <time>2017-04-20T08:50:57Z</time>
      </trkpt>
      <trkpt lat="45.04432" lon="6.54539">
        <ele>2083.6</ele>
        <time>2017-04-20T08:51:02Z</time>
      </trkpt>
      <trkpt lat="45.04433" lon="6.54537">
        <ele>2081.6</ele>
        <time>2017-04-20T08:51:07Z</time>
      </trkpt>
      <trkpt lat="45.04435" lon="6.54535">
        <ele>2080</ele>
        <time>2017-04-20T08:51:12Z</time>
      </trkpt>
      <trkpt lat="45.04437" lon="6.54531">
        <ele>2082</ele>
        <time>2017-04-20T08:51:17Z</time>
      </trkpt>
      <trkpt lat="45.04439" lon="6.54528">
        <ele>2086.8</ele>
        <time>2017-04-20T08:51:22Z</time>
      </trkpt>
      <trkpt lat="45.04441" lon="6.54525">
        <ele>2086.8</ele>
        <time>2017-04-20T08:51:27Z</time>
      </trkpt>
      <trkpt lat="45.04444" lon="6.54523">
        <ele>2085</ele>
        <time>2017-04-20T08:51:32Z</time>
      </trkpt>
      <trkpt lat="45.04446" lon="6.5452">
        <ele>2087.6</ele>
        <time>2017-04-20T08:51:37Z</time>
      </trkpt>
      <trkpt lat="45.04448" lon="6.54519">
        <ele>2084.8</ele>
        <time>2017-04-20T08:51:42Z</time>
      </trkpt>
      <trkpt lat="45.0445" lon="6.54517">
        <ele>2087.4</ele>
        <time>2017-04-20T08:51:47Z</time>
      </trkpt>
      <trkpt lat="45.04452" lon="6.54515">
        <ele>2088.6</ele>
        <time>2017-04-20T08:51:52Z</time>
      </trkpt>
      <trkpt lat="45.04455" lon="6.54515">
        <ele>2085</ele>
        <time>2017-04-20T08:51:57Z</time>
      </trkpt>
      <trkpt lat="45.04457" lon="6.54513">
        <ele>2089.2</ele>
        <time>2017-04-20T08:52:02Z</time>
      </trkpt>
      <trkpt lat="45.04458" lon="6.5451">
        <ele>2090.6</ele>
        <time>2017-04-20T08:52:07Z</time>
      </trkpt>
      <trkpt lat="45.04461" lon="6.54508">
        <ele>2090.8</ele>
        <time>2017-04-20T08:52:12Z</time>
      </trkpt>
      <trkpt lat="45.04463" lon="6.54506">
        <ele>2091</ele>
        <time>2017-04-20T08:52:17Z</time>
      </trkpt>
      <trkpt lat="45.04465" lon="6.54504">
        <ele>2089.2</ele>
        <time>2017-04-20T08:52:22Z</time>
      </trkpt>
      <trkpt lat="45.04467" lon="6.54502">
        <ele>2091.6</ele>
        <time>2017-04-20T08:52:27Z</time>
      </trkpt>
      <trkpt lat="45.04469" lon="6.54501">
        <ele>2090.6</ele>
        <time>2017-04-20T08:52:32Z</time>
      </trkpt>
      <trkpt lat="45.04472" lon="6.545">
        <ele>2093.4</ele>
        <time>2017-04-20T08:52:37Z</time>
      </trkpt>
      <trkpt lat="45.04474" lon="6.54498">
        <ele>2094</ele>
        <time>2017-04-20T08:52:42Z</time>
      </trkpt>
      <trkpt lat="45.04477" lon="6.54496">
        <ele>2093.8</ele>
        <time>2017-04-20T08:52:48Z</time>
      </trkpt>
      <trkpt lat="45.0448" lon="6.54494">
        <ele>2094.8</ele>
        <time>2017-04-20T08:52:53Z</time>
      </trkpt>
      <trkpt lat="45.04482" lon="6.54493">
        <ele>2096</ele>
        <time>2017-04-20T08:52:58Z</time>
      </trkpt>
      <trkpt lat="45.04484" lon="6.54491">
        <ele>2096.4</ele>
        <time>2017-04-20T08:53:03Z</time>
      </trkpt>
      <trkpt lat="45.04486" lon="6.54489">
        <ele>2098.6</ele>
        <time>2017-04-20T08:53:08Z</time>
      </trkpt>
      <trkpt lat="45.04488" lon="6.54487">
        <ele>2097.4</ele>
        <time>2017-04-20T08:53:13Z</time>
      </trkpt>
      <trkpt lat="45.0449" lon="6.54485">
        <ele>2097.6</ele>
        <time>2017-04-20T08:53:18Z</time>
      </trkpt>
      <trkpt lat="45.04491" lon="6.54483">
        <ele>2096.8</ele>
        <time>2017-04-20T08:53:23Z</time>
      </trkpt>
      <trkpt lat="45.04493" lon="6.54481">
        <ele>2097.4</ele>
        <time>2017-04-20T08:53:28Z</time>
      </trkpt>
      <trkpt lat="45.04495" lon="6.54479">
        <ele>2096.6</ele>
        <time>2017-04-20T08:53:33Z</time>
      </trkpt>
      <trkpt lat="45.04498" lon="6.54477">
        <ele>2098.8</ele>
        <time>2017-04-20T08:53:38Z</time>
      </trkpt>
      <trkpt lat="45.045" lon="6.54475">
        <ele>2099</ele>
        <time>2017-04-20T08:53:43Z</time>
      </trkpt>
      <trkpt lat="45.04503" lon="6.54473">
        <ele>2102</ele>
        <time>2017-04-20T08:53:48Z</time>
      </trkpt>
      <trkpt lat="45.04506" lon="6.54472">
        <ele>2098.6</ele>
        <time>2017-04-20T08:53:53Z</time>
      </trkpt>
      <trkpt lat="45.04509" lon="6.54471">
        <ele>2103.4</ele>
        <time>2017-04-20T08:53:58Z</time>
      </trkpt>
      <trkpt lat="45.04511" lon="6.5447">
        <ele>2104.6</ele>
        <time>2017-04-20T08:54:03Z</time>
      </trkpt>
      <trkpt lat="45.04514" lon="6.5447">
        <ele>2105.6</ele>
        <time>2017-04-20T08:54:08Z</time>
      </trkpt>
      <trkpt lat="45.04516" lon="6.54469">
        <ele>2105.2</ele>
        <time>2017-04-20T08:54:13Z</time>
      </trkpt>
      <trkpt lat="45.04519" lon="6.54468">
        <ele>2108.6</ele>
        <time>2017-04-20T08:54:18Z</time>
      </trkpt>
      <trkpt lat="45.04521" lon="6.54467">
        <ele>2108</ele>
        <time>2017-04-20T08:54:23Z</time>
      </trkpt>
      <trkpt lat="45.04523" lon="6.54467">
        <ele>2104.8</ele>
        <time>2017-04-20T08:54:28Z</time>
      </trkpt>
      <trkpt lat="45.04526" lon="6.54467">
        <ele>2105.8</ele>
        <time>2017-04-20T08:54:33Z</time>
      </trkpt>
      <trkpt lat="45.04528" lon="6.54467">
        <ele>2107.8</ele>
        <time>2017-04-20T08:54:38Z</time>
      </trkpt>
      <trkpt lat="45.04531" lon="6.54467">
        <ele>2105.4</ele>
        <time>2017-04-20T08:54:43Z</time>
      </trkpt>
      <trkpt lat="45.04533" lon="6.54468">
        <ele>2108.4</ele>
        <time>2017-04-20T08:54:48Z</time>
      </trkpt>
      <trkpt lat="45.04535" lon="6.54469">
        <ele>2104.8</ele>
        <time>2017-04-20T08:54:53Z</time>
      </trkpt>
      <trkpt lat="45.04538" lon="6.5447">
        <ele>2108.6</ele>
        <time>2017-04-20T08:54:58Z</time>
      </trkpt>
      <trkpt lat="45.0454" lon="6.5447">
        <ele>2108.4</ele>
        <time>2017-04-20T08:55:03Z</time>
      </trkpt>
      <trkpt lat="45.04543" lon="6.54471">
        <ele>2108.8</ele>
        <time>2017-04-20T08:55:08Z</time>
      </trkpt>
      <trkpt lat="45.04544" lon="6.54471">
        <ele>2111.8</ele>
        <time>2017-04-20T08:55:13Z</time>
      </trkpt>
      <trkpt lat="45.04547" lon="6.54471">
        <ele>2108.4</ele>
        <time>2017-04-20T08:55:18Z</time>
      </trkpt>
      <trkpt lat="45.04549" lon="6.54472">
        <ele>2109</ele>
        <time>2017-04-20T08:55:23Z</time>
      </trkpt>
      <trkpt lat="45.04549" lon="6.54472">
        <ele>2109</ele>
        <time>2017-04-20T08:55:28Z</time>
      </trkpt>
      <trkpt lat="45.0455" lon="6.54471">
        <ele>2107.6</ele>
        <time>2017-04-20T08:55:33Z</time>
      </trkpt>
      <trkpt lat="45.04552" lon="6.54471">
        <ele>2110</ele>
        <time>2017-04-20T08:55:38Z</time>
      </trkpt>
      <trkpt lat="45.04555" lon="6.54471">
        <ele>2109</ele>
        <time>2017-04-20T08:55:43Z</time>
      </trkpt>
      <trkpt lat="45.04557" lon="6.5447">
        <ele>2110.8</ele>
        <time>2017-04-20T08:55:48Z</time>
      </trkpt>
      <trkpt lat="45.0456" lon="6.54469">
        <ele>2108.2</ele>
        <time>2017-04-20T08:55:53Z</time>
      </trkpt>
      <trkpt lat="45.04562" lon="6.54467">
        <ele>2109.8</ele>
        <time>2017-04-20T08:55:58Z</time>
      </trkpt>
      <trkpt lat="45.04565" lon="6.54465">
        <ele>2112.6</ele>
        <time>2017-04-20T08:56:03Z</time>
      </trkpt>
      <trkpt lat="45.04568" lon="6.54464">
        <ele>2110</ele>
        <time>2017-04-20T08:56:08Z</time>
      </trkpt>
      <trkpt lat="45.04571" lon="6.54462">
        <ele>2112.8</ele>
        <time>2017-04-20T08:56:13Z</time>
      </trkpt>
      <trkpt lat="45.04573" lon="6.54459">
        <ele>2112</ele>
        <time>2017-04-20T08:56:18Z</time>
      </trkpt>
      <trkpt lat="45.04573" lon="6.54459">
        <ele>2111.6</ele>
        <time>2017-04-20T08:56:33Z</time>
      </trkpt>
      <trkpt lat="45.04574" lon="6.54459">
        <ele>2111.4</ele>
        <time>2017-04-20T08:56:38Z</time>
      </trkpt>
      <trkpt lat="45.04578" lon="6.54456">
        <ele>2112.2</ele>
        <time>2017-04-20T08:56:43Z</time>
      </trkpt>
      <trkpt lat="45.04581" lon="6.54456">
        <ele>2113.2</ele>
        <time>2017-04-20T08:56:48Z</time>
      </trkpt>
      <trkpt lat="45.04584" lon="6.54456">
        <ele>2111</ele>
        <time>2017-04-20T08:56:53Z</time>
      </trkpt>
      <trkpt lat="45.04587" lon="6.54456">
        <ele>2113.4</ele>
        <time>2017-04-20T08:56:58Z</time>
      </trkpt>
      <trkpt lat="45.0459" lon="6.54454">
        <ele>2114</ele>
        <time>2017-04-20T08:57:03Z</time>
      </trkpt>
      <trkpt lat="45.04592" lon="6.54454">
        <ele>2114.2</ele>
        <time>2017-04-20T08:57:08Z</time>
      </trkpt>
      <trkpt lat="45.04592" lon="6.54454">
        <ele>2114</ele>
        <time>2017-04-20T08:57:13Z</time>
      </trkpt>
      <trkpt lat="45.04592" lon="6.54458">
        <ele>2114.2</ele>
        <time>2017-04-20T08:57:18Z</time>
      </trkpt>
      <trkpt lat="45.04593" lon="6.54461">
        <ele>2116.6</ele>
        <time>2017-04-20T08:57:23Z</time>
      </trkpt>
      <trkpt lat="45.04594" lon="6.54462">
        <ele>2118.6</ele>
        <time>2017-04-20T08:57:28Z</time>
      </trkpt>
      <trkpt lat="45.04594" lon="6.54464">
        <ele>2118</ele>
        <time>2017-04-20T08:57:33Z</time>
      </trkpt>
      <trkpt lat="45.04595" lon="6.54468">
        <ele>2120.2</ele>
        <time>2017-04-20T08:57:38Z</time>
      </trkpt>
      <trkpt lat="45.04598" lon="6.5447">
        <ele>2119.8</ele>
        <time>2017-04-20T08:57:43Z</time>
      </trkpt>
      <trkpt lat="45.04599" lon="6.54469">
        <ele>2121.6</ele>
        <time>2017-04-20T08:57:53Z</time>
      </trkpt>
      <trkpt lat="45.04599" lon="6.54468">
        <ele>2120.8</ele>
        <time>2017-04-20T08:57:58Z</time>
      </trkpt>
      <trkpt lat="45.04599" lon="6.54468">
        <ele>2120.2</ele>
        <time>2017-04-20T08:58:13Z</time>
      </trkpt>
      <trkpt lat="45.04603" lon="6.54469">
        <ele>2120.6</ele>
        <time>2017-04-20T08:58:18Z</time>
      </trkpt>
      <trkpt lat="45.04608" lon="6.54468">
        <ele>2121</ele>
        <time>2017-04-20T08:58:24Z</time>
      </trkpt>
      <trkpt lat="45.04612" lon="6.54466">
        <ele>2120.2</ele>
        <time>2017-04-20T08:58:29Z</time>
      </trkpt>
      <trkpt lat="45.04616" lon="6.54463">
        <ele>2121</ele>
        <time>2017-04-20T08:58:34Z</time>
      </trkpt>
      <trkpt lat="45.0462" lon="6.5446">
        <ele>2121.4</ele>
        <time>2017-04-20T08:58:39Z</time>
      </trkpt>
      <trkpt lat="45.04623" lon="6.54456">
        <ele>2124.6</ele>
        <time>2017-04-20T08:58:44Z</time>
      </trkpt>
      <trkpt lat="45.04624" lon="6.54453">
        <ele>2122.4</ele>
        <time>2017-04-20T08:58:49Z</time>
      </trkpt>
      <trkpt lat="45.04625" lon="6.54453">
        <ele>2122</ele>
        <time>2017-04-20T08:58:54Z</time>
      </trkpt>
      <trkpt lat="45.04628" lon="6.54449">
        <ele>2119.6</ele>
        <time>2017-04-20T08:58:59Z</time>
      </trkpt>
      <trkpt lat="45.04631" lon="6.54445">
        <ele>2119</ele>
        <time>2017-04-20T08:59:04Z</time>
      </trkpt>
      <trkpt lat="45.04632" lon="6.54441">
        <ele>2120</ele>
        <time>2017-04-20T08:59:09Z</time>
      </trkpt>
      <trkpt lat="45.04632" lon="6.54438">
        <ele>2118.6</ele>
        <time>2017-04-20T08:59:14Z</time>
      </trkpt>
      <trkpt lat="45.04632" lon="6.54436">
        <ele>2116.8</ele>
        <time>2017-04-20T08:59:19Z</time>
      </trkpt>
      <trkpt lat="45.04634" lon="6.54435">
        <ele>2119.2</ele>
        <time>2017-04-20T08:59:24Z</time>
      </trkpt>
      <trkpt lat="45.04635" lon="6.54434">
        <ele>2120.6</ele>
        <time>2017-04-20T08:59:29Z</time>
      </trkpt>
      <trkpt lat="45.04638" lon="6.54432">
        <ele>2122.6</ele>
        <time>2017-04-20T08:59:34Z</time>
      </trkpt>
      <trkpt lat="45.04641" lon="6.5443">
        <ele>2122.2</ele>
        <time>2017-04-20T08:59:39Z</time>
      </trkpt>
      <trkpt lat="45.04643" lon="6.54427">
        <ele>2122.6</ele>
        <time>2017-04-20T08:59:44Z</time>
      </trkpt>
      <trkpt lat="45.04646" lon="6.54425">
        <ele>2121.8</ele>
        <time>2017-04-20T08:59:49Z</time>
      </trkpt>
      <trkpt lat="45.04648" lon="6.54423">
        <ele>2121.8</ele>
        <time>2017-04-20T08:59:54Z</time>
      </trkpt>
      <trkpt lat="45.04651" lon="6.54421">
        <ele>2126</ele>
        <time>2017-04-20T08:59:59Z</time>
      </trkpt>
      <trkpt lat="45.04653" lon="6.54418">
        <ele>2126.8</ele>
        <time>2017-04-20T09:00:04Z</time>
      </trkpt>
      <trkpt lat="45.04655" lon="6.54416">
        <ele>2124.8</ele>
        <time>2017-04-20T09:00:09Z</time>
      </trkpt>
      <trkpt lat="45.04658" lon="6.54413">
        <ele>2126.8</ele>
        <time>2017-04-20T09:00:14Z</time>
      </trkpt>
      <trkpt lat="45.04661" lon="6.54409">
        <ele>2124.8</ele>
        <time>2017-04-20T09:00:19Z</time>
      </trkpt>
      <trkpt lat="45.04664" lon="6.54406">
        <ele>2125.2</ele>
        <time>2017-04-20T09:00:24Z</time>
      </trkpt>
      <trkpt lat="45.04665" lon="6.54405">
        <ele>2126.2</ele>
        <time>2017-04-20T09:00:29Z</time>
      </trkpt>
      <trkpt lat="45.04665" lon="6.54404">
        <ele>2125.4</ele>
        <time>2017-04-20T09:01:09Z</time>
      </trkpt>
      <trkpt lat="45.04666" lon="6.54403">
        <ele>2125.6</ele>
        <time>2017-04-20T09:01:19Z</time>
      </trkpt>
      <trkpt lat="45.04666" lon="6.54403">
        <ele>2125.4</ele>
        <time>2017-04-20T09:01:24Z</time>
      </trkpt>
      <trkpt lat="45.0467" lon="6.54401">
        <ele>2125</ele>
        <time>2017-04-20T09:01:29Z</time>
      </trkpt>
      <trkpt lat="45.04674" lon="6.54398">
        <ele>2125.2</ele>
        <time>2017-04-20T09:01:34Z</time>
      </trkpt>
      <trkpt lat="45.04677" lon="6.54396">
        <ele>2122.6</ele>
        <time>2017-04-20T09:01:39Z</time>
      </trkpt>
      <trkpt lat="45.0468" lon="6.54393">
        <ele>2126.2</ele>
        <time>2017-04-20T09:01:44Z</time>
      </trkpt>
      <trkpt lat="45.04684" lon="6.54392">
        <ele>2123</ele>
        <time>2017-04-20T09:01:49Z</time>
      </trkpt>
      <trkpt lat="45.04687" lon="6.5439">
        <ele>2124.8</ele>
        <time>2017-04-20T09:01:54Z</time>
      </trkpt>
      <trkpt lat="45.04688" lon="6.54389">
        <ele>2124</ele>
        <time>2017-04-20T09:01:59Z</time>
      </trkpt>
      <trkpt lat="45.04688" lon="6.54389">
        <ele>2123.8</ele>
        <time>2017-04-20T09:02:19Z</time>
      </trkpt>
      <trkpt lat="45.04692" lon="6.54386">
        <ele>2122.6</ele>
        <time>2017-04-20T09:02:24Z</time>
      </trkpt>
      <trkpt lat="45.04695" lon="6.54384">
        <ele>2124</ele>
        <time>2017-04-20T09:02:29Z</time>
      </trkpt>
      <trkpt lat="45.04699" lon="6.5438">
        <ele>2127.8</ele>
        <time>2017-04-20T09:02:34Z</time>
      </trkpt>
      <trkpt lat="45.04702" lon="6.54378">
        <ele>2125</ele>
        <time>2017-04-20T09:02:39Z</time>
      </trkpt>
      <trkpt lat="45.04703" lon="6.54378">
        <ele>2125.6</ele>
        <time>2017-04-20T09:02:44Z</time>
      </trkpt>
      <trkpt lat="45.04707" lon="6.54376">
        <ele>2124.2</ele>
        <time>2017-04-20T09:02:49Z</time>
      </trkpt>
      <trkpt lat="45.04711" lon="6.54373">
        <ele>2127</ele>
        <time>2017-04-20T09:02:54Z</time>
      </trkpt>
      <trkpt lat="45.04716" lon="6.5437">
        <ele>2125.8</ele>
        <time>2017-04-20T09:03:00Z</time>
      </trkpt>
      <trkpt lat="45.0472" lon="6.54368">
        <ele>2127.6</ele>
        <time>2017-04-20T09:03:05Z</time>
      </trkpt>
      <trkpt lat="45.04724" lon="6.54365">
        <ele>2128.4</ele>
        <time>2017-04-20T09:03:10Z</time>
      </trkpt>
      <trkpt lat="45.04728" lon="6.54362">
        <ele>2129.2</ele>
        <time>2017-04-20T09:03:16Z</time>
      </trkpt>
      <trkpt lat="45.04732" lon="6.5436">
        <ele>2127.6</ele>
        <time>2017-04-20T09:03:21Z</time>
      </trkpt>
      <trkpt lat="45.04735" lon="6.54356">
        <ele>2127</ele>
        <time>2017-04-20T09:03:26Z</time>
      </trkpt>
      <trkpt lat="45.04735" lon="6.54355">
        <ele>2128</ele>
        <time>2017-04-20T09:03:31Z</time>
      </trkpt>
      <trkpt lat="45.04737" lon="6.54353">
        <ele>2128</ele>
        <time>2017-04-20T09:03:36Z</time>
      </trkpt>
      <trkpt lat="45.0474" lon="6.5435">
        <ele>2128.8</ele>
        <time>2017-04-20T09:03:41Z</time>
      </trkpt>
      <trkpt lat="45.04744" lon="6.54348">
        <ele>2131.4</ele>
        <time>2017-04-20T09:03:46Z</time>
      </trkpt>
      <trkpt lat="45.04747" lon="6.54345">
        <ele>2132.2</ele>
        <time>2017-04-20T09:03:51Z</time>
      </trkpt>
      <trkpt lat="45.0475" lon="6.54341">
        <ele>2130.4</ele>
        <time>2017-04-20T09:03:56Z</time>
      </trkpt>
      <trkpt lat="45.04754" lon="6.54336">
        <ele>2129.6</ele>
        <time>2017-04-20T09:04:01Z</time>
      </trkpt>
      <trkpt lat="45.04756" lon="6.54334">
        <ele>2132.2</ele>
        <time>2017-04-20T09:04:06Z</time>
      </trkpt>
      <trkpt lat="45.04759" lon="6.54333">
        <ele>2129</ele>
        <time>2017-04-20T09:04:11Z</time>
      </trkpt>
      <trkpt lat="45.04761" lon="6.54332">
        <ele>2133.6</ele>
        <time>2017-04-20T09:04:16Z</time>
      </trkpt>
      <trkpt lat="45.04763" lon="6.54332">
        <ele>2131.6</ele>
        <time>2017-04-20T09:04:21Z</time>
      </trkpt>
      <trkpt lat="45.04766" lon="6.54332">
        <ele>2130.6</ele>
        <time>2017-04-20T09:04:26Z</time>
      </trkpt>
      <trkpt lat="45.04767" lon="6.54331">
        <ele>2131.6</ele>
        <time>2017-04-20T09:04:31Z</time>
      </trkpt>
      <trkpt lat="45.04768" lon="6.54331">
        <ele>2133.6</ele>
        <time>2017-04-20T09:05:01Z</time>
      </trkpt>
      <trkpt lat="45.0477" lon="6.5433">
        <ele>2130.8</ele>
        <time>2017-04-20T09:05:06Z</time>
      </trkpt>
      <trkpt lat="45.04772" lon="6.54329">
        <ele>2131.2</ele>
        <time>2017-04-20T09:05:11Z</time>
      </trkpt>
      <trkpt lat="45.04774" lon="6.54329">
        <ele>2132.4</ele>
        <time>2017-04-20T09:05:16Z</time>
      </trkpt>
      <trkpt lat="45.04777" lon="6.54328">
        <ele>2133.2</ele>
        <time>2017-04-20T09:05:21Z</time>
      </trkpt>
      <trkpt lat="45.04781" lon="6.5433">
        <ele>2136</ele>
        <time>2017-04-20T09:05:26Z</time>
      </trkpt>
      <trkpt lat="45.04783" lon="6.5433">
        <ele>2135.6</ele>
        <time>2017-04-20T09:05:31Z</time>
      </trkpt>
      <trkpt lat="45.04786" lon="6.54331">
        <ele>2137.2</ele>
        <time>2017-04-20T09:05:36Z</time>
      </trkpt>
      <trkpt lat="45.04788" lon="6.54332">
        <ele>2134.4</ele>
        <time>2017-04-20T09:05:41Z</time>
      </trkpt>
      <trkpt lat="45.04791" lon="6.54332">
        <ele>2137.6</ele>
        <time>2017-04-20T09:05:46Z</time>
      </trkpt>
      <trkpt lat="45.04793" lon="6.54333">
        <ele>2135.8</ele>
        <time>2017-04-20T09:05:51Z</time>
      </trkpt>
      <trkpt lat="45.04795" lon="6.54334">
        <ele>2138.6</ele>
        <time>2017-04-20T09:05:56Z</time>
      </trkpt>
      <trkpt lat="45.04796" lon="6.54334">
        <ele>2138.8</ele>
        <time>2017-04-20T09:06:01Z</time>
      </trkpt>
      <trkpt lat="45.04798" lon="6.54335">
        <ele>2140.2</ele>
        <time>2017-04-20T09:06:06Z</time>
      </trkpt>
      <trkpt lat="45.048" lon="6.54334">
        <ele>2139.6</ele>
        <time>2017-04-20T09:06:11Z</time>
      </trkpt>
      <trkpt lat="45.04802" lon="6.54334">
        <ele>2140.8</ele>
        <time>2017-04-20T09:06:16Z</time>
      </trkpt>
      <trkpt lat="45.04804" lon="6.54333">
        <ele>2141.8</ele>
        <time>2017-04-20T09:06:21Z</time>
      </trkpt>
      <trkpt lat="45.04806" lon="6.54333">
        <ele>2142.2</ele>
        <time>2017-04-20T09:06:26Z</time>
      </trkpt>
      <trkpt lat="45.04808" lon="6.54333">
        <ele>2144.4</ele>
        <time>2017-04-20T09:06:31Z</time>
      </trkpt>
      <trkpt lat="45.04811" lon="6.54332">
        <ele>2141</ele>
        <time>2017-04-20T09:06:36Z</time>
      </trkpt>
      <trkpt lat="45.04813" lon="6.54332">
        <ele>2141.6</ele>
        <time>2017-04-20T09:06:41Z</time>
      </trkpt>
      <trkpt lat="45.04815" lon="6.54331">
        <ele>2141.8</ele>
        <time>2017-04-20T09:06:46Z</time>
      </trkpt>
      <trkpt lat="45.04817" lon="6.5433">
        <ele>2142.8</ele>
        <time>2017-04-20T09:06:51Z</time>
      </trkpt>
      <trkpt lat="45.04819" lon="6.5433">
        <ele>2141.6</ele>
        <time>2017-04-20T09:06:56Z</time>
      </trkpt>
      <trkpt lat="45.04821" lon="6.5433">
        <ele>2144</ele>
        <time>2017-04-20T09:07:01Z</time>
      </trkpt>
      <trkpt lat="45.04823" lon="6.54329">
        <ele>2144.8</ele>
        <time>2017-04-20T09:07:06Z</time>
      </trkpt>
      <trkpt lat="45.04824" lon="6.54328">
        <ele>2145.4</ele>
        <time>2017-04-20T09:07:11Z</time>
      </trkpt>
      <trkpt lat="45.04827" lon="6.54326">
        <ele>2144.6</ele>
        <time>2017-04-20T09:07:16Z</time>
      </trkpt>
      <trkpt lat="45.04829" lon="6.54326">
        <ele>2146.6</ele>
        <time>2017-04-20T09:07:21Z</time>
      </trkpt>
      <trkpt lat="45.04829" lon="6.54322">
        <ele>2149.2</ele>
        <time>2017-04-20T09:07:26Z</time>
      </trkpt>
      <trkpt lat="45.0483" lon="6.5432">
        <ele>2150</ele>
        <time>2017-04-20T09:07:31Z</time>
      </trkpt>
      <trkpt lat="45.04831" lon="6.54319">
        <ele>2150</ele>
        <time>2017-04-20T09:07:41Z</time>
      </trkpt>
      <trkpt lat="45.04833" lon="6.54317">
        <ele>2150.4</ele>
        <time>2017-04-20T09:07:46Z</time>
      </trkpt>
      <trkpt lat="45.04835" lon="6.54314">
        <ele>2149.8</ele>
        <time>2017-04-20T09:07:51Z</time>
      </trkpt>
      <trkpt lat="45.04836" lon="6.54319">
        <ele>2150.2</ele>
        <time>2017-04-20T09:07:56Z</time>
      </trkpt>
      <trkpt lat="45.04838" lon="6.5432">
        <ele>2152</ele>
        <time>2017-04-20T09:08:01Z</time>
      </trkpt>
      <trkpt lat="45.0484" lon="6.54318">
        <ele>2152.6</ele>
        <time>2017-04-20T09:08:06Z</time>
      </trkpt>
      <trkpt lat="45.04841" lon="6.54316">
        <ele>2151</ele>
        <time>2017-04-20T09:08:11Z</time>
      </trkpt>
      <trkpt lat="45.04842" lon="6.54314">
        <ele>2148.8</ele>
        <time>2017-04-20T09:08:16Z</time>
      </trkpt>
      <trkpt lat="45.04842" lon="6.54311">
        <ele>2151.6</ele>
        <time>2017-04-20T09:08:21Z</time>
      </trkpt>
      <trkpt lat="45.04843" lon="6.54309">
        <ele>2152.8</ele>
        <time>2017-04-20T09:08:26Z</time>
      </trkpt>
      <trkpt lat="45.04844" lon="6.54307">
        <ele>2152.6</ele>
        <time>2017-04-20T09:08:31Z</time>
      </trkpt>
      <trkpt lat="45.04845" lon="6.54305">
        <ele>2153.4</ele>
        <time>2017-04-20T09:08:36Z</time>
      </trkpt>
      <trkpt lat="45.04846" lon="6.54303">
        <ele>2155</ele>
        <time>2017-04-20T09:08:41Z</time>
      </trkpt>
      <trkpt lat="45.04847" lon="6.54301">
        <ele>2154.2</ele>
        <time>2017-04-20T09:08:46Z</time>
      </trkpt>
      <trkpt lat="45.04849" lon="6.543">
        <ele>2157.6</ele>
        <time>2017-04-20T09:08:51Z</time>
      </trkpt>
      <trkpt lat="45.0485" lon="6.54298">
        <ele>2158.2</ele>
        <time>2017-04-20T09:08:56Z</time>
      </trkpt>
      <trkpt lat="45.04852" lon="6.54296">
        <ele>2157.2</ele>
        <time>2017-04-20T09:09:01Z</time>
      </trkpt>
      <trkpt lat="45.04853" lon="6.54295">
        <ele>2159.4</ele>
        <time>2017-04-20T09:09:06Z</time>
      </trkpt>
      <trkpt lat="45.04856" lon="6.54296">
        <ele>2157.6</ele>
        <time>2017-04-20T09:09:11Z</time>
      </trkpt>
      <trkpt lat="45.04857" lon="6.54294">
        <ele>2158.4</ele>
        <time>2017-04-20T09:09:16Z</time>
      </trkpt>
      <trkpt lat="45.04859" lon="6.54292">
        <ele>2159.2</ele>
        <time>2017-04-20T09:09:21Z</time>
      </trkpt>
      <trkpt lat="45.04861" lon="6.5429">
        <ele>2163.4</ele>
        <time>2017-04-20T09:09:26Z</time>
      </trkpt>
      <trkpt lat="45.04862" lon="6.54287">
        <ele>2163.2</ele>
        <time>2017-04-20T09:09:31Z</time>
      </trkpt>
      <trkpt lat="45.04863" lon="6.54285">
        <ele>2162.8</ele>
        <time>2017-04-20T09:12:31Z</time>
      </trkpt>
      <trkpt lat="45.04864" lon="6.54287">
        <ele>2166.4</ele>
        <time>2017-04-20T09:14:47Z</time>
      </trkpt>
      <trkpt lat="45.04865" lon="6.54289">
        <ele>2163.4</ele>
        <time>2017-04-20T09:14:52Z</time>
      </trkpt>
      <trkpt lat="45.04866" lon="6.54289">
        <ele>2164</ele>
        <time>2017-04-20T09:15:12Z</time>
      </trkpt>
      <trkpt lat="45.04867" lon="6.54292">
        <ele>2163</ele>
        <time>2017-04-20T09:15:17Z</time>
      </trkpt>
      <trkpt lat="45.04868" lon="6.54295">
        <ele>2165.2</ele>
        <time>2017-04-20T09:15:22Z</time>
      </trkpt>
      <trkpt lat="45.04869" lon="6.54298">
        <ele>2167.6</ele>
        <time>2017-04-20T09:15:27Z</time>
      </trkpt>
      <trkpt lat="45.0487" lon="6.54302">
        <ele>2166.4</ele>
        <time>2017-04-20T09:15:32Z</time>
      </trkpt>
      <trkpt lat="45.04871" lon="6.54305">
        <ele>2167.4</ele>
        <time>2017-04-20T09:15:37Z</time>
      </trkpt>
      <trkpt lat="45.04872" lon="6.54308">
        <ele>2167.6</ele>
        <time>2017-04-20T09:15:42Z</time>
      </trkpt>
      <trkpt lat="45.04873" lon="6.54311">
        <ele>2165.8</ele>
        <time>2017-04-20T09:15:47Z</time>
      </trkpt>
      <trkpt lat="45.04873" lon="6.54314">
        <ele>2166.6</ele>
        <time>2017-04-20T09:15:52Z</time>
      </trkpt>
      <trkpt lat="45.04874" lon="6.54317">
        <ele>2167</ele>
        <time>2017-04-20T09:15:57Z</time>
      </trkpt>
      <trkpt lat="45.04874" lon="6.54321">
        <ele>2170.6</ele>
        <time>2017-04-20T09:16:02Z</time>
      </trkpt>
      <trkpt lat="45.04875" lon="6.54323">
        <ele>2170.6</ele>
        <time>2017-04-20T09:16:07Z</time>
      </trkpt>
      <trkpt lat="45.04875" lon="6.54327">
        <ele>2170.8</ele>
        <time>2017-04-20T09:16:12Z</time>
      </trkpt>
      <trkpt lat="45.04875" lon="6.5433">
        <ele>2171.2</ele>
        <time>2017-04-20T09:16:17Z</time>
      </trkpt>
      <trkpt lat="45.04876" lon="6.54333">
        <ele>2172.2</ele>
        <time>2017-04-20T09:16:22Z</time>
      </trkpt>
      <trkpt lat="45.04876" lon="6.54336">
        <ele>2173</ele>
        <time>2017-04-20T09:16:27Z</time>
      </trkpt>
      <trkpt lat="45.04876" lon="6.5434">
        <ele>2173</ele>
        <time>2017-04-20T09:16:32Z</time>
      </trkpt>
      <trkpt lat="45.04876" lon="6.54343">
        <ele>2172</ele>
        <time>2017-04-20T09:16:37Z</time>
      </trkpt>
      <trkpt lat="45.04876" lon="6.54346">
        <ele>2176.2</ele>
        <time>2017-04-20T09:16:42Z</time>
      </trkpt>
      <trkpt lat="45.04876" lon="6.54349">
        <ele>2177.6</ele>
        <time>2017-04-20T09:16:47Z</time>
      </trkpt>
      <trkpt lat="45.04877" lon="6.54352">
        <ele>2176.8</ele>
        <time>2017-04-20T09:16:52Z</time>
      </trkpt>
      <trkpt lat="45.04877" lon="6.54355">
        <ele>2178.6</ele>
        <time>2017-04-20T09:16:57Z</time>
      </trkpt>
      <trkpt lat="45.04877" lon="6.54359">
        <ele>2178.4</ele>
        <time>2017-04-20T09:17:02Z</time>
      </trkpt>
      <trkpt lat="45.04878" lon="6.54362">
        <ele>2179.2</ele>
        <time>2017-04-20T09:17:07Z</time>
      </trkpt>
      <trkpt lat="45.04878" lon="6.54365">
        <ele>2180.6</ele>
        <time>2017-04-20T09:17:12Z</time>
      </trkpt>
      <trkpt lat="45.04878" lon="6.54368">
        <ele>2184.2</ele>
        <time>2017-04-20T09:17:17Z</time>
      </trkpt>
      <trkpt lat="45.04878" lon="6.54371">
        <ele>2181.6</ele>
        <time>2017-04-20T09:17:22Z</time>
      </trkpt>
      <trkpt lat="45.04878" lon="6.54375">
        <ele>2181.8</ele>
        <time>2017-04-20T09:17:27Z</time>
      </trkpt>
      <trkpt lat="45.04878" lon="6.54379">
        <ele>2183.6</ele>
        <time>2017-04-20T09:17:32Z</time>
      </trkpt>
      <trkpt lat="45.04878" lon="6.54383">
        <ele>2183.2</ele>
        <time>2017-04-20T09:17:37Z</time>
      </trkpt>
      <trkpt lat="45.04878" lon="6.54386">
        <ele>2182.2</ele>
        <time>2017-04-20T09:17:42Z</time>
      </trkpt>
      <trkpt lat="45.04879" lon="6.54385">
        <ele>2182.8</ele>
        <time>2017-04-20T09:17:47Z</time>
      </trkpt>
      <trkpt lat="45.04881" lon="6.54383">
        <ele>2185.6</ele>
        <time>2017-04-20T09:17:52Z</time>
      </trkpt>
      <trkpt lat="45.04883" lon="6.54381">
        <ele>2183.8</ele>
        <time>2017-04-20T09:17:57Z</time>
      </trkpt>
      <trkpt lat="45.04885" lon="6.54379">
        <ele>2184</ele>
        <time>2017-04-20T09:18:02Z</time>
      </trkpt>
      <trkpt lat="45.04886" lon="6.54377">
        <ele>2187</ele>
        <time>2017-04-20T09:18:07Z</time>
      </trkpt>
      <trkpt lat="45.04888" lon="6.54375">
        <ele>2187.8</ele>
        <time>2017-04-20T09:18:12Z</time>
      </trkpt>
      <trkpt lat="45.04888" lon="6.54374">
        <ele>2187.4</ele>
        <time>2017-04-20T09:18:18Z</time>
      </trkpt>
      <trkpt lat="45.0489" lon="6.54372">
        <ele>2187.6</ele>
        <time>2017-04-20T09:18:23Z</time>
      </trkpt>
      <trkpt lat="45.04891" lon="6.5437">
        <ele>2187.2</ele>
        <time>2017-04-20T09:18:28Z</time>
      </trkpt>
      <trkpt lat="45.04893" lon="6.54368">
        <ele>2190</ele>
        <time>2017-04-20T09:18:33Z</time>
      </trkpt>
      <trkpt lat="45.04893" lon="6.5437">
        <ele>2187.6</ele>
        <time>2017-04-20T09:18:43Z</time>
      </trkpt>
      <trkpt lat="45.04893" lon="6.5437">
        <ele>2187.6</ele>
        <time>2017-04-20T09:18:48Z</time>
      </trkpt>
      <trkpt lat="45.04893" lon="6.54371">
        <ele>2190.4</ele>
        <time>2017-04-20T09:18:53Z</time>
      </trkpt>
      <trkpt lat="45.04893" lon="6.54371">
        <ele>2188.4</ele>
        <time>2017-04-20T09:19:13Z</time>
      </trkpt>
      <trkpt lat="45.04894" lon="6.54375">
        <ele>2187</ele>
        <time>2017-04-20T09:19:18Z</time>
      </trkpt>
      <trkpt lat="45.04895" lon="6.54379">
        <ele>2191.2</ele>
        <time>2017-04-20T09:19:23Z</time>
      </trkpt>
      <trkpt lat="45.04896" lon="6.54383">
        <ele>2189.8</ele>
        <time>2017-04-20T09:19:28Z</time>
      </trkpt>
      <trkpt lat="45.04896" lon="6.54387">
        <ele>2190.8</ele>
        <time>2017-04-20T09:19:33Z</time>
      </trkpt>
      <trkpt lat="45.04897" lon="6.54391">
        <ele>2193.2</ele>
        <time>2017-04-20T09:19:38Z</time>
      </trkpt>
      <trkpt lat="45.04898" lon="6.54392">
        <ele>2194</ele>
        <time>2017-04-20T09:19:43Z</time>
      </trkpt>
      <trkpt lat="45.04899" lon="6.5439">
        <ele>2194.2</ele>
        <time>2017-04-20T09:19:48Z</time>
      </trkpt>
      <trkpt lat="45.04901" lon="6.54388">
        <ele>2195</ele>
        <time>2017-04-20T09:19:53Z</time>
      </trkpt>
      <trkpt lat="45.04903" lon="6.54387">
        <ele>2194.4</ele>
        <time>2017-04-20T09:19:58Z</time>
      </trkpt>
      <trkpt lat="45.04906" lon="6.54385">
        <ele>2196.2</ele>
        <time>2017-04-20T09:20:03Z</time>
      </trkpt>
      <trkpt lat="45.04908" lon="6.54382">
        <ele>2198.6</ele>
        <time>2017-04-20T09:20:08Z</time>
      </trkpt>
      <trkpt lat="45.0491" lon="6.54381">
        <ele>2197</ele>
        <time>2017-04-20T09:20:13Z</time>
      </trkpt>
      <trkpt lat="45.04912" lon="6.54383">
        <ele>2198.6</ele>
        <time>2017-04-20T09:20:18Z</time>
      </trkpt>
      <trkpt lat="45.04914" lon="6.54386">
        <ele>2196.6</ele>
        <time>2017-04-20T09:20:23Z</time>
      </trkpt>
      <trkpt lat="45.04916" lon="6.5439">
        <ele>2198.6</ele>
        <time>2017-04-20T09:20:28Z</time>
      </trkpt>
      <trkpt lat="45.04917" lon="6.54393">
        <ele>2199.8</ele>
        <time>2017-04-20T09:20:33Z</time>
      </trkpt>
      <trkpt lat="45.04919" lon="6.54394">
        <ele>2199</ele>
        <time>2017-04-20T09:20:38Z</time>
      </trkpt>
      <trkpt lat="45.04922" lon="6.54394">
        <ele>2201</ele>
        <time>2017-04-20T09:20:43Z</time>
      </trkpt>
      <trkpt lat="45.04925" lon="6.54394">
        <ele>2200.2</ele>
        <time>2017-04-20T09:20:48Z</time>
      </trkpt>
      <trkpt lat="45.04928" lon="6.54393">
        <ele>2200</ele>
        <time>2017-04-20T09:20:53Z</time>
      </trkpt>
      <trkpt lat="45.0493" lon="6.54393">
        <ele>2201.6</ele>
        <time>2017-04-20T09:20:58Z</time>
      </trkpt>
      <trkpt lat="45.04931" lon="6.54392">
        <ele>2200.6</ele>
        <time>2017-04-20T09:21:03Z</time>
      </trkpt>
      <trkpt lat="45.04934" lon="6.54391">
        <ele>2203.2</ele>
        <time>2017-04-20T09:21:08Z</time>
      </trkpt>
      <trkpt lat="45.04938" lon="6.54392">
        <ele>2202.6</ele>
        <time>2017-04-20T09:21:13Z</time>
      </trkpt>
      <trkpt lat="45.04941" lon="6.54392">
        <ele>2206.2</ele>
        <time>2017-04-20T09:21:18Z</time>
      </trkpt>
      <trkpt lat="45.04944" lon="6.54391">
        <ele>2205.2</ele>
        <time>2017-04-20T09:21:23Z</time>
      </trkpt>
      <trkpt lat="45.04947" lon="6.5439">
        <ele>2207.2</ele>
        <time>2017-04-20T09:21:28Z</time>
      </trkpt>
      <trkpt lat="45.0495" lon="6.5439">
        <ele>2206.2</ele>
        <time>2017-04-20T09:21:33Z</time>
      </trkpt>
      <trkpt lat="45.04953" lon="6.54391">
        <ele>2208</ele>
        <time>2017-04-20T09:21:38Z</time>
      </trkpt>
      <trkpt lat="45.04954" lon="6.54393">
        <ele>2206</ele>
        <time>2017-04-20T09:21:43Z</time>
      </trkpt>
      <trkpt lat="45.04955" lon="6.54397">
        <ele>2209.8</ele>
        <time>2017-04-20T09:21:48Z</time>
      </trkpt>
      <trkpt lat="45.04956" lon="6.544">
        <ele>2209.8</ele>
        <time>2017-04-20T09:21:53Z</time>
      </trkpt>
      <trkpt lat="45.04958" lon="6.54404">
        <ele>2208</ele>
        <time>2017-04-20T09:21:58Z</time>
      </trkpt>
      <trkpt lat="45.04959" lon="6.54407">
        <ele>2208.6</ele>
        <time>2017-04-20T09:22:03Z</time>
      </trkpt>
      <trkpt lat="45.04959" lon="6.54411">
        <ele>2208.6</ele>
        <time>2017-04-20T09:22:08Z</time>
      </trkpt>
      <trkpt lat="45.04959" lon="6.54414">
        <ele>2209</ele>
        <time>2017-04-20T09:22:13Z</time>
      </trkpt>
      <trkpt lat="45.04961" lon="6.54417">
        <ele>2211.6</ele>
        <time>2017-04-20T09:22:18Z</time>
      </trkpt>
      <trkpt lat="45.04964" lon="6.54418">
        <ele>2212.6</ele>
        <time>2017-04-20T09:22:23Z</time>
      </trkpt>
      <trkpt lat="45.04967" lon="6.54418">
        <ele>2213.8</ele>
        <time>2017-04-20T09:22:28Z</time>
      </trkpt>
      <trkpt lat="45.0497" lon="6.54418">
        <ele>2213.8</ele>
        <time>2017-04-20T09:22:33Z</time>
      </trkpt>
      <trkpt lat="45.04972" lon="6.54419">
        <ele>2212.8</ele>
        <time>2017-04-20T09:22:38Z</time>
      </trkpt>
      <trkpt lat="45.04975" lon="6.54421">
        <ele>2212.4</ele>
        <time>2017-04-20T09:22:43Z</time>
      </trkpt>
      <trkpt lat="45.04977" lon="6.54423">
        <ele>2212.2</ele>
        <time>2017-04-20T09:22:48Z</time>
      </trkpt>
      <trkpt lat="45.04981" lon="6.54425">
        <ele>2216.4</ele>
        <time>2017-04-20T09:22:54Z</time>
      </trkpt>
      <trkpt lat="45.04984" lon="6.54425">
        <ele>2215.4</ele>
        <time>2017-04-20T09:22:59Z</time>
      </trkpt>
      <trkpt lat="45.04986" lon="6.54426">
        <ele>2217.2</ele>
        <time>2017-04-20T09:23:04Z</time>
      </trkpt>
      <trkpt lat="45.04988" lon="6.54426">
        <ele>2215</ele>
        <time>2017-04-20T09:23:09Z</time>
      </trkpt>
      <trkpt lat="45.04988" lon="6.54426">
        <ele>2219.4</ele>
        <time>2017-04-20T09:23:54Z</time>
      </trkpt>
      <trkpt lat="45.04987" lon="6.5443">
        <ele>2218</ele>
        <time>2017-04-20T09:23:59Z</time>
      </trkpt>
      <trkpt lat="45.04984" lon="6.54434">
        <ele>2219.8</ele>
        <time>2017-04-20T09:24:04Z</time>
      </trkpt>
      <trkpt lat="45.04982" lon="6.54438">
        <ele>2216.8</ele>
        <time>2017-04-20T09:24:09Z</time>
      </trkpt>
      <trkpt lat="45.04983" lon="6.54441">
        <ele>2221.6</ele>
        <time>2017-04-20T09:24:14Z</time>
      </trkpt>
      <trkpt lat="45.04985" lon="6.54442">
        <ele>2221</ele>
        <time>2017-04-20T09:24:19Z</time>
      </trkpt>
      <trkpt lat="45.04985" lon="6.54444">
        <ele>2220</ele>
        <time>2017-04-20T09:24:24Z</time>
      </trkpt>
      <trkpt lat="45.04985" lon="6.54447">
        <ele>2221</ele>
        <time>2017-04-20T09:24:29Z</time>
      </trkpt>
      <trkpt lat="45.04985" lon="6.5445">
        <ele>2221.8</ele>
        <time>2017-04-20T09:24:34Z</time>
      </trkpt>
      <trkpt lat="45.04987" lon="6.54451">
        <ele>2225</ele>
        <time>2017-04-20T09:24:39Z</time>
      </trkpt>
      <trkpt lat="45.0499" lon="6.54451">
        <ele>2224.4</ele>
        <time>2017-04-20T09:24:44Z</time>
      </trkpt>
      <trkpt lat="45.0499" lon="6.54451">
        <ele>2223.2</ele>
        <time>2017-04-20T09:25:09Z</time>
      </trkpt>
      <trkpt lat="45.0499" lon="6.54449">
        <ele>2222.4</ele>
        <time>2017-04-20T09:25:39Z</time>
      </trkpt>
      <trkpt lat="45.04989" lon="6.54445">
        <ele>2220.4</ele>
        <time>2017-04-20T09:25:44Z</time>
      </trkpt>
      <trkpt lat="45.04991" lon="6.54441">
        <ele>2222.2</ele>
        <time>2017-04-20T09:25:49Z</time>
      </trkpt>
      <trkpt lat="45.04991" lon="6.5444">
        <ele>2221.4</ele>
        <time>2017-04-20T09:25:54Z</time>
      </trkpt>
      <trkpt lat="45.04992" lon="6.54434">
        <ele>2216.6</ele>
        <time>2017-04-20T09:25:59Z</time>
      </trkpt>
      <trkpt lat="45.04994" lon="6.54428">
        <ele>2217.4</ele>
        <time>2017-04-20T09:26:04Z</time>
      </trkpt>
      <trkpt lat="45.04999" lon="6.54426">
        <ele>2217</ele>
        <time>2017-04-20T09:26:09Z</time>
      </trkpt>
      <trkpt lat="45.05002" lon="6.54421">
        <ele>2218.6</ele>
        <time>2017-04-20T09:26:14Z</time>
      </trkpt>
      <trkpt lat="45.05007" lon="6.54416">
        <ele>2219.2</ele>
        <time>2017-04-20T09:26:19Z</time>
      </trkpt>
      <trkpt lat="45.0501" lon="6.54411">
        <ele>2217.2</ele>
        <time>2017-04-20T09:26:24Z</time>
      </trkpt>
      <trkpt lat="45.05011" lon="6.5441">
        <ele>2216.4</ele>
        <time>2017-04-20T09:26:29Z</time>
      </trkpt>
      <trkpt lat="45.05011" lon="6.54409">
        <ele>2217.4</ele>
        <time>2017-04-20T09:26:44Z</time>
      </trkpt>
      <trkpt lat="45.05012" lon="6.54409">
        <ele>2218.8</ele>
        <time>2017-04-20T09:27:15Z</time>
      </trkpt>
      <trkpt lat="45.05015" lon="6.54406">
        <ele>2216.8</ele>
        <time>2017-04-20T09:27:20Z</time>
      </trkpt>
      <trkpt lat="45.0502" lon="6.544">
        <ele>2217.6</ele>
        <time>2017-04-20T09:27:25Z</time>
      </trkpt>
      <trkpt lat="45.05025" lon="6.54394">
        <ele>2218</ele>
        <time>2017-04-20T09:27:30Z</time>
      </trkpt>
      <trkpt lat="45.05029" lon="6.54388">
        <ele>2216</ele>
        <time>2017-04-20T09:27:35Z</time>
      </trkpt>
      <trkpt lat="45.05033" lon="6.54384">
        <ele>2215.6</ele>
        <time>2017-04-20T09:27:40Z</time>
      </trkpt>
      <trkpt lat="45.05036" lon="6.5438">
        <ele>2213.4</ele>
        <time>2017-04-20T09:27:45Z</time>
      </trkpt>
      <trkpt lat="45.0504" lon="6.54375">
        <ele>2214.8</ele>
        <time>2017-04-20T09:27:50Z</time>
      </trkpt>
      <trkpt lat="45.05044" lon="6.54369">
        <ele>2211.8</ele>
        <time>2017-04-20T09:27:55Z</time>
      </trkpt>
      <trkpt lat="45.05049" lon="6.54363">
        <ele>2211</ele>
        <time>2017-04-20T09:28:00Z</time>
      </trkpt>
      <trkpt lat="45.05052" lon="6.54357">
        <ele>2212</ele>
        <time>2017-04-20T09:28:05Z</time>
      </trkpt>
      <trkpt lat="45.05058" lon="6.54352">
        <ele>2211.4</ele>
        <time>2017-04-20T09:28:11Z</time>
      </trkpt>
      <trkpt lat="45.05062" lon="6.54349">
        <ele>2210.8</ele>
        <time>2017-04-20T09:28:16Z</time>
      </trkpt>
      <trkpt lat="45.05067" lon="6.54347">
        <ele>2211.4</ele>
        <time>2017-04-20T09:28:21Z</time>
      </trkpt>
      <trkpt lat="45.05071" lon="6.54345">
        <ele>2213</ele>
        <time>2017-04-20T09:28:26Z</time>
      </trkpt>
      <trkpt lat="45.05075" lon="6.54343">
        <ele>2210.8</ele>
        <time>2017-04-20T09:28:31Z</time>
      </trkpt>
      <trkpt lat="45.05079" lon="6.54339">
        <ele>2212.4</ele>
        <time>2017-04-20T09:28:36Z</time>
      </trkpt>
      <trkpt lat="45.05083" lon="6.54335">
        <ele>2211.4</ele>
        <time>2017-04-20T09:28:41Z</time>
      </trkpt>
      <trkpt lat="45.05087" lon="6.5433">
        <ele>2210.2</ele>
        <time>2017-04-20T09:28:46Z</time>
      </trkpt>
      <trkpt lat="45.05091" lon="6.54327">
        <ele>2215</ele>
        <time>2017-04-20T09:28:51Z</time>
      </trkpt>
      <trkpt lat="45.05093" lon="6.54326">
        <ele>2215.2</ele>
        <time>2017-04-20T09:28:56Z</time>
      </trkpt>
      <trkpt lat="45.05097" lon="6.54326">
        <ele>2216.4</ele>
        <time>2017-04-20T09:29:01Z</time>
      </trkpt>
      <trkpt lat="45.05102" lon="6.54327">
        <ele>2214.6</ele>
        <time>2017-04-20T09:29:06Z</time>
      </trkpt>
      <trkpt lat="45.05106" lon="6.54326">
        <ele>2213.2</ele>
        <time>2017-04-20T09:29:11Z</time>
      </trkpt>
      <trkpt lat="45.0511" lon="6.54328">
        <ele>2216.8</ele>
        <time>2017-04-20T09:29:16Z</time>
      </trkpt>
      <trkpt lat="45.05113" lon="6.54331">
        <ele>2217.6</ele>
        <time>2017-04-20T09:29:21Z</time>
      </trkpt>
      <trkpt lat="45.05117" lon="6.54329">
        <ele>2218.2</ele>
        <time>2017-04-20T09:29:26Z</time>
      </trkpt>
      <trkpt lat="45.05121" lon="6.54327">
        <ele>2216</ele>
        <time>2017-04-20T09:29:31Z</time>
      </trkpt>
      <trkpt lat="45.05126" lon="6.54323">
        <ele>2218.2</ele>
        <time>2017-04-20T09:29:36Z</time>
      </trkpt>
      <trkpt lat="45.0513" lon="6.54319">
        <ele>2217.8</ele>
        <time>2017-04-20T09:29:41Z</time>
      </trkpt>
      <trkpt lat="45.05134" lon="6.54314">
        <ele>2216.4</ele>
        <time>2017-04-20T09:29:46Z</time>
      </trkpt>
      <trkpt lat="45.05135" lon="6.54312">
        <ele>2215.8</ele>
        <time>2017-04-20T09:29:51Z</time>
      </trkpt>
      <trkpt lat="45.05135" lon="6.54312">
        <ele>2216</ele>
        <time>2017-04-20T09:30:16Z</time>
      </trkpt>
      <trkpt lat="45.05136" lon="6.54307">
        <ele>2214.4</ele>
        <time>2017-04-20T09:30:31Z</time>
      </trkpt>
      <trkpt lat="45.05134" lon="6.54302">
        <ele>2215.6</ele>
        <time>2017-04-20T09:30:36Z</time>
      </trkpt>
      <trkpt lat="45.05134" lon="6.54297">
        <ele>2216.8</ele>
        <time>2017-04-20T09:30:41Z</time>
      </trkpt>
      <trkpt lat="45.05137" lon="6.54292">
        <ele>2217.6</ele>
        <time>2017-04-20T09:30:46Z</time>
      </trkpt>
      <trkpt lat="45.05142" lon="6.5429">
        <ele>2215.2</ele>
        <time>2017-04-20T09:30:51Z</time>
      </trkpt>
      <trkpt lat="45.05148" lon="6.54284">
        <ele>2216.6</ele>
        <time>2017-04-20T09:30:56Z</time>
      </trkpt>
      <trkpt lat="45.05151" lon="6.54275">
        <ele>2217.4</ele>
        <time>2017-04-20T09:31:06Z</time>
      </trkpt>
      <trkpt lat="45.05151" lon="6.54274">
        <ele>2214.2</ele>
        <time>2017-04-20T09:31:16Z</time>
      </trkpt>
      <trkpt lat="45.05151" lon="6.54274">
        <ele>2216.2</ele>
        <time>2017-04-20T09:32:31Z</time>
      </trkpt>
      <trkpt lat="45.05154" lon="6.54271">
        <ele>2217.8</ele>
        <time>2017-04-20T09:32:36Z</time>
      </trkpt>
      <trkpt lat="45.0516" lon="6.54267">
        <ele>2216.8</ele>
        <time>2017-04-20T09:32:41Z</time>
      </trkpt>
      <trkpt lat="45.05166" lon="6.54264">
        <ele>2217.6</ele>
        <time>2017-04-20T09:32:46Z</time>
      </trkpt>
      <trkpt lat="45.05173" lon="6.54259">
        <ele>2214.8</ele>
        <time>2017-04-20T09:32:51Z</time>
      </trkpt>
      <trkpt lat="45.05179" lon="6.54254">
        <ele>2213</ele>
        <time>2017-04-20T09:32:56Z</time>
      </trkpt>
      <trkpt lat="45.05181" lon="6.54251">
        <ele>2212.6</ele>
        <time>2017-04-20T09:33:01Z</time>
      </trkpt>
      <trkpt lat="45.05182" lon="6.54247">
        <ele>2216.4</ele>
        <time>2017-04-20T09:33:06Z</time>
      </trkpt>
      <trkpt lat="45.05183" lon="6.54246">
        <ele>2213.8</ele>
        <time>2017-04-20T09:33:11Z</time>
      </trkpt>
      <trkpt lat="45.05185" lon="6.54238">
        <ele>2208.8</ele>
        <time>2017-04-20T09:33:16Z</time>
      </trkpt>
      <trkpt lat="45.05189" lon="6.54227">
        <ele>2207.4</ele>
        <time>2017-04-20T09:33:21Z</time>
      </trkpt>
      <trkpt lat="45.05189" lon="6.54227">
        <ele>2209</ele>
        <time>2017-04-20T09:33:31Z</time>
      </trkpt>
      <trkpt lat="45.05194" lon="6.54222">
        <ele>2208</ele>
        <time>2017-04-20T09:33:36Z</time>
      </trkpt>
      <trkpt lat="45.05198" lon="6.54219">
        <ele>2208.8</ele>
        <time>2017-04-20T09:33:41Z</time>
      </trkpt>
      <trkpt lat="45.05202" lon="6.54216">
        <ele>2208.2</ele>
        <time>2017-04-20T09:33:46Z</time>
      </trkpt>
      <trkpt lat="45.05207" lon="6.54214">
        <ele>2211</ele>
        <time>2017-04-20T09:33:51Z</time>
      </trkpt>
      <trkpt lat="45.05211" lon="6.54212">
        <ele>2208.6</ele>
        <time>2017-04-20T09:33:56Z</time>
      </trkpt>
      <trkpt lat="45.05214" lon="6.54211">
        <ele>2208.6</ele>
        <time>2017-04-20T09:34:01Z</time>
      </trkpt>
      <trkpt lat="45.05217" lon="6.54211">
        <ele>2209.6</ele>
        <time>2017-04-20T09:34:06Z</time>
      </trkpt>
      <trkpt lat="45.05221" lon="6.54211">
        <ele>2210.8</ele>
        <time>2017-04-20T09:34:11Z</time>
      </trkpt>
      <trkpt lat="45.05224" lon="6.54209">
        <ele>2213.2</ele>
        <time>2017-04-20T09:34:16Z</time>
      </trkpt>
      <trkpt lat="45.05227" lon="6.54208">
        <ele>2211.2</ele>
        <time>2017-04-20T09:34:21Z</time>
      </trkpt>
      <trkpt lat="45.0523" lon="6.54207">
        <ele>2211.6</ele>
        <time>2017-04-20T09:34:26Z</time>
      </trkpt>
      <trkpt lat="45.05233" lon="6.54205">
        <ele>2209.8</ele>
        <time>2017-04-20T09:34:31Z</time>
      </trkpt>
      <trkpt lat="45.05235" lon="6.54203">
        <ele>2211</ele>
        <time>2017-04-20T09:34:36Z</time>
      </trkpt>
      <trkpt lat="45.05238" lon="6.54202">
        <ele>2211</ele>
        <time>2017-04-20T09:34:41Z</time>
      </trkpt>
      <trkpt lat="45.0524" lon="6.542">
        <ele>2212</ele>
        <time>2017-04-20T09:34:46Z</time>
      </trkpt>
      <trkpt lat="45.05241" lon="6.54199">
        <ele>2213.2</ele>
        <time>2017-04-20T09:34:51Z</time>
      </trkpt>
      <trkpt lat="45.05244" lon="6.54197">
        <ele>2215.2</ele>
        <time>2017-04-20T09:34:56Z</time>
      </trkpt>
      <trkpt lat="45.05246" lon="6.54196">
        <ele>2214.4</ele>
        <time>2017-04-20T09:35:01Z</time>
      </trkpt>
      <trkpt lat="45.05249" lon="6.54195">
        <ele>2216.4</ele>
        <time>2017-04-20T09:35:06Z</time>
      </trkpt>
      <trkpt lat="45.05252" lon="6.54194">
        <ele>2215</ele>
        <time>2017-04-20T09:35:11Z</time>
      </trkpt>
      <trkpt lat="45.05255" lon="6.54192">
        <ele>2216.8</ele>
        <time>2017-04-20T09:35:16Z</time>
      </trkpt>
      <trkpt lat="45.05258" lon="6.54191">
        <ele>2217.2</ele>
        <time>2017-04-20T09:35:21Z</time>
      </trkpt>
      <trkpt lat="45.05262" lon="6.54189">
        <ele>2217.4</ele>
        <time>2017-04-20T09:35:26Z</time>
      </trkpt>
      <trkpt lat="45.05265" lon="6.54188">
        <ele>2219.4</ele>
        <time>2017-04-20T09:35:31Z</time>
      </trkpt>
      <trkpt lat="45.05268" lon="6.54186">
        <ele>2221.2</ele>
        <time>2017-04-20T09:35:36Z</time>
      </trkpt>
      <trkpt lat="45.05271" lon="6.54184">
        <ele>2218.2</ele>
        <time>2017-04-20T09:35:41Z</time>
      </trkpt>
      <trkpt lat="45.05274" lon="6.54181">
        <ele>2220</ele>
        <time>2017-04-20T09:35:46Z</time>
      </trkpt>
      <trkpt lat="45.05277" lon="6.5418">
        <ele>2222.6</ele>
        <time>2017-04-20T09:35:51Z</time>
      </trkpt>
      <trkpt lat="45.0528" lon="6.54179">
        <ele>2223</ele>
        <time>2017-04-20T09:35:56Z</time>
      </trkpt>
      <trkpt lat="45.05283" lon="6.54178">
        <ele>2223</ele>
        <time>2017-04-20T09:36:01Z</time>
      </trkpt>
      <trkpt lat="45.05286" lon="6.54176">
        <ele>2221.2</ele>
        <time>2017-04-20T09:36:06Z</time>
      </trkpt>
      <trkpt lat="45.0529" lon="6.54175">
        <ele>2223.2</ele>
        <time>2017-04-20T09:36:11Z</time>
      </trkpt>
      <trkpt lat="45.05293" lon="6.54174">
        <ele>2222.2</ele>
        <time>2017-04-20T09:36:16Z</time>
      </trkpt>
      <trkpt lat="45.05296" lon="6.54172">
        <ele>2223.6</ele>
        <time>2017-04-20T09:36:21Z</time>
      </trkpt>
      <trkpt lat="45.053" lon="6.54171">
        <ele>2223.2</ele>
        <time>2017-04-20T09:36:26Z</time>
      </trkpt>
      <trkpt lat="45.053" lon="6.5417">
        <ele>2223</ele>
        <time>2017-04-20T09:36:46Z</time>
      </trkpt>
      <trkpt lat="45.05302" lon="6.54169">
        <ele>2224.2</ele>
        <time>2017-04-20T09:36:51Z</time>
      </trkpt>
      <trkpt lat="45.05304" lon="6.54169">
        <ele>2225.4</ele>
        <time>2017-04-20T09:36:56Z</time>
      </trkpt>
      <trkpt lat="45.05308" lon="6.54168">
        <ele>2225</ele>
        <time>2017-04-20T09:37:02Z</time>
      </trkpt>
      <trkpt lat="45.05311" lon="6.54168">
        <ele>2226.2</ele>
        <time>2017-04-20T09:37:07Z</time>
      </trkpt>
      <trkpt lat="45.05313" lon="6.54167">
        <ele>2227.2</ele>
        <time>2017-04-20T09:37:12Z</time>
      </trkpt>
      <trkpt lat="45.05316" lon="6.54167">
        <ele>2224.6</ele>
        <time>2017-04-20T09:37:17Z</time>
      </trkpt>
      <trkpt lat="45.05319" lon="6.54167">
        <ele>2227.6</ele>
        <time>2017-04-20T09:37:22Z</time>
      </trkpt>
      <trkpt lat="45.05322" lon="6.54168">
        <ele>2224.8</ele>
        <time>2017-04-20T09:37:27Z</time>
      </trkpt>
      <trkpt lat="45.05325" lon="6.54168">
        <ele>2227.6</ele>
        <time>2017-04-20T09:37:32Z</time>
      </trkpt>
      <trkpt lat="45.05328" lon="6.54168">
        <ele>2226.2</ele>
        <time>2017-04-20T09:37:37Z</time>
      </trkpt>
      <trkpt lat="45.05331" lon="6.54168">
        <ele>2228.6</ele>
        <time>2017-04-20T09:37:42Z</time>
      </trkpt>
      <trkpt lat="45.05335" lon="6.54169">
        <ele>2229</ele>
        <time>2017-04-20T09:37:47Z</time>
      </trkpt>
      <trkpt lat="45.05337" lon="6.54169">
        <ele>2230.8</ele>
        <time>2017-04-20T09:37:52Z</time>
      </trkpt>
      <trkpt lat="45.0534" lon="6.54168">
        <ele>2231.6</ele>
        <time>2017-04-20T09:37:57Z</time>
      </trkpt>
      <trkpt lat="45.05343" lon="6.54168">
        <ele>2230</ele>
        <time>2017-04-20T09:38:02Z</time>
      </trkpt>
      <trkpt lat="45.05346" lon="6.54168">
        <ele>2233</ele>
        <time>2017-04-20T09:38:07Z</time>
      </trkpt>
      <trkpt lat="45.05349" lon="6.54168">
        <ele>2229.8</ele>
        <time>2017-04-20T09:38:12Z</time>
      </trkpt>
      <trkpt lat="45.05353" lon="6.54168">
        <ele>2231.6</ele>
        <time>2017-04-20T09:38:17Z</time>
      </trkpt>
      <trkpt lat="45.05356" lon="6.54168">
        <ele>2230.8</ele>
        <time>2017-04-20T09:38:22Z</time>
      </trkpt>
      <trkpt lat="45.05359" lon="6.54167">
        <ele>2231.2</ele>
        <time>2017-04-20T09:38:27Z</time>
      </trkpt>
      <trkpt lat="45.05363" lon="6.54167">
        <ele>2233.8</ele>
        <time>2017-04-20T09:38:32Z</time>
      </trkpt>
      <trkpt lat="45.05366" lon="6.54166">
        <ele>2232.2</ele>
        <time>2017-04-20T09:38:37Z</time>
      </trkpt>
      <trkpt lat="45.0537" lon="6.54165">
        <ele>2232.8</ele>
        <time>2017-04-20T09:38:42Z</time>
      </trkpt>
      <trkpt lat="45.05372" lon="6.54165">
        <ele>2232.2</ele>
        <time>2017-04-20T09:38:47Z</time>
      </trkpt>
      <trkpt lat="45.05372" lon="6.54164">
        <ele>2232.4</ele>
        <time>2017-04-20T09:39:32Z</time>
      </trkpt>
      <trkpt lat="45.05375" lon="6.54164">
        <ele>2233.2</ele>
        <time>2017-04-20T09:39:37Z</time>
      </trkpt>
      <trkpt lat="45.0538" lon="6.54163">
        <ele>2234</ele>
        <time>2017-04-20T09:39:42Z</time>
      </trkpt>
      <trkpt lat="45.05386" lon="6.54159">
        <ele>2232</ele>
        <time>2017-04-20T09:39:47Z</time>
      </trkpt>
      <trkpt lat="45.05392" lon="6.54155">
        <ele>2231.6</ele>
        <time>2017-04-20T09:39:52Z</time>
      </trkpt>
      <trkpt lat="45.05398" lon="6.54151">
        <ele>2233.4</ele>
        <time>2017-04-20T09:39:57Z</time>
      </trkpt>
      <trkpt lat="45.05403" lon="6.54149">
        <ele>2231.6</ele>
        <time>2017-04-20T09:40:02Z</time>
      </trkpt>
      <trkpt lat="45.05406" lon="6.54149">
        <ele>2230.2</ele>
        <time>2017-04-20T09:40:07Z</time>
      </trkpt>
      <trkpt lat="45.05408" lon="6.54148">
        <ele>2231.2</ele>
        <time>2017-04-20T09:40:12Z</time>
      </trkpt>
      <trkpt lat="45.05411" lon="6.54148">
        <ele>2230.8</ele>
        <time>2017-04-20T09:40:17Z</time>
      </trkpt>
      <trkpt lat="45.05411" lon="6.54147">
        <ele>2229.6</ele>
        <time>2017-04-20T09:40:22Z</time>
      </trkpt>
      <trkpt lat="45.05414" lon="6.54147">
        <ele>2230.4</ele>
        <time>2017-04-20T09:40:27Z</time>
      </trkpt>
      <trkpt lat="45.05415" lon="6.54146">
        <ele>2229.2</ele>
        <time>2017-04-20T09:40:32Z</time>
      </trkpt>
      <trkpt lat="45.05416" lon="6.54146">
        <ele>2232</ele>
        <time>2017-04-20T09:40:37Z</time>
      </trkpt>
      <trkpt lat="45.05418" lon="6.54146">
        <ele>2232.2</ele>
        <time>2017-04-20T09:40:42Z</time>
      </trkpt>
      <trkpt lat="45.05418" lon="6.54146">
        <ele>2232.8</ele>
        <time>2017-04-20T09:40:47Z</time>
      </trkpt>
      <trkpt lat="45.0542" lon="6.54145">
        <ele>2231.8</ele>
        <time>2017-04-20T09:40:52Z</time>
      </trkpt>
      <trkpt lat="45.05422" lon="6.54144">
        <ele>2233.4</ele>
        <time>2017-04-20T09:40:57Z</time>
      </trkpt>
      <trkpt lat="45.05424" lon="6.54143">
        <ele>2230.6</ele>
        <time>2017-04-20T09:41:02Z</time>
      </trkpt>
      <trkpt lat="45.05426" lon="6.54142">
        <ele>2233.8</ele>
        <time>2017-04-20T09:41:07Z</time>
      </trkpt>
      <trkpt lat="45.05428" lon="6.5414">
        <ele>2233.8</ele>
        <time>2017-04-20T09:41:12Z</time>
      </trkpt>
      <trkpt lat="45.05431" lon="6.54139">
        <ele>2237.6</ele>
        <time>2017-04-20T09:41:18Z</time>
      </trkpt>
      <trkpt lat="45.05433" lon="6.54138">
        <ele>2236.8</ele>
        <time>2017-04-20T09:41:23Z</time>
      </trkpt>
      <trkpt lat="45.05435" lon="6.54137">
        <ele>2237.2</ele>
        <time>2017-04-20T09:41:28Z</time>
      </trkpt>
      <trkpt lat="45.05437" lon="6.54135">
        <ele>2238.8</ele>
        <time>2017-04-20T09:41:33Z</time>
      </trkpt>
      <trkpt lat="45.05439" lon="6.54134">
        <ele>2239.6</ele>
        <time>2017-04-20T09:41:38Z</time>
      </trkpt>
      <trkpt lat="45.05442" lon="6.54132">
        <ele>2239</ele>
        <time>2017-04-20T09:41:43Z</time>
      </trkpt>
      <trkpt lat="45.05444" lon="6.54131">
        <ele>2239</ele>
        <time>2017-04-20T09:41:48Z</time>
      </trkpt>
      <trkpt lat="45.05446" lon="6.5413">
        <ele>2240.6</ele>
        <time>2017-04-20T09:41:53Z</time>
      </trkpt>
      <trkpt lat="45.05449" lon="6.54128">
        <ele>2239</ele>
        <time>2017-04-20T09:41:58Z</time>
      </trkpt>
      <trkpt lat="45.05451" lon="6.54126">
        <ele>2240.8</ele>
        <time>2017-04-20T09:42:03Z</time>
      </trkpt>
      <trkpt lat="45.05454" lon="6.54125">
        <ele>2238.2</ele>
        <time>2017-04-20T09:42:08Z</time>
      </trkpt>
      <trkpt lat="45.05456" lon="6.54124">
        <ele>2242.8</ele>
        <time>2017-04-20T09:42:13Z</time>
      </trkpt>
      <trkpt lat="45.05459" lon="6.54122">
        <ele>2241</ele>
        <time>2017-04-20T09:42:18Z</time>
      </trkpt>
      <trkpt lat="45.05461" lon="6.54121">
        <ele>2239.6</ele>
        <time>2017-04-20T09:42:23Z</time>
      </trkpt>
      <trkpt lat="45.05464" lon="6.54119">
        <ele>2240.2</ele>
        <time>2017-04-20T09:42:28Z</time>
      </trkpt>
      <trkpt lat="45.05466" lon="6.54118">
        <ele>2241</ele>
        <time>2017-04-20T09:42:33Z</time>
      </trkpt>
      <trkpt lat="45.05468" lon="6.54117">
        <ele>2241.2</ele>
        <time>2017-04-20T09:42:38Z</time>
      </trkpt>
      <trkpt lat="45.0547" lon="6.54116">
        <ele>2245.6</ele>
        <time>2017-04-20T09:42:43Z</time>
      </trkpt>
      <trkpt lat="45.05473" lon="6.54114">
        <ele>2241.8</ele>
        <time>2017-04-20T09:42:48Z</time>
      </trkpt>
      <trkpt lat="45.05475" lon="6.54113">
        <ele>2244</ele>
        <time>2017-04-20T09:42:53Z</time>
      </trkpt>
      <trkpt lat="45.05475" lon="6.54113">
        <ele>2245</ele>
        <time>2017-04-20T09:44:03Z</time>
      </trkpt>
      <trkpt lat="45.05475" lon="6.54113">
        <ele>2246</ele>
        <time>2017-04-20T09:44:08Z</time>
      </trkpt>
      <trkpt lat="45.05477" lon="6.54112">
        <ele>2245.2</ele>
        <time>2017-04-20T09:44:38Z</time>
      </trkpt>
      <trkpt lat="45.05478" lon="6.54111">
        <ele>2245.8</ele>
        <time>2017-04-20T09:44:43Z</time>
      </trkpt>
      <trkpt lat="45.05481" lon="6.54111">
        <ele>2248.4</ele>
        <time>2017-04-20T09:44:48Z</time>
      </trkpt>
      <trkpt lat="45.05481" lon="6.54111">
        <ele>2247.8</ele>
        <time>2017-04-20T09:44:53Z</time>
      </trkpt>
      <trkpt lat="45.05483" lon="6.54111">
        <ele>2248.6</ele>
        <time>2017-04-20T09:44:58Z</time>
      </trkpt>
      <trkpt lat="45.05485" lon="6.5411">
        <ele>2245.4</ele>
        <time>2017-04-20T09:45:03Z</time>
      </trkpt>
      <trkpt lat="45.05488" lon="6.5411">
        <ele>2249.2</ele>
        <time>2017-04-20T09:45:08Z</time>
      </trkpt>
      <trkpt lat="45.0549" lon="6.5411">
        <ele>2247.6</ele>
        <time>2017-04-20T09:45:13Z</time>
      </trkpt>
      <trkpt lat="45.05491" lon="6.5411">
        <ele>2249</ele>
        <time>2017-04-20T09:45:18Z</time>
      </trkpt>
      <trkpt lat="45.05492" lon="6.54109">
        <ele>2248.8</ele>
        <time>2017-04-20T09:45:28Z</time>
      </trkpt>
      <trkpt lat="45.05494" lon="6.54109">
        <ele>2250.4</ele>
        <time>2017-04-20T09:45:33Z</time>
      </trkpt>
      <trkpt lat="45.05497" lon="6.54108">
        <ele>2250.2</ele>
        <time>2017-04-20T09:45:38Z</time>
      </trkpt>
      <trkpt lat="45.055" lon="6.54108">
        <ele>2251.2</ele>
        <time>2017-04-20T09:45:43Z</time>
      </trkpt>
      <trkpt lat="45.05502" lon="6.54108">
        <ele>2252.6</ele>
        <time>2017-04-20T09:45:48Z</time>
      </trkpt>
      <trkpt lat="45.05503" lon="6.54111">
        <ele>2254.4</ele>
        <time>2017-04-20T09:45:53Z</time>
      </trkpt>
      <trkpt lat="45.05503" lon="6.54114">
        <ele>2253.2</ele>
        <time>2017-04-20T09:45:58Z</time>
      </trkpt>
      <trkpt lat="45.05503" lon="6.54117">
        <ele>2252</ele>
        <time>2017-04-20T09:46:03Z</time>
      </trkpt>
      <trkpt lat="45.05502" lon="6.5412">
        <ele>2255.2</ele>
        <time>2017-04-20T09:46:08Z</time>
      </trkpt>
      <trkpt lat="45.05503" lon="6.54123">
        <ele>2252.6</ele>
        <time>2017-04-20T09:46:13Z</time>
      </trkpt>
      <trkpt lat="45.05503" lon="6.54128">
        <ele>2256</ele>
        <time>2017-04-20T09:46:19Z</time>
      </trkpt>
      <trkpt lat="45.05503" lon="6.54131">
        <ele>2257.4</ele>
        <time>2017-04-20T09:46:24Z</time>
      </trkpt>
      <trkpt lat="45.05504" lon="6.54134">
        <ele>2257.8</ele>
        <time>2017-04-20T09:46:29Z</time>
      </trkpt>
      <trkpt lat="45.05504" lon="6.54137">
        <ele>2258.2</ele>
        <time>2017-04-20T09:46:34Z</time>
      </trkpt>
      <trkpt lat="45.05504" lon="6.5414">
        <ele>2258.6</ele>
        <time>2017-04-20T09:46:39Z</time>
      </trkpt>
      <trkpt lat="45.05505" lon="6.54144">
        <ele>2258.6</ele>
        <time>2017-04-20T09:46:44Z</time>
      </trkpt>
      <trkpt lat="45.05505" lon="6.54147">
        <ele>2259.6</ele>
        <time>2017-04-20T09:46:49Z</time>
      </trkpt>
      <trkpt lat="45.05505" lon="6.5415">
        <ele>2259</ele>
        <time>2017-04-20T09:46:54Z</time>
      </trkpt>
      <trkpt lat="45.05506" lon="6.54151">
        <ele>2261.8</ele>
        <time>2017-04-20T09:46:59Z</time>
      </trkpt>
      <trkpt lat="45.05508" lon="6.5415">
        <ele>2260</ele>
        <time>2017-04-20T09:47:04Z</time>
      </trkpt>
      <trkpt lat="45.0551" lon="6.54148">
        <ele>2259.4</ele>
        <time>2017-04-20T09:47:09Z</time>
      </trkpt>
      <trkpt lat="45.05512" lon="6.54147">
        <ele>2261.2</ele>
        <time>2017-04-20T09:47:14Z</time>
      </trkpt>
      <trkpt lat="45.05514" lon="6.54146">
        <ele>2261</ele>
        <time>2017-04-20T09:47:19Z</time>
      </trkpt>
      <trkpt lat="45.05516" lon="6.54145">
        <ele>2262.6</ele>
        <time>2017-04-20T09:47:24Z</time>
      </trkpt>
      <trkpt lat="45.05518" lon="6.54144">
        <ele>2263.6</ele>
        <time>2017-04-20T09:47:29Z</time>
      </trkpt>
      <trkpt lat="45.0552" lon="6.54143">
        <ele>2263.8</ele>
        <time>2017-04-20T09:47:34Z</time>
      </trkpt>
      <trkpt lat="45.05523" lon="6.54142">
        <ele>2263</ele>
        <time>2017-04-20T09:47:39Z</time>
      </trkpt>
      <trkpt lat="45.05524" lon="6.54141">
        <ele>2263.6</ele>
        <time>2017-04-20T09:47:44Z</time>
      </trkpt>
      <trkpt lat="45.05525" lon="6.54141">
        <ele>2262.6</ele>
        <time>2017-04-20T09:47:49Z</time>
      </trkpt>
      <trkpt lat="45.05527" lon="6.5414">
        <ele>2262.8</ele>
        <time>2017-04-20T09:47:54Z</time>
      </trkpt>
      <trkpt lat="45.0553" lon="6.54139">
        <ele>2263.2</ele>
        <time>2017-04-20T09:47:59Z</time>
      </trkpt>
      <trkpt lat="45.05532" lon="6.54139">
        <ele>2265.8</ele>
        <time>2017-04-20T09:48:04Z</time>
      </trkpt>
      <trkpt lat="45.05534" lon="6.54138">
        <ele>2268</ele>
        <time>2017-04-20T09:48:09Z</time>
      </trkpt>
      <trkpt lat="45.05537" lon="6.54137">
        <ele>2267.2</ele>
        <time>2017-04-20T09:48:14Z</time>
      </trkpt>
      <trkpt lat="45.05539" lon="6.54137">
        <ele>2269.2</ele>
        <time>2017-04-20T09:48:19Z</time>
      </trkpt>
      <trkpt lat="45.0554" lon="6.54137">
        <ele>2266.8</ele>
        <time>2017-04-20T09:48:29Z</time>
      </trkpt>
      <trkpt lat="45.05543" lon="6.54137">
        <ele>2267</ele>
        <time>2017-04-20T09:48:34Z</time>
      </trkpt>
      <trkpt lat="45.05545" lon="6.54137">
        <ele>2267.2</ele>
        <time>2017-04-20T09:48:39Z</time>
      </trkpt>
      <trkpt lat="45.05548" lon="6.54137">
        <ele>2269</ele>
        <time>2017-04-20T09:48:44Z</time>
      </trkpt>
      <trkpt lat="45.0555" lon="6.54138">
        <ele>2270.8</ele>
        <time>2017-04-20T09:48:49Z</time>
      </trkpt>
      <trkpt lat="45.05551" lon="6.54139">
        <ele>2270.2</ele>
        <time>2017-04-20T09:48:54Z</time>
      </trkpt>
      <trkpt lat="45.05551" lon="6.5414">
        <ele>2270.4</ele>
        <time>2017-04-20T09:49:04Z</time>
      </trkpt>
      <trkpt lat="45.05551" lon="6.54144">
        <ele>2272</ele>
        <time>2017-04-20T09:49:09Z</time>
      </trkpt>
      <trkpt lat="45.05551" lon="6.54148">
        <ele>2272</ele>
        <time>2017-04-20T09:49:14Z</time>
      </trkpt>
      <trkpt lat="45.05551" lon="6.54152">
        <ele>2271.6</ele>
        <time>2017-04-20T09:49:19Z</time>
      </trkpt>
      <trkpt lat="45.05553" lon="6.54154">
        <ele>2272</ele>
        <time>2017-04-20T09:50:44Z</time>
      </trkpt>
      <trkpt lat="45.05553" lon="6.54155">
        <ele>2271.4</ele>
        <time>2017-04-20T09:51:35Z</time>
      </trkpt>
      <trkpt lat="45.05554" lon="6.54156">
        <ele>2270.2</ele>
        <time>2017-04-20T09:52:35Z</time>
      </trkpt>
      <trkpt lat="45.05556" lon="6.54158">
        <ele>2271.6</ele>
        <time>2017-04-20T09:52:40Z</time>
      </trkpt>
      <trkpt lat="45.05558" lon="6.54162">
        <ele>2271.8</ele>
        <time>2017-04-20T09:52:45Z</time>
      </trkpt>
      <trkpt lat="45.0556" lon="6.54165">
        <ele>2272.6</ele>
        <time>2017-04-20T09:52:50Z</time>
      </trkpt>
      <trkpt lat="45.05561" lon="6.54169">
        <ele>2272</ele>
        <time>2017-04-20T09:52:55Z</time>
      </trkpt>
      <trkpt lat="45.05563" lon="6.54172">
        <ele>2274.4</ele>
        <time>2017-04-20T09:53:00Z</time>
      </trkpt>
      <trkpt lat="45.05566" lon="6.54173">
        <ele>2273.8</ele>
        <time>2017-04-20T09:53:05Z</time>
      </trkpt>
      <trkpt lat="45.05568" lon="6.54174">
        <ele>2277.6</ele>
        <time>2017-04-20T09:53:10Z</time>
      </trkpt>
      <trkpt lat="45.0557" lon="6.54176">
        <ele>2277.4</ele>
        <time>2017-04-20T09:53:15Z</time>
      </trkpt>
      <trkpt lat="45.05572" lon="6.54177">
        <ele>2276.8</ele>
        <time>2017-04-20T09:53:20Z</time>
      </trkpt>
      <trkpt lat="45.05575" lon="6.54177">
        <ele>2280</ele>
        <time>2017-04-20T09:53:25Z</time>
      </trkpt>
      <trkpt lat="45.05578" lon="6.54178">
        <ele>2278.2</ele>
        <time>2017-04-20T09:53:30Z</time>
      </trkpt>
      <trkpt lat="45.0558" lon="6.54178">
        <ele>2280</ele>
        <time>2017-04-20T09:53:35Z</time>
      </trkpt>
      <trkpt lat="45.05583" lon="6.54178">
        <ele>2280.2</ele>
        <time>2017-04-20T09:53:40Z</time>
      </trkpt>
      <trkpt lat="45.05585" lon="6.54178">
        <ele>2282.8</ele>
        <time>2017-04-20T09:53:45Z</time>
      </trkpt>
      <trkpt lat="45.05587" lon="6.54178">
        <ele>2282.8</ele>
        <time>2017-04-20T09:53:50Z</time>
      </trkpt>
      <trkpt lat="45.0559" lon="6.54179">
        <ele>2284.4</ele>
        <time>2017-04-20T09:53:55Z</time>
      </trkpt>
      <trkpt lat="45.05592" lon="6.5418">
        <ele>2284.4</ele>
        <time>2017-04-20T09:54:00Z</time>
      </trkpt>
      <trkpt lat="45.05595" lon="6.54181">
        <ele>2285.6</ele>
        <time>2017-04-20T09:54:05Z</time>
      </trkpt>
      <trkpt lat="45.05597" lon="6.54181">
        <ele>2285.4</ele>
        <time>2017-04-20T09:54:10Z</time>
      </trkpt>
      <trkpt lat="45.05599" lon="6.54182">
        <ele>2284.6</ele>
        <time>2017-04-20T09:54:15Z</time>
      </trkpt>
      <trkpt lat="45.05601" lon="6.54183">
        <ele>2284</ele>
        <time>2017-04-20T09:54:20Z</time>
      </trkpt>
      <trkpt lat="45.05604" lon="6.54183">
        <ele>2283.4</ele>
        <time>2017-04-20T09:54:25Z</time>
      </trkpt>
      <trkpt lat="45.05606" lon="6.54183">
        <ele>2285.6</ele>
        <time>2017-04-20T09:54:30Z</time>
      </trkpt>
      <trkpt lat="45.05609" lon="6.54183">
        <ele>2288.4</ele>
        <time>2017-04-20T09:54:35Z</time>
      </trkpt>
      <trkpt lat="45.05612" lon="6.54183">
        <ele>2287.4</ele>
        <time>2017-04-20T09:54:40Z</time>
      </trkpt>
      <trkpt lat="45.05614" lon="6.54184">
        <ele>2289.4</ele>
        <time>2017-04-20T09:54:45Z</time>
      </trkpt>
      <trkpt lat="45.05615" lon="6.54183">
        <ele>2288</ele>
        <time>2017-04-20T09:54:55Z</time>
      </trkpt>
      <trkpt lat="45.05617" lon="6.54184">
        <ele>2290.4</ele>
        <time>2017-04-20T09:55:00Z</time>
      </trkpt>
      <trkpt lat="45.05619" lon="6.54185">
        <ele>2288.6</ele>
        <time>2017-04-20T09:55:05Z</time>
      </trkpt>
      <trkpt lat="45.05622" lon="6.54185">
        <ele>2286.2</ele>
        <time>2017-04-20T09:55:10Z</time>
      </trkpt>
      <trkpt lat="45.05624" lon="6.54185">
        <ele>2288.2</ele>
        <time>2017-04-20T09:55:15Z</time>
      </trkpt>
      <trkpt lat="45.05626" lon="6.54185">
        <ele>2288.4</ele>
        <time>2017-04-20T09:55:20Z</time>
      </trkpt>
      <trkpt lat="45.05628" lon="6.54184">
        <ele>2289.4</ele>
        <time>2017-04-20T09:55:25Z</time>
      </trkpt>
      <trkpt lat="45.05628" lon="6.54184">
        <ele>2289.4</ele>
        <time>2017-04-20T09:55:30Z</time>
      </trkpt>
      <trkpt lat="45.05631" lon="6.54184">
        <ele>2289.2</ele>
        <time>2017-04-20T09:55:35Z</time>
      </trkpt>
      <trkpt lat="45.05634" lon="6.54184">
        <ele>2290.4</ele>
        <time>2017-04-20T09:55:40Z</time>
      </trkpt>
      <trkpt lat="45.05637" lon="6.54184">
        <ele>2291</ele>
        <time>2017-04-20T09:55:45Z</time>
      </trkpt>
      <trkpt lat="45.05641" lon="6.54183">
        <ele>2290.4</ele>
        <time>2017-04-20T09:55:50Z</time>
      </trkpt>
      <trkpt lat="45.05644" lon="6.54182">
        <ele>2291.4</ele>
        <time>2017-04-20T09:55:55Z</time>
      </trkpt>
      <trkpt lat="45.05647" lon="6.54182">
        <ele>2294.4</ele>
        <time>2017-04-20T09:56:00Z</time>
      </trkpt>
      <trkpt lat="45.05651" lon="6.54181">
        <ele>2292.2</ele>
        <time>2017-04-20T09:56:05Z</time>
      </trkpt>
      <trkpt lat="45.05654" lon="6.5418">
        <ele>2293</ele>
        <time>2017-04-20T09:56:10Z</time>
      </trkpt>
      <trkpt lat="45.05658" lon="6.5418">
        <ele>2294.6</ele>
        <time>2017-04-20T09:56:15Z</time>
      </trkpt>
      <trkpt lat="45.0566" lon="6.5418">
        <ele>2292.8</ele>
        <time>2017-04-20T09:56:20Z</time>
      </trkpt>
      <trkpt lat="45.05661" lon="6.5418">
        <ele>2292.6</ele>
        <time>2017-04-20T09:56:25Z</time>
      </trkpt>
      <trkpt lat="45.05665" lon="6.54178">
        <ele>2294.6</ele>
        <time>2017-04-20T09:56:30Z</time>
      </trkpt>
      <trkpt lat="45.0567" lon="6.54176">
        <ele>2294</ele>
        <time>2017-04-20T09:56:35Z</time>
      </trkpt>
      <trkpt lat="45.05674" lon="6.54174">
        <ele>2295</ele>
        <time>2017-04-20T09:56:40Z</time>
      </trkpt>
      <trkpt lat="45.05679" lon="6.54172">
        <ele>2292.8</ele>
        <time>2017-04-20T09:56:45Z</time>
      </trkpt>
      <trkpt lat="45.05684" lon="6.5417">
        <ele>2294.6</ele>
        <time>2017-04-20T09:56:50Z</time>
      </trkpt>
      <trkpt lat="45.05689" lon="6.54168">
        <ele>2296.6</ele>
        <time>2017-04-20T09:56:55Z</time>
      </trkpt>
      <trkpt lat="45.05694" lon="6.54166">
        <ele>2294.8</ele>
        <time>2017-04-20T09:57:00Z</time>
      </trkpt>
      <trkpt lat="45.05699" lon="6.54163">
        <ele>2294.2</ele>
        <time>2017-04-20T09:57:05Z</time>
      </trkpt>
      <trkpt lat="45.05704" lon="6.54162">
        <ele>2293.6</ele>
        <time>2017-04-20T09:57:10Z</time>
      </trkpt>
      <trkpt lat="45.05708" lon="6.5416">
        <ele>2292.4</ele>
        <time>2017-04-20T09:57:15Z</time>
      </trkpt>
      <trkpt lat="45.05713" lon="6.54158">
        <ele>2292.6</ele>
        <time>2017-04-20T09:57:20Z</time>
      </trkpt>
      <trkpt lat="45.05718" lon="6.54155">
        <ele>2291.6</ele>
        <time>2017-04-20T09:57:25Z</time>
      </trkpt>
      <trkpt lat="45.05723" lon="6.54154">
        <ele>2292.8</ele>
        <time>2017-04-20T09:57:30Z</time>
      </trkpt>
      <trkpt lat="45.05727" lon="6.54155">
        <ele>2292.4</ele>
        <time>2017-04-20T09:57:35Z</time>
      </trkpt>
      <trkpt lat="45.0573" lon="6.54156">
        <ele>2294.8</ele>
        <time>2017-04-20T09:57:40Z</time>
      </trkpt>
      <trkpt lat="45.05733" lon="6.54158">
        <ele>2294.2</ele>
        <time>2017-04-20T09:57:45Z</time>
      </trkpt>
      <trkpt lat="45.05735" lon="6.54159">
        <ele>2295</ele>
        <time>2017-04-20T09:57:50Z</time>
      </trkpt>
      <trkpt lat="45.05738" lon="6.54161">
        <ele>2296.8</ele>
        <time>2017-04-20T09:57:55Z</time>
      </trkpt>
      <trkpt lat="45.05742" lon="6.54162">
        <ele>2296.2</ele>
        <time>2017-04-20T09:58:00Z</time>
      </trkpt>
      <trkpt lat="45.05746" lon="6.54164">
        <ele>2296.8</ele>
        <time>2017-04-20T09:58:05Z</time>
      </trkpt>
      <trkpt lat="45.05749" lon="6.54166">
        <ele>2297</ele>
        <time>2017-04-20T09:58:10Z</time>
      </trkpt>
      <trkpt lat="45.05751" lon="6.54168">
        <ele>2298.2</ele>
        <time>2017-04-20T09:58:15Z</time>
      </trkpt>
      <trkpt lat="45.05751" lon="6.54168">
        <ele>2299.8</ele>
        <time>2017-04-20T10:01:35Z</time>
      </trkpt>
      <trkpt lat="45.05754" lon="6.5417">
        <ele>2298</ele>
        <time>2017-04-20T10:01:40Z</time>
      </trkpt>
      <trkpt lat="45.05757" lon="6.54172">
        <ele>2300.8</ele>
        <time>2017-04-20T10:01:45Z</time>
      </trkpt>
      <trkpt lat="45.0576" lon="6.54174">
        <ele>2299.2</ele>
        <time>2017-04-20T10:01:50Z</time>
      </trkpt>
      <trkpt lat="45.05763" lon="6.54176">
        <ele>2297</ele>
        <time>2017-04-20T10:01:55Z</time>
      </trkpt>
      <trkpt lat="45.05766" lon="6.54178">
        <ele>2300.8</ele>
        <time>2017-04-20T10:02:00Z</time>
      </trkpt>
      <trkpt lat="45.05768" lon="6.5418">
        <ele>2301.8</ele>
        <time>2017-04-20T10:02:05Z</time>
      </trkpt>
      <trkpt lat="45.05771" lon="6.54182">
        <ele>2299.2</ele>
        <time>2017-04-20T10:02:10Z</time>
      </trkpt>
      <trkpt lat="45.05774" lon="6.54183">
        <ele>2301.2</ele>
        <time>2017-04-20T10:02:15Z</time>
      </trkpt>
      <trkpt lat="45.05777" lon="6.54184">
        <ele>2306.2</ele>
        <time>2017-04-20T10:02:20Z</time>
      </trkpt>
      <trkpt lat="45.0578" lon="6.54186">
        <ele>2302.8</ele>
        <time>2017-04-20T10:02:25Z</time>
      </trkpt>
      <trkpt lat="45.05783" lon="6.54187">
        <ele>2301.8</ele>
        <time>2017-04-20T10:02:30Z</time>
      </trkpt>
      <trkpt lat="45.05785" lon="6.54188">
        <ele>2302</ele>
        <time>2017-04-20T10:02:35Z</time>
      </trkpt>
      <trkpt lat="45.05787" lon="6.5419">
        <ele>2304</ele>
        <time>2017-04-20T10:02:40Z</time>
      </trkpt>
      <trkpt lat="45.0579" lon="6.54191">
        <ele>2303.8</ele>
        <time>2017-04-20T10:02:45Z</time>
      </trkpt>
      <trkpt lat="45.05793" lon="6.54192">
        <ele>2304.8</ele>
        <time>2017-04-20T10:02:50Z</time>
      </trkpt>
      <trkpt lat="45.05796" lon="6.54194">
        <ele>2303.8</ele>
        <time>2017-04-20T10:02:55Z</time>
      </trkpt>
      <trkpt lat="45.05799" lon="6.54195">
        <ele>2304.2</ele>
        <time>2017-04-20T10:03:00Z</time>
      </trkpt>
      <trkpt lat="45.05801" lon="6.54197">
        <ele>2307.2</ele>
        <time>2017-04-20T10:03:05Z</time>
      </trkpt>
      <trkpt lat="45.05804" lon="6.54198">
        <ele>2306.2</ele>
        <time>2017-04-20T10:03:10Z</time>
      </trkpt>
      <trkpt lat="45.05806" lon="6.542">
        <ele>2305.8</ele>
        <time>2017-04-20T10:03:15Z</time>
      </trkpt>
      <trkpt lat="45.05809" lon="6.54201">
        <ele>2305.2</ele>
        <time>2017-04-20T10:03:20Z</time>
      </trkpt>
      <trkpt lat="45.05812" lon="6.54202">
        <ele>2307.4</ele>
        <time>2017-04-20T10:03:25Z</time>
      </trkpt>
      <trkpt lat="45.05814" lon="6.54204">
        <ele>2308</ele>
        <time>2017-04-20T10:03:30Z</time>
      </trkpt>
      <trkpt lat="45.05815" lon="6.54204">
        <ele>2305.4</ele>
        <time>2017-04-20T10:03:35Z</time>
      </trkpt>
      <trkpt lat="45.05818" lon="6.54206">
        <ele>2308.8</ele>
        <time>2017-04-20T10:03:40Z</time>
      </trkpt>
      <trkpt lat="45.0582" lon="6.54207">
        <ele>2307.6</ele>
        <time>2017-04-20T10:03:45Z</time>
      </trkpt>
      <trkpt lat="45.05822" lon="6.54208">
        <ele>2306.6</ele>
        <time>2017-04-20T10:03:50Z</time>
      </trkpt>
      <trkpt lat="45.05825" lon="6.54209">
        <ele>2308.6</ele>
        <time>2017-04-20T10:03:55Z</time>
      </trkpt>
      <trkpt lat="45.05827" lon="6.5421">
        <ele>2311.6</ele>
        <time>2017-04-20T10:04:00Z</time>
      </trkpt>
      <trkpt lat="45.05829" lon="6.54211">
        <ele>2313</ele>
        <time>2017-04-20T10:04:05Z</time>
      </trkpt>
      <trkpt lat="45.05832" lon="6.54212">
        <ele>2309</ele>
        <time>2017-04-20T10:04:10Z</time>
      </trkpt>
      <trkpt lat="45.05834" lon="6.54212">
        <ele>2310.8</ele>
        <time>2017-04-20T10:04:15Z</time>
      </trkpt>
      <trkpt lat="45.05836" lon="6.54213">
        <ele>2310</ele>
        <time>2017-04-20T10:04:20Z</time>
      </trkpt>
      <trkpt lat="45.05839" lon="6.54214">
        <ele>2314</ele>
        <time>2017-04-20T10:04:25Z</time>
      </trkpt>
      <trkpt lat="45.05841" lon="6.54215">
        <ele>2314.4</ele>
        <time>2017-04-20T10:04:30Z</time>
      </trkpt>
      <trkpt lat="45.05843" lon="6.54216">
        <ele>2311.6</ele>
        <time>2017-04-20T10:04:35Z</time>
      </trkpt>
      <trkpt lat="45.05844" lon="6.54215">
        <ele>2312.6</ele>
        <time>2017-04-20T10:04:40Z</time>
      </trkpt>
      <trkpt lat="45.05844" lon="6.54216">
        <ele>2313</ele>
        <time>2017-04-20T10:05:05Z</time>
      </trkpt>
      <trkpt lat="45.05846" lon="6.54218">
        <ele>2313.8</ele>
        <time>2017-04-20T10:05:10Z</time>
      </trkpt>
      <trkpt lat="45.05849" lon="6.54219">
        <ele>2315</ele>
        <time>2017-04-20T10:05:15Z</time>
      </trkpt>
      <trkpt lat="45.05852" lon="6.5422">
        <ele>2314.8</ele>
        <time>2017-04-20T10:05:20Z</time>
      </trkpt>
      <trkpt lat="45.05854" lon="6.54221">
        <ele>2315.4</ele>
        <time>2017-04-20T10:05:25Z</time>
      </trkpt>
      <trkpt lat="45.05857" lon="6.54221">
        <ele>2315.4</ele>
        <time>2017-04-20T10:05:30Z</time>
      </trkpt>
      <trkpt lat="45.05858" lon="6.54221">
        <ele>2315.6</ele>
        <time>2017-04-20T10:05:35Z</time>
      </trkpt>
      <trkpt lat="45.0586" lon="6.54222">
        <ele>2317.8</ele>
        <time>2017-04-20T10:05:40Z</time>
      </trkpt>
      <trkpt lat="45.05863" lon="6.54223">
        <ele>2316.2</ele>
        <time>2017-04-20T10:05:45Z</time>
      </trkpt>
      <trkpt lat="45.05865" lon="6.54223">
        <ele>2320.6</ele>
        <time>2017-04-20T10:05:50Z</time>
      </trkpt>
      <trkpt lat="45.05868" lon="6.54224">
        <ele>2319.2</ele>
        <time>2017-04-20T10:05:55Z</time>
      </trkpt>
      <trkpt lat="45.05871" lon="6.54224">
        <ele>2319.2</ele>
        <time>2017-04-20T10:06:00Z</time>
      </trkpt>
      <trkpt lat="45.05873" lon="6.54225">
        <ele>2320.4</ele>
        <time>2017-04-20T10:06:05Z</time>
      </trkpt>
      <trkpt lat="45.05875" lon="6.54226">
        <ele>2321</ele>
        <time>2017-04-20T10:06:10Z</time>
      </trkpt>
      <trkpt lat="45.05878" lon="6.54227">
        <ele>2321.4</ele>
        <time>2017-04-20T10:06:15Z</time>
      </trkpt>
      <trkpt lat="45.05881" lon="6.54229">
        <ele>2322</ele>
        <time>2017-04-20T10:06:20Z</time>
      </trkpt>
      <trkpt lat="45.05883" lon="6.54231">
        <ele>2323</ele>
        <time>2017-04-20T10:06:25Z</time>
      </trkpt>
      <trkpt lat="45.05885" lon="6.54232">
        <ele>2325.2</ele>
        <time>2017-04-20T10:06:30Z</time>
      </trkpt>
      <trkpt lat="45.05888" lon="6.54234">
        <ele>2322.8</ele>
        <time>2017-04-20T10:06:35Z</time>
      </trkpt>
      <trkpt lat="45.0589" lon="6.54235">
        <ele>2326</ele>
        <time>2017-04-20T10:06:40Z</time>
      </trkpt>
      <trkpt lat="45.05893" lon="6.54237">
        <ele>2325.6</ele>
        <time>2017-04-20T10:06:45Z</time>
      </trkpt>
      <trkpt lat="45.05896" lon="6.54239">
        <ele>2323</ele>
        <time>2017-04-20T10:06:50Z</time>
      </trkpt>
      <trkpt lat="45.05899" lon="6.5424">
        <ele>2326</ele>
        <time>2017-04-20T10:06:55Z</time>
      </trkpt>
      <trkpt lat="45.05901" lon="6.54241">
        <ele>2324.6</ele>
        <time>2017-04-20T10:07:00Z</time>
      </trkpt>
      <trkpt lat="45.05905" lon="6.54241">
        <ele>2325.6</ele>
        <time>2017-04-20T10:07:05Z</time>
      </trkpt>
      <trkpt lat="45.05908" lon="6.54242">
        <ele>2327.6</ele>
        <time>2017-04-20T10:07:10Z</time>
      </trkpt>
      <trkpt lat="45.05911" lon="6.54242">
        <ele>2326.2</ele>
        <time>2017-04-20T10:07:15Z</time>
      </trkpt>
      <trkpt lat="45.05915" lon="6.54243">
        <ele>2328.2</ele>
        <time>2017-04-20T10:07:20Z</time>
      </trkpt>
      <trkpt lat="45.05919" lon="6.54244">
        <ele>2328.8</ele>
        <time>2017-04-20T10:07:25Z</time>
      </trkpt>
      <trkpt lat="45.05921" lon="6.54245">
        <ele>2328.4</ele>
        <time>2017-04-20T10:07:30Z</time>
      </trkpt>
      <trkpt lat="45.05924" lon="6.54246">
        <ele>2327.6</ele>
        <time>2017-04-20T10:07:35Z</time>
      </trkpt>
      <trkpt lat="45.05927" lon="6.54247">
        <ele>2328.2</ele>
        <time>2017-04-20T10:07:40Z</time>
      </trkpt>
      <trkpt lat="45.05929" lon="6.54248">
        <ele>2327.8</ele>
        <time>2017-04-20T10:07:45Z</time>
      </trkpt>
      <trkpt lat="45.05931" lon="6.54249">
        <ele>2331.8</ele>
        <time>2017-04-20T10:07:50Z</time>
      </trkpt>
      <trkpt lat="45.05934" lon="6.5425">
        <ele>2328.6</ele>
        <time>2017-04-20T10:07:55Z</time>
      </trkpt>
      <trkpt lat="45.05937" lon="6.54251">
        <ele>2328.8</ele>
        <time>2017-04-20T10:08:00Z</time>
      </trkpt>
      <trkpt lat="45.05941" lon="6.54252">
        <ele>2329</ele>
        <time>2017-04-20T10:08:05Z</time>
      </trkpt>
      <trkpt lat="45.05944" lon="6.54253">
        <ele>2335.2</ele>
        <time>2017-04-20T10:08:10Z</time>
      </trkpt>
      <trkpt lat="45.05947" lon="6.54254">
        <ele>2332.8</ele>
        <time>2017-04-20T10:08:15Z</time>
      </trkpt>
      <trkpt lat="45.0595" lon="6.54255">
        <ele>2332</ele>
        <time>2017-04-20T10:08:20Z</time>
      </trkpt>
      <trkpt lat="45.05953" lon="6.54257">
        <ele>2328.8</ele>
        <time>2017-04-20T10:08:25Z</time>
      </trkpt>
      <trkpt lat="45.05956" lon="6.54258">
        <ele>2331.6</ele>
        <time>2017-04-20T10:08:30Z</time>
      </trkpt>
      <trkpt lat="45.0596" lon="6.54259">
        <ele>2331.6</ele>
        <time>2017-04-20T10:08:35Z</time>
      </trkpt>
      <trkpt lat="45.05963" lon="6.5426">
        <ele>2333</ele>
        <time>2017-04-20T10:08:40Z</time>
      </trkpt>
      <trkpt lat="45.05966" lon="6.54262">
        <ele>2334.6</ele>
        <time>2017-04-20T10:08:45Z</time>
      </trkpt>
      <trkpt lat="45.0597" lon="6.54264">
        <ele>2335</ele>
        <time>2017-04-20T10:08:50Z</time>
      </trkpt>
      <trkpt lat="45.05973" lon="6.54265">
        <ele>2334.4</ele>
        <time>2017-04-20T10:08:55Z</time>
      </trkpt>
      <trkpt lat="45.05977" lon="6.54266">
        <ele>2335.2</ele>
        <time>2017-04-20T10:09:00Z</time>
      </trkpt>
      <trkpt lat="45.0598" lon="6.54267">
        <ele>2335.6</ele>
        <time>2017-04-20T10:09:05Z</time>
      </trkpt>
      <trkpt lat="45.05984" lon="6.54268">
        <ele>2336.6</ele>
        <time>2017-04-20T10:09:10Z</time>
      </trkpt>
      <trkpt lat="45.05987" lon="6.54269">
        <ele>2333.4</ele>
        <time>2017-04-20T10:09:15Z</time>
      </trkpt>
      <trkpt lat="45.0599" lon="6.5427">
        <ele>2334</ele>
        <time>2017-04-20T10:09:20Z</time>
      </trkpt>
      <trkpt lat="45.05993" lon="6.54271">
        <ele>2335.6</ele>
        <time>2017-04-20T10:09:25Z</time>
      </trkpt>
      <trkpt lat="45.05996" lon="6.54272">
        <ele>2335.8</ele>
        <time>2017-04-20T10:09:30Z</time>
      </trkpt>
      <trkpt lat="45.05998" lon="6.54273">
        <ele>2338.4</ele>
        <time>2017-04-20T10:09:35Z</time>
      </trkpt>
      <trkpt lat="45.06001" lon="6.54273">
        <ele>2338.4</ele>
        <time>2017-04-20T10:09:40Z</time>
      </trkpt>
      <trkpt lat="45.06004" lon="6.54274">
        <ele>2339.4</ele>
        <time>2017-04-20T10:09:45Z</time>
      </trkpt>
      <trkpt lat="45.06007" lon="6.54274">
        <ele>2339.4</ele>
        <time>2017-04-20T10:09:50Z</time>
      </trkpt>
      <trkpt lat="45.0601" lon="6.54274">
        <ele>2340.2</ele>
        <time>2017-04-20T10:09:55Z</time>
      </trkpt>
      <trkpt lat="45.06012" lon="6.54274">
        <ele>2339.8</ele>
        <time>2017-04-20T10:10:00Z</time>
      </trkpt>
      <trkpt lat="45.06015" lon="6.54274">
        <ele>2340</ele>
        <time>2017-04-20T10:10:05Z</time>
      </trkpt>
      <trkpt lat="45.06017" lon="6.54273">
        <ele>2340.8</ele>
        <time>2017-04-20T10:10:10Z</time>
      </trkpt>
      <trkpt lat="45.06018" lon="6.54273">
        <ele>2341.6</ele>
        <time>2017-04-20T10:10:45Z</time>
      </trkpt>
      <trkpt lat="45.06018" lon="6.54273">
        <ele>2338.8</ele>
        <time>2017-04-20T10:10:50Z</time>
      </trkpt>
      <trkpt lat="45.06021" lon="6.54273">
        <ele>2339.6</ele>
        <time>2017-04-20T10:10:55Z</time>
      </trkpt>
      <trkpt lat="45.06024" lon="6.54273">
        <ele>2341</ele>
        <time>2017-04-20T10:11:00Z</time>
      </trkpt>
      <trkpt lat="45.06027" lon="6.54273">
        <ele>2343.4</ele>
        <time>2017-04-20T10:11:05Z</time>
      </trkpt>
      <trkpt lat="45.06029" lon="6.54273">
        <ele>2342.8</ele>
        <time>2017-04-20T10:11:10Z</time>
      </trkpt>
      <trkpt lat="45.06031" lon="6.54273">
        <ele>2345.2</ele>
        <time>2017-04-20T10:11:15Z</time>
      </trkpt>
      <trkpt lat="45.06034" lon="6.54273">
        <ele>2345.8</ele>
        <time>2017-04-20T10:11:20Z</time>
      </trkpt>
      <trkpt lat="45.06036" lon="6.54272">
        <ele>2344.8</ele>
        <time>2017-04-20T10:11:25Z</time>
      </trkpt>
      <trkpt lat="45.06039" lon="6.54272">
        <ele>2347.4</ele>
        <time>2017-04-20T10:11:30Z</time>
      </trkpt>
      <trkpt lat="45.0604" lon="6.54272">
        <ele>2346.4</ele>
        <time>2017-04-20T10:11:35Z</time>
      </trkpt>
      <trkpt lat="45.06041" lon="6.54272">
        <ele>2344.6</ele>
        <time>2017-04-20T10:11:40Z</time>
      </trkpt>
      <trkpt lat="45.06043" lon="6.54271">
        <ele>2343.8</ele>
        <time>2017-04-20T10:11:45Z</time>
      </trkpt>
      <trkpt lat="45.06045" lon="6.54271">
        <ele>2342.8</ele>
        <time>2017-04-20T10:11:50Z</time>
      </trkpt>
      <trkpt lat="45.06046" lon="6.54271">
        <ele>2345.8</ele>
        <time>2017-04-20T10:11:55Z</time>
      </trkpt>
      <trkpt lat="45.06049" lon="6.54271">
        <ele>2345</ele>
        <time>2017-04-20T10:12:00Z</time>
      </trkpt>
      <trkpt lat="45.06051" lon="6.54272">
        <ele>2345.4</ele>
        <time>2017-04-20T10:12:05Z</time>
      </trkpt>
      <trkpt lat="45.06054" lon="6.54272">
        <ele>2349.2</ele>
        <time>2017-04-20T10:12:10Z</time>
      </trkpt>
      <trkpt lat="45.06057" lon="6.54273">
        <ele>2347.8</ele>
        <time>2017-04-20T10:12:15Z</time>
      </trkpt>
      <trkpt lat="45.0606" lon="6.54273">
        <ele>2350.8</ele>
        <time>2017-04-20T10:12:20Z</time>
      </trkpt>
      <trkpt lat="45.06063" lon="6.54274">
        <ele>2350.8</ele>
        <time>2017-04-20T10:12:25Z</time>
      </trkpt>
      <trkpt lat="45.06065" lon="6.54274">
        <ele>2350.6</ele>
        <time>2017-04-20T10:12:30Z</time>
      </trkpt>
      <trkpt lat="45.06067" lon="6.54275">
        <ele>2353</ele>
        <time>2017-04-20T10:12:35Z</time>
      </trkpt>
      <trkpt lat="45.0607" lon="6.54275">
        <ele>2354.2</ele>
        <time>2017-04-20T10:12:40Z</time>
      </trkpt>
      <trkpt lat="45.06072" lon="6.54275">
        <ele>2354</ele>
        <time>2017-04-20T10:12:45Z</time>
      </trkpt>
      <trkpt lat="45.06074" lon="6.54275">
        <ele>2356.4</ele>
        <time>2017-04-20T10:12:50Z</time>
      </trkpt>
      <trkpt lat="45.06077" lon="6.54274">
        <ele>2354.2</ele>
        <time>2017-04-20T10:12:55Z</time>
      </trkpt>
      <trkpt lat="45.06077" lon="6.54274">
        <ele>2356.6</ele>
        <time>2017-04-20T10:13:00Z</time>
      </trkpt>
      <trkpt lat="45.0608" lon="6.54273">
        <ele>2356</ele>
        <time>2017-04-20T10:13:05Z</time>
      </trkpt>
      <trkpt lat="45.06082" lon="6.54273">
        <ele>2355.6</ele>
        <time>2017-04-20T10:13:10Z</time>
      </trkpt>
      <trkpt lat="45.06084" lon="6.54272">
        <ele>2356.6</ele>
        <time>2017-04-20T10:13:15Z</time>
      </trkpt>
      <trkpt lat="45.06087" lon="6.54271">
        <ele>2357.4</ele>
        <time>2017-04-20T10:13:20Z</time>
      </trkpt>
      <trkpt lat="45.06089" lon="6.5427">
        <ele>2355.6</ele>
        <time>2017-04-20T10:13:25Z</time>
      </trkpt>
      <trkpt lat="45.06091" lon="6.54269">
        <ele>2358</ele>
        <time>2017-04-20T10:13:30Z</time>
      </trkpt>
      <trkpt lat="45.06094" lon="6.54268">
        <ele>2359.4</ele>
        <time>2017-04-20T10:13:35Z</time>
      </trkpt>
      <trkpt lat="45.06096" lon="6.54267">
        <ele>2359.4</ele>
        <time>2017-04-20T10:13:40Z</time>
      </trkpt>
      <trkpt lat="45.06098" lon="6.54266">
        <ele>2358.4</ele>
        <time>2017-04-20T10:13:45Z</time>
      </trkpt>
      <trkpt lat="45.06101" lon="6.54266">
        <ele>2358.4</ele>
        <time>2017-04-20T10:13:50Z</time>
      </trkpt>
      <trkpt lat="45.06104" lon="6.54265">
        <ele>2358.8</ele>
        <time>2017-04-20T10:13:55Z</time>
      </trkpt>
      <trkpt lat="45.06106" lon="6.54264">
        <ele>2359.8</ele>
        <time>2017-04-20T10:14:00Z</time>
      </trkpt>
      <trkpt lat="45.06108" lon="6.54263">
        <ele>2358.8</ele>
        <time>2017-04-20T10:14:05Z</time>
      </trkpt>
      <trkpt lat="45.0611" lon="6.54262">
        <ele>2361.2</ele>
        <time>2017-04-20T10:14:10Z</time>
      </trkpt>
      <trkpt lat="45.06113" lon="6.54261">
        <ele>2363.4</ele>
        <time>2017-04-20T10:14:15Z</time>
      </trkpt>
      <trkpt lat="45.06115" lon="6.5426">
        <ele>2364.6</ele>
        <time>2017-04-20T10:14:20Z</time>
      </trkpt>
      <trkpt lat="45.06117" lon="6.54258">
        <ele>2363.6</ele>
        <time>2017-04-20T10:14:26Z</time>
      </trkpt>
      <trkpt lat="45.06119" lon="6.54257">
        <ele>2365.4</ele>
        <time>2017-04-20T10:14:31Z</time>
      </trkpt>
      <trkpt lat="45.06121" lon="6.54256">
        <ele>2363.6</ele>
        <time>2017-04-20T10:14:36Z</time>
      </trkpt>
      <trkpt lat="45.06122" lon="6.54254">
        <ele>2363</ele>
        <time>2017-04-20T10:14:41Z</time>
      </trkpt>
      <trkpt lat="45.06125" lon="6.54254">
        <ele>2364.6</ele>
        <time>2017-04-20T10:14:46Z</time>
      </trkpt>
      <trkpt lat="45.06126" lon="6.54255">
        <ele>2365</ele>
        <time>2017-04-20T10:14:51Z</time>
      </trkpt>
      <trkpt lat="45.06126" lon="6.54255">
        <ele>2366</ele>
        <time>2017-04-20T10:15:16Z</time>
      </trkpt>
      <trkpt lat="45.06127" lon="6.54257">
        <ele>2367.6</ele>
        <time>2017-04-20T10:15:21Z</time>
      </trkpt>
      <trkpt lat="45.06129" lon="6.5426">
        <ele>2366</ele>
        <time>2017-04-20T10:15:26Z</time>
      </trkpt>
      <trkpt lat="45.06132" lon="6.54263">
        <ele>2365.4</ele>
        <time>2017-04-20T10:15:31Z</time>
      </trkpt>
      <trkpt lat="45.06134" lon="6.54265">
        <ele>2369</ele>
        <time>2017-04-20T10:15:36Z</time>
      </trkpt>
      <trkpt lat="45.06136" lon="6.54268">
        <ele>2368.4</ele>
        <time>2017-04-20T10:15:41Z</time>
      </trkpt>
      <trkpt lat="45.06137" lon="6.54268">
        <ele>2368.4</ele>
        <time>2017-04-20T10:15:46Z</time>
      </trkpt>
      <trkpt lat="45.06138" lon="6.54269">
        <ele>2367</ele>
        <time>2017-04-20T10:17:06Z</time>
      </trkpt>
      <trkpt lat="45.06139" lon="6.54274">
        <ele>2369</ele>
        <time>2017-04-20T10:17:11Z</time>
      </trkpt>
      <trkpt lat="45.0614" lon="6.54275">
        <ele>2369</ele>
        <time>2017-04-20T10:17:16Z</time>
      </trkpt>
      <trkpt lat="45.0614" lon="6.54278">
        <ele>2370.2</ele>
        <time>2017-04-20T10:17:21Z</time>
      </trkpt>
      <trkpt lat="45.0614" lon="6.54283">
        <ele>2367.2</ele>
        <time>2017-04-20T10:17:26Z</time>
      </trkpt>
      <trkpt lat="45.0614" lon="6.54288">
        <ele>2372.4</ele>
        <time>2017-04-20T10:17:31Z</time>
      </trkpt>
      <trkpt lat="45.06141" lon="6.54294">
        <ele>2369</ele>
        <time>2017-04-20T10:17:36Z</time>
      </trkpt>
      <trkpt lat="45.06141" lon="6.543">
        <ele>2373.6</ele>
        <time>2017-04-20T10:17:41Z</time>
      </trkpt>
      <trkpt lat="45.06141" lon="6.54302">
        <ele>2372.4</ele>
        <time>2017-04-20T10:17:46Z</time>
      </trkpt>
      <trkpt lat="45.0614" lon="6.54308">
        <ele>2372</ele>
        <time>2017-04-20T10:17:51Z</time>
      </trkpt>
      <trkpt lat="45.0614" lon="6.54314">
        <ele>2376</ele>
        <time>2017-04-20T10:17:56Z</time>
      </trkpt>
      <trkpt lat="45.0614" lon="6.5432">
        <ele>2371.2</ele>
        <time>2017-04-20T10:18:01Z</time>
      </trkpt>
      <trkpt lat="45.06139" lon="6.54326">
        <ele>2371.8</ele>
        <time>2017-04-20T10:18:06Z</time>
      </trkpt>
      <trkpt lat="45.06138" lon="6.54331">
        <ele>2373.4</ele>
        <time>2017-04-20T10:18:11Z</time>
      </trkpt>
      <trkpt lat="45.06137" lon="6.54335">
        <ele>2371.8</ele>
        <time>2017-04-20T10:18:16Z</time>
      </trkpt>
      <trkpt lat="45.06137" lon="6.5434">
        <ele>2377.2</ele>
        <time>2017-04-20T10:18:21Z</time>
      </trkpt>
      <trkpt lat="45.06137" lon="6.54345">
        <ele>2375.4</ele>
        <time>2017-04-20T10:18:26Z</time>
      </trkpt>
      <trkpt lat="45.06138" lon="6.54348">
        <ele>2376.6</ele>
        <time>2017-04-20T10:18:31Z</time>
      </trkpt>
      <trkpt lat="45.06138" lon="6.54349">
        <ele>2372.8</ele>
        <time>2017-04-20T10:19:32Z</time>
      </trkpt>
      <trkpt lat="45.06139" lon="6.54354">
        <ele>2376.6</ele>
        <time>2017-04-20T10:19:37Z</time>
      </trkpt>
      <trkpt lat="45.0614" lon="6.5436">
        <ele>2374.6</ele>
        <time>2017-04-20T10:19:42Z</time>
      </trkpt>
      <trkpt lat="45.06142" lon="6.54365">
        <ele>2376.2</ele>
        <time>2017-04-20T10:19:47Z</time>
      </trkpt>
      <trkpt lat="45.06145" lon="6.54373">
        <ele>2377</ele>
        <time>2017-04-20T10:19:53Z</time>
      </trkpt>
      <trkpt lat="45.06147" lon="6.5438">
        <ele>2376.6</ele>
        <time>2017-04-20T10:19:59Z</time>
      </trkpt>
      <trkpt lat="45.06148" lon="6.54386">
        <ele>2375.8</ele>
        <time>2017-04-20T10:20:04Z</time>
      </trkpt>
      <trkpt lat="45.06149" lon="6.54391">
        <ele>2376.6</ele>
        <time>2017-04-20T10:20:09Z</time>
      </trkpt>
      <trkpt lat="45.0615" lon="6.54396">
        <ele>2379.4</ele>
        <time>2017-04-20T10:20:14Z</time>
      </trkpt>
      <trkpt lat="45.06151" lon="6.544">
        <ele>2378</ele>
        <time>2017-04-20T10:20:19Z</time>
      </trkpt>
      <trkpt lat="45.06151" lon="6.54404">
        <ele>2378.6</ele>
        <time>2017-04-20T10:20:24Z</time>
      </trkpt>
      <trkpt lat="45.06151" lon="6.54409">
        <ele>2380</ele>
        <time>2017-04-20T10:20:29Z</time>
      </trkpt>
      <trkpt lat="45.06151" lon="6.54414">
        <ele>2381</ele>
        <time>2017-04-20T10:20:34Z</time>
      </trkpt>
      <trkpt lat="45.06151" lon="6.54418">
        <ele>2383.2</ele>
        <time>2017-04-20T10:20:39Z</time>
      </trkpt>
      <trkpt lat="45.06152" lon="6.54423">
        <ele>2383</ele>
        <time>2017-04-20T10:20:44Z</time>
      </trkpt>
      <trkpt lat="45.06152" lon="6.54425">
        <ele>2380.8</ele>
        <time>2017-04-20T10:20:49Z</time>
      </trkpt>
      <trkpt lat="45.06152" lon="6.54429">
        <ele>2380.6</ele>
        <time>2017-04-20T10:20:54Z</time>
      </trkpt>
      <trkpt lat="45.06153" lon="6.54433">
        <ele>2381.8</ele>
        <time>2017-04-20T10:20:59Z</time>
      </trkpt>
      <trkpt lat="45.06156" lon="6.54434">
        <ele>2383.6</ele>
        <time>2017-04-20T10:21:04Z</time>
      </trkpt>
      <trkpt lat="45.06159" lon="6.54433">
        <ele>2382.8</ele>
        <time>2017-04-20T10:21:09Z</time>
      </trkpt>
      <trkpt lat="45.06161" lon="6.54433">
        <ele>2382.8</ele>
        <time>2017-04-20T10:21:14Z</time>
      </trkpt>
      <trkpt lat="45.06163" lon="6.54431">
        <ele>2383</ele>
        <time>2017-04-20T10:21:19Z</time>
      </trkpt>
      <trkpt lat="45.06165" lon="6.54429">
        <ele>2384</ele>
        <time>2017-04-20T10:21:24Z</time>
      </trkpt>
      <trkpt lat="45.06167" lon="6.54427">
        <ele>2386.6</ele>
        <time>2017-04-20T10:21:29Z</time>
      </trkpt>
      <trkpt lat="45.06169" lon="6.54425">
        <ele>2386.2</ele>
        <time>2017-04-20T10:21:34Z</time>
      </trkpt>
      <trkpt lat="45.06172" lon="6.54425">
        <ele>2385.8</ele>
        <time>2017-04-20T10:21:39Z</time>
      </trkpt>
      <trkpt lat="45.06174" lon="6.54427">
        <ele>2388.8</ele>
        <time>2017-04-20T10:21:44Z</time>
      </trkpt>
      <trkpt lat="45.06174" lon="6.54431">
        <ele>2388.4</ele>
        <time>2017-04-20T10:21:49Z</time>
      </trkpt>
      <trkpt lat="45.06175" lon="6.54435">
        <ele>2385.8</ele>
        <time>2017-04-20T10:21:54Z</time>
      </trkpt>
      <trkpt lat="45.06176" lon="6.54438">
        <ele>2388.8</ele>
        <time>2017-04-20T10:21:59Z</time>
      </trkpt>
      <trkpt lat="45.06176" lon="6.54442">
        <ele>2389.6</ele>
        <time>2017-04-20T10:22:04Z</time>
      </trkpt>
      <trkpt lat="45.06177" lon="6.54446">
        <ele>2391.2</ele>
        <time>2017-04-20T10:22:09Z</time>
      </trkpt>
      <trkpt lat="45.06178" lon="6.54449">
        <ele>2391.6</ele>
        <time>2017-04-20T10:22:14Z</time>
      </trkpt>
      <trkpt lat="45.06178" lon="6.54452">
        <ele>2392.2</ele>
        <time>2017-04-20T10:22:19Z</time>
      </trkpt>
      <trkpt lat="45.06179" lon="6.54456">
        <ele>2392</ele>
        <time>2017-04-20T10:22:24Z</time>
      </trkpt>
      <trkpt lat="45.06179" lon="6.54459">
        <ele>2390.8</ele>
        <time>2017-04-20T10:22:29Z</time>
      </trkpt>
      <trkpt lat="45.06179" lon="6.54463">
        <ele>2392.4</ele>
        <time>2017-04-20T10:22:34Z</time>
      </trkpt>
      <trkpt lat="45.0618" lon="6.54466">
        <ele>2392.4</ele>
        <time>2017-04-20T10:22:39Z</time>
      </trkpt>
      <trkpt lat="45.06181" lon="6.5447">
        <ele>2393.8</ele>
        <time>2017-04-20T10:22:44Z</time>
      </trkpt>
      <trkpt lat="45.06182" lon="6.54473">
        <ele>2392.4</ele>
        <time>2017-04-20T10:22:49Z</time>
      </trkpt>
      <trkpt lat="45.06184" lon="6.54473">
        <ele>2393.4</ele>
        <time>2017-04-20T10:22:54Z</time>
      </trkpt>
      <trkpt lat="45.06186" lon="6.54471">
        <ele>2398.2</ele>
        <time>2017-04-20T10:22:59Z</time>
      </trkpt>
      <trkpt lat="45.06189" lon="6.5447">
        <ele>2399.8</ele>
        <time>2017-04-20T10:23:04Z</time>
      </trkpt>
      <trkpt lat="45.06191" lon="6.54469">
        <ele>2399.2</ele>
        <time>2017-04-20T10:23:09Z</time>
      </trkpt>
      <trkpt lat="45.06194" lon="6.54469">
        <ele>2398.8</ele>
        <time>2017-04-20T10:23:14Z</time>
      </trkpt>
      <trkpt lat="45.06196" lon="6.54469">
        <ele>2399.4</ele>
        <time>2017-04-20T10:23:19Z</time>
      </trkpt>
      <trkpt lat="45.06199" lon="6.54469">
        <ele>2398</ele>
        <time>2017-04-20T10:23:24Z</time>
      </trkpt>
      <trkpt lat="45.06201" lon="6.54471">
        <ele>2398.8</ele>
        <time>2017-04-20T10:23:29Z</time>
      </trkpt>
      <trkpt lat="45.06202" lon="6.54474">
        <ele>2400</ele>
        <time>2017-04-20T10:23:34Z</time>
      </trkpt>
      <trkpt lat="45.06202" lon="6.54478">
        <ele>2399.4</ele>
        <time>2017-04-20T10:23:39Z</time>
      </trkpt>
      <trkpt lat="45.06203" lon="6.54482">
        <ele>2401.8</ele>
        <time>2017-04-20T10:23:44Z</time>
      </trkpt>
      <trkpt lat="45.06203" lon="6.54486">
        <ele>2402.2</ele>
        <time>2017-04-20T10:23:49Z</time>
      </trkpt>
      <trkpt lat="45.06203" lon="6.5449">
        <ele>2403.4</ele>
        <time>2017-04-20T10:23:54Z</time>
      </trkpt>
      <trkpt lat="45.06202" lon="6.54494">
        <ele>2404.6</ele>
        <time>2017-04-20T10:23:59Z</time>
      </trkpt>
      <trkpt lat="45.06202" lon="6.54498">
        <ele>2404.8</ele>
        <time>2017-04-20T10:24:04Z</time>
      </trkpt>
      <trkpt lat="45.06202" lon="6.54502">
        <ele>2407</ele>
        <time>2017-04-20T10:24:09Z</time>
      </trkpt>
      <trkpt lat="45.06203" lon="6.54506">
        <ele>2405.4</ele>
        <time>2017-04-20T10:24:14Z</time>
      </trkpt>
      <trkpt lat="45.06203" lon="6.54509">
        <ele>2404</ele>
        <time>2017-04-20T10:24:19Z</time>
      </trkpt>
      <trkpt lat="45.06203" lon="6.54509">
        <ele>2404.6</ele>
        <time>2017-04-20T10:24:49Z</time>
      </trkpt>
      <trkpt lat="45.06204" lon="6.54511">
        <ele>2404</ele>
        <time>2017-04-20T10:24:54Z</time>
      </trkpt>
      <trkpt lat="45.06205" lon="6.54513">
        <ele>2403.4</ele>
        <time>2017-04-20T10:25:04Z</time>
      </trkpt>
      <trkpt lat="45.06207" lon="6.54516">
        <ele>2406.8</ele>
        <time>2017-04-20T10:25:09Z</time>
      </trkpt>
      <trkpt lat="45.06209" lon="6.5452">
        <ele>2405.2</ele>
        <time>2017-04-20T10:25:14Z</time>
      </trkpt>
      <trkpt lat="45.06212" lon="6.54524">
        <ele>2404.8</ele>
        <time>2017-04-20T10:25:19Z</time>
      </trkpt>
      <trkpt lat="45.06214" lon="6.54528">
        <ele>2405.6</ele>
        <time>2017-04-20T10:25:24Z</time>
      </trkpt>
      <trkpt lat="45.06218" lon="6.54532">
        <ele>2407.2</ele>
        <time>2017-04-20T10:25:30Z</time>
      </trkpt>
      <trkpt lat="45.0622" lon="6.54535">
        <ele>2409.2</ele>
        <time>2017-04-20T10:25:35Z</time>
      </trkpt>
      <trkpt lat="45.06223" lon="6.54538">
        <ele>2409.4</ele>
        <time>2017-04-20T10:25:40Z</time>
      </trkpt>
      <trkpt lat="45.06225" lon="6.54542">
        <ele>2408.2</ele>
        <time>2017-04-20T10:25:45Z</time>
      </trkpt>
      <trkpt lat="45.06227" lon="6.54546">
        <ele>2408</ele>
        <time>2017-04-20T10:25:50Z</time>
      </trkpt>
      <trkpt lat="45.0623" lon="6.5455">
        <ele>2409</ele>
        <time>2017-04-20T10:25:55Z</time>
      </trkpt>
      <trkpt lat="45.0623" lon="6.54552">
        <ele>2411.4</ele>
        <time>2017-04-20T10:26:00Z</time>
      </trkpt>
      <trkpt lat="45.06233" lon="6.54556">
        <ele>2409.6</ele>
        <time>2017-04-20T10:26:40Z</time>
      </trkpt>
      <trkpt lat="45.06235" lon="6.5456">
        <ele>2414.2</ele>
        <time>2017-04-20T10:26:45Z</time>
      </trkpt>
      <trkpt lat="45.06237" lon="6.54564">
        <ele>2412.8</ele>
        <time>2017-04-20T10:26:50Z</time>
      </trkpt>
      <trkpt lat="45.06238" lon="6.54569">
        <ele>2409.6</ele>
        <time>2017-04-20T10:26:55Z</time>
      </trkpt>
      <trkpt lat="45.06239" lon="6.54574">
        <ele>2411.2</ele>
        <time>2017-04-20T10:27:00Z</time>
      </trkpt>
      <trkpt lat="45.0624" lon="6.5458">
        <ele>2413.8</ele>
        <time>2017-04-20T10:27:05Z</time>
      </trkpt>
      <trkpt lat="45.0624" lon="6.54584">
        <ele>2414.2</ele>
        <time>2017-04-20T10:27:10Z</time>
      </trkpt>
      <trkpt lat="45.06241" lon="6.54589">
        <ele>2415.4</ele>
        <time>2017-04-20T10:27:15Z</time>
      </trkpt>
      <trkpt lat="45.06243" lon="6.54594">
        <ele>2414.4</ele>
        <time>2017-04-20T10:27:20Z</time>
      </trkpt>
      <trkpt lat="45.06244" lon="6.546">
        <ele>2415.2</ele>
        <time>2017-04-20T10:27:25Z</time>
      </trkpt>
      <trkpt lat="45.06245" lon="6.54605">
        <ele>2414.6</ele>
        <time>2017-04-20T10:27:30Z</time>
      </trkpt>
      <trkpt lat="45.06245" lon="6.54611">
        <ele>2415.4</ele>
        <time>2017-04-20T10:27:35Z</time>
      </trkpt>
      <trkpt lat="45.06246" lon="6.54616">
        <ele>2417.2</ele>
        <time>2017-04-20T10:27:40Z</time>
      </trkpt>
      <trkpt lat="45.06246" lon="6.54621">
        <ele>2416</ele>
        <time>2017-04-20T10:27:45Z</time>
      </trkpt>
      <trkpt lat="45.06246" lon="6.54626">
        <ele>2414.8</ele>
        <time>2017-04-20T10:27:50Z</time>
      </trkpt>
      <trkpt lat="45.06246" lon="6.54631">
        <ele>2417.8</ele>
        <time>2017-04-20T10:27:55Z</time>
      </trkpt>
      <trkpt lat="45.06246" lon="6.54636">
        <ele>2417</ele>
        <time>2017-04-20T10:28:00Z</time>
      </trkpt>
      <trkpt lat="45.06246" lon="6.54641">
        <ele>2420</ele>
        <time>2017-04-20T10:28:05Z</time>
      </trkpt>
      <trkpt lat="45.06246" lon="6.54646">
        <ele>2419</ele>
        <time>2017-04-20T10:28:10Z</time>
      </trkpt>
      <trkpt lat="45.06246" lon="6.5465">
        <ele>2420</ele>
        <time>2017-04-20T10:28:15Z</time>
      </trkpt>
      <trkpt lat="45.06247" lon="6.54654">
        <ele>2419.4</ele>
        <time>2017-04-20T10:28:20Z</time>
      </trkpt>
      <trkpt lat="45.06247" lon="6.54659">
        <ele>2421.4</ele>
        <time>2017-04-20T10:28:25Z</time>
      </trkpt>
      <trkpt lat="45.06247" lon="6.54663">
        <ele>2421.4</ele>
        <time>2017-04-20T10:28:30Z</time>
      </trkpt>
      <trkpt lat="45.06248" lon="6.54667">
        <ele>2420</ele>
        <time>2017-04-20T10:28:35Z</time>
      </trkpt>
      <trkpt lat="45.06248" lon="6.54671">
        <ele>2424.4</ele>
        <time>2017-04-20T10:28:40Z</time>
      </trkpt>
      <trkpt lat="45.06248" lon="6.54676">
        <ele>2423.6</ele>
        <time>2017-04-20T10:28:45Z</time>
      </trkpt>
      <trkpt lat="45.06247" lon="6.5468">
        <ele>2422.4</ele>
        <time>2017-04-20T10:28:50Z</time>
      </trkpt>
      <trkpt lat="45.06246" lon="6.54685">
        <ele>2425.2</ele>
        <time>2017-04-20T10:28:55Z</time>
      </trkpt>
      <trkpt lat="45.06245" lon="6.54689">
        <ele>2424.4</ele>
        <time>2017-04-20T10:29:00Z</time>
      </trkpt>
      <trkpt lat="45.06244" lon="6.54692">
        <ele>2427.2</ele>
        <time>2017-04-20T10:29:05Z</time>
      </trkpt>
      <trkpt lat="45.06243" lon="6.54696">
        <ele>2427.2</ele>
        <time>2017-04-20T10:29:10Z</time>
      </trkpt>
      <trkpt lat="45.06243" lon="6.547">
        <ele>2424.6</ele>
        <time>2017-04-20T10:29:15Z</time>
      </trkpt>
      <trkpt lat="45.06242" lon="6.54704">
        <ele>2426</ele>
        <time>2017-04-20T10:29:20Z</time>
      </trkpt>
      <trkpt lat="45.06242" lon="6.54709">
        <ele>2427</ele>
        <time>2017-04-20T10:29:25Z</time>
      </trkpt>
      <trkpt lat="45.06241" lon="6.54713">
        <ele>2427</ele>
        <time>2017-04-20T10:29:30Z</time>
      </trkpt>
      <trkpt lat="45.06242" lon="6.54716">
        <ele>2428.2</ele>
        <time>2017-04-20T10:29:35Z</time>
      </trkpt>
      <trkpt lat="45.06242" lon="6.5472">
        <ele>2430.2</ele>
        <time>2017-04-20T10:29:40Z</time>
      </trkpt>
      <trkpt lat="45.06242" lon="6.54724">
        <ele>2428.8</ele>
        <time>2017-04-20T10:29:45Z</time>
      </trkpt>
      <trkpt lat="45.06243" lon="6.54728">
        <ele>2430.8</ele>
        <time>2017-04-20T10:29:50Z</time>
      </trkpt>
      <trkpt lat="45.06243" lon="6.54732">
        <ele>2429.8</ele>
        <time>2017-04-20T10:29:55Z</time>
      </trkpt>
      <trkpt lat="45.06243" lon="6.54736">
        <ele>2431</ele>
        <time>2017-04-20T10:30:00Z</time>
      </trkpt>
      <trkpt lat="45.06243" lon="6.54741">
        <ele>2429.6</ele>
        <time>2017-04-20T10:30:06Z</time>
      </trkpt>
      <trkpt lat="45.06243" lon="6.54745">
        <ele>2432.6</ele>
        <time>2017-04-20T10:30:11Z</time>
      </trkpt>
      <trkpt lat="45.06243" lon="6.54749">
        <ele>2432</ele>
        <time>2017-04-20T10:30:16Z</time>
      </trkpt>
      <trkpt lat="45.06243" lon="6.54753">
        <ele>2431.6</ele>
        <time>2017-04-20T10:30:21Z</time>
      </trkpt>
      <trkpt lat="45.06243" lon="6.54757">
        <ele>2432.6</ele>
        <time>2017-04-20T10:30:26Z</time>
      </trkpt>
      <trkpt lat="45.06243" lon="6.5476">
        <ele>2433.6</ele>
        <time>2017-04-20T10:30:31Z</time>
      </trkpt>
      <trkpt lat="45.06243" lon="6.54764">
        <ele>2435</ele>
        <time>2017-04-20T10:30:36Z</time>
      </trkpt>
      <trkpt lat="45.06242" lon="6.54767">
        <ele>2435.2</ele>
        <time>2017-04-20T10:30:41Z</time>
      </trkpt>
      <trkpt lat="45.06241" lon="6.54771">
        <ele>2437</ele>
        <time>2017-04-20T10:30:46Z</time>
      </trkpt>
      <trkpt lat="45.06241" lon="6.54773">
        <ele>2436.6</ele>
        <time>2017-04-20T10:30:51Z</time>
      </trkpt>
      <trkpt lat="45.0624" lon="6.54774">
        <ele>2436.2</ele>
        <time>2017-04-20T10:30:56Z</time>
      </trkpt>
      <trkpt lat="45.06239" lon="6.54777">
        <ele>2439.2</ele>
        <time>2017-04-20T10:31:01Z</time>
      </trkpt>
      <trkpt lat="45.06238" lon="6.54781">
        <ele>2437</ele>
        <time>2017-04-20T10:31:06Z</time>
      </trkpt>
      <trkpt lat="45.06237" lon="6.54784">
        <ele>2438.4</ele>
        <time>2017-04-20T10:31:11Z</time>
      </trkpt>
      <trkpt lat="45.06236" lon="6.54787">
        <ele>2439.4</ele>
        <time>2017-04-20T10:31:16Z</time>
      </trkpt>
      <trkpt lat="45.06234" lon="6.5479">
        <ele>2438.2</ele>
        <time>2017-04-20T10:31:21Z</time>
      </trkpt>
      <trkpt lat="45.06233" lon="6.54793">
        <ele>2441</ele>
        <time>2017-04-20T10:31:26Z</time>
      </trkpt>
      <trkpt lat="45.06231" lon="6.54796">
        <ele>2439.8</ele>
        <time>2017-04-20T10:31:31Z</time>
      </trkpt>
      <trkpt lat="45.0623" lon="6.54799">
        <ele>2440.8</ele>
        <time>2017-04-20T10:31:36Z</time>
      </trkpt>
      <trkpt lat="45.06228" lon="6.54802">
        <ele>2442.6</ele>
        <time>2017-04-20T10:31:41Z</time>
      </trkpt>
      <trkpt lat="45.06227" lon="6.54804">
        <ele>2440</ele>
        <time>2017-04-20T10:31:46Z</time>
      </trkpt>
      <trkpt lat="45.06226" lon="6.54807">
        <ele>2441.2</ele>
        <time>2017-04-20T10:31:51Z</time>
      </trkpt>
      <trkpt lat="45.06224" lon="6.5481">
        <ele>2445.2</ele>
        <time>2017-04-20T10:31:56Z</time>
      </trkpt>
      <trkpt lat="45.06222" lon="6.54813">
        <ele>2444.2</ele>
        <time>2017-04-20T10:32:01Z</time>
      </trkpt>
      <trkpt lat="45.06221" lon="6.54816">
        <ele>2443.4</ele>
        <time>2017-04-20T10:32:06Z</time>
      </trkpt>
      <trkpt lat="45.0622" lon="6.54819">
        <ele>2441.2</ele>
        <time>2017-04-20T10:32:11Z</time>
      </trkpt>
      <trkpt lat="45.06218" lon="6.54823">
        <ele>2444.2</ele>
        <time>2017-04-20T10:32:16Z</time>
      </trkpt>
      <trkpt lat="45.06217" lon="6.54826">
        <ele>2446.8</ele>
        <time>2017-04-20T10:32:21Z</time>
      </trkpt>
      <trkpt lat="45.06215" lon="6.54829">
        <ele>2446.8</ele>
        <time>2017-04-20T10:32:26Z</time>
      </trkpt>
      <trkpt lat="45.06214" lon="6.54833">
        <ele>2446.4</ele>
        <time>2017-04-20T10:32:31Z</time>
      </trkpt>
      <trkpt lat="45.06213" lon="6.54836">
        <ele>2448.6</ele>
        <time>2017-04-20T10:32:36Z</time>
      </trkpt>
      <trkpt lat="45.06212" lon="6.5484">
        <ele>2448.4</ele>
        <time>2017-04-20T10:32:41Z</time>
      </trkpt>
      <trkpt lat="45.06211" lon="6.54844">
        <ele>2449.2</ele>
        <time>2017-04-20T10:32:46Z</time>
      </trkpt>
      <trkpt lat="45.0621" lon="6.54848">
        <ele>2447.6</ele>
        <time>2017-04-20T10:32:51Z</time>
      </trkpt>
      <trkpt lat="45.06209" lon="6.54853">
        <ele>2450.8</ele>
        <time>2017-04-20T10:32:56Z</time>
      </trkpt>
      <trkpt lat="45.06209" lon="6.54858">
        <ele>2453.4</ele>
        <time>2017-04-20T10:33:01Z</time>
      </trkpt>
      <trkpt lat="45.0621" lon="6.54862">
        <ele>2451</ele>
        <time>2017-04-20T10:33:06Z</time>
      </trkpt>
      <trkpt lat="45.06211" lon="6.54864">
        <ele>2451.2</ele>
        <time>2017-04-20T10:33:11Z</time>
      </trkpt>
      <trkpt lat="45.06214" lon="6.54866">
        <ele>2453.6</ele>
        <time>2017-04-20T10:33:16Z</time>
      </trkpt>
      <trkpt lat="45.06217" lon="6.54869">
        <ele>2454.2</ele>
        <time>2017-04-20T10:33:21Z</time>
      </trkpt>
      <trkpt lat="45.06221" lon="6.54871">
        <ele>2452.8</ele>
        <time>2017-04-20T10:33:26Z</time>
      </trkpt>
      <trkpt lat="45.06225" lon="6.54874">
        <ele>2453.4</ele>
        <time>2017-04-20T10:33:31Z</time>
      </trkpt>
      <trkpt lat="45.06229" lon="6.54878">
        <ele>2454.4</ele>
        <time>2017-04-20T10:33:36Z</time>
      </trkpt>
      <trkpt lat="45.06231" lon="6.54879">
        <ele>2453.4</ele>
        <time>2017-04-20T10:33:41Z</time>
      </trkpt>
      <trkpt lat="45.06234" lon="6.54882">
        <ele>2452.2</ele>
        <time>2017-04-20T10:33:46Z</time>
      </trkpt>
      <trkpt lat="45.06238" lon="6.54885">
        <ele>2456.6</ele>
        <time>2017-04-20T10:33:51Z</time>
      </trkpt>
      <trkpt lat="45.06241" lon="6.54888">
        <ele>2455.6</ele>
        <time>2017-04-20T10:33:56Z</time>
      </trkpt>
      <trkpt lat="45.06244" lon="6.54893">
        <ele>2455.4</ele>
        <time>2017-04-20T10:34:02Z</time>
      </trkpt>
      <trkpt lat="45.06247" lon="6.54897">
        <ele>2454.8</ele>
        <time>2017-04-20T10:34:07Z</time>
      </trkpt>
      <trkpt lat="45.0625" lon="6.54901">
        <ele>2457.4</ele>
        <time>2017-04-20T10:34:12Z</time>
      </trkpt>
      <trkpt lat="45.06253" lon="6.54905">
        <ele>2456.6</ele>
        <time>2017-04-20T10:34:17Z</time>
      </trkpt>
      <trkpt lat="45.06256" lon="6.54908">
        <ele>2456.4</ele>
        <time>2017-04-20T10:34:22Z</time>
      </trkpt>
      <trkpt lat="45.0626" lon="6.54912">
        <ele>2456.6</ele>
        <time>2017-04-20T10:34:27Z</time>
      </trkpt>
      <trkpt lat="45.06262" lon="6.54914">
        <ele>2456.2</ele>
        <time>2017-04-20T10:34:32Z</time>
      </trkpt>
      <trkpt lat="45.06263" lon="6.54915">
        <ele>2456</ele>
        <time>2017-04-20T10:34:37Z</time>
      </trkpt>
      <trkpt lat="45.06264" lon="6.54916">
        <ele>2460.4</ele>
        <time>2017-04-20T10:34:42Z</time>
      </trkpt>
      <trkpt lat="45.06264" lon="6.54917">
        <ele>2457.2</ele>
        <time>2017-04-20T10:34:57Z</time>
      </trkpt>
      <trkpt lat="45.06266" lon="6.54917">
        <ele>2459.4</ele>
        <time>2017-04-20T10:35:02Z</time>
      </trkpt>
      <trkpt lat="45.06269" lon="6.5492">
        <ele>2457.6</ele>
        <time>2017-04-20T10:35:07Z</time>
      </trkpt>
      <trkpt lat="45.06271" lon="6.54921">
        <ele>2458.2</ele>
        <time>2017-04-20T10:35:12Z</time>
      </trkpt>
      <trkpt lat="45.06274" lon="6.54923">
        <ele>2459.6</ele>
        <time>2017-04-20T10:35:17Z</time>
      </trkpt>
      <trkpt lat="45.06278" lon="6.54926">
        <ele>2457.8</ele>
        <time>2017-04-20T10:35:22Z</time>
      </trkpt>
      <trkpt lat="45.06282" lon="6.54928">
        <ele>2458.2</ele>
        <time>2017-04-20T10:35:27Z</time>
      </trkpt>
      <trkpt lat="45.06286" lon="6.54931">
        <ele>2456.2</ele>
        <time>2017-04-20T10:35:32Z</time>
      </trkpt>
      <trkpt lat="45.0629" lon="6.54933">
        <ele>2458</ele>
        <time>2017-04-20T10:35:37Z</time>
      </trkpt>
      <trkpt lat="45.06293" lon="6.54936">
        <ele>2458.4</ele>
        <time>2017-04-20T10:35:42Z</time>
      </trkpt>
      <trkpt lat="45.06298" lon="6.54937">
        <ele>2460.2</ele>
        <time>2017-04-20T10:35:47Z</time>
      </trkpt>
      <trkpt lat="45.06302" lon="6.5494">
        <ele>2457.4</ele>
        <time>2017-04-20T10:35:52Z</time>
      </trkpt>
      <trkpt lat="45.06307" lon="6.54942">
        <ele>2458.8</ele>
        <time>2017-04-20T10:35:57Z</time>
      </trkpt>
      <trkpt lat="45.06311" lon="6.54945">
        <ele>2457.6</ele>
        <time>2017-04-20T10:36:02Z</time>
      </trkpt>
      <trkpt lat="45.06315" lon="6.54946">
        <ele>2457.6</ele>
        <time>2017-04-20T10:36:07Z</time>
      </trkpt>
      <trkpt lat="45.06318" lon="6.54948">
        <ele>2460.8</ele>
        <time>2017-04-20T10:36:12Z</time>
      </trkpt>
      <trkpt lat="45.06322" lon="6.5495">
        <ele>2459.6</ele>
        <time>2017-04-20T10:36:17Z</time>
      </trkpt>
      <trkpt lat="45.06325" lon="6.5495">
        <ele>2459.4</ele>
        <time>2017-04-20T10:36:22Z</time>
      </trkpt>
      <trkpt lat="45.06328" lon="6.54952">
        <ele>2459.2</ele>
        <time>2017-04-20T10:36:27Z</time>
      </trkpt>
      <trkpt lat="45.06331" lon="6.54954">
        <ele>2459.2</ele>
        <time>2017-04-20T10:36:32Z</time>
      </trkpt>
      <trkpt lat="45.06333" lon="6.54956">
        <ele>2461.6</ele>
        <time>2017-04-20T10:36:37Z</time>
      </trkpt>
      <trkpt lat="45.06337" lon="6.54958">
        <ele>2460.4</ele>
        <time>2017-04-20T10:36:42Z</time>
      </trkpt>
      <trkpt lat="45.06339" lon="6.54961">
        <ele>2462.8</ele>
        <time>2017-04-20T10:36:47Z</time>
      </trkpt>
      <trkpt lat="45.06343" lon="6.54962">
        <ele>2460</ele>
        <time>2017-04-20T10:36:52Z</time>
      </trkpt>
      <trkpt lat="45.06346" lon="6.54964">
        <ele>2461.6</ele>
        <time>2017-04-20T10:36:57Z</time>
      </trkpt>
      <trkpt lat="45.06349" lon="6.54968">
        <ele>2463</ele>
        <time>2017-04-20T10:37:02Z</time>
      </trkpt>
      <trkpt lat="45.06351" lon="6.54972">
        <ele>2463.4</ele>
        <time>2017-04-20T10:37:07Z</time>
      </trkpt>
      <trkpt lat="45.06353" lon="6.54977">
        <ele>2464.2</ele>
        <time>2017-04-20T10:37:12Z</time>
      </trkpt>
      <trkpt lat="45.06355" lon="6.54981">
        <ele>2464.6</ele>
        <time>2017-04-20T10:37:17Z</time>
      </trkpt>
      <trkpt lat="45.06357" lon="6.54985">
        <ele>2464.2</ele>
        <time>2017-04-20T10:37:22Z</time>
      </trkpt>
      <trkpt lat="45.06359" lon="6.54989">
        <ele>2465.4</ele>
        <time>2017-04-20T10:37:27Z</time>
      </trkpt>
      <trkpt lat="45.06362" lon="6.54993">
        <ele>2464.2</ele>
        <time>2017-04-20T10:37:32Z</time>
      </trkpt>
      <trkpt lat="45.06364" lon="6.54997">
        <ele>2464.6</ele>
        <time>2017-04-20T10:37:37Z</time>
      </trkpt>
      <trkpt lat="45.06366" lon="6.55001">
        <ele>2467.2</ele>
        <time>2017-04-20T10:37:42Z</time>
      </trkpt>
      <trkpt lat="45.06368" lon="6.55005">
        <ele>2463.6</ele>
        <time>2017-04-20T10:37:47Z</time>
      </trkpt>
      <trkpt lat="45.06369" lon="6.5501">
        <ele>2464.6</ele>
        <time>2017-04-20T10:37:52Z</time>
      </trkpt>
      <trkpt lat="45.0637" lon="6.55015">
        <ele>2464.8</ele>
        <time>2017-04-20T10:37:57Z</time>
      </trkpt>
      <trkpt lat="45.06372" lon="6.55019">
        <ele>2466.4</ele>
        <time>2017-04-20T10:38:02Z</time>
      </trkpt>
      <trkpt lat="45.06375" lon="6.55023">
        <ele>2466.6</ele>
        <time>2017-04-20T10:38:07Z</time>
      </trkpt>
      <trkpt lat="45.06378" lon="6.55026">
        <ele>2468.2</ele>
        <time>2017-04-20T10:38:12Z</time>
      </trkpt>
      <trkpt lat="45.0638" lon="6.5503">
        <ele>2467.4</ele>
        <time>2017-04-20T10:38:17Z</time>
      </trkpt>
      <trkpt lat="45.06383" lon="6.55034">
        <ele>2467.6</ele>
        <time>2017-04-20T10:38:22Z</time>
      </trkpt>
      <trkpt lat="45.06385" lon="6.55038">
        <ele>2468.8</ele>
        <time>2017-04-20T10:38:27Z</time>
      </trkpt>
      <trkpt lat="45.06387" lon="6.55042">
        <ele>2467.4</ele>
        <time>2017-04-20T10:38:32Z</time>
      </trkpt>
      <trkpt lat="45.06388" lon="6.55043">
        <ele>2467</ele>
        <time>2017-04-20T10:38:37Z</time>
      </trkpt>
      <trkpt lat="45.06391" lon="6.55047">
        <ele>2466.8</ele>
        <time>2017-04-20T10:38:42Z</time>
      </trkpt>
      <trkpt lat="45.06394" lon="6.5505">
        <ele>2466.2</ele>
        <time>2017-04-20T10:38:47Z</time>
      </trkpt>
      <trkpt lat="45.06397" lon="6.55054">
        <ele>2469.6</ele>
        <time>2017-04-20T10:38:52Z</time>
      </trkpt>
      <trkpt lat="45.064" lon="6.55058">
        <ele>2470.2</ele>
        <time>2017-04-20T10:38:57Z</time>
      </trkpt>
      <trkpt lat="45.06404" lon="6.55061">
        <ele>2473</ele>
        <time>2017-04-20T10:39:02Z</time>
      </trkpt>
      <trkpt lat="45.06407" lon="6.55064">
        <ele>2468.6</ele>
        <time>2017-04-20T10:39:07Z</time>
      </trkpt>
      <trkpt lat="45.06411" lon="6.55067">
        <ele>2470.8</ele>
        <time>2017-04-20T10:39:12Z</time>
      </trkpt>
      <trkpt lat="45.06413" lon="6.55071">
        <ele>2469.4</ele>
        <time>2017-04-20T10:39:17Z</time>
      </trkpt>
      <trkpt lat="45.06416" lon="6.55075">
        <ele>2471.4</ele>
        <time>2017-04-20T10:39:22Z</time>
      </trkpt>
      <trkpt lat="45.06419" lon="6.55079">
        <ele>2469.6</ele>
        <time>2017-04-20T10:39:28Z</time>
      </trkpt>
      <trkpt lat="45.06422" lon="6.55083">
        <ele>2473</ele>
        <time>2017-04-20T10:39:33Z</time>
      </trkpt>
      <trkpt lat="45.06425" lon="6.55087">
        <ele>2469.4</ele>
        <time>2017-04-20T10:39:38Z</time>
      </trkpt>
      <trkpt lat="45.06428" lon="6.55091">
        <ele>2471.2</ele>
        <time>2017-04-20T10:39:43Z</time>
      </trkpt>
      <trkpt lat="45.06431" lon="6.55095">
        <ele>2469.8</ele>
        <time>2017-04-20T10:39:48Z</time>
      </trkpt>
      <trkpt lat="45.06434" lon="6.55099">
        <ele>2472.4</ele>
        <time>2017-04-20T10:39:53Z</time>
      </trkpt>
      <trkpt lat="45.06437" lon="6.55103">
        <ele>2472.8</ele>
        <time>2017-04-20T10:39:58Z</time>
      </trkpt>
      <trkpt lat="45.0644" lon="6.55107">
        <ele>2473.4</ele>
        <time>2017-04-20T10:40:03Z</time>
      </trkpt>
      <trkpt lat="45.06443" lon="6.55111">
        <ele>2474.4</ele>
        <time>2017-04-20T10:40:08Z</time>
      </trkpt>
      <trkpt lat="45.06446" lon="6.55115">
        <ele>2471.6</ele>
        <time>2017-04-20T10:40:13Z</time>
      </trkpt>
      <trkpt lat="45.06447" lon="6.55115">
        <ele>2472.2</ele>
        <time>2017-04-20T10:40:18Z</time>
      </trkpt>
      <trkpt lat="45.06449" lon="6.55117">
        <ele>2472.4</ele>
        <time>2017-04-20T10:40:23Z</time>
      </trkpt>
      <trkpt lat="45.06449" lon="6.55117">
        <ele>2473.2</ele>
        <time>2017-04-20T10:41:13Z</time>
      </trkpt>
      <trkpt lat="45.06452" lon="6.55121">
        <ele>2473.2</ele>
        <time>2017-04-20T10:41:18Z</time>
      </trkpt>
      <trkpt lat="45.06455" lon="6.55126">
        <ele>2473</ele>
        <time>2017-04-20T10:41:23Z</time>
      </trkpt>
      <trkpt lat="45.06458" lon="6.55131">
        <ele>2472.4</ele>
        <time>2017-04-20T10:41:28Z</time>
      </trkpt>
      <trkpt lat="45.06461" lon="6.55136">
        <ele>2473.6</ele>
        <time>2017-04-20T10:41:33Z</time>
      </trkpt>
      <trkpt lat="45.06465" lon="6.5514">
        <ele>2474.2</ele>
        <time>2017-04-20T10:41:38Z</time>
      </trkpt>
      <trkpt lat="45.06468" lon="6.55145">
        <ele>2475.8</ele>
        <time>2017-04-20T10:41:43Z</time>
      </trkpt>
      <trkpt lat="45.06471" lon="6.55149">
        <ele>2475.6</ele>
        <time>2017-04-20T10:41:48Z</time>
      </trkpt>
      <trkpt lat="45.06474" lon="6.55154">
        <ele>2474.8</ele>
        <time>2017-04-20T10:41:53Z</time>
      </trkpt>
      <trkpt lat="45.06476" lon="6.55159">
        <ele>2477.8</ele>
        <time>2017-04-20T10:41:58Z</time>
      </trkpt>
      <trkpt lat="45.0648" lon="6.55163">
        <ele>2475.4</ele>
        <time>2017-04-20T10:42:03Z</time>
      </trkpt>
      <trkpt lat="45.06483" lon="6.55167">
        <ele>2474.4</ele>
        <time>2017-04-20T10:42:08Z</time>
      </trkpt>
      <trkpt lat="45.06486" lon="6.55171">
        <ele>2475.6</ele>
        <time>2017-04-20T10:42:13Z</time>
      </trkpt>
      <trkpt lat="45.06488" lon="6.55175">
        <ele>2477.8</ele>
        <time>2017-04-20T10:42:18Z</time>
      </trkpt>
      <trkpt lat="45.06491" lon="6.55178">
        <ele>2475.4</ele>
        <time>2017-04-20T10:42:23Z</time>
      </trkpt>
      <trkpt lat="45.06493" lon="6.55181">
        <ele>2476.4</ele>
        <time>2017-04-20T10:42:28Z</time>
      </trkpt>
      <trkpt lat="45.06495" lon="6.55183">
        <ele>2478</ele>
        <time>2017-04-20T10:42:33Z</time>
      </trkpt>
      <trkpt lat="45.06497" lon="6.55186">
        <ele>2478</ele>
        <time>2017-04-20T10:42:38Z</time>
      </trkpt>
      <trkpt lat="45.06498" lon="6.5519">
        <ele>2478.6</ele>
        <time>2017-04-20T10:42:43Z</time>
      </trkpt>
      <trkpt lat="45.06499" lon="6.55191">
        <ele>2478</ele>
        <time>2017-04-20T10:42:48Z</time>
      </trkpt>
      <trkpt lat="45.065" lon="6.55194">
        <ele>2478.8</ele>
        <time>2017-04-20T10:42:53Z</time>
      </trkpt>
      <trkpt lat="45.06502" lon="6.55198">
        <ele>2478</ele>
        <time>2017-04-20T10:42:58Z</time>
      </trkpt>
      <trkpt lat="45.06504" lon="6.55202">
        <ele>2477.8</ele>
        <time>2017-04-20T10:43:03Z</time>
      </trkpt>
      <trkpt lat="45.06506" lon="6.55206">
        <ele>2476.6</ele>
        <time>2017-04-20T10:43:08Z</time>
      </trkpt>
      <trkpt lat="45.06508" lon="6.55211">
        <ele>2478.8</ele>
        <time>2017-04-20T10:43:13Z</time>
      </trkpt>
      <trkpt lat="45.06509" lon="6.55216">
        <ele>2478.4</ele>
        <time>2017-04-20T10:43:18Z</time>
      </trkpt>
      <trkpt lat="45.0651" lon="6.55221">
        <ele>2479.6</ele>
        <time>2017-04-20T10:43:23Z</time>
      </trkpt>
      <trkpt lat="45.06511" lon="6.55226">
        <ele>2480</ele>
        <time>2017-04-20T10:43:28Z</time>
      </trkpt>
      <trkpt lat="45.06511" lon="6.55231">
        <ele>2480.4</ele>
        <time>2017-04-20T10:43:33Z</time>
      </trkpt>
      <trkpt lat="45.0651" lon="6.55235">
        <ele>2482</ele>
        <time>2017-04-20T10:43:38Z</time>
      </trkpt>
      <trkpt lat="45.0651" lon="6.55239">
        <ele>2480.2</ele>
        <time>2017-04-20T10:43:43Z</time>
      </trkpt>
      <trkpt lat="45.0651" lon="6.55243">
        <ele>2480</ele>
        <time>2017-04-20T10:43:48Z</time>
      </trkpt>
      <trkpt lat="45.06511" lon="6.55245">
        <ele>2483.8</ele>
        <time>2017-04-20T11:01:32Z</time>
      </trkpt>
      <trkpt lat="45.06513" lon="6.55243">
        <ele>2485.4</ele>
        <time>2017-04-20T11:01:37Z</time>
      </trkpt>
      <trkpt lat="45.06516" lon="6.55242">
        <ele>2486.2</ele>
        <time>2017-04-20T11:01:42Z</time>
      </trkpt>
      <trkpt lat="45.0652" lon="6.5524">
        <ele>2487.2</ele>
        <time>2017-04-20T11:01:47Z</time>
      </trkpt>
      <trkpt lat="45.06524" lon="6.55237">
        <ele>2483.8</ele>
        <time>2017-04-20T11:01:52Z</time>
      </trkpt>
      <trkpt lat="45.06528" lon="6.55236">
        <ele>2486.6</ele>
        <time>2017-04-20T11:01:57Z</time>
      </trkpt>
      <trkpt lat="45.06532" lon="6.55234">
        <ele>2486.4</ele>
        <time>2017-04-20T11:02:02Z</time>
      </trkpt>
      <trkpt lat="45.06536" lon="6.55233">
        <ele>2486.8</ele>
        <time>2017-04-20T11:02:07Z</time>
      </trkpt>
      <trkpt lat="45.06541" lon="6.55232">
        <ele>2485.2</ele>
        <time>2017-04-20T11:02:12Z</time>
      </trkpt>
      <trkpt lat="45.06545" lon="6.55232">
        <ele>2487.2</ele>
        <time>2017-04-20T11:02:17Z</time>
      </trkpt>
      <trkpt lat="45.0655" lon="6.55233">
        <ele>2483.4</ele>
        <time>2017-04-20T11:02:22Z</time>
      </trkpt>
      <trkpt lat="45.06554" lon="6.55234">
        <ele>2484</ele>
        <time>2017-04-20T11:02:27Z</time>
      </trkpt>
      <trkpt lat="45.06556" lon="6.55236">
        <ele>2486.2</ele>
        <time>2017-04-20T11:02:32Z</time>
      </trkpt>
      <trkpt lat="45.06559" lon="6.5524">
        <ele>2485.2</ele>
        <time>2017-04-20T11:02:37Z</time>
      </trkpt>
      <trkpt lat="45.06561" lon="6.55244">
        <ele>2487</ele>
        <time>2017-04-20T11:02:42Z</time>
      </trkpt>
      <trkpt lat="45.06563" lon="6.55248">
        <ele>2485.8</ele>
        <time>2017-04-20T11:02:47Z</time>
      </trkpt>
      <trkpt lat="45.06564" lon="6.55251">
        <ele>2484</ele>
        <time>2017-04-20T11:02:52Z</time>
      </trkpt>
      <trkpt lat="45.06565" lon="6.55253">
        <ele>2485</ele>
        <time>2017-04-20T11:02:57Z</time>
      </trkpt>
      <trkpt lat="45.06568" lon="6.55258">
        <ele>2485.4</ele>
        <time>2017-04-20T11:03:02Z</time>
      </trkpt>
      <trkpt lat="45.0657" lon="6.55262">
        <ele>2486.4</ele>
        <time>2017-04-20T11:03:07Z</time>
      </trkpt>
      <trkpt lat="45.06572" lon="6.55266">
        <ele>2489</ele>
        <time>2017-04-20T11:03:12Z</time>
      </trkpt>
      <trkpt lat="45.06574" lon="6.55271">
        <ele>2486.8</ele>
        <time>2017-04-20T11:03:17Z</time>
      </trkpt>
      <trkpt lat="45.06577" lon="6.55274">
        <ele>2488</ele>
        <time>2017-04-20T11:03:22Z</time>
      </trkpt>
      <trkpt lat="45.06579" lon="6.55278">
        <ele>2489.4</ele>
        <time>2017-04-20T11:03:27Z</time>
      </trkpt>
      <trkpt lat="45.06582" lon="6.55281">
        <ele>2490.2</ele>
        <time>2017-04-20T11:03:32Z</time>
      </trkpt>
      <trkpt lat="45.06584" lon="6.55284">
        <ele>2488</ele>
        <time>2017-04-20T11:03:37Z</time>
      </trkpt>
      <trkpt lat="45.06588" lon="6.55287">
        <ele>2490.4</ele>
        <time>2017-04-20T11:03:42Z</time>
      </trkpt>
      <trkpt lat="45.06592" lon="6.55289">
        <ele>2489.6</ele>
        <time>2017-04-20T11:03:47Z</time>
      </trkpt>
      <trkpt lat="45.06595" lon="6.5529">
        <ele>2490.8</ele>
        <time>2017-04-20T11:03:52Z</time>
      </trkpt>
      <trkpt lat="45.06596" lon="6.55289">
        <ele>2491</ele>
        <time>2017-04-20T11:04:07Z</time>
      </trkpt>
      <trkpt lat="45.06597" lon="6.55288">
        <ele>2494.4</ele>
        <time>2017-04-20T11:05:02Z</time>
      </trkpt>
      <trkpt lat="45.06601" lon="6.55289">
        <ele>2493.8</ele>
        <time>2017-04-20T11:05:33Z</time>
      </trkpt>
      <trkpt lat="45.06604" lon="6.55288">
        <ele>2492.8</ele>
        <time>2017-04-20T11:05:38Z</time>
      </trkpt>
      <trkpt lat="45.06608" lon="6.55287">
        <ele>2493.4</ele>
        <time>2017-04-20T11:05:43Z</time>
      </trkpt>
      <trkpt lat="45.06611" lon="6.55286">
        <ele>2494</ele>
        <time>2017-04-20T11:05:48Z</time>
      </trkpt>
      <trkpt lat="45.06615" lon="6.55285">
        <ele>2494.4</ele>
        <time>2017-04-20T11:05:53Z</time>
      </trkpt>
      <trkpt lat="45.06617" lon="6.55284">
        <ele>2496.6</ele>
        <time>2017-04-20T11:05:58Z</time>
      </trkpt>
      <trkpt lat="45.0662" lon="6.55282">
        <ele>2494.6</ele>
        <time>2017-04-20T11:06:03Z</time>
      </trkpt>
      <trkpt lat="45.06623" lon="6.5528">
        <ele>2497.6</ele>
        <time>2017-04-20T11:06:08Z</time>
      </trkpt>
      <trkpt lat="45.06626" lon="6.55279">
        <ele>2494.6</ele>
        <time>2017-04-20T11:06:13Z</time>
      </trkpt>
      <trkpt lat="45.06629" lon="6.55278">
        <ele>2495.2</ele>
        <time>2017-04-20T11:06:18Z</time>
      </trkpt>
      <trkpt lat="45.06632" lon="6.55277">
        <ele>2497.2</ele>
        <time>2017-04-20T11:06:23Z</time>
      </trkpt>
      <trkpt lat="45.06636" lon="6.55277">
        <ele>2496.4</ele>
        <time>2017-04-20T11:06:28Z</time>
      </trkpt>
      <trkpt lat="45.06639" lon="6.55276">
        <ele>2499.4</ele>
        <time>2017-04-20T11:06:33Z</time>
      </trkpt>
      <trkpt lat="45.06643" lon="6.55275">
        <ele>2496</ele>
        <time>2017-04-20T11:06:38Z</time>
      </trkpt>
      <trkpt lat="45.06646" lon="6.55273">
        <ele>2499.2</ele>
        <time>2017-04-20T11:06:43Z</time>
      </trkpt>
      <trkpt lat="45.06649" lon="6.55271">
        <ele>2499.4</ele>
        <time>2017-04-20T11:06:48Z</time>
      </trkpt>
      <trkpt lat="45.06652" lon="6.55269">
        <ele>2499.8</ele>
        <time>2017-04-20T11:06:53Z</time>
      </trkpt>
      <trkpt lat="45.06655" lon="6.55267">
        <ele>2497.8</ele>
        <time>2017-04-20T11:06:58Z</time>
      </trkpt>
      <trkpt lat="45.06658" lon="6.55265">
        <ele>2498.2</ele>
        <time>2017-04-20T11:07:03Z</time>
      </trkpt>
      <trkpt lat="45.06661" lon="6.55263">
        <ele>2499.6</ele>
        <time>2017-04-20T11:07:08Z</time>
      </trkpt>
      <trkpt lat="45.06665" lon="6.55261">
        <ele>2503.2</ele>
        <time>2017-04-20T11:07:13Z</time>
      </trkpt>
      <trkpt lat="45.06668" lon="6.55259">
        <ele>2501</ele>
        <time>2017-04-20T11:07:18Z</time>
      </trkpt>
      <trkpt lat="45.06672" lon="6.55259">
        <ele>2499.4</ele>
        <time>2017-04-20T11:07:23Z</time>
      </trkpt>
      <trkpt lat="45.06676" lon="6.55259">
        <ele>2503</ele>
        <time>2017-04-20T11:07:28Z</time>
      </trkpt>
      <trkpt lat="45.0668" lon="6.5526">
        <ele>2498.8</ele>
        <time>2017-04-20T11:07:33Z</time>
      </trkpt>
      <trkpt lat="45.06681" lon="6.5526">
        <ele>2499.6</ele>
        <time>2017-04-20T11:07:38Z</time>
      </trkpt>
      <trkpt lat="45.06682" lon="6.55261">
        <ele>2500</ele>
        <time>2017-04-20T11:07:43Z</time>
      </trkpt>
      <trkpt lat="45.06685" lon="6.55263">
        <ele>2501.6</ele>
        <time>2017-04-20T11:07:48Z</time>
      </trkpt>
      <trkpt lat="45.06688" lon="6.55265">
        <ele>2502.6</ele>
        <time>2017-04-20T11:07:53Z</time>
      </trkpt>
      <trkpt lat="45.0669" lon="6.55267">
        <ele>2501.2</ele>
        <time>2017-04-20T11:07:58Z</time>
      </trkpt>
      <trkpt lat="45.06694" lon="6.55269">
        <ele>2502.4</ele>
        <time>2017-04-20T11:08:03Z</time>
      </trkpt>
      <trkpt lat="45.06697" lon="6.55272">
        <ele>2502.2</ele>
        <time>2017-04-20T11:08:08Z</time>
      </trkpt>
      <trkpt lat="45.067" lon="6.55275">
        <ele>2500.2</ele>
        <time>2017-04-20T11:08:13Z</time>
      </trkpt>
      <trkpt lat="45.06704" lon="6.55277">
        <ele>2504.2</ele>
        <time>2017-04-20T11:08:18Z</time>
      </trkpt>
      <trkpt lat="45.06708" lon="6.55279">
        <ele>2502.2</ele>
        <time>2017-04-20T11:08:23Z</time>
      </trkpt>
      <trkpt lat="45.06711" lon="6.55281">
        <ele>2503.2</ele>
        <time>2017-04-20T11:08:28Z</time>
      </trkpt>
      <trkpt lat="45.06714" lon="6.55284">
        <ele>2503</ele>
        <time>2017-04-20T11:08:33Z</time>
      </trkpt>
      <trkpt lat="45.06718" lon="6.55286">
        <ele>2503.6</ele>
        <time>2017-04-20T11:08:38Z</time>
      </trkpt>
      <trkpt lat="45.06721" lon="6.55288">
        <ele>2504.8</ele>
        <time>2017-04-20T11:08:43Z</time>
      </trkpt>
      <trkpt lat="45.06724" lon="6.55291">
        <ele>2501.6</ele>
        <time>2017-04-20T11:08:48Z</time>
      </trkpt>
      <trkpt lat="45.06728" lon="6.55295">
        <ele>2504.4</ele>
        <time>2017-04-20T11:08:53Z</time>
      </trkpt>
      <trkpt lat="45.06732" lon="6.55299">
        <ele>2504.8</ele>
        <time>2017-04-20T11:08:58Z</time>
      </trkpt>
      <trkpt lat="45.06735" lon="6.55303">
        <ele>2507.8</ele>
        <time>2017-04-20T11:09:03Z</time>
      </trkpt>
      <trkpt lat="45.06738" lon="6.55308">
        <ele>2504.6</ele>
        <time>2017-04-20T11:09:08Z</time>
      </trkpt>
      <trkpt lat="45.06741" lon="6.55313">
        <ele>2505.4</ele>
        <time>2017-04-20T11:09:13Z</time>
      </trkpt>
      <trkpt lat="45.06743" lon="6.55317">
        <ele>2504.2</ele>
        <time>2017-04-20T11:09:18Z</time>
      </trkpt>
      <trkpt lat="45.06745" lon="6.55322">
        <ele>2501.4</ele>
        <time>2017-04-20T11:09:23Z</time>
      </trkpt>
      <trkpt lat="45.06749" lon="6.55325">
        <ele>2502.8</ele>
        <time>2017-04-20T11:09:28Z</time>
      </trkpt>
      <trkpt lat="45.06752" lon="6.55326">
        <ele>2503.6</ele>
        <time>2017-04-20T11:09:33Z</time>
      </trkpt>
      <trkpt lat="45.06752" lon="6.55325">
        <ele>2504</ele>
        <time>2017-04-20T11:09:58Z</time>
      </trkpt>
      <trkpt lat="45.06761" lon="6.55325">
        <ele>2501</ele>
        <time>2017-04-20T11:10:03Z</time>
      </trkpt>
      <trkpt lat="45.06779" lon="6.55319">
        <ele>2501.2</ele>
        <time>2017-04-20T11:10:08Z</time>
      </trkpt>
      <trkpt lat="45.06797" lon="6.55313">
        <ele>2498.2</ele>
        <time>2017-04-20T11:10:13Z</time>
      </trkpt>
      <trkpt lat="45.06807" lon="6.55308">
        <ele>2498.8</ele>
        <time>2017-04-20T11:10:18Z</time>
      </trkpt>
      <trkpt lat="45.06814" lon="6.55302">
        <ele>2495.4</ele>
        <time>2017-04-20T11:10:24Z</time>
      </trkpt>
      <trkpt lat="45.0682" lon="6.55299">
        <ele>2497.2</ele>
        <time>2017-04-20T11:10:29Z</time>
      </trkpt>
      <trkpt lat="45.06826" lon="6.55295">
        <ele>2494</ele>
        <time>2017-04-20T11:10:34Z</time>
      </trkpt>
      <trkpt lat="45.06832" lon="6.55289">
        <ele>2495</ele>
        <time>2017-04-20T11:10:39Z</time>
      </trkpt>
      <trkpt lat="45.06837" lon="6.55284">
        <ele>2495.4</ele>
        <time>2017-04-20T11:10:44Z</time>
      </trkpt>
      <trkpt lat="45.06841" lon="6.55278">
        <ele>2496.6</ele>
        <time>2017-04-20T11:10:49Z</time>
      </trkpt>
      <trkpt lat="45.06844" lon="6.55273">
        <ele>2493</ele>
        <time>2017-04-20T11:11:14Z</time>
      </trkpt>
      <trkpt lat="45.06845" lon="6.55273">
        <ele>2492.6</ele>
        <time>2017-04-20T11:13:14Z</time>
      </trkpt>
      <trkpt lat="45.06845" lon="6.55272">
        <ele>2494.2</ele>
        <time>2017-04-20T11:13:49Z</time>
      </trkpt>
      <trkpt lat="45.06846" lon="6.55269">
        <ele>2494.8</ele>
        <time>2017-04-20T11:13:54Z</time>
      </trkpt>
      <trkpt lat="45.06849" lon="6.55267">
        <ele>2493.6</ele>
        <time>2017-04-20T11:13:59Z</time>
      </trkpt>
      <trkpt lat="45.06852" lon="6.55265">
        <ele>2495.8</ele>
        <time>2017-04-20T11:14:04Z</time>
      </trkpt>
      <trkpt lat="45.06855" lon="6.55263">
        <ele>2494.8</ele>
        <time>2017-04-20T11:14:09Z</time>
      </trkpt>
      <trkpt lat="45.06857" lon="6.55259">
        <ele>2495</ele>
        <time>2017-04-20T11:14:14Z</time>
      </trkpt>
      <trkpt lat="45.06858" lon="6.55256">
        <ele>2498</ele>
        <time>2017-04-20T11:14:19Z</time>
      </trkpt>
      <trkpt lat="45.06859" lon="6.55254">
        <ele>2496.2</ele>
        <time>2017-04-20T11:14:24Z</time>
      </trkpt>
      <trkpt lat="45.0686" lon="6.55251">
        <ele>2497.2</ele>
        <time>2017-04-20T11:14:29Z</time>
      </trkpt>
      <trkpt lat="45.06861" lon="6.55248">
        <ele>2493.4</ele>
        <time>2017-04-20T11:14:34Z</time>
      </trkpt>
      <trkpt lat="45.06862" lon="6.55245">
        <ele>2497.8</ele>
        <time>2017-04-20T11:14:39Z</time>
      </trkpt>
      <trkpt lat="45.06863" lon="6.55242">
        <ele>2498.4</ele>
        <time>2017-04-20T11:14:44Z</time>
      </trkpt>
      <trkpt lat="45.06865" lon="6.55241">
        <ele>2497.8</ele>
        <time>2017-04-20T11:14:49Z</time>
      </trkpt>
      <trkpt lat="45.06865" lon="6.55237">
        <ele>2499.4</ele>
        <time>2017-04-20T11:14:54Z</time>
      </trkpt>
      <trkpt lat="45.06865" lon="6.55234">
        <ele>2498.6</ele>
        <time>2017-04-20T11:14:59Z</time>
      </trkpt>
      <trkpt lat="45.06866" lon="6.55232">
        <ele>2498</ele>
        <time>2017-04-20T11:15:04Z</time>
      </trkpt>
      <trkpt lat="45.06868" lon="6.55231">
        <ele>2498.4</ele>
        <time>2017-04-20T11:15:09Z</time>
      </trkpt>
      <trkpt lat="45.06869" lon="6.5523">
        <ele>2499.2</ele>
        <time>2017-04-20T11:15:14Z</time>
      </trkpt>
      <trkpt lat="45.0687" lon="6.55229">
        <ele>2498.6</ele>
        <time>2017-04-20T11:15:19Z</time>
      </trkpt>
      <trkpt lat="45.06872" lon="6.55228">
        <ele>2499.8</ele>
        <time>2017-04-20T11:15:29Z</time>
      </trkpt>
      <trkpt lat="45.06873" lon="6.55227">
        <ele>2499.2</ele>
        <time>2017-04-20T11:15:34Z</time>
      </trkpt>
      <trkpt lat="45.06876" lon="6.55224">
        <ele>2499.4</ele>
        <time>2017-04-20T11:15:39Z</time>
      </trkpt>
      <trkpt lat="45.06879" lon="6.55222">
        <ele>2500</ele>
        <time>2017-04-20T11:15:44Z</time>
      </trkpt>
      <trkpt lat="45.06882" lon="6.55219">
        <ele>2498.6</ele>
        <time>2017-04-20T11:15:49Z</time>
      </trkpt>
      <trkpt lat="45.06884" lon="6.55216">
        <ele>2499.8</ele>
        <time>2017-04-20T11:15:54Z</time>
      </trkpt>
      <trkpt lat="45.06886" lon="6.55213">
        <ele>2499.8</ele>
        <time>2017-04-20T11:15:59Z</time>
      </trkpt>
      <trkpt lat="45.06887" lon="6.55212">
        <ele>2503.4</ele>
        <time>2017-04-20T11:16:04Z</time>
      </trkpt>
      <trkpt lat="45.06887" lon="6.5521">
        <ele>2504</ele>
        <time>2017-04-20T11:16:09Z</time>
      </trkpt>
      <trkpt lat="45.06887" lon="6.55207">
        <ele>2503.8</ele>
        <time>2017-04-20T11:16:14Z</time>
      </trkpt>
      <trkpt lat="45.06889" lon="6.55204">
        <ele>2505</ele>
        <time>2017-04-20T11:16:19Z</time>
      </trkpt>
      <trkpt lat="45.06889" lon="6.55203">
        <ele>2502.4</ele>
        <time>2017-04-20T11:16:24Z</time>
      </trkpt>
      <trkpt lat="45.0689" lon="6.552">
        <ele>2505.8</ele>
        <time>2017-04-20T11:16:29Z</time>
      </trkpt>
      <trkpt lat="45.06891" lon="6.55197">
        <ele>2500.6</ele>
        <time>2017-04-20T11:16:34Z</time>
      </trkpt>
      <trkpt lat="45.06892" lon="6.55194">
        <ele>2502.6</ele>
        <time>2017-04-20T11:16:40Z</time>
      </trkpt>
      <trkpt lat="45.06894" lon="6.55191">
        <ele>2505.2</ele>
        <time>2017-04-20T11:16:45Z</time>
      </trkpt>
      <trkpt lat="45.06895" lon="6.55188">
        <ele>2504.8</ele>
        <time>2017-04-20T11:16:50Z</time>
      </trkpt>
      <trkpt lat="45.06897" lon="6.55185">
        <ele>2506.6</ele>
        <time>2017-04-20T11:16:55Z</time>
      </trkpt>
      <trkpt lat="45.06898" lon="6.55182">
        <ele>2508.8</ele>
        <time>2017-04-20T11:17:00Z</time>
      </trkpt>
      <trkpt lat="45.069" lon="6.55177">
        <ele>2508</ele>
        <time>2017-04-20T11:17:05Z</time>
      </trkpt>
      <trkpt lat="45.06903" lon="6.55176">
        <ele>2509.6</ele>
        <time>2017-04-20T11:17:10Z</time>
      </trkpt>
      <trkpt lat="45.06905" lon="6.55179">
        <ele>2507.8</ele>
        <time>2017-04-20T11:17:15Z</time>
      </trkpt>
      <trkpt lat="45.06906" lon="6.55183">
        <ele>2507.6</ele>
        <time>2017-04-20T11:17:20Z</time>
      </trkpt>
      <trkpt lat="45.06908" lon="6.55187">
        <ele>2508.4</ele>
        <time>2017-04-20T11:17:25Z</time>
      </trkpt>
      <trkpt lat="45.06909" lon="6.55191">
        <ele>2507.6</ele>
        <time>2017-04-20T11:17:30Z</time>
      </trkpt>
      <trkpt lat="45.0691" lon="6.55195">
        <ele>2510.2</ele>
        <time>2017-04-20T11:17:35Z</time>
      </trkpt>
      <trkpt lat="45.06912" lon="6.55199">
        <ele>2508.8</ele>
        <time>2017-04-20T11:17:40Z</time>
      </trkpt>
      <trkpt lat="45.06915" lon="6.55202">
        <ele>2509.8</ele>
        <time>2017-04-20T11:17:45Z</time>
      </trkpt>
      <trkpt lat="45.06917" lon="6.55205">
        <ele>2511</ele>
        <time>2017-04-20T11:17:50Z</time>
      </trkpt>
      <trkpt lat="45.06919" lon="6.55207">
        <ele>2510</ele>
        <time>2017-04-20T11:17:55Z</time>
      </trkpt>
      <trkpt lat="45.06921" lon="6.55208">
        <ele>2511</ele>
        <time>2017-04-20T11:18:00Z</time>
      </trkpt>
      <trkpt lat="45.06924" lon="6.55209">
        <ele>2512.8</ele>
        <time>2017-04-20T11:18:05Z</time>
      </trkpt>
      <trkpt lat="45.06926" lon="6.5521">
        <ele>2514.6</ele>
        <time>2017-04-20T11:18:10Z</time>
      </trkpt>
      <trkpt lat="45.06928" lon="6.55212">
        <ele>2512.6</ele>
        <time>2017-04-20T11:18:15Z</time>
      </trkpt>
      <trkpt lat="45.06931" lon="6.55214">
        <ele>2514.8</ele>
        <time>2017-04-20T11:18:20Z</time>
      </trkpt>
      <trkpt lat="45.06932" lon="6.55217">
        <ele>2515.2</ele>
        <time>2017-04-20T11:18:25Z</time>
      </trkpt>
      <trkpt lat="45.06934" lon="6.5522">
        <ele>2513.8</ele>
        <time>2017-04-20T11:18:30Z</time>
      </trkpt>
      <trkpt lat="45.06936" lon="6.55223">
        <ele>2514.4</ele>
        <time>2017-04-20T11:18:35Z</time>
      </trkpt>
      <trkpt lat="45.06937" lon="6.55226">
        <ele>2510</ele>
        <time>2017-04-20T11:18:40Z</time>
      </trkpt>
      <trkpt lat="45.06939" lon="6.55229">
        <ele>2515.4</ele>
        <time>2017-04-20T11:18:45Z</time>
      </trkpt>
      <trkpt lat="45.0694" lon="6.55233">
        <ele>2517.6</ele>
        <time>2017-04-20T11:18:50Z</time>
      </trkpt>
      <trkpt lat="45.06942" lon="6.55236">
        <ele>2515.2</ele>
        <time>2017-04-20T11:18:55Z</time>
      </trkpt>
      <trkpt lat="45.06944" lon="6.55239">
        <ele>2514.4</ele>
        <time>2017-04-20T11:19:00Z</time>
      </trkpt>
      <trkpt lat="45.06945" lon="6.5524">
        <ele>2516.6</ele>
        <time>2017-04-20T11:20:05Z</time>
      </trkpt>
      <trkpt lat="45.06945" lon="6.55239">
        <ele>2516.4</ele>
        <time>2017-04-20T11:21:15Z</time>
      </trkpt>
      <trkpt lat="45.06947" lon="6.5524">
        <ele>2514.2</ele>
        <time>2017-04-20T11:21:45Z</time>
      </trkpt>
      <trkpt lat="45.06948" lon="6.55243">
        <ele>2514.6</ele>
        <time>2017-04-20T11:21:50Z</time>
      </trkpt>
      <trkpt lat="45.06946" lon="6.55254">
        <ele>2517.6</ele>
        <time>2017-04-20T11:22:10Z</time>
      </trkpt>
      <trkpt lat="45.06952" lon="6.5525">
        <ele>2515</ele>
        <time>2017-04-20T11:22:25Z</time>
      </trkpt>
      <trkpt lat="45.06954" lon="6.55249">
        <ele>2516.4</ele>
        <time>2017-04-20T11:22:30Z</time>
      </trkpt>
      <trkpt lat="45.06954" lon="6.55248">
        <ele>2516.2</ele>
        <time>2017-04-20T11:22:40Z</time>
      </trkpt>
      <trkpt lat="45.06956" lon="6.55246">
        <ele>2517.4</ele>
        <time>2017-04-20T11:22:45Z</time>
      </trkpt>
      <trkpt lat="45.06958" lon="6.55243">
        <ele>2517</ele>
        <time>2017-04-20T11:22:50Z</time>
      </trkpt>
      <trkpt lat="45.06959" lon="6.55241">
        <ele>2516.2</ele>
        <time>2017-04-20T11:22:55Z</time>
      </trkpt>
      <trkpt lat="45.06961" lon="6.55239">
        <ele>2516.8</ele>
        <time>2017-04-20T11:23:00Z</time>
      </trkpt>
      <trkpt lat="45.06963" lon="6.55237">
        <ele>2518.6</ele>
        <time>2017-04-20T11:23:05Z</time>
      </trkpt>
      <trkpt lat="45.06965" lon="6.55236">
        <ele>2516.2</ele>
        <time>2017-04-20T11:23:10Z</time>
      </trkpt>
      <trkpt lat="45.06967" lon="6.55234">
        <ele>2520.8</ele>
        <time>2017-04-20T11:23:15Z</time>
      </trkpt>
      <trkpt lat="45.06969" lon="6.55231">
        <ele>2519</ele>
        <time>2017-04-20T11:23:20Z</time>
      </trkpt>
      <trkpt lat="45.0697" lon="6.5523">
        <ele>2519.2</ele>
        <time>2017-04-20T11:23:25Z</time>
      </trkpt>
      <trkpt lat="45.06972" lon="6.55228">
        <ele>2521.6</ele>
        <time>2017-04-20T11:23:30Z</time>
      </trkpt>
      <trkpt lat="45.06974" lon="6.55226">
        <ele>2519.4</ele>
        <time>2017-04-20T11:23:35Z</time>
      </trkpt>
      <trkpt lat="45.06976" lon="6.55224">
        <ele>2521.8</ele>
        <time>2017-04-20T11:23:40Z</time>
      </trkpt>
      <trkpt lat="45.06978" lon="6.55221">
        <ele>2522.2</ele>
        <time>2017-04-20T11:23:45Z</time>
      </trkpt>
      <trkpt lat="45.06979" lon="6.55219">
        <ele>2521.8</ele>
        <time>2017-04-20T11:23:50Z</time>
      </trkpt>
      <trkpt lat="45.06981" lon="6.55217">
        <ele>2526.2</ele>
        <time>2017-04-20T11:23:55Z</time>
      </trkpt>
      <trkpt lat="45.06983" lon="6.55214">
        <ele>2524.4</ele>
        <time>2017-04-20T11:24:00Z</time>
      </trkpt>
      <trkpt lat="45.06983" lon="6.55213">
        <ele>2525.2</ele>
        <time>2017-04-20T11:24:05Z</time>
      </trkpt>
      <trkpt lat="45.06983" lon="6.55213">
        <ele>2525.2</ele>
        <time>2017-04-20T11:24:10Z</time>
      </trkpt>
      <trkpt lat="45.06984" lon="6.55211">
        <ele>2526.4</ele>
        <time>2017-04-20T11:24:15Z</time>
      </trkpt>
      <trkpt lat="45.06986" lon="6.55209">
        <ele>2524.6</ele>
        <time>2017-04-20T11:24:20Z</time>
      </trkpt>
      <trkpt lat="45.06987" lon="6.55206">
        <ele>2522.4</ele>
        <time>2017-04-20T11:24:25Z</time>
      </trkpt>
      <trkpt lat="45.06989" lon="6.55203">
        <ele>2526.6</ele>
        <time>2017-04-20T11:24:30Z</time>
      </trkpt>
      <trkpt lat="45.06991" lon="6.552">
        <ele>2527.2</ele>
        <time>2017-04-20T11:24:35Z</time>
      </trkpt>
      <trkpt lat="45.06992" lon="6.55197">
        <ele>2528.2</ele>
        <time>2017-04-20T11:24:40Z</time>
      </trkpt>
      <trkpt lat="45.06994" lon="6.55193">
        <ele>2524.6</ele>
        <time>2017-04-20T11:24:45Z</time>
      </trkpt>
      <trkpt lat="45.06995" lon="6.55189">
        <ele>2526</ele>
        <time>2017-04-20T11:24:50Z</time>
      </trkpt>
      <trkpt lat="45.06996" lon="6.55186">
        <ele>2529.2</ele>
        <time>2017-04-20T11:24:55Z</time>
      </trkpt>
      <trkpt lat="45.06997" lon="6.55182">
        <ele>2529.8</ele>
        <time>2017-04-20T11:25:00Z</time>
      </trkpt>
      <trkpt lat="45.06998" lon="6.55179">
        <ele>2529.2</ele>
        <time>2017-04-20T11:25:05Z</time>
      </trkpt>
      <trkpt lat="45.06998" lon="6.55178">
        <ele>2527.6</ele>
        <time>2017-04-20T11:25:10Z</time>
      </trkpt>
      <trkpt lat="45.06999" lon="6.55176">
        <ele>2528.2</ele>
        <time>2017-04-20T11:25:15Z</time>
      </trkpt>
      <trkpt lat="45.07" lon="6.55173">
        <ele>2530.4</ele>
        <time>2017-04-20T11:25:30Z</time>
      </trkpt>
      <trkpt lat="45.07002" lon="6.5517">
        <ele>2531.2</ele>
        <time>2017-04-20T11:25:35Z</time>
      </trkpt>
      <trkpt lat="45.07002" lon="6.55168">
        <ele>2533.6</ele>
        <time>2017-04-20T11:25:40Z</time>
      </trkpt>
      <trkpt lat="45.07003" lon="6.55164">
        <ele>2531.4</ele>
        <time>2017-04-20T11:25:45Z</time>
      </trkpt>
      <trkpt lat="45.07002" lon="6.55161">
        <ele>2534.8</ele>
        <time>2017-04-20T11:25:50Z</time>
      </trkpt>
      <trkpt lat="45.07002" lon="6.55157">
        <ele>2533.2</ele>
        <time>2017-04-20T11:25:55Z</time>
      </trkpt>
      <trkpt lat="45.07002" lon="6.55154">
        <ele>2531.6</ele>
        <time>2017-04-20T11:26:00Z</time>
      </trkpt>
      <trkpt lat="45.07001" lon="6.5515">
        <ele>2535.2</ele>
        <time>2017-04-20T11:26:05Z</time>
      </trkpt>
      <trkpt lat="45.07001" lon="6.55146">
        <ele>2535</ele>
        <time>2017-04-20T11:26:10Z</time>
      </trkpt>
      <trkpt lat="45.07002" lon="6.55143">
        <ele>2536</ele>
        <time>2017-04-20T11:26:15Z</time>
      </trkpt>
      <trkpt lat="45.07003" lon="6.55141">
        <ele>2538.2</ele>
        <time>2017-04-20T11:26:20Z</time>
      </trkpt>
      <trkpt lat="45.07004" lon="6.55137">
        <ele>2536.8</ele>
        <time>2017-04-20T11:26:25Z</time>
      </trkpt>
      <trkpt lat="45.07005" lon="6.55134">
        <ele>2534.8</ele>
        <time>2017-04-20T11:26:30Z</time>
      </trkpt>
      <trkpt lat="45.07007" lon="6.55132">
        <ele>2534.8</ele>
        <time>2017-04-20T11:26:35Z</time>
      </trkpt>
      <trkpt lat="45.07009" lon="6.5513">
        <ele>2536.6</ele>
        <time>2017-04-20T11:26:40Z</time>
      </trkpt>
      <trkpt lat="45.07011" lon="6.55129">
        <ele>2536.6</ele>
        <time>2017-04-20T11:26:45Z</time>
      </trkpt>
      <trkpt lat="45.07013" lon="6.55127">
        <ele>2539</ele>
        <time>2017-04-20T11:26:50Z</time>
      </trkpt>
      <trkpt lat="45.07015" lon="6.55126">
        <ele>2539.6</ele>
        <time>2017-04-20T11:26:55Z</time>
      </trkpt>
      <trkpt lat="45.07017" lon="6.55125">
        <ele>2541</ele>
        <time>2017-04-20T11:27:00Z</time>
      </trkpt>
      <trkpt lat="45.0702" lon="6.55124">
        <ele>2537</ele>
        <time>2017-04-20T11:27:05Z</time>
      </trkpt>
      <trkpt lat="45.07022" lon="6.55124">
        <ele>2538</ele>
        <time>2017-04-20T11:27:10Z</time>
      </trkpt>
      <trkpt lat="45.07024" lon="6.55123">
        <ele>2535.4</ele>
        <time>2017-04-20T11:27:15Z</time>
      </trkpt>
      <trkpt lat="45.07026" lon="6.55123">
        <ele>2540.4</ele>
        <time>2017-04-20T11:27:20Z</time>
      </trkpt>
      <trkpt lat="45.07028" lon="6.55122">
        <ele>2539.4</ele>
        <time>2017-04-20T11:27:25Z</time>
      </trkpt>
      <trkpt lat="45.07028" lon="6.55123">
        <ele>2543.4</ele>
        <time>2017-04-20T11:27:30Z</time>
      </trkpt>
      <trkpt lat="45.07029" lon="6.55126">
        <ele>2543.4</ele>
        <time>2017-04-20T11:27:35Z</time>
      </trkpt>
      <trkpt lat="45.07029" lon="6.55129">
        <ele>2542.8</ele>
        <time>2017-04-20T11:27:40Z</time>
      </trkpt>
      <trkpt lat="45.07029" lon="6.55132">
        <ele>2540.8</ele>
        <time>2017-04-20T11:27:45Z</time>
      </trkpt>
      <trkpt lat="45.07029" lon="6.55135">
        <ele>2540.8</ele>
        <time>2017-04-20T11:27:50Z</time>
      </trkpt>
      <trkpt lat="45.0703" lon="6.55138">
        <ele>2540</ele>
        <time>2017-04-20T11:27:55Z</time>
      </trkpt>
      <trkpt lat="45.0703" lon="6.5514">
        <ele>2540.2</ele>
        <time>2017-04-20T11:28:00Z</time>
      </trkpt>
      <trkpt lat="45.07031" lon="6.55143">
        <ele>2540.2</ele>
        <time>2017-04-20T11:28:05Z</time>
      </trkpt>
      <trkpt lat="45.07032" lon="6.55145">
        <ele>2543.6</ele>
        <time>2017-04-20T11:28:10Z</time>
      </trkpt>
      <trkpt lat="45.07033" lon="6.55143">
        <ele>2544</ele>
        <time>2017-04-20T11:28:15Z</time>
      </trkpt>
      <trkpt lat="45.07035" lon="6.55141">
        <ele>2544.6</ele>
        <time>2017-04-20T11:28:20Z</time>
      </trkpt>
      <trkpt lat="45.07037" lon="6.5514">
        <ele>2545.8</ele>
        <time>2017-04-20T11:28:25Z</time>
      </trkpt>
      <trkpt lat="45.07039" lon="6.55138">
        <ele>2547.2</ele>
        <time>2017-04-20T11:28:30Z</time>
      </trkpt>
      <trkpt lat="45.07041" lon="6.55137">
        <ele>2550.8</ele>
        <time>2017-04-20T11:28:35Z</time>
      </trkpt>
      <trkpt lat="45.07043" lon="6.55135">
        <ele>2549.2</ele>
        <time>2017-04-20T11:28:40Z</time>
      </trkpt>
      <trkpt lat="45.07045" lon="6.55134">
        <ele>2548.2</ele>
        <time>2017-04-20T11:28:45Z</time>
      </trkpt>
      <trkpt lat="45.07047" lon="6.55133">
        <ele>2547</ele>
        <time>2017-04-20T11:28:50Z</time>
      </trkpt>
      <trkpt lat="45.07049" lon="6.55132">
        <ele>2550.8</ele>
        <time>2017-04-20T11:28:55Z</time>
      </trkpt>
      <trkpt lat="45.0705" lon="6.55132">
        <ele>2550.6</ele>
        <time>2017-04-20T11:29:00Z</time>
      </trkpt>
      <trkpt lat="45.07052" lon="6.55132">
        <ele>2552</ele>
        <time>2017-04-20T11:29:05Z</time>
      </trkpt>
      <trkpt lat="45.07054" lon="6.55132">
        <ele>2554.4</ele>
        <time>2017-04-20T11:29:10Z</time>
      </trkpt>
      <trkpt lat="45.07055" lon="6.55132">
        <ele>2553.8</ele>
        <time>2017-04-20T11:29:15Z</time>
      </trkpt>
      <trkpt lat="45.07057" lon="6.55132">
        <ele>2551.6</ele>
        <time>2017-04-20T11:29:20Z</time>
      </trkpt>
      <trkpt lat="45.07058" lon="6.55132">
        <ele>2552.2</ele>
        <time>2017-04-20T11:29:30Z</time>
      </trkpt>
      <trkpt lat="45.0706" lon="6.55131">
        <ele>2551.8</ele>
        <time>2017-04-20T11:29:35Z</time>
      </trkpt>
      <trkpt lat="45.07062" lon="6.55131">
        <ele>2552</ele>
        <time>2017-04-20T11:29:40Z</time>
      </trkpt>
      <trkpt lat="45.07063" lon="6.5513">
        <ele>2553.4</ele>
        <time>2017-04-20T11:29:45Z</time>
      </trkpt>
      <trkpt lat="45.07065" lon="6.5513">
        <ele>2553.6</ele>
        <time>2017-04-20T11:29:50Z</time>
      </trkpt>
      <trkpt lat="45.07067" lon="6.5513">
        <ele>2557</ele>
        <time>2017-04-20T11:29:55Z</time>
      </trkpt>
      <trkpt lat="45.07069" lon="6.55129">
        <ele>2556</ele>
        <time>2017-04-20T11:30:00Z</time>
      </trkpt>
      <trkpt lat="45.07068" lon="6.55134">
        <ele>2557.2</ele>
        <time>2017-04-20T11:30:10Z</time>
      </trkpt>
      <trkpt lat="45.07068" lon="6.55138">
        <ele>2555.4</ele>
        <time>2017-04-20T11:30:15Z</time>
      </trkpt>
      <trkpt lat="45.07068" lon="6.55141">
        <ele>2558.8</ele>
        <time>2017-04-20T11:30:20Z</time>
      </trkpt>
      <trkpt lat="45.07068" lon="6.55143">
        <ele>2557.2</ele>
        <time>2017-04-20T11:30:25Z</time>
      </trkpt>
      <trkpt lat="45.07068" lon="6.55147">
        <ele>2554.6</ele>
        <time>2017-04-20T11:30:30Z</time>
      </trkpt>
      <trkpt lat="45.07069" lon="6.55149">
        <ele>2556.8</ele>
        <time>2017-04-20T11:30:35Z</time>
      </trkpt>
      <trkpt lat="45.07069" lon="6.55152">
        <ele>2555.6</ele>
        <time>2017-04-20T11:30:40Z</time>
      </trkpt>
      <trkpt lat="45.0707" lon="6.55155">
        <ele>2559.8</ele>
        <time>2017-04-20T11:30:45Z</time>
      </trkpt>
      <trkpt lat="45.07072" lon="6.55155">
        <ele>2561</ele>
        <time>2017-04-20T11:30:50Z</time>
      </trkpt>
      <trkpt lat="45.07073" lon="6.55155">
        <ele>2559.6</ele>
        <time>2017-04-20T11:30:55Z</time>
      </trkpt>
      <trkpt lat="45.07073" lon="6.55155">
        <ele>2559.8</ele>
        <time>2017-04-20T11:31:15Z</time>
      </trkpt>
      <trkpt lat="45.07074" lon="6.55154">
        <ele>2562.4</ele>
        <time>2017-04-20T11:31:20Z</time>
      </trkpt>
      <trkpt lat="45.07076" lon="6.55153">
        <ele>2559.8</ele>
        <time>2017-04-20T11:31:25Z</time>
      </trkpt>
      <trkpt lat="45.07077" lon="6.55152">
        <ele>2559.6</ele>
        <time>2017-04-20T11:33:15Z</time>
      </trkpt>
      <trkpt lat="45.07077" lon="6.55152">
        <ele>2561.8</ele>
        <time>2017-04-20T11:33:20Z</time>
      </trkpt>
      <trkpt lat="45.0708" lon="6.55151">
        <ele>2561.8</ele>
        <time>2017-04-20T11:33:25Z</time>
      </trkpt>
      <trkpt lat="45.07081" lon="6.55151">
        <ele>2561.4</ele>
        <time>2017-04-20T11:33:30Z</time>
      </trkpt>
      <trkpt lat="45.07083" lon="6.5515">
        <ele>2562.2</ele>
        <time>2017-04-20T11:33:35Z</time>
      </trkpt>
      <trkpt lat="45.07085" lon="6.55148">
        <ele>2563.4</ele>
        <time>2017-04-20T11:33:40Z</time>
      </trkpt>
      <trkpt lat="45.07087" lon="6.55147">
        <ele>2562.6</ele>
        <time>2017-04-20T11:33:45Z</time>
      </trkpt>
      <trkpt lat="45.07087" lon="6.55147">
        <ele>2562.2</ele>
        <time>2017-04-20T11:33:55Z</time>
      </trkpt>
      <trkpt lat="45.07088" lon="6.55149">
        <ele>2560</ele>
        <time>2017-04-20T11:34:00Z</time>
      </trkpt>
      <trkpt lat="45.07089" lon="6.55152">
        <ele>2562.6</ele>
        <time>2017-04-20T11:34:05Z</time>
      </trkpt>
      <trkpt lat="45.07091" lon="6.55155">
        <ele>2563.6</ele>
        <time>2017-04-20T11:34:10Z</time>
      </trkpt>
      <trkpt lat="45.07093" lon="6.55154">
        <ele>2562.6</ele>
        <time>2017-04-20T11:34:15Z</time>
      </trkpt>
      <trkpt lat="45.07095" lon="6.55152">
        <ele>2564.8</ele>
        <time>2017-04-20T11:34:20Z</time>
      </trkpt>
      <trkpt lat="45.07097" lon="6.5515">
        <ele>2564.6</ele>
        <time>2017-04-20T11:34:25Z</time>
      </trkpt>
      <trkpt lat="45.07099" lon="6.55149">
        <ele>2568.2</ele>
        <time>2017-04-20T11:34:30Z</time>
      </trkpt>
      <trkpt lat="45.07102" lon="6.55148">
        <ele>2566</ele>
        <time>2017-04-20T11:34:35Z</time>
      </trkpt>
      <trkpt lat="45.07104" lon="6.55148">
        <ele>2568</ele>
        <time>2017-04-20T11:34:40Z</time>
      </trkpt>
      <trkpt lat="45.07106" lon="6.55147">
        <ele>2566.4</ele>
        <time>2017-04-20T11:34:45Z</time>
      </trkpt>
      <trkpt lat="45.07108" lon="6.55146">
        <ele>2565.4</ele>
        <time>2017-04-20T11:34:50Z</time>
      </trkpt>
      <trkpt lat="45.0711" lon="6.55146">
        <ele>2568.6</ele>
        <time>2017-04-20T11:34:55Z</time>
      </trkpt>
      <trkpt lat="45.07111" lon="6.55145">
        <ele>2566.6</ele>
        <time>2017-04-20T11:35:00Z</time>
      </trkpt>
      <trkpt lat="45.07113" lon="6.55144">
        <ele>2566.8</ele>
        <time>2017-04-20T11:35:05Z</time>
      </trkpt>
      <trkpt lat="45.07116" lon="6.55144">
        <ele>2571.4</ele>
        <time>2017-04-20T11:35:10Z</time>
      </trkpt>
      <trkpt lat="45.07118" lon="6.55142">
        <ele>2569</ele>
        <time>2017-04-20T11:35:15Z</time>
      </trkpt>
      <trkpt lat="45.07122" lon="6.5514">
        <ele>2572.4</ele>
        <time>2017-04-20T11:35:25Z</time>
      </trkpt>
      <trkpt lat="45.07123" lon="6.5514">
        <ele>2574</ele>
        <time>2017-04-20T11:35:30Z</time>
      </trkpt>
      <trkpt lat="45.07123" lon="6.55146">
        <ele>2575.8</ele>
        <time>2017-04-20T11:35:40Z</time>
      </trkpt>
      <trkpt lat="45.07122" lon="6.55149">
        <ele>2575.2</ele>
        <time>2017-04-20T11:35:45Z</time>
      </trkpt>
      <trkpt lat="45.07123" lon="6.55149">
        <ele>2577</ele>
        <time>2017-04-20T11:35:50Z</time>
      </trkpt>
      <trkpt lat="45.07126" lon="6.55147">
        <ele>2574.2</ele>
        <time>2017-04-20T11:36:00Z</time>
      </trkpt>
      <trkpt lat="45.07127" lon="6.55146">
        <ele>2575.8</ele>
        <time>2017-04-20T11:36:05Z</time>
      </trkpt>
      <trkpt lat="45.07129" lon="6.55144">
        <ele>2577</ele>
        <time>2017-04-20T11:36:10Z</time>
      </trkpt>
      <trkpt lat="45.07131" lon="6.55142">
        <ele>2577.6</ele>
        <time>2017-04-20T11:36:15Z</time>
      </trkpt>
      <trkpt lat="45.07134" lon="6.55141">
        <ele>2574.2</ele>
        <time>2017-04-20T11:36:20Z</time>
      </trkpt>
      <trkpt lat="45.07136" lon="6.5514">
        <ele>2575</ele>
        <time>2017-04-20T11:36:25Z</time>
      </trkpt>
      <trkpt lat="45.07138" lon="6.55139">
        <ele>2574.2</ele>
        <time>2017-04-20T11:36:30Z</time>
      </trkpt>
      <trkpt lat="45.07139" lon="6.55138">
        <ele>2576</ele>
        <time>2017-04-20T11:36:35Z</time>
      </trkpt>
      <trkpt lat="45.07142" lon="6.55136">
        <ele>2578.6</ele>
        <time>2017-04-20T11:36:40Z</time>
      </trkpt>
      <trkpt lat="45.07144" lon="6.55136">
        <ele>2578.6</ele>
        <time>2017-04-20T11:36:45Z</time>
      </trkpt>
      <trkpt lat="45.07146" lon="6.55134">
        <ele>2579.2</ele>
        <time>2017-04-20T11:36:50Z</time>
      </trkpt>
      <trkpt lat="45.07148" lon="6.55133">
        <ele>2577.8</ele>
        <time>2017-04-20T11:36:55Z</time>
      </trkpt>
      <trkpt lat="45.0715" lon="6.55132">
        <ele>2579.2</ele>
        <time>2017-04-20T11:37:00Z</time>
      </trkpt>
      <trkpt lat="45.07152" lon="6.55131">
        <ele>2575.6</ele>
        <time>2017-04-20T11:37:05Z</time>
      </trkpt>
      <trkpt lat="45.07154" lon="6.5513">
        <ele>2578.8</ele>
        <time>2017-04-20T11:37:10Z</time>
      </trkpt>
      <trkpt lat="45.07157" lon="6.55128">
        <ele>2578.6</ele>
        <time>2017-04-20T11:37:15Z</time>
      </trkpt>
      <trkpt lat="45.07158" lon="6.55128">
        <ele>2580.4</ele>
        <time>2017-04-20T11:37:20Z</time>
      </trkpt>
      <trkpt lat="45.07159" lon="6.55126">
        <ele>2579</ele>
        <time>2017-04-20T11:37:25Z</time>
      </trkpt>
      <trkpt lat="45.07161" lon="6.55125">
        <ele>2578.4</ele>
        <time>2017-04-20T11:37:30Z</time>
      </trkpt>
      <trkpt lat="45.07162" lon="6.55123">
        <ele>2579.8</ele>
        <time>2017-04-20T11:37:35Z</time>
      </trkpt>
      <trkpt lat="45.07164" lon="6.55121">
        <ele>2581.6</ele>
        <time>2017-04-20T11:37:40Z</time>
      </trkpt>
      <trkpt lat="45.07165" lon="6.55119">
        <ele>2581</ele>
        <time>2017-04-20T11:37:45Z</time>
      </trkpt>
      <trkpt lat="45.07166" lon="6.55116">
        <ele>2581.4</ele>
        <time>2017-04-20T11:37:50Z</time>
      </trkpt>
      <trkpt lat="45.07167" lon="6.55114">
        <ele>2583.2</ele>
        <time>2017-04-20T11:37:55Z</time>
      </trkpt>
      <trkpt lat="45.07168" lon="6.55111">
        <ele>2584.8</ele>
        <time>2017-04-20T11:38:00Z</time>
      </trkpt>
      <trkpt lat="45.07168" lon="6.55111">
        <ele>2585.4</ele>
        <time>2017-04-20T11:38:05Z</time>
      </trkpt>
      <trkpt lat="45.0717" lon="6.55108">
        <ele>2586.4</ele>
        <time>2017-04-20T11:38:10Z</time>
      </trkpt>
      <trkpt lat="45.07171" lon="6.55106">
        <ele>2586.2</ele>
        <time>2017-04-20T11:38:15Z</time>
      </trkpt>
      <trkpt lat="45.07172" lon="6.55103">
        <ele>2587</ele>
        <time>2017-04-20T11:38:20Z</time>
      </trkpt>
      <trkpt lat="45.07174" lon="6.55101">
        <ele>2589</ele>
        <time>2017-04-20T11:38:25Z</time>
      </trkpt>
      <trkpt lat="45.07175" lon="6.55099">
        <ele>2589.2</ele>
        <time>2017-04-20T11:38:30Z</time>
      </trkpt>
      <trkpt lat="45.07177" lon="6.55097">
        <ele>2588.8</ele>
        <time>2017-04-20T11:38:35Z</time>
      </trkpt>
      <trkpt lat="45.07179" lon="6.55095">
        <ele>2591.8</ele>
        <time>2017-04-20T11:38:40Z</time>
      </trkpt>
      <trkpt lat="45.07181" lon="6.55093">
        <ele>2588.2</ele>
        <time>2017-04-20T11:38:45Z</time>
      </trkpt>
      <trkpt lat="45.07182" lon="6.55091">
        <ele>2591</ele>
        <time>2017-04-20T11:38:50Z</time>
      </trkpt>
      <trkpt lat="45.07183" lon="6.5509">
        <ele>2591.6</ele>
        <time>2017-04-20T11:38:55Z</time>
      </trkpt>
      <trkpt lat="45.07185" lon="6.55088">
        <ele>2592.2</ele>
        <time>2017-04-20T11:39:00Z</time>
      </trkpt>
      <trkpt lat="45.07187" lon="6.55087">
        <ele>2593.6</ele>
        <time>2017-04-20T11:39:05Z</time>
      </trkpt>
      <trkpt lat="45.07188" lon="6.55085">
        <ele>2593</ele>
        <time>2017-04-20T11:39:10Z</time>
      </trkpt>
      <trkpt lat="45.07189" lon="6.55085">
        <ele>2593.4</ele>
        <time>2017-04-20T11:40:35Z</time>
      </trkpt>
      <trkpt lat="45.0719" lon="6.55089">
        <ele>2592.8</ele>
        <time>2017-04-20T11:40:45Z</time>
      </trkpt>
      <trkpt lat="45.0719" lon="6.55092">
        <ele>2591.4</ele>
        <time>2017-04-20T11:40:50Z</time>
      </trkpt>
      <trkpt lat="45.07191" lon="6.55096">
        <ele>2594.6</ele>
        <time>2017-04-20T11:40:55Z</time>
      </trkpt>
      <trkpt lat="45.07191" lon="6.55099">
        <ele>2596.6</ele>
        <time>2017-04-20T11:41:10Z</time>
      </trkpt>
      <trkpt lat="45.0719" lon="6.55102">
        <ele>2594</ele>
        <time>2017-04-20T11:41:15Z</time>
      </trkpt>
      <trkpt lat="45.07189" lon="6.55106">
        <ele>2596.6</ele>
        <time>2017-04-20T11:41:30Z</time>
      </trkpt>
      <trkpt lat="45.07189" lon="6.5511">
        <ele>2598.2</ele>
        <time>2017-04-20T11:41:35Z</time>
      </trkpt>
      <trkpt lat="45.07189" lon="6.55114">
        <ele>2600.4</ele>
        <time>2017-04-20T11:41:40Z</time>
      </trkpt>
      <trkpt lat="45.0719" lon="6.55117">
        <ele>2598.4</ele>
        <time>2017-04-20T11:41:45Z</time>
      </trkpt>
      <trkpt lat="45.0719" lon="6.55119">
        <ele>2600.2</ele>
        <time>2017-04-20T11:41:50Z</time>
      </trkpt>
      <trkpt lat="45.07191" lon="6.55119">
        <ele>2599.6</ele>
        <time>2017-04-20T11:42:00Z</time>
      </trkpt>
      <trkpt lat="45.07192" lon="6.55118">
        <ele>2601</ele>
        <time>2017-04-20T11:42:05Z</time>
      </trkpt>
      <trkpt lat="45.07194" lon="6.55116">
        <ele>2603</ele>
        <time>2017-04-20T11:42:10Z</time>
      </trkpt>
      <trkpt lat="45.07195" lon="6.55114">
        <ele>2601.8</ele>
        <time>2017-04-20T11:42:15Z</time>
      </trkpt>
      <trkpt lat="45.07197" lon="6.55113">
        <ele>2600.6</ele>
        <time>2017-04-20T11:42:20Z</time>
      </trkpt>
      <trkpt lat="45.07199" lon="6.55111">
        <ele>2601</ele>
        <time>2017-04-20T11:42:25Z</time>
      </trkpt>
      <trkpt lat="45.07201" lon="6.5511">
        <ele>2603.4</ele>
        <time>2017-04-20T11:42:30Z</time>
      </trkpt>
      <trkpt lat="45.07203" lon="6.55108">
        <ele>2607</ele>
        <time>2017-04-20T11:42:35Z</time>
      </trkpt>
      <trkpt lat="45.07205" lon="6.55106">
        <ele>2604.2</ele>
        <time>2017-04-20T11:42:40Z</time>
      </trkpt>
      <trkpt lat="45.07207" lon="6.55105">
        <ele>2603.4</ele>
        <time>2017-04-20T11:42:45Z</time>
      </trkpt>
      <trkpt lat="45.07209" lon="6.55105">
        <ele>2603.2</ele>
        <time>2017-04-20T11:42:50Z</time>
      </trkpt>
      <trkpt lat="45.07211" lon="6.55104">
        <ele>2603.8</ele>
        <time>2017-04-20T11:42:55Z</time>
      </trkpt>
      <trkpt lat="45.07213" lon="6.55102">
        <ele>2607.6</ele>
        <time>2017-04-20T11:43:00Z</time>
      </trkpt>
      <trkpt lat="45.07214" lon="6.55101">
        <ele>2606.6</ele>
        <time>2017-04-20T11:43:05Z</time>
      </trkpt>
      <trkpt lat="45.07215" lon="6.551">
        <ele>2607.2</ele>
        <time>2017-04-20T11:43:10Z</time>
      </trkpt>
      <trkpt lat="45.07217" lon="6.55097">
        <ele>2607.4</ele>
        <time>2017-04-20T11:43:15Z</time>
      </trkpt>
      <trkpt lat="45.07218" lon="6.55094">
        <ele>2606.4</ele>
        <time>2017-04-20T11:43:20Z</time>
      </trkpt>
      <trkpt lat="45.07219" lon="6.55096">
        <ele>2605.4</ele>
        <time>2017-04-20T11:43:25Z</time>
      </trkpt>
      <trkpt lat="45.0722" lon="6.55099">
        <ele>2608.6</ele>
        <time>2017-04-20T11:43:30Z</time>
      </trkpt>
      <trkpt lat="45.07221" lon="6.55102">
        <ele>2606.8</ele>
        <time>2017-04-20T11:43:35Z</time>
      </trkpt>
      <trkpt lat="45.07221" lon="6.55105">
        <ele>2610.4</ele>
        <time>2017-04-20T11:43:40Z</time>
      </trkpt>
      <trkpt lat="45.07222" lon="6.55108">
        <ele>2609.6</ele>
        <time>2017-04-20T11:43:45Z</time>
      </trkpt>
      <trkpt lat="45.07223" lon="6.55111">
        <ele>2611.6</ele>
        <time>2017-04-20T11:43:50Z</time>
      </trkpt>
      <trkpt lat="45.07224" lon="6.55113">
        <ele>2611.6</ele>
        <time>2017-04-20T11:43:55Z</time>
      </trkpt>
      <trkpt lat="45.07225" lon="6.55115">
        <ele>2612.2</ele>
        <time>2017-04-20T11:44:00Z</time>
      </trkpt>
      <trkpt lat="45.07225" lon="6.55119">
        <ele>2611.8</ele>
        <time>2017-04-20T11:44:05Z</time>
      </trkpt>
      <trkpt lat="45.07226" lon="6.55122">
        <ele>2612.6</ele>
        <time>2017-04-20T11:44:10Z</time>
      </trkpt>
      <trkpt lat="45.07227" lon="6.55124">
        <ele>2613</ele>
        <time>2017-04-20T11:44:15Z</time>
      </trkpt>
      <trkpt lat="45.07229" lon="6.55124">
        <ele>2613.2</ele>
        <time>2017-04-20T11:44:20Z</time>
      </trkpt>
      <trkpt lat="45.07232" lon="6.55122">
        <ele>2614.4</ele>
        <time>2017-04-20T11:44:25Z</time>
      </trkpt>
      <trkpt lat="45.07233" lon="6.55121">
        <ele>2612.8</ele>
        <time>2017-04-20T11:44:30Z</time>
      </trkpt>
      <trkpt lat="45.07234" lon="6.5512">
        <ele>2612.2</ele>
        <time>2017-04-20T11:46:05Z</time>
      </trkpt>
      <trkpt lat="45.07235" lon="6.5512">
        <ele>2611.2</ele>
        <time>2017-04-20T11:46:10Z</time>
      </trkpt>
      <trkpt lat="45.07237" lon="6.55121">
        <ele>2614.2</ele>
        <time>2017-04-20T11:46:15Z</time>
      </trkpt>
      <trkpt lat="45.07239" lon="6.55123">
        <ele>2613.4</ele>
        <time>2017-04-20T11:46:20Z</time>
      </trkpt>
      <trkpt lat="45.07241" lon="6.55125">
        <ele>2613</ele>
        <time>2017-04-20T11:46:25Z</time>
      </trkpt>
      <trkpt lat="45.07243" lon="6.55126">
        <ele>2615.4</ele>
        <time>2017-04-20T11:46:30Z</time>
      </trkpt>
      <trkpt lat="45.07245" lon="6.55127">
        <ele>2613.4</ele>
        <time>2017-04-20T11:46:35Z</time>
      </trkpt>
      <trkpt lat="45.07247" lon="6.55127">
        <ele>2614.6</ele>
        <time>2017-04-20T11:46:40Z</time>
      </trkpt>
      <trkpt lat="45.07247" lon="6.55127">
        <ele>2614.8</ele>
        <time>2017-04-20T11:48:30Z</time>
      </trkpt>
      <trkpt lat="45.07248" lon="6.55128">
        <ele>2614.2</ele>
        <time>2017-04-20T11:48:35Z</time>
      </trkpt>
      <trkpt lat="45.0725" lon="6.55129">
        <ele>2613.2</ele>
        <time>2017-04-20T11:48:40Z</time>
      </trkpt>
      <trkpt lat="45.07253" lon="6.5513">
        <ele>2615.6</ele>
        <time>2017-04-20T11:48:45Z</time>
      </trkpt>
      <trkpt lat="45.07255" lon="6.55131">
        <ele>2618.4</ele>
        <time>2017-04-20T11:48:50Z</time>
      </trkpt>
      <trkpt lat="45.07257" lon="6.55132">
        <ele>2617.2</ele>
        <time>2017-04-20T11:48:55Z</time>
      </trkpt>
      <trkpt lat="45.07259" lon="6.55133">
        <ele>2617.4</ele>
        <time>2017-04-20T11:49:00Z</time>
      </trkpt>
      <trkpt lat="45.07262" lon="6.55134">
        <ele>2617.2</ele>
        <time>2017-04-20T11:49:05Z</time>
      </trkpt>
      <trkpt lat="45.07264" lon="6.55135">
        <ele>2618.2</ele>
        <time>2017-04-20T11:49:10Z</time>
      </trkpt>
      <trkpt lat="45.07266" lon="6.55137">
        <ele>2620.8</ele>
        <time>2017-04-20T11:49:15Z</time>
      </trkpt>
      <trkpt lat="45.07269" lon="6.55138">
        <ele>2621</ele>
        <time>2017-04-20T11:49:20Z</time>
      </trkpt>
      <trkpt lat="45.07271" lon="6.5514">
        <ele>2622.2</ele>
        <time>2017-04-20T11:49:25Z</time>
      </trkpt>
      <trkpt lat="45.07273" lon="6.55142">
        <ele>2624</ele>
        <time>2017-04-20T11:49:30Z</time>
      </trkpt>
      <trkpt lat="45.07275" lon="6.55144">
        <ele>2625</ele>
        <time>2017-04-20T11:49:35Z</time>
      </trkpt>
      <trkpt lat="45.07277" lon="6.55145">
        <ele>2624.8</ele>
        <time>2017-04-20T11:49:40Z</time>
      </trkpt>
      <trkpt lat="45.07279" lon="6.55147">
        <ele>2627</ele>
        <time>2017-04-20T11:49:45Z</time>
      </trkpt>
      <trkpt lat="45.07281" lon="6.55147">
        <ele>2623.8</ele>
        <time>2017-04-20T11:49:50Z</time>
      </trkpt>
      <trkpt lat="45.07282" lon="6.55143">
        <ele>2626.8</ele>
        <time>2017-04-20T11:49:55Z</time>
      </trkpt>
      <trkpt lat="45.07283" lon="6.55139">
        <ele>2626.6</ele>
        <time>2017-04-20T11:50:00Z</time>
      </trkpt>
      <trkpt lat="45.07284" lon="6.55135">
        <ele>2627.8</ele>
        <time>2017-04-20T11:50:05Z</time>
      </trkpt>
      <trkpt lat="45.07285" lon="6.55135">
        <ele>2628.4</ele>
        <time>2017-04-20T11:50:10Z</time>
      </trkpt>
      <trkpt lat="45.07288" lon="6.55136">
        <ele>2626.2</ele>
        <time>2017-04-20T11:50:15Z</time>
      </trkpt>
      <trkpt lat="45.07289" lon="6.55139">
        <ele>2627.2</ele>
        <time>2017-04-20T11:50:20Z</time>
      </trkpt>
      <trkpt lat="45.07291" lon="6.55141">
        <ele>2629</ele>
        <time>2017-04-20T11:50:25Z</time>
      </trkpt>
      <trkpt lat="45.07292" lon="6.55142">
        <ele>2629.8</ele>
        <time>2017-04-20T11:50:30Z</time>
      </trkpt>
      <trkpt lat="45.07292" lon="6.55142">
        <ele>2628</ele>
        <time>2017-04-20T11:51:00Z</time>
      </trkpt>
      <trkpt lat="45.07292" lon="6.55143">
        <ele>2627.4</ele>
        <time>2017-04-20T11:51:05Z</time>
      </trkpt>
      <trkpt lat="45.07293" lon="6.55147">
        <ele>2632.2</ele>
        <time>2017-04-20T11:51:10Z</time>
      </trkpt>
      <trkpt lat="45.07294" lon="6.55149">
        <ele>2631.6</ele>
        <time>2017-04-20T11:51:25Z</time>
      </trkpt>
      <trkpt lat="45.07295" lon="6.55148">
        <ele>2632.6</ele>
        <time>2017-04-20T11:51:30Z</time>
      </trkpt>
      <trkpt lat="45.07296" lon="6.55145">
        <ele>2632</ele>
        <time>2017-04-20T11:51:35Z</time>
      </trkpt>
      <trkpt lat="45.07297" lon="6.55141">
        <ele>2630.6</ele>
        <time>2017-04-20T11:51:40Z</time>
      </trkpt>
      <trkpt lat="45.07298" lon="6.55136">
        <ele>2631.2</ele>
        <time>2017-04-20T11:51:45Z</time>
      </trkpt>
      <trkpt lat="45.07298" lon="6.55132">
        <ele>2632.4</ele>
        <time>2017-04-20T11:51:50Z</time>
      </trkpt>
      <trkpt lat="45.07298" lon="6.55128">
        <ele>2632.4</ele>
        <time>2017-04-20T11:51:55Z</time>
      </trkpt>
      <trkpt lat="45.07298" lon="6.55124">
        <ele>2632</ele>
        <time>2017-04-20T11:52:00Z</time>
      </trkpt>
      <trkpt lat="45.07297" lon="6.5512">
        <ele>2633.8</ele>
        <time>2017-04-20T11:52:05Z</time>
      </trkpt>
      <trkpt lat="45.07296" lon="6.55116">
        <ele>2631.8</ele>
        <time>2017-04-20T11:52:10Z</time>
      </trkpt>
      <trkpt lat="45.07296" lon="6.55113">
        <ele>2631</ele>
        <time>2017-04-20T11:52:15Z</time>
      </trkpt>
      <trkpt lat="45.07295" lon="6.5511">
        <ele>2632</ele>
        <time>2017-04-20T11:52:20Z</time>
      </trkpt>
      <trkpt lat="45.07295" lon="6.55107">
        <ele>2632.4</ele>
        <time>2017-04-20T11:52:25Z</time>
      </trkpt>
      <trkpt lat="45.07293" lon="6.55104">
        <ele>2634.4</ele>
        <time>2017-04-20T11:52:30Z</time>
      </trkpt>
      <trkpt lat="45.07292" lon="6.55101">
        <ele>2633.2</ele>
        <time>2017-04-20T11:52:35Z</time>
      </trkpt>
      <trkpt lat="45.0729" lon="6.55099">
        <ele>2633.4</ele>
        <time>2017-04-20T11:52:40Z</time>
      </trkpt>
      <trkpt lat="45.07291" lon="6.55099">
        <ele>2634.6</ele>
        <time>2017-04-20T11:52:50Z</time>
      </trkpt>
      <trkpt lat="45.07293" lon="6.551">
        <ele>2635.8</ele>
        <time>2017-04-20T11:52:55Z</time>
      </trkpt>
      <trkpt lat="45.07295" lon="6.55101">
        <ele>2637.2</ele>
        <time>2017-04-20T11:53:00Z</time>
      </trkpt>
      <trkpt lat="45.07298" lon="6.55101">
        <ele>2636.2</ele>
        <time>2017-04-20T11:53:05Z</time>
      </trkpt>
      <trkpt lat="45.07299" lon="6.55102">
        <ele>2641</ele>
        <time>2017-04-20T11:53:10Z</time>
      </trkpt>
      <trkpt lat="45.07301" lon="6.55102">
        <ele>2642.2</ele>
        <time>2017-04-20T11:53:15Z</time>
      </trkpt>
      <trkpt lat="45.07303" lon="6.55102">
        <ele>2643.8</ele>
        <time>2017-04-20T11:53:20Z</time>
      </trkpt>
      <trkpt lat="45.07305" lon="6.55103">
        <ele>2641.6</ele>
        <time>2017-04-20T11:53:25Z</time>
      </trkpt>
      <trkpt lat="45.07308" lon="6.55104">
        <ele>2641.8</ele>
        <time>2017-04-20T11:53:30Z</time>
      </trkpt>
      <trkpt lat="45.0731" lon="6.55105">
        <ele>2640.6</ele>
        <time>2017-04-20T11:53:35Z</time>
      </trkpt>
      <trkpt lat="45.07312" lon="6.55106">
        <ele>2644</ele>
        <time>2017-04-20T11:53:40Z</time>
      </trkpt>
      <trkpt lat="45.07314" lon="6.55107">
        <ele>2648</ele>
        <time>2017-04-20T11:53:45Z</time>
      </trkpt>
      <trkpt lat="45.07316" lon="6.55108">
        <ele>2644.4</ele>
        <time>2017-04-20T11:53:50Z</time>
      </trkpt>
      <trkpt lat="45.07318" lon="6.5511">
        <ele>2647</ele>
        <time>2017-04-20T11:53:55Z</time>
      </trkpt>
      <trkpt lat="45.0732" lon="6.55112">
        <ele>2647.8</ele>
        <time>2017-04-20T11:54:00Z</time>
      </trkpt>
      <trkpt lat="45.07321" lon="6.55114">
        <ele>2645.6</ele>
        <time>2017-04-20T11:54:05Z</time>
      </trkpt>
      <trkpt lat="45.07322" lon="6.55116">
        <ele>2650</ele>
        <time>2017-04-20T11:54:10Z</time>
      </trkpt>
      <trkpt lat="45.07322" lon="6.55117">
        <ele>2649.4</ele>
        <time>2017-04-20T11:54:15Z</time>
      </trkpt>
      <trkpt lat="45.07323" lon="6.55119">
        <ele>2651.2</ele>
        <time>2017-04-20T11:54:20Z</time>
      </trkpt>
      <trkpt lat="45.07324" lon="6.55122">
        <ele>2649.4</ele>
        <time>2017-04-20T11:54:25Z</time>
      </trkpt>
      <trkpt lat="45.07325" lon="6.55126">
        <ele>2650.2</ele>
        <time>2017-04-20T11:54:31Z</time>
      </trkpt>
      <trkpt lat="45.07326" lon="6.55128">
        <ele>2651.2</ele>
        <time>2017-04-20T11:54:36Z</time>
      </trkpt>
      <trkpt lat="45.07327" lon="6.55131">
        <ele>2652</ele>
        <time>2017-04-20T11:54:41Z</time>
      </trkpt>
      <trkpt lat="45.07328" lon="6.55134">
        <ele>2650.8</ele>
        <time>2017-04-20T11:54:46Z</time>
      </trkpt>
      <trkpt lat="45.07329" lon="6.55137">
        <ele>2654</ele>
        <time>2017-04-20T11:54:51Z</time>
      </trkpt>
      <trkpt lat="45.0733" lon="6.55139">
        <ele>2652.8</ele>
        <time>2017-04-20T11:54:56Z</time>
      </trkpt>
      <trkpt lat="45.07331" lon="6.55142">
        <ele>2653.4</ele>
        <time>2017-04-20T11:55:01Z</time>
      </trkpt>
      <trkpt lat="45.07333" lon="6.55144">
        <ele>2651.4</ele>
        <time>2017-04-20T11:55:06Z</time>
      </trkpt>
      <trkpt lat="45.07334" lon="6.55142">
        <ele>2652</ele>
        <time>2017-04-20T11:55:11Z</time>
      </trkpt>
      <trkpt lat="45.07336" lon="6.55139">
        <ele>2651.4</ele>
        <time>2017-04-20T11:55:16Z</time>
      </trkpt>
      <trkpt lat="45.07338" lon="6.55136">
        <ele>2652</ele>
        <time>2017-04-20T11:55:21Z</time>
      </trkpt>
      <trkpt lat="45.07339" lon="6.55133">
        <ele>2651.2</ele>
        <time>2017-04-20T11:55:26Z</time>
      </trkpt>
      <trkpt lat="45.0734" lon="6.55131">
        <ele>2652.6</ele>
        <time>2017-04-20T11:55:31Z</time>
      </trkpt>
      <trkpt lat="45.07342" lon="6.55129">
        <ele>2652</ele>
        <time>2017-04-20T11:55:36Z</time>
      </trkpt>
      <trkpt lat="45.07343" lon="6.55127">
        <ele>2652.6</ele>
        <time>2017-04-20T11:55:41Z</time>
      </trkpt>
      <trkpt lat="45.07344" lon="6.55124">
        <ele>2653.2</ele>
        <time>2017-04-20T11:55:46Z</time>
      </trkpt>
      <trkpt lat="45.07345" lon="6.55122">
        <ele>2656.4</ele>
        <time>2017-04-20T11:55:51Z</time>
      </trkpt>
      <trkpt lat="45.07346" lon="6.55119">
        <ele>2657.6</ele>
        <time>2017-04-20T11:55:56Z</time>
      </trkpt>
      <trkpt lat="45.07348" lon="6.55117">
        <ele>2657.6</ele>
        <time>2017-04-20T11:56:01Z</time>
      </trkpt>
      <trkpt lat="45.07349" lon="6.55115">
        <ele>2658.6</ele>
        <time>2017-04-20T11:56:06Z</time>
      </trkpt>
      <trkpt lat="45.0735" lon="6.55112">
        <ele>2658</ele>
        <time>2017-04-20T11:56:11Z</time>
      </trkpt>
      <trkpt lat="45.07351" lon="6.5511">
        <ele>2658.6</ele>
        <time>2017-04-20T11:56:16Z</time>
      </trkpt>
      <trkpt lat="45.07353" lon="6.55107">
        <ele>2660.2</ele>
        <time>2017-04-20T11:56:21Z</time>
      </trkpt>
      <trkpt lat="45.07354" lon="6.55104">
        <ele>2658.8</ele>
        <time>2017-04-20T11:56:26Z</time>
      </trkpt>
      <trkpt lat="45.07355" lon="6.55101">
        <ele>2658.8</ele>
        <time>2017-04-20T11:56:31Z</time>
      </trkpt>
      <trkpt lat="45.07356" lon="6.55098">
        <ele>2659.2</ele>
        <time>2017-04-20T11:56:36Z</time>
      </trkpt>
      <trkpt lat="45.07357" lon="6.55095">
        <ele>2658.4</ele>
        <time>2017-04-20T11:56:41Z</time>
      </trkpt>
      <trkpt lat="45.07358" lon="6.55092">
        <ele>2662.8</ele>
        <time>2017-04-20T11:56:46Z</time>
      </trkpt>
      <trkpt lat="45.07358" lon="6.5509">
        <ele>2662.6</ele>
        <time>2017-04-20T11:56:51Z</time>
      </trkpt>
      <trkpt lat="45.07358" lon="6.55087">
        <ele>2662.8</ele>
        <time>2017-04-20T11:56:56Z</time>
      </trkpt>
      <trkpt lat="45.07358" lon="6.55085">
        <ele>2663.4</ele>
        <time>2017-04-20T11:57:01Z</time>
      </trkpt>
      <trkpt lat="45.07358" lon="6.55082">
        <ele>2662.6</ele>
        <time>2017-04-20T11:57:06Z</time>
      </trkpt>
      <trkpt lat="45.07358" lon="6.55076">
        <ele>2663.4</ele>
        <time>2017-04-20T11:57:16Z</time>
      </trkpt>
      <trkpt lat="45.07359" lon="6.55076">
        <ele>2663</ele>
        <time>2017-04-20T11:57:26Z</time>
      </trkpt>
      <trkpt lat="45.07361" lon="6.55077">
        <ele>2662.6</ele>
        <time>2017-04-20T11:57:31Z</time>
      </trkpt>
      <trkpt lat="45.07361" lon="6.55078">
        <ele>2665.6</ele>
        <time>2017-04-20T11:58:41Z</time>
      </trkpt>
      <trkpt lat="45.07364" lon="6.55082">
        <ele>2669.2</ele>
        <time>2017-04-20T11:58:51Z</time>
      </trkpt>
      <trkpt lat="45.07365" lon="6.5508">
        <ele>2669.6</ele>
        <time>2017-04-20T11:58:56Z</time>
      </trkpt>
      <trkpt lat="45.07365" lon="6.55076">
        <ele>2671.6</ele>
        <time>2017-04-20T11:59:01Z</time>
      </trkpt>
      <trkpt lat="45.07365" lon="6.55073">
        <ele>2671.4</ele>
        <time>2017-04-20T11:59:06Z</time>
      </trkpt>
      <trkpt lat="45.07365" lon="6.5507">
        <ele>2669.4</ele>
        <time>2017-04-20T11:59:11Z</time>
      </trkpt>
      <trkpt lat="45.07366" lon="6.55069">
        <ele>2670.6</ele>
        <time>2017-04-20T11:59:16Z</time>
      </trkpt>
      <trkpt lat="45.07367" lon="6.5507">
        <ele>2668.6</ele>
        <time>2017-04-20T11:59:21Z</time>
      </trkpt>
      <trkpt lat="45.07367" lon="6.55071">
        <ele>2666.8</ele>
        <time>2017-04-20T11:59:26Z</time>
      </trkpt>
      <trkpt lat="45.07369" lon="6.55073">
        <ele>2671</ele>
        <time>2017-04-20T11:59:31Z</time>
      </trkpt>
      <trkpt lat="45.07371" lon="6.55075">
        <ele>2671.6</ele>
        <time>2017-04-20T11:59:36Z</time>
      </trkpt>
      <trkpt lat="45.07373" lon="6.55078">
        <ele>2670.2</ele>
        <time>2017-04-20T11:59:41Z</time>
      </trkpt>
      <trkpt lat="45.07375" lon="6.5508">
        <ele>2672.6</ele>
        <time>2017-04-20T11:59:46Z</time>
      </trkpt>
      <trkpt lat="45.07377" lon="6.55082">
        <ele>2673.2</ele>
        <time>2017-04-20T11:59:51Z</time>
      </trkpt>
      <trkpt lat="45.07379" lon="6.55084">
        <ele>2675.8</ele>
        <time>2017-04-20T11:59:57Z</time>
      </trkpt>
      <trkpt lat="45.07379" lon="6.55085">
        <ele>2674.8</ele>
        <time>2017-04-20T12:00:02Z</time>
      </trkpt>
      <trkpt lat="45.0738" lon="6.55086">
        <ele>2673.4</ele>
        <time>2017-04-20T12:00:07Z</time>
      </trkpt>
      <trkpt lat="45.07382" lon="6.55088">
        <ele>2674.2</ele>
        <time>2017-04-20T12:00:12Z</time>
      </trkpt>
      <trkpt lat="45.07384" lon="6.5509">
        <ele>2675.4</ele>
        <time>2017-04-20T12:00:17Z</time>
      </trkpt>
      <trkpt lat="45.07386" lon="6.55094">
        <ele>2676.6</ele>
        <time>2017-04-20T12:00:22Z</time>
      </trkpt>
      <trkpt lat="45.07387" lon="6.55097">
        <ele>2676.4</ele>
        <time>2017-04-20T12:00:27Z</time>
      </trkpt>
      <trkpt lat="45.07388" lon="6.551">
        <ele>2680.6</ele>
        <time>2017-04-20T12:00:32Z</time>
      </trkpt>
      <trkpt lat="45.07389" lon="6.55103">
        <ele>2681.6</ele>
        <time>2017-04-20T12:00:37Z</time>
      </trkpt>
      <trkpt lat="45.0739" lon="6.55107">
        <ele>2683.4</ele>
        <time>2017-04-20T12:00:42Z</time>
      </trkpt>
      <trkpt lat="45.07391" lon="6.5511">
        <ele>2680.6</ele>
        <time>2017-04-20T12:00:47Z</time>
      </trkpt>
      <trkpt lat="45.07392" lon="6.55113">
        <ele>2682.4</ele>
        <time>2017-04-20T12:00:52Z</time>
      </trkpt>
      <trkpt lat="45.07393" lon="6.55116">
        <ele>2682.8</ele>
        <time>2017-04-20T12:00:57Z</time>
      </trkpt>
      <trkpt lat="45.07394" lon="6.55114">
        <ele>2682.8</ele>
        <time>2017-04-20T12:01:02Z</time>
      </trkpt>
      <trkpt lat="45.07396" lon="6.55111">
        <ele>2683</ele>
        <time>2017-04-20T12:01:07Z</time>
      </trkpt>
      <trkpt lat="45.07397" lon="6.55108">
        <ele>2684.4</ele>
        <time>2017-04-20T12:01:12Z</time>
      </trkpt>
      <trkpt lat="45.07399" lon="6.55106">
        <ele>2682.8</ele>
        <time>2017-04-20T12:01:17Z</time>
      </trkpt>
      <trkpt lat="45.074" lon="6.55103">
        <ele>2685.6</ele>
        <time>2017-04-20T12:01:22Z</time>
      </trkpt>
      <trkpt lat="45.07402" lon="6.55101">
        <ele>2683.8</ele>
        <time>2017-04-20T12:01:27Z</time>
      </trkpt>
      <trkpt lat="45.07404" lon="6.55099">
        <ele>2681.8</ele>
        <time>2017-04-20T12:01:32Z</time>
      </trkpt>
      <trkpt lat="45.07406" lon="6.55097">
        <ele>2687.6</ele>
        <time>2017-04-20T12:01:37Z</time>
      </trkpt>
      <trkpt lat="45.07408" lon="6.55094">
        <ele>2682.8</ele>
        <time>2017-04-20T12:01:42Z</time>
      </trkpt>
      <trkpt lat="45.07409" lon="6.55092">
        <ele>2686.8</ele>
        <time>2017-04-20T12:01:47Z</time>
      </trkpt>
      <trkpt lat="45.0741" lon="6.55089">
        <ele>2685.6</ele>
        <time>2017-04-20T12:01:52Z</time>
      </trkpt>
      <trkpt lat="45.07411" lon="6.55086">
        <ele>2687.6</ele>
        <time>2017-04-20T12:01:57Z</time>
      </trkpt>
      <trkpt lat="45.07412" lon="6.55083">
        <ele>2684.6</ele>
        <time>2017-04-20T12:02:02Z</time>
      </trkpt>
      <trkpt lat="45.07413" lon="6.5508">
        <ele>2687</ele>
        <time>2017-04-20T12:02:07Z</time>
      </trkpt>
      <trkpt lat="45.07413" lon="6.55077">
        <ele>2687</ele>
        <time>2017-04-20T12:02:12Z</time>
      </trkpt>
      <trkpt lat="45.07414" lon="6.55073">
        <ele>2687.6</ele>
        <time>2017-04-20T12:02:17Z</time>
      </trkpt>
      <trkpt lat="45.07414" lon="6.55071">
        <ele>2689.6</ele>
        <time>2017-04-20T12:02:22Z</time>
      </trkpt>
      <trkpt lat="45.07415" lon="6.55068">
        <ele>2688.4</ele>
        <time>2017-04-20T12:02:27Z</time>
      </trkpt>
      <trkpt lat="45.07416" lon="6.55065">
        <ele>2688.4</ele>
        <time>2017-04-20T12:02:32Z</time>
      </trkpt>
      <trkpt lat="45.07416" lon="6.55062">
        <ele>2690.2</ele>
        <time>2017-04-20T12:02:37Z</time>
      </trkpt>
      <trkpt lat="45.07417" lon="6.55059">
        <ele>2689.8</ele>
        <time>2017-04-20T12:02:42Z</time>
      </trkpt>
      <trkpt lat="45.07418" lon="6.55057">
        <ele>2691.8</ele>
        <time>2017-04-20T12:02:47Z</time>
      </trkpt>
      <trkpt lat="45.07419" lon="6.55058">
        <ele>2690.8</ele>
        <time>2017-04-20T12:02:52Z</time>
      </trkpt>
      <trkpt lat="45.07419" lon="6.55058">
        <ele>2691.6</ele>
        <time>2017-04-20T12:03:32Z</time>
      </trkpt>
      <trkpt lat="45.0742" lon="6.55059">
        <ele>2691.6</ele>
        <time>2017-04-20T12:03:37Z</time>
      </trkpt>
      <trkpt lat="45.07422" lon="6.55062">
        <ele>2693.2</ele>
        <time>2017-04-20T12:03:42Z</time>
      </trkpt>
      <trkpt lat="45.07423" lon="6.55065">
        <ele>2691</ele>
        <time>2017-04-20T12:03:47Z</time>
      </trkpt>
      <trkpt lat="45.07424" lon="6.55068">
        <ele>2693.4</ele>
        <time>2017-04-20T12:03:52Z</time>
      </trkpt>
      <trkpt lat="45.07425" lon="6.55072">
        <ele>2695.6</ele>
        <time>2017-04-20T12:03:57Z</time>
      </trkpt>
      <trkpt lat="45.07426" lon="6.55075">
        <ele>2695.2</ele>
        <time>2017-04-20T12:04:02Z</time>
      </trkpt>
      <trkpt lat="45.07427" lon="6.55078">
        <ele>2697.2</ele>
        <time>2017-04-20T12:04:07Z</time>
      </trkpt>
      <trkpt lat="45.07429" lon="6.55081">
        <ele>2695.8</ele>
        <time>2017-04-20T12:04:12Z</time>
      </trkpt>
      <trkpt lat="45.0743" lon="6.55084">
        <ele>2696</ele>
        <time>2017-04-20T12:04:17Z</time>
      </trkpt>
      <trkpt lat="45.07431" lon="6.55087">
        <ele>2700.8</ele>
        <time>2017-04-20T12:04:22Z</time>
      </trkpt>
      <trkpt lat="45.07432" lon="6.5509">
        <ele>2700.2</ele>
        <time>2017-04-20T12:04:27Z</time>
      </trkpt>
      <trkpt lat="45.07433" lon="6.55093">
        <ele>2701.4</ele>
        <time>2017-04-20T12:04:32Z</time>
      </trkpt>
      <trkpt lat="45.07434" lon="6.55096">
        <ele>2701</ele>
        <time>2017-04-20T12:04:37Z</time>
      </trkpt>
      <trkpt lat="45.07435" lon="6.551">
        <ele>2700.6</ele>
        <time>2017-04-20T12:04:42Z</time>
      </trkpt>
      <trkpt lat="45.07435" lon="6.551">
        <ele>2701.6</ele>
        <time>2017-04-20T12:04:47Z</time>
      </trkpt>
      <trkpt lat="45.07435" lon="6.55104">
        <ele>2702.2</ele>
        <time>2017-04-20T12:04:52Z</time>
      </trkpt>
      <trkpt lat="45.07436" lon="6.55107">
        <ele>2702.4</ele>
        <time>2017-04-20T12:04:57Z</time>
      </trkpt>
      <trkpt lat="45.07436" lon="6.5511">
        <ele>2703.2</ele>
        <time>2017-04-20T12:05:02Z</time>
      </trkpt>
      <trkpt lat="45.07437" lon="6.55113">
        <ele>2702.8</ele>
        <time>2017-04-20T12:05:07Z</time>
      </trkpt>
      <trkpt lat="45.07437" lon="6.55116">
        <ele>2707</ele>
        <time>2017-04-20T12:05:12Z</time>
      </trkpt>
      <trkpt lat="45.07438" lon="6.55119">
        <ele>2707.2</ele>
        <time>2017-04-20T12:05:17Z</time>
      </trkpt>
      <trkpt lat="45.07439" lon="6.55122">
        <ele>2705.6</ele>
        <time>2017-04-20T12:05:22Z</time>
      </trkpt>
      <trkpt lat="45.0744" lon="6.55125">
        <ele>2708.6</ele>
        <time>2017-04-20T12:05:27Z</time>
      </trkpt>
      <trkpt lat="45.07441" lon="6.55128">
        <ele>2708</ele>
        <time>2017-04-20T12:05:32Z</time>
      </trkpt>
      <trkpt lat="45.07442" lon="6.55131">
        <ele>2709.6</ele>
        <time>2017-04-20T12:05:37Z</time>
      </trkpt>
      <trkpt lat="45.07443" lon="6.55133">
        <ele>2709.4</ele>
        <time>2017-04-20T12:05:42Z</time>
      </trkpt>
      <trkpt lat="45.07444" lon="6.55136">
        <ele>2707.4</ele>
        <time>2017-04-20T12:05:47Z</time>
      </trkpt>
      <trkpt lat="45.07444" lon="6.55135">
        <ele>2706.2</ele>
        <time>2017-04-20T12:06:02Z</time>
      </trkpt>
      <trkpt lat="45.07445" lon="6.55133">
        <ele>2707.4</ele>
        <time>2017-04-20T12:06:07Z</time>
      </trkpt>
      <trkpt lat="45.07446" lon="6.55132">
        <ele>2708.8</ele>
        <time>2017-04-20T12:06:12Z</time>
      </trkpt>
      <trkpt lat="45.07446" lon="6.55131">
        <ele>2710</ele>
        <time>2017-04-20T12:06:37Z</time>
      </trkpt>
      <trkpt lat="45.07447" lon="6.55128">
        <ele>2708.8</ele>
        <time>2017-04-20T12:06:42Z</time>
      </trkpt>
      <trkpt lat="45.07449" lon="6.55124">
        <ele>2709.4</ele>
        <time>2017-04-20T12:06:47Z</time>
      </trkpt>
      <trkpt lat="45.07451" lon="6.55122">
        <ele>2709.2</ele>
        <time>2017-04-20T12:06:52Z</time>
      </trkpt>
      <trkpt lat="45.07453" lon="6.5512">
        <ele>2710.2</ele>
        <time>2017-04-20T12:06:57Z</time>
      </trkpt>
      <trkpt lat="45.07456" lon="6.55119">
        <ele>2711</ele>
        <time>2017-04-20T12:07:02Z</time>
      </trkpt>
      <trkpt lat="45.07458" lon="6.55117">
        <ele>2713.8</ele>
        <time>2017-04-20T12:07:07Z</time>
      </trkpt>
      <trkpt lat="45.0746" lon="6.55116">
        <ele>2714.4</ele>
        <time>2017-04-20T12:07:12Z</time>
      </trkpt>
      <trkpt lat="45.07461" lon="6.55115">
        <ele>2713</ele>
        <time>2017-04-20T12:07:17Z</time>
      </trkpt>
      <trkpt lat="45.07463" lon="6.55114">
        <ele>2715.2</ele>
        <time>2017-04-20T12:07:22Z</time>
      </trkpt>
      <trkpt lat="45.07465" lon="6.55116">
        <ele>2712.4</ele>
        <time>2017-04-20T12:07:27Z</time>
      </trkpt>
      <trkpt lat="45.07466" lon="6.55119">
        <ele>2714.8</ele>
        <time>2017-04-20T12:07:32Z</time>
      </trkpt>
      <trkpt lat="45.07467" lon="6.55122">
        <ele>2715.4</ele>
        <time>2017-04-20T12:07:37Z</time>
      </trkpt>
      <trkpt lat="45.07469" lon="6.55124">
        <ele>2713.4</ele>
        <time>2017-04-20T12:07:42Z</time>
      </trkpt>
      <trkpt lat="45.0747" lon="6.55127">
        <ele>2720</ele>
        <time>2017-04-20T12:07:47Z</time>
      </trkpt>
      <trkpt lat="45.07472" lon="6.5513">
        <ele>2717</ele>
        <time>2017-04-20T12:07:52Z</time>
      </trkpt>
      <trkpt lat="45.07473" lon="6.5513">
        <ele>2720.4</ele>
        <time>2017-04-20T12:07:57Z</time>
      </trkpt>
      <trkpt lat="45.07475" lon="6.55129">
        <ele>2716</ele>
        <time>2017-04-20T12:08:02Z</time>
      </trkpt>
      <trkpt lat="45.07476" lon="6.55127">
        <ele>2718.2</ele>
        <time>2017-04-20T12:08:07Z</time>
      </trkpt>
      <trkpt lat="45.07478" lon="6.55125">
        <ele>2718.2</ele>
        <time>2017-04-20T12:08:12Z</time>
      </trkpt>
      <trkpt lat="45.0748" lon="6.55124">
        <ele>2719.2</ele>
        <time>2017-04-20T12:08:17Z</time>
      </trkpt>
      <trkpt lat="45.07482" lon="6.55122">
        <ele>2721.2</ele>
        <time>2017-04-20T12:08:22Z</time>
      </trkpt>
      <trkpt lat="45.07484" lon="6.5512">
        <ele>2721.4</ele>
        <time>2017-04-20T12:08:27Z</time>
      </trkpt>
      <trkpt lat="45.07486" lon="6.55119">
        <ele>2719.2</ele>
        <time>2017-04-20T12:08:32Z</time>
      </trkpt>
      <trkpt lat="45.07487" lon="6.55119">
        <ele>2720</ele>
        <time>2017-04-20T12:08:37Z</time>
      </trkpt>
      <trkpt lat="45.07487" lon="6.55119">
        <ele>2721.2</ele>
        <time>2017-04-20T12:08:47Z</time>
      </trkpt>
      <trkpt lat="45.07488" lon="6.55117">
        <ele>2723.6</ele>
        <time>2017-04-20T12:08:52Z</time>
      </trkpt>
      <trkpt lat="45.0749" lon="6.55115">
        <ele>2722.4</ele>
        <time>2017-04-20T12:08:57Z</time>
      </trkpt>
      <trkpt lat="45.07492" lon="6.55113">
        <ele>2726.4</ele>
        <time>2017-04-20T12:09:02Z</time>
      </trkpt>
      <trkpt lat="45.07494" lon="6.55111">
        <ele>2723.6</ele>
        <time>2017-04-20T12:09:07Z</time>
      </trkpt>
      <trkpt lat="45.07496" lon="6.55109">
        <ele>2724</ele>
        <time>2017-04-20T12:09:12Z</time>
      </trkpt>
      <trkpt lat="45.07498" lon="6.55107">
        <ele>2723.8</ele>
        <time>2017-04-20T12:09:17Z</time>
      </trkpt>
      <trkpt lat="45.075" lon="6.55105">
        <ele>2724.4</ele>
        <time>2017-04-20T12:09:22Z</time>
      </trkpt>
      <trkpt lat="45.07502" lon="6.55103">
        <ele>2727.8</ele>
        <time>2017-04-20T12:09:27Z</time>
      </trkpt>
      <trkpt lat="45.07503" lon="6.55101">
        <ele>2726</ele>
        <time>2017-04-20T12:09:32Z</time>
      </trkpt>
      <trkpt lat="45.07504" lon="6.55098">
        <ele>2724.8</ele>
        <time>2017-04-20T12:09:37Z</time>
      </trkpt>
      <trkpt lat="45.07506" lon="6.55096">
        <ele>2725.4</ele>
        <time>2017-04-20T12:09:42Z</time>
      </trkpt>
      <trkpt lat="45.07507" lon="6.55093">
        <ele>2729</ele>
        <time>2017-04-20T12:09:47Z</time>
      </trkpt>
      <trkpt lat="45.07509" lon="6.55092">
        <ele>2728.4</ele>
        <time>2017-04-20T12:09:52Z</time>
      </trkpt>
      <trkpt lat="45.07511" lon="6.55089">
        <ele>2728.4</ele>
        <time>2017-04-20T12:09:57Z</time>
      </trkpt>
      <trkpt lat="45.07513" lon="6.55087">
        <ele>2727.2</ele>
        <time>2017-04-20T12:10:02Z</time>
      </trkpt>
      <trkpt lat="45.07514" lon="6.55085">
        <ele>2726.6</ele>
        <time>2017-04-20T12:10:07Z</time>
      </trkpt>
      <trkpt lat="45.07516" lon="6.55083">
        <ele>2728.8</ele>
        <time>2017-04-20T12:10:12Z</time>
      </trkpt>
      <trkpt lat="45.07517" lon="6.55081">
        <ele>2725.8</ele>
        <time>2017-04-20T12:10:17Z</time>
      </trkpt>
      <trkpt lat="45.07519" lon="6.55079">
        <ele>2731.2</ele>
        <time>2017-04-20T12:10:22Z</time>
      </trkpt>
      <trkpt lat="45.0752" lon="6.55076">
        <ele>2730.6</ele>
        <time>2017-04-20T12:10:27Z</time>
      </trkpt>
      <trkpt lat="45.07522" lon="6.55074">
        <ele>2729.8</ele>
        <time>2017-04-20T12:10:32Z</time>
      </trkpt>
      <trkpt lat="45.07523" lon="6.55072">
        <ele>2730.6</ele>
        <time>2017-04-20T12:10:37Z</time>
      </trkpt>
      <trkpt lat="45.07525" lon="6.55069">
        <ele>2734.2</ele>
        <time>2017-04-20T12:10:42Z</time>
      </trkpt>
      <trkpt lat="45.07526" lon="6.55067">
        <ele>2731.2</ele>
        <time>2017-04-20T12:10:47Z</time>
      </trkpt>
      <trkpt lat="45.07528" lon="6.55064">
        <ele>2733.4</ele>
        <time>2017-04-20T12:10:52Z</time>
      </trkpt>
      <trkpt lat="45.07529" lon="6.55062">
        <ele>2732.6</ele>
        <time>2017-04-20T12:10:57Z</time>
      </trkpt>
      <trkpt lat="45.07531" lon="6.5506">
        <ele>2732.6</ele>
        <time>2017-04-20T12:11:02Z</time>
      </trkpt>
      <trkpt lat="45.07533" lon="6.55058">
        <ele>2734.6</ele>
        <time>2017-04-20T12:11:07Z</time>
      </trkpt>
      <trkpt lat="45.07535" lon="6.55056">
        <ele>2735.6</ele>
        <time>2017-04-20T12:11:12Z</time>
      </trkpt>
      <trkpt lat="45.07537" lon="6.55054">
        <ele>2734.6</ele>
        <time>2017-04-20T12:11:17Z</time>
      </trkpt>
      <trkpt lat="45.07538" lon="6.55051">
        <ele>2736.2</ele>
        <time>2017-04-20T12:11:22Z</time>
      </trkpt>
      <trkpt lat="45.0754" lon="6.55048">
        <ele>2736.2</ele>
        <time>2017-04-20T12:11:27Z</time>
      </trkpt>
      <trkpt lat="45.07541" lon="6.55047">
        <ele>2738</ele>
        <time>2017-04-20T12:11:32Z</time>
      </trkpt>
      <trkpt lat="45.07543" lon="6.5505">
        <ele>2739.2</ele>
        <time>2017-04-20T12:11:37Z</time>
      </trkpt>
      <trkpt lat="45.07544" lon="6.55053">
        <ele>2736.2</ele>
        <time>2017-04-20T12:11:42Z</time>
      </trkpt>
      <trkpt lat="45.07544" lon="6.55055">
        <ele>2739</ele>
        <time>2017-04-20T12:11:47Z</time>
      </trkpt>
      <trkpt lat="45.07545" lon="6.55058">
        <ele>2740.6</ele>
        <time>2017-04-20T12:11:52Z</time>
      </trkpt>
      <trkpt lat="45.07545" lon="6.55059">
        <ele>2739.4</ele>
        <time>2017-04-20T12:11:57Z</time>
      </trkpt>
      <trkpt lat="45.07545" lon="6.55062">
        <ele>2741</ele>
        <time>2017-04-20T12:12:02Z</time>
      </trkpt>
      <trkpt lat="45.07545" lon="6.55065">
        <ele>2743.4</ele>
        <time>2017-04-20T12:12:07Z</time>
      </trkpt>
      <trkpt lat="45.07545" lon="6.55068">
        <ele>2739.4</ele>
        <time>2017-04-20T12:12:12Z</time>
      </trkpt>
      <trkpt lat="45.07546" lon="6.55072">
        <ele>2740.8</ele>
        <time>2017-04-20T12:12:17Z</time>
      </trkpt>
      <trkpt lat="45.07546" lon="6.55075">
        <ele>2745.8</ele>
        <time>2017-04-20T12:12:22Z</time>
      </trkpt>
      <trkpt lat="45.07547" lon="6.55079">
        <ele>2743.6</ele>
        <time>2017-04-20T12:12:27Z</time>
      </trkpt>
      <trkpt lat="45.07547" lon="6.55082">
        <ele>2745.8</ele>
        <time>2017-04-20T12:12:32Z</time>
      </trkpt>
      <trkpt lat="45.07548" lon="6.55085">
        <ele>2746.2</ele>
        <time>2017-04-20T12:12:37Z</time>
      </trkpt>
      <trkpt lat="45.07548" lon="6.55088">
        <ele>2749.2</ele>
        <time>2017-04-20T12:12:42Z</time>
      </trkpt>
      <trkpt lat="45.07549" lon="6.55091">
        <ele>2749.4</ele>
        <time>2017-04-20T12:12:47Z</time>
      </trkpt>
      <trkpt lat="45.07549" lon="6.55095">
        <ele>2747</ele>
        <time>2017-04-20T12:12:52Z</time>
      </trkpt>
      <trkpt lat="45.07551" lon="6.55098">
        <ele>2749</ele>
        <time>2017-04-20T12:12:57Z</time>
      </trkpt>
      <trkpt lat="45.07552" lon="6.55097">
        <ele>2752.4</ele>
        <time>2017-04-20T12:13:02Z</time>
      </trkpt>
      <trkpt lat="45.07553" lon="6.55095">
        <ele>2752.2</ele>
        <time>2017-04-20T12:13:07Z</time>
      </trkpt>
      <trkpt lat="45.07555" lon="6.55093">
        <ele>2751.8</ele>
        <time>2017-04-20T12:13:13Z</time>
      </trkpt>
      <trkpt lat="45.07556" lon="6.55091">
        <ele>2751</ele>
        <time>2017-04-20T12:13:18Z</time>
      </trkpt>
      <trkpt lat="45.07558" lon="6.55089">
        <ele>2751.4</ele>
        <time>2017-04-20T12:13:23Z</time>
      </trkpt>
      <trkpt lat="45.0756" lon="6.55087">
        <ele>2751.6</ele>
        <time>2017-04-20T12:13:28Z</time>
      </trkpt>
      <trkpt lat="45.07561" lon="6.55086">
        <ele>2752.6</ele>
        <time>2017-04-20T12:13:33Z</time>
      </trkpt>
      <trkpt lat="45.07563" lon="6.55084">
        <ele>2753.4</ele>
        <time>2017-04-20T12:13:38Z</time>
      </trkpt>
      <trkpt lat="45.07565" lon="6.55083">
        <ele>2753</ele>
        <time>2017-04-20T12:13:43Z</time>
      </trkpt>
      <trkpt lat="45.07567" lon="6.55082">
        <ele>2755</ele>
        <time>2017-04-20T12:13:48Z</time>
      </trkpt>
      <trkpt lat="45.07569" lon="6.55081">
        <ele>2755</ele>
        <time>2017-04-20T12:13:53Z</time>
      </trkpt>
      <trkpt lat="45.0757" lon="6.5508">
        <ele>2749.8</ele>
        <time>2017-04-20T12:13:58Z</time>
      </trkpt>
      <trkpt lat="45.07572" lon="6.55078">
        <ele>2751.2</ele>
        <time>2017-04-20T12:14:03Z</time>
      </trkpt>
      <trkpt lat="45.07573" lon="6.55077">
        <ele>2754.4</ele>
        <time>2017-04-20T12:14:08Z</time>
      </trkpt>
      <trkpt lat="45.07573" lon="6.55079">
        <ele>2757.2</ele>
        <time>2017-04-20T12:14:13Z</time>
      </trkpt>
      <trkpt lat="45.07574" lon="6.55083">
        <ele>2758.4</ele>
        <time>2017-04-20T12:14:18Z</time>
      </trkpt>
      <trkpt lat="45.07574" lon="6.55086">
        <ele>2759.4</ele>
        <time>2017-04-20T12:14:23Z</time>
      </trkpt>
      <trkpt lat="45.07574" lon="6.55089">
        <ele>2759.4</ele>
        <time>2017-04-20T12:14:28Z</time>
      </trkpt>
      <trkpt lat="45.07575" lon="6.55092">
        <ele>2760</ele>
        <time>2017-04-20T12:14:33Z</time>
      </trkpt>
      <trkpt lat="45.07575" lon="6.55094">
        <ele>2760.8</ele>
        <time>2017-04-20T12:14:38Z</time>
      </trkpt>
      <trkpt lat="45.07576" lon="6.55097">
        <ele>2762</ele>
        <time>2017-04-20T12:14:43Z</time>
      </trkpt>
      <trkpt lat="45.07576" lon="6.551">
        <ele>2763</ele>
        <time>2017-04-20T12:14:48Z</time>
      </trkpt>
      <trkpt lat="45.07577" lon="6.55102">
        <ele>2760</ele>
        <time>2017-04-20T12:14:53Z</time>
      </trkpt>
      <trkpt lat="45.07578" lon="6.55105">
        <ele>2762.4</ele>
        <time>2017-04-20T12:14:58Z</time>
      </trkpt>
      <trkpt lat="45.07579" lon="6.55107">
        <ele>2762.6</ele>
        <time>2017-04-20T12:15:03Z</time>
      </trkpt>
      <trkpt lat="45.0758" lon="6.55109">
        <ele>2765.2</ele>
        <time>2017-04-20T12:15:08Z</time>
      </trkpt>
      <trkpt lat="45.07581" lon="6.55112">
        <ele>2765.6</ele>
        <time>2017-04-20T12:15:13Z</time>
      </trkpt>
      <trkpt lat="45.07582" lon="6.55115">
        <ele>2766.6</ele>
        <time>2017-04-20T12:15:18Z</time>
      </trkpt>
      <trkpt lat="45.07583" lon="6.55117">
        <ele>2767</ele>
        <time>2017-04-20T12:15:23Z</time>
      </trkpt>
      <trkpt lat="45.07584" lon="6.5512">
        <ele>2767.2</ele>
        <time>2017-04-20T12:15:28Z</time>
      </trkpt>
      <trkpt lat="45.07585" lon="6.55123">
        <ele>2766.4</ele>
        <time>2017-04-20T12:15:33Z</time>
      </trkpt>
      <trkpt lat="45.07586" lon="6.55126">
        <ele>2769.8</ele>
        <time>2017-04-20T12:15:38Z</time>
      </trkpt>
      <trkpt lat="45.07587" lon="6.55126">
        <ele>2766.2</ele>
        <time>2017-04-20T12:15:43Z</time>
      </trkpt>
      <trkpt lat="45.07587" lon="6.55126">
        <ele>2766</ele>
        <time>2017-04-20T12:16:08Z</time>
      </trkpt>
      <trkpt lat="45.07588" lon="6.55126">
        <ele>2765.8</ele>
        <time>2017-04-20T12:16:33Z</time>
      </trkpt>
      <trkpt lat="45.07588" lon="6.55125">
        <ele>2764.8</ele>
        <time>2017-04-20T12:16:53Z</time>
      </trkpt>
      <trkpt lat="45.07588" lon="6.55123">
        <ele>2765.6</ele>
        <time>2017-04-20T12:17:28Z</time>
      </trkpt>
      <trkpt lat="45.07589" lon="6.55121">
        <ele>2764.2</ele>
        <time>2017-04-20T12:17:33Z</time>
      </trkpt>
      <trkpt lat="45.0759" lon="6.55119">
        <ele>2765.2</ele>
        <time>2017-04-20T12:17:38Z</time>
      </trkpt>
      <trkpt lat="45.07591" lon="6.55116">
        <ele>2767.2</ele>
        <time>2017-04-20T12:17:43Z</time>
      </trkpt>
      <trkpt lat="45.07592" lon="6.55114">
        <ele>2766</ele>
        <time>2017-04-20T12:17:48Z</time>
      </trkpt>
      <trkpt lat="45.07593" lon="6.55111">
        <ele>2766.8</ele>
        <time>2017-04-20T12:17:53Z</time>
      </trkpt>
      <trkpt lat="45.07594" lon="6.55108">
        <ele>2769.2</ele>
        <time>2017-04-20T12:17:58Z</time>
      </trkpt>
      <trkpt lat="45.07595" lon="6.55105">
        <ele>2769.4</ele>
        <time>2017-04-20T12:18:03Z</time>
      </trkpt>
      <trkpt lat="45.07596" lon="6.55104">
        <ele>2766.8</ele>
        <time>2017-04-20T12:18:08Z</time>
      </trkpt>
      <trkpt lat="45.07597" lon="6.55101">
        <ele>2767</ele>
        <time>2017-04-20T12:18:13Z</time>
      </trkpt>
      <trkpt lat="45.07598" lon="6.55099">
        <ele>2771.8</ele>
        <time>2017-04-20T12:18:18Z</time>
      </trkpt>
      <trkpt lat="45.076" lon="6.55096">
        <ele>2773.6</ele>
        <time>2017-04-20T12:18:23Z</time>
      </trkpt>
      <trkpt lat="45.07601" lon="6.55093">
        <ele>2774.2</ele>
        <time>2017-04-20T12:18:28Z</time>
      </trkpt>
      <trkpt lat="45.07602" lon="6.5509">
        <ele>2774.2</ele>
        <time>2017-04-20T12:18:33Z</time>
      </trkpt>
      <trkpt lat="45.07603" lon="6.55087">
        <ele>2774.8</ele>
        <time>2017-04-20T12:18:38Z</time>
      </trkpt>
      <trkpt lat="45.07604" lon="6.55085">
        <ele>2776</ele>
        <time>2017-04-20T12:18:43Z</time>
      </trkpt>
      <trkpt lat="45.07605" lon="6.55084">
        <ele>2775.8</ele>
        <time>2017-04-20T12:18:48Z</time>
      </trkpt>
      <trkpt lat="45.07605" lon="6.55083">
        <ele>2775.6</ele>
        <time>2017-04-20T12:18:53Z</time>
      </trkpt>
      <trkpt lat="45.07606" lon="6.5508">
        <ele>2777.6</ele>
        <time>2017-04-20T12:18:58Z</time>
      </trkpt>
      <trkpt lat="45.07608" lon="6.55077">
        <ele>2775.4</ele>
        <time>2017-04-20T12:19:03Z</time>
      </trkpt>
      <trkpt lat="45.07609" lon="6.55074">
        <ele>2773.8</ele>
        <time>2017-04-20T12:19:08Z</time>
      </trkpt>
      <trkpt lat="45.0761" lon="6.55072">
        <ele>2777.8</ele>
        <time>2017-04-20T12:19:13Z</time>
      </trkpt>
      <trkpt lat="45.07611" lon="6.55069">
        <ele>2781</ele>
        <time>2017-04-20T12:19:18Z</time>
      </trkpt>
      <trkpt lat="45.07613" lon="6.55067">
        <ele>2780</ele>
        <time>2017-04-20T12:19:23Z</time>
      </trkpt>
      <trkpt lat="45.07615" lon="6.55064">
        <ele>2779.2</ele>
        <time>2017-04-20T12:19:28Z</time>
      </trkpt>
      <trkpt lat="45.07616" lon="6.55063">
        <ele>2775.4</ele>
        <time>2017-04-20T12:19:33Z</time>
      </trkpt>
      <trkpt lat="45.07618" lon="6.55061">
        <ele>2778.2</ele>
        <time>2017-04-20T12:19:38Z</time>
      </trkpt>
      <trkpt lat="45.0762" lon="6.55059">
        <ele>2779</ele>
        <time>2017-04-20T12:19:43Z</time>
      </trkpt>
      <trkpt lat="45.07621" lon="6.55056">
        <ele>2779.8</ele>
        <time>2017-04-20T12:19:48Z</time>
      </trkpt>
      <trkpt lat="45.07622" lon="6.55053">
        <ele>2780.8</ele>
        <time>2017-04-20T12:19:53Z</time>
      </trkpt>
      <trkpt lat="45.07622" lon="6.5505">
        <ele>2779.2</ele>
        <time>2017-04-20T12:19:58Z</time>
      </trkpt>
      <trkpt lat="45.07623" lon="6.55048">
        <ele>2782.6</ele>
        <time>2017-04-20T12:20:13Z</time>
      </trkpt>
      <trkpt lat="45.07624" lon="6.55051">
        <ele>2783</ele>
        <time>2017-04-20T12:20:18Z</time>
      </trkpt>
      <trkpt lat="45.07624" lon="6.55053">
        <ele>2783.8</ele>
        <time>2017-04-20T12:20:23Z</time>
      </trkpt>
      <trkpt lat="45.07625" lon="6.55056">
        <ele>2787.2</ele>
        <time>2017-04-20T12:20:28Z</time>
      </trkpt>
      <trkpt lat="45.07626" lon="6.55057">
        <ele>2787</ele>
        <time>2017-04-20T12:20:33Z</time>
      </trkpt>
      <trkpt lat="45.07626" lon="6.55058">
        <ele>2788.2</ele>
        <time>2017-04-20T12:20:38Z</time>
      </trkpt>
      <trkpt lat="45.07627" lon="6.55061">
        <ele>2786</ele>
        <time>2017-04-20T12:20:43Z</time>
      </trkpt>
      <trkpt lat="45.07628" lon="6.55064">
        <ele>2788.6</ele>
        <time>2017-04-20T12:20:48Z</time>
      </trkpt>
      <trkpt lat="45.07628" lon="6.55067">
        <ele>2786.8</ele>
        <time>2017-04-20T12:20:53Z</time>
      </trkpt>
      <trkpt lat="45.07627" lon="6.55069">
        <ele>2789</ele>
        <time>2017-04-20T12:20:58Z</time>
      </trkpt>
      <trkpt lat="45.07626" lon="6.55072">
        <ele>2791.8</ele>
        <time>2017-04-20T12:21:03Z</time>
      </trkpt>
      <trkpt lat="45.07626" lon="6.55075">
        <ele>2790.4</ele>
        <time>2017-04-20T12:21:08Z</time>
      </trkpt>
      <trkpt lat="45.07627" lon="6.55078">
        <ele>2792.6</ele>
        <time>2017-04-20T12:21:13Z</time>
      </trkpt>
      <trkpt lat="45.07628" lon="6.55081">
        <ele>2793</ele>
        <time>2017-04-20T12:21:18Z</time>
      </trkpt>
      <trkpt lat="45.07628" lon="6.55084">
        <ele>2789.2</ele>
        <time>2017-04-20T12:21:23Z</time>
      </trkpt>
      <trkpt lat="45.07629" lon="6.55087">
        <ele>2792.6</ele>
        <time>2017-04-20T12:21:28Z</time>
      </trkpt>
      <trkpt lat="45.0763" lon="6.55089">
        <ele>2794.8</ele>
        <time>2017-04-20T12:21:33Z</time>
      </trkpt>
      <trkpt lat="45.07631" lon="6.55092">
        <ele>2793</ele>
        <time>2017-04-20T12:21:38Z</time>
      </trkpt>
      <trkpt lat="45.07632" lon="6.55095">
        <ele>2793</ele>
        <time>2017-04-20T12:21:43Z</time>
      </trkpt>
      <trkpt lat="45.07633" lon="6.55097">
        <ele>2798.8</ele>
        <time>2017-04-20T12:21:48Z</time>
      </trkpt>
      <trkpt lat="45.07634" lon="6.551">
        <ele>2795</ele>
        <time>2017-04-20T12:21:53Z</time>
      </trkpt>
      <trkpt lat="45.07634" lon="6.55103">
        <ele>2790.4</ele>
        <time>2017-04-20T12:21:58Z</time>
      </trkpt>
      <trkpt lat="45.07635" lon="6.55105">
        <ele>2794.6</ele>
        <time>2017-04-20T12:22:03Z</time>
      </trkpt>
      <trkpt lat="45.07636" lon="6.55108">
        <ele>2793</ele>
        <time>2017-04-20T12:22:08Z</time>
      </trkpt>
      <trkpt lat="45.07637" lon="6.55111">
        <ele>2792.6</ele>
        <time>2017-04-20T12:22:13Z</time>
      </trkpt>
      <trkpt lat="45.07637" lon="6.55114">
        <ele>2794.6</ele>
        <time>2017-04-20T12:22:18Z</time>
      </trkpt>
      <trkpt lat="45.07638" lon="6.55114">
        <ele>2798</ele>
        <time>2017-04-20T12:22:43Z</time>
      </trkpt>
      <trkpt lat="45.07639" lon="6.55113">
        <ele>2796.8</ele>
        <time>2017-04-20T12:22:48Z</time>
      </trkpt>
      <trkpt lat="45.0764" lon="6.5511">
        <ele>2798</ele>
        <time>2017-04-20T12:22:53Z</time>
      </trkpt>
      <trkpt lat="45.07641" lon="6.55107">
        <ele>2798</ele>
        <time>2017-04-20T12:22:58Z</time>
      </trkpt>
      <trkpt lat="45.07643" lon="6.55104">
        <ele>2797</ele>
        <time>2017-04-20T12:23:03Z</time>
      </trkpt>
      <trkpt lat="45.07644" lon="6.55102">
        <ele>2796.6</ele>
        <time>2017-04-20T12:23:08Z</time>
      </trkpt>
      <trkpt lat="45.07646" lon="6.55099">
        <ele>2798.6</ele>
        <time>2017-04-20T12:23:13Z</time>
      </trkpt>
      <trkpt lat="45.07647" lon="6.55097">
        <ele>2798</ele>
        <time>2017-04-20T12:23:18Z</time>
      </trkpt>
      <trkpt lat="45.0765" lon="6.55094">
        <ele>2800</ele>
        <time>2017-04-20T12:23:28Z</time>
      </trkpt>
      <trkpt lat="45.0765" lon="6.55096">
        <ele>2801.2</ele>
        <time>2017-04-20T12:23:33Z</time>
      </trkpt>
      <trkpt lat="45.0765" lon="6.55096">
        <ele>2803</ele>
        <time>2017-04-20T12:25:23Z</time>
      </trkpt>
      <trkpt lat="45.0765" lon="6.55098">
        <ele>2803</ele>
        <time>2017-04-20T12:25:28Z</time>
      </trkpt>
      <trkpt lat="45.0765" lon="6.55099">
        <ele>2803.2</ele>
        <time>2017-04-20T12:25:48Z</time>
      </trkpt>
      <trkpt lat="45.07651" lon="6.55101">
        <ele>2804.8</ele>
        <time>2017-04-20T12:25:53Z</time>
      </trkpt>
      <trkpt lat="45.07651" lon="6.55104">
        <ele>2802.2</ele>
        <time>2017-04-20T12:25:58Z</time>
      </trkpt>
      <trkpt lat="45.07652" lon="6.55107">
        <ele>2805.4</ele>
        <time>2017-04-20T12:26:03Z</time>
      </trkpt>
      <trkpt lat="45.07652" lon="6.55109">
        <ele>2807.8</ele>
        <time>2017-04-20T12:26:08Z</time>
      </trkpt>
      <trkpt lat="45.07653" lon="6.55112">
        <ele>2808.4</ele>
        <time>2017-04-20T12:26:13Z</time>
      </trkpt>
      <trkpt lat="45.07653" lon="6.55115">
        <ele>2809</ele>
        <time>2017-04-20T12:26:18Z</time>
      </trkpt>
      <trkpt lat="45.07654" lon="6.55119">
        <ele>2807.8</ele>
        <time>2017-04-20T12:26:23Z</time>
      </trkpt>
      <trkpt lat="45.07654" lon="6.55122">
        <ele>2807.6</ele>
        <time>2017-04-20T12:26:28Z</time>
      </trkpt>
      <trkpt lat="45.07655" lon="6.55125">
        <ele>2812.6</ele>
        <time>2017-04-20T12:26:33Z</time>
      </trkpt>
      <trkpt lat="45.07656" lon="6.55127">
        <ele>2811.6</ele>
        <time>2017-04-20T12:26:38Z</time>
      </trkpt>
      <trkpt lat="45.07656" lon="6.5513">
        <ele>2812</ele>
        <time>2017-04-20T12:26:43Z</time>
      </trkpt>
      <trkpt lat="45.07657" lon="6.55128">
        <ele>2812.4</ele>
        <time>2017-04-20T12:26:48Z</time>
      </trkpt>
      <trkpt lat="45.07659" lon="6.55127">
        <ele>2813.4</ele>
        <time>2017-04-20T12:26:53Z</time>
      </trkpt>
      <trkpt lat="45.07659" lon="6.55126">
        <ele>2812.2</ele>
        <time>2017-04-20T12:26:58Z</time>
      </trkpt>
      <trkpt lat="45.0766" lon="6.55124">
        <ele>2812</ele>
        <time>2017-04-20T12:27:03Z</time>
      </trkpt>
      <trkpt lat="45.07662" lon="6.55122">
        <ele>2814.8</ele>
        <time>2017-04-20T12:27:08Z</time>
      </trkpt>
      <trkpt lat="45.07663" lon="6.5512">
        <ele>2814.6</ele>
        <time>2017-04-20T12:27:13Z</time>
      </trkpt>
      <trkpt lat="45.07665" lon="6.55118">
        <ele>2814</ele>
        <time>2017-04-20T12:27:18Z</time>
      </trkpt>
      <trkpt lat="45.07666" lon="6.55116">
        <ele>2818</ele>
        <time>2017-04-20T12:27:23Z</time>
      </trkpt>
      <trkpt lat="45.07668" lon="6.55115">
        <ele>2814.6</ele>
        <time>2017-04-20T12:27:28Z</time>
      </trkpt>
      <trkpt lat="45.0767" lon="6.55113">
        <ele>2817.2</ele>
        <time>2017-04-20T12:27:33Z</time>
      </trkpt>
      <trkpt lat="45.07672" lon="6.55111">
        <ele>2815</ele>
        <time>2017-04-20T12:27:38Z</time>
      </trkpt>
      <trkpt lat="45.07673" lon="6.55109">
        <ele>2814.2</ele>
        <time>2017-04-20T12:27:43Z</time>
      </trkpt>
      <trkpt lat="45.07675" lon="6.55107">
        <ele>2814</ele>
        <time>2017-04-20T12:27:48Z</time>
      </trkpt>
      <trkpt lat="45.07676" lon="6.55104">
        <ele>2816</ele>
        <time>2017-04-20T12:27:53Z</time>
      </trkpt>
      <trkpt lat="45.07677" lon="6.551">
        <ele>2820.2</ele>
        <time>2017-04-20T12:27:58Z</time>
      </trkpt>
      <trkpt lat="45.07678" lon="6.55099">
        <ele>2816.4</ele>
        <time>2017-04-20T12:28:03Z</time>
      </trkpt>
      <trkpt lat="45.07679" lon="6.551">
        <ele>2816.8</ele>
        <time>2017-04-20T12:28:19Z</time>
      </trkpt>
      <trkpt lat="45.0768" lon="6.55103">
        <ele>2819</ele>
        <time>2017-04-20T12:28:24Z</time>
      </trkpt>
      <trkpt lat="45.0768" lon="6.55106">
        <ele>2818.8</ele>
        <time>2017-04-20T12:28:29Z</time>
      </trkpt>
      <trkpt lat="45.07681" lon="6.5511">
        <ele>2818</ele>
        <time>2017-04-20T12:28:34Z</time>
      </trkpt>
      <trkpt lat="45.07682" lon="6.55113">
        <ele>2821</ele>
        <time>2017-04-20T12:28:39Z</time>
      </trkpt>
      <trkpt lat="45.07683" lon="6.55116">
        <ele>2823.8</ele>
        <time>2017-04-20T12:28:44Z</time>
      </trkpt>
      <trkpt lat="45.07684" lon="6.5512">
        <ele>2822.6</ele>
        <time>2017-04-20T12:28:49Z</time>
      </trkpt>
      <trkpt lat="45.07684" lon="6.55122">
        <ele>2821.4</ele>
        <time>2017-04-20T12:28:54Z</time>
      </trkpt>
      <trkpt lat="45.07684" lon="6.55125">
        <ele>2823.4</ele>
        <time>2017-04-20T12:28:59Z</time>
      </trkpt>
      <trkpt lat="45.07685" lon="6.55127">
        <ele>2823</ele>
        <time>2017-04-20T12:29:04Z</time>
      </trkpt>
      <trkpt lat="45.07685" lon="6.5513">
        <ele>2824.6</ele>
        <time>2017-04-20T12:29:09Z</time>
      </trkpt>
      <trkpt lat="45.07685" lon="6.55133">
        <ele>2825.4</ele>
        <time>2017-04-20T12:29:14Z</time>
      </trkpt>
      <trkpt lat="45.07686" lon="6.55135">
        <ele>2824.2</ele>
        <time>2017-04-20T12:29:19Z</time>
      </trkpt>
      <trkpt lat="45.07686" lon="6.55138">
        <ele>2826</ele>
        <time>2017-04-20T12:29:24Z</time>
      </trkpt>
      <trkpt lat="45.07686" lon="6.55141">
        <ele>2824</ele>
        <time>2017-04-20T12:29:29Z</time>
      </trkpt>
      <trkpt lat="45.07686" lon="6.55144">
        <ele>2824.6</ele>
        <time>2017-04-20T12:29:34Z</time>
      </trkpt>
      <trkpt lat="45.07687" lon="6.55147">
        <ele>2824.4</ele>
        <time>2017-04-20T12:29:39Z</time>
      </trkpt>
      <trkpt lat="45.07687" lon="6.5515">
        <ele>2827.4</ele>
        <time>2017-04-20T12:29:44Z</time>
      </trkpt>
      <trkpt lat="45.07688" lon="6.55153">
        <ele>2827.6</ele>
        <time>2017-04-20T12:29:49Z</time>
      </trkpt>
      <trkpt lat="45.07688" lon="6.55155">
        <ele>2827.6</ele>
        <time>2017-04-20T12:29:54Z</time>
      </trkpt>
      <trkpt lat="45.07688" lon="6.55158">
        <ele>2828.4</ele>
        <time>2017-04-20T12:29:59Z</time>
      </trkpt>
      <trkpt lat="45.07689" lon="6.55161">
        <ele>2830.2</ele>
        <time>2017-04-20T12:30:04Z</time>
      </trkpt>
      <trkpt lat="45.07689" lon="6.55164">
        <ele>2830.6</ele>
        <time>2017-04-20T12:30:09Z</time>
      </trkpt>
      <trkpt lat="45.0769" lon="6.55166">
        <ele>2830.2</ele>
        <time>2017-04-20T12:30:14Z</time>
      </trkpt>
      <trkpt lat="45.07691" lon="6.55164">
        <ele>2830</ele>
        <time>2017-04-20T12:30:24Z</time>
      </trkpt>
      <trkpt lat="45.07691" lon="6.55164">
        <ele>2830.8</ele>
        <time>2017-04-20T12:30:34Z</time>
      </trkpt>
      <trkpt lat="45.07691" lon="6.55163">
        <ele>2832</ele>
        <time>2017-04-20T12:30:39Z</time>
      </trkpt>
      <trkpt lat="45.07693" lon="6.5516">
        <ele>2830.4</ele>
        <time>2017-04-20T12:30:44Z</time>
      </trkpt>
      <trkpt lat="45.07694" lon="6.55157">
        <ele>2832.4</ele>
        <time>2017-04-20T12:30:49Z</time>
      </trkpt>
      <trkpt lat="45.07696" lon="6.55154">
        <ele>2832</ele>
        <time>2017-04-20T12:30:54Z</time>
      </trkpt>
      <trkpt lat="45.07698" lon="6.55151">
        <ele>2830.8</ele>
        <time>2017-04-20T12:30:59Z</time>
      </trkpt>
      <trkpt lat="45.07699" lon="6.55149">
        <ele>2833</ele>
        <time>2017-04-20T12:31:04Z</time>
      </trkpt>
      <trkpt lat="45.07701" lon="6.55147">
        <ele>2835.2</ele>
        <time>2017-04-20T12:31:09Z</time>
      </trkpt>
      <trkpt lat="45.07703" lon="6.55145">
        <ele>2836.2</ele>
        <time>2017-04-20T12:31:14Z</time>
      </trkpt>
      <trkpt lat="45.07704" lon="6.55143">
        <ele>2835.4</ele>
        <time>2017-04-20T12:31:19Z</time>
      </trkpt>
      <trkpt lat="45.07705" lon="6.55142">
        <ele>2836.6</ele>
        <time>2017-04-20T12:31:24Z</time>
      </trkpt>
      <trkpt lat="45.07707" lon="6.55139">
        <ele>2836.2</ele>
        <time>2017-04-20T12:31:29Z</time>
      </trkpt>
      <trkpt lat="45.07708" lon="6.55137">
        <ele>2837.2</ele>
        <time>2017-04-20T12:31:34Z</time>
      </trkpt>
      <trkpt lat="45.07709" lon="6.55135">
        <ele>2836.4</ele>
        <time>2017-04-20T12:31:39Z</time>
      </trkpt>
      <trkpt lat="45.07711" lon="6.55134">
        <ele>2837.8</ele>
        <time>2017-04-20T12:31:44Z</time>
      </trkpt>
      <trkpt lat="45.07713" lon="6.55132">
        <ele>2834.8</ele>
        <time>2017-04-20T12:31:49Z</time>
      </trkpt>
      <trkpt lat="45.07714" lon="6.5513">
        <ele>2837.6</ele>
        <time>2017-04-20T12:31:54Z</time>
      </trkpt>
      <trkpt lat="45.07716" lon="6.55128">
        <ele>2840.2</ele>
        <time>2017-04-20T12:31:59Z</time>
      </trkpt>
      <trkpt lat="45.07716" lon="6.55127">
        <ele>2839.6</ele>
        <time>2017-04-20T12:32:04Z</time>
      </trkpt>
      <trkpt lat="45.07717" lon="6.55125">
        <ele>2838.4</ele>
        <time>2017-04-20T12:32:24Z</time>
      </trkpt>
      <trkpt lat="45.07718" lon="6.55127">
        <ele>2838.4</ele>
        <time>2017-04-20T12:32:29Z</time>
      </trkpt>
      <trkpt lat="45.07718" lon="6.55128">
        <ele>2840.8</ele>
        <time>2017-04-20T12:33:00Z</time>
      </trkpt>
      <trkpt lat="45.07718" lon="6.5513">
        <ele>2840.4</ele>
        <time>2017-04-20T12:33:05Z</time>
      </trkpt>
      <trkpt lat="45.07718" lon="6.55133">
        <ele>2840.8</ele>
        <time>2017-04-20T12:33:10Z</time>
      </trkpt>
      <trkpt lat="45.07718" lon="6.55137">
        <ele>2843.2</ele>
        <time>2017-04-20T12:33:15Z</time>
      </trkpt>
      <trkpt lat="45.07718" lon="6.5514">
        <ele>2843.2</ele>
        <time>2017-04-20T12:33:20Z</time>
      </trkpt>
      <trkpt lat="45.07718" lon="6.55143">
        <ele>2843.8</ele>
        <time>2017-04-20T12:33:25Z</time>
      </trkpt>
      <trkpt lat="45.07718" lon="6.55146">
        <ele>2843</ele>
        <time>2017-04-20T12:33:30Z</time>
      </trkpt>
      <trkpt lat="45.07718" lon="6.55148">
        <ele>2844.6</ele>
        <time>2017-04-20T12:33:35Z</time>
      </trkpt>
      <trkpt lat="45.07718" lon="6.55151">
        <ele>2844.4</ele>
        <time>2017-04-20T12:33:40Z</time>
      </trkpt>
      <trkpt lat="45.07718" lon="6.55154">
        <ele>2847</ele>
        <time>2017-04-20T12:33:45Z</time>
      </trkpt>
      <trkpt lat="45.07719" lon="6.55156">
        <ele>2847.4</ele>
        <time>2017-04-20T12:33:50Z</time>
      </trkpt>
      <trkpt lat="45.07719" lon="6.5516">
        <ele>2849.2</ele>
        <time>2017-04-20T12:33:55Z</time>
      </trkpt>
      <trkpt lat="45.07719" lon="6.55163">
        <ele>2847.2</ele>
        <time>2017-04-20T12:34:00Z</time>
      </trkpt>
      <trkpt lat="45.0772" lon="6.55166">
        <ele>2847.8</ele>
        <time>2017-04-20T12:34:05Z</time>
      </trkpt>
      <trkpt lat="45.07721" lon="6.55169">
        <ele>2851</ele>
        <time>2017-04-20T12:34:10Z</time>
      </trkpt>
      <trkpt lat="45.07722" lon="6.55172">
        <ele>2849.8</ele>
        <time>2017-04-20T12:34:15Z</time>
      </trkpt>
      <trkpt lat="45.07723" lon="6.55174">
        <ele>2851.2</ele>
        <time>2017-04-20T12:34:20Z</time>
      </trkpt>
      <trkpt lat="45.07723" lon="6.55176">
        <ele>2849.2</ele>
        <time>2017-04-20T12:34:25Z</time>
      </trkpt>
      <trkpt lat="45.07724" lon="6.55178">
        <ele>2849</ele>
        <time>2017-04-20T12:34:30Z</time>
      </trkpt>
      <trkpt lat="45.07726" lon="6.55181">
        <ele>2849.2</ele>
        <time>2017-04-20T12:34:35Z</time>
      </trkpt>
      <trkpt lat="45.07727" lon="6.55184">
        <ele>2853.6</ele>
        <time>2017-04-20T12:34:40Z</time>
      </trkpt>
      <trkpt lat="45.07728" lon="6.55187">
        <ele>2853.4</ele>
        <time>2017-04-20T12:34:45Z</time>
      </trkpt>
      <trkpt lat="45.07729" lon="6.55189">
        <ele>2852.8</ele>
        <time>2017-04-20T12:34:50Z</time>
      </trkpt>
      <trkpt lat="45.07731" lon="6.55194">
        <ele>2856.2</ele>
        <time>2017-04-20T12:35:00Z</time>
      </trkpt>
      <trkpt lat="45.07732" lon="6.55192">
        <ele>2855.2</ele>
        <time>2017-04-20T12:35:10Z</time>
      </trkpt>
      <trkpt lat="45.07733" lon="6.55188">
        <ele>2853</ele>
        <time>2017-04-20T12:38:36Z</time>
      </trkpt>
      <trkpt lat="45.07733" lon="6.55187">
        <ele>2855.4</ele>
        <time>2017-04-20T12:38:41Z</time>
      </trkpt>
      <trkpt lat="45.07734" lon="6.55184">
        <ele>2852.4</ele>
        <time>2017-04-20T12:38:46Z</time>
      </trkpt>
      <trkpt lat="45.07735" lon="6.55181">
        <ele>2854.6</ele>
        <time>2017-04-20T12:38:51Z</time>
      </trkpt>
      <trkpt lat="45.07736" lon="6.55179">
        <ele>2855.4</ele>
        <time>2017-04-20T12:38:56Z</time>
      </trkpt>
      <trkpt lat="45.07737" lon="6.55176">
        <ele>2857</ele>
        <time>2017-04-20T12:39:01Z</time>
      </trkpt>
      <trkpt lat="45.07738" lon="6.55174">
        <ele>2855</ele>
        <time>2017-04-20T12:39:06Z</time>
      </trkpt>
      <trkpt lat="45.0774" lon="6.55172">
        <ele>2859.8</ele>
        <time>2017-04-20T12:39:11Z</time>
      </trkpt>
      <trkpt lat="45.07741" lon="6.55168">
        <ele>2858</ele>
        <time>2017-04-20T12:39:16Z</time>
      </trkpt>
      <trkpt lat="45.07742" lon="6.55168">
        <ele>2856.2</ele>
        <time>2017-04-20T12:39:41Z</time>
      </trkpt>
      <trkpt lat="45.07743" lon="6.55171">
        <ele>2857</ele>
        <time>2017-04-20T12:39:46Z</time>
      </trkpt>
      <trkpt lat="45.07744" lon="6.55172">
        <ele>2857.8</ele>
        <time>2017-04-20T12:39:51Z</time>
      </trkpt>
      <trkpt lat="45.07746" lon="6.55175">
        <ele>2857.8</ele>
        <time>2017-04-20T12:39:56Z</time>
      </trkpt>
      <trkpt lat="45.07746" lon="6.55176">
        <ele>2859</ele>
        <time>2017-04-20T12:40:01Z</time>
      </trkpt>
      <trkpt lat="45.07747" lon="6.55176">
        <ele>2860.2</ele>
        <time>2017-04-20T12:40:16Z</time>
      </trkpt>
      <trkpt lat="45.07748" lon="6.55178">
        <ele>2861.4</ele>
        <time>2017-04-20T12:40:21Z</time>
      </trkpt>
      <trkpt lat="45.0775" lon="6.55181">
        <ele>2864.8</ele>
        <time>2017-04-20T12:40:26Z</time>
      </trkpt>
      <trkpt lat="45.07751" lon="6.55185">
        <ele>2864.8</ele>
        <time>2017-04-20T12:40:31Z</time>
      </trkpt>
      <trkpt lat="45.07752" lon="6.55185">
        <ele>2863.6</ele>
        <time>2017-04-20T12:41:11Z</time>
      </trkpt>
      <trkpt lat="45.07754" lon="6.5518">
        <ele>2864.2</ele>
        <time>2017-04-20T12:41:16Z</time>
      </trkpt>
      <trkpt lat="45.07755" lon="6.55178">
        <ele>2866</ele>
        <time>2017-04-20T12:41:21Z</time>
      </trkpt>
      <trkpt lat="45.07755" lon="6.55178">
        <ele>2865</ele>
        <time>2017-04-20T12:41:41Z</time>
      </trkpt>
      <trkpt lat="45.07756" lon="6.55179">
        <ele>2863</ele>
        <time>2017-04-20T12:41:46Z</time>
      </trkpt>
      <trkpt lat="45.07758" lon="6.55185">
        <ele>2866.8</ele>
        <time>2017-04-20T12:41:51Z</time>
      </trkpt>
      <trkpt lat="45.07759" lon="6.55189">
        <ele>2867.4</ele>
        <time>2017-04-20T12:41:56Z</time>
      </trkpt>
      <trkpt lat="45.0776" lon="6.55191">
        <ele>2867</ele>
        <time>2017-04-20T12:42:01Z</time>
      </trkpt>
      <trkpt lat="45.07759" lon="6.55197">
        <ele>2864.2</ele>
        <time>2017-04-20T12:42:07Z</time>
      </trkpt>
      <trkpt lat="45.07754" lon="6.55203">
        <ele>2861.6</ele>
        <time>2017-04-20T12:42:52Z</time>
      </trkpt>
      <trkpt lat="45.07754" lon="6.55202">
        <ele>2862</ele>
        <time>2017-04-20T12:50:18Z</time>
      </trkpt>
      <trkpt lat="45.07755" lon="6.55203">
        <ele>2862.8</ele>
        <time>2017-04-20T12:57:05Z</time>
      </trkpt>
      <trkpt lat="45.07755" lon="6.55203">
        <ele>2859.4</ele>
        <time>2017-04-20T12:59:40Z</time>
      </trkpt>
      <trkpt lat="45.07755" lon="6.55206">
        <ele>2860</ele>
        <time>2017-04-20T12:59:50Z</time>
      </trkpt>
      <trkpt lat="45.07755" lon="6.55206">
        <ele>2861</ele>
        <time>2017-04-20T13:00:00Z</time>
      </trkpt>
      <trkpt lat="45.07758" lon="6.55207">
        <ele>2860</ele>
        <time>2017-04-20T13:00:06Z</time>
      </trkpt>
      <trkpt lat="45.07761" lon="6.5521">
        <ele>2862.6</ele>
        <time>2017-04-20T13:00:11Z</time>
      </trkpt>
      <trkpt lat="45.07763" lon="6.55213">
        <ele>2865</ele>
        <time>2017-04-20T13:00:16Z</time>
      </trkpt>
      <trkpt lat="45.07766" lon="6.55216">
        <ele>2868</ele>
        <time>2017-04-20T13:00:21Z</time>
      </trkpt>
      <trkpt lat="45.07769" lon="6.55218">
        <ele>2864.4</ele>
        <time>2017-04-20T13:00:26Z</time>
      </trkpt>
      <trkpt lat="45.07771" lon="6.5522">
        <ele>2868.4</ele>
        <time>2017-04-20T13:00:31Z</time>
      </trkpt>
      <trkpt lat="45.07775" lon="6.55221">
        <ele>2869.4</ele>
        <time>2017-04-20T13:00:36Z</time>
      </trkpt>
      <trkpt lat="45.07778" lon="6.55221">
        <ele>2870.2</ele>
        <time>2017-04-20T13:00:41Z</time>
      </trkpt>
      <trkpt lat="45.07781" lon="6.55221">
        <ele>2867.6</ele>
        <time>2017-04-20T13:00:46Z</time>
      </trkpt>
      <trkpt lat="45.07784" lon="6.5522">
        <ele>2873</ele>
        <time>2017-04-20T13:00:51Z</time>
      </trkpt>
      <trkpt lat="45.07786" lon="6.5522">
        <ele>2869.8</ele>
        <time>2017-04-20T13:00:56Z</time>
      </trkpt>
      <trkpt lat="45.07789" lon="6.5522">
        <ele>2869.6</ele>
        <time>2017-04-20T13:01:01Z</time>
      </trkpt>
      <trkpt lat="45.07791" lon="6.55222">
        <ele>2867.8</ele>
        <time>2017-04-20T13:01:06Z</time>
      </trkpt>
      <trkpt lat="45.07793" lon="6.55224">
        <ele>2869.6</ele>
        <time>2017-04-20T13:01:11Z</time>
      </trkpt>
      <trkpt lat="45.07797" lon="6.55225">
        <ele>2868.4</ele>
        <time>2017-04-20T13:01:16Z</time>
      </trkpt>
      <trkpt lat="45.078" lon="6.55226">
        <ele>2869.4</ele>
        <time>2017-04-20T13:01:21Z</time>
      </trkpt>
      <trkpt lat="45.07801" lon="6.55226">
        <ele>2871.4</ele>
        <time>2017-04-20T13:02:42Z</time>
      </trkpt>
      <trkpt lat="45.0781" lon="6.55226">
        <ele>2866.8</ele>
        <time>2017-04-20T13:03:47Z</time>
      </trkpt>
      <trkpt lat="45.07811" lon="6.55221">
        <ele>2869.6</ele>
        <time>2017-04-20T13:04:02Z</time>
      </trkpt>
      <trkpt lat="45.07811" lon="6.55219">
        <ele>2871.8</ele>
        <time>2017-04-20T13:04:07Z</time>
      </trkpt>
      <trkpt lat="45.0781" lon="6.55216">
        <ele>2869.2</ele>
        <time>2017-04-20T13:04:12Z</time>
      </trkpt>
      <trkpt lat="45.0781" lon="6.55216">
        <ele>2869.2</ele>
        <time>2017-04-20T13:04:27Z</time>
      </trkpt>
      <trkpt lat="45.0781" lon="6.55215">
        <ele>2868.2</ele>
        <time>2017-04-20T13:05:17Z</time>
      </trkpt>
      <trkpt lat="45.0781" lon="6.55214">
        <ele>2868</ele>
        <time>2017-04-20T13:05:42Z</time>
      </trkpt>
      <trkpt lat="45.07811" lon="6.55214">
        <ele>2867.8</ele>
        <time>2017-04-20T13:05:52Z</time>
      </trkpt>
      <trkpt lat="45.07811" lon="6.55214">
        <ele>2867.4</ele>
        <time>2017-04-20T13:06:07Z</time>
      </trkpt>
      <trkpt lat="45.07814" lon="6.55219">
        <ele>2864</ele>
        <time>2017-04-20T13:06:12Z</time>
      </trkpt>
      <trkpt lat="45.07825" lon="6.55236">
        <ele>2861.2</ele>
        <time>2017-04-20T13:06:17Z</time>
      </trkpt>
      <trkpt lat="45.0783" lon="6.55232">
        <ele>2857.4</ele>
        <time>2017-04-20T13:06:22Z</time>
      </trkpt>
      <trkpt lat="45.0783" lon="6.55229">
        <ele>2856</ele>
        <time>2017-04-20T13:06:27Z</time>
      </trkpt>
      <trkpt lat="45.0783" lon="6.55229">
        <ele>2857.6</ele>
        <time>2017-04-20T13:06:32Z</time>
      </trkpt>
      <trkpt lat="45.0783" lon="6.55224">
        <ele>2855.4</ele>
        <time>2017-04-20T13:06:37Z</time>
      </trkpt>
      <trkpt lat="45.07829" lon="6.55199">
        <ele>2853.4</ele>
        <time>2017-04-20T13:06:42Z</time>
      </trkpt>
      <trkpt lat="45.07832" lon="6.55193">
        <ele>2847.8</ele>
        <time>2017-04-20T13:06:47Z</time>
      </trkpt>
      <trkpt lat="45.07846" lon="6.55224">
        <ele>2847.2</ele>
        <time>2017-04-20T13:06:52Z</time>
      </trkpt>
      <trkpt lat="45.07858" lon="6.5525">
        <ele>2847.2</ele>
        <time>2017-04-20T13:06:57Z</time>
      </trkpt>
      <trkpt lat="45.07873" lon="6.55251">
        <ele>2841.4</ele>
        <time>2017-04-20T13:07:02Z</time>
      </trkpt>
      <trkpt lat="45.0789" lon="6.55234">
        <ele>2829.8</ele>
        <time>2017-04-20T13:07:07Z</time>
      </trkpt>
      <trkpt lat="45.07908" lon="6.5522">
        <ele>2823.4</ele>
        <time>2017-04-20T13:07:12Z</time>
      </trkpt>
      <trkpt lat="45.07924" lon="6.55203">
        <ele>2818.6</ele>
        <time>2017-04-20T13:07:17Z</time>
      </trkpt>
      <trkpt lat="45.07923" lon="6.55197">
        <ele>2818.4</ele>
        <time>2017-04-20T13:07:22Z</time>
      </trkpt>
      <trkpt lat="45.07922" lon="6.55197">
        <ele>2818.2</ele>
        <time>2017-04-20T13:08:02Z</time>
      </trkpt>
      <trkpt lat="45.07922" lon="6.55197">
        <ele>2818</ele>
        <time>2017-04-20T13:08:12Z</time>
      </trkpt>
      <trkpt lat="45.07921" lon="6.55197">
        <ele>2817.8</ele>
        <time>2017-04-20T13:08:17Z</time>
      </trkpt>
      <trkpt lat="45.07918" lon="6.55192">
        <ele>2818.4</ele>
        <time>2017-04-20T13:08:22Z</time>
      </trkpt>
      <trkpt lat="45.07921" lon="6.55171">
        <ele>2815.4</ele>
        <time>2017-04-20T13:08:27Z</time>
      </trkpt>
      <trkpt lat="45.07927" lon="6.5514">
        <ele>2806.2</ele>
        <time>2017-04-20T13:08:32Z</time>
      </trkpt>
      <trkpt lat="45.07927" lon="6.55105">
        <ele>2798</ele>
        <time>2017-04-20T13:08:37Z</time>
      </trkpt>
      <trkpt lat="45.07933" lon="6.55075">
        <ele>2787.8</ele>
        <time>2017-04-20T13:08:42Z</time>
      </trkpt>
      <trkpt lat="45.07947" lon="6.55044">
        <ele>2782</ele>
        <time>2017-04-20T13:08:47Z</time>
      </trkpt>
      <trkpt lat="45.07948" lon="6.55033">
        <ele>2776.4</ele>
        <time>2017-04-20T13:08:52Z</time>
      </trkpt>
      <trkpt lat="45.07948" lon="6.55034">
        <ele>2778.4</ele>
        <time>2017-04-20T13:09:52Z</time>
      </trkpt>
      <trkpt lat="45.07945" lon="6.55025">
        <ele>2777.4</ele>
        <time>2017-04-20T13:09:57Z</time>
      </trkpt>
      <trkpt lat="45.07937" lon="6.54997">
        <ele>2775.6</ele>
        <time>2017-04-20T13:10:02Z</time>
      </trkpt>
      <trkpt lat="45.07948" lon="6.5496">
        <ele>2764.8</ele>
        <time>2017-04-20T13:10:07Z</time>
      </trkpt>
      <trkpt lat="45.07954" lon="6.54923">
        <ele>2759</ele>
        <time>2017-04-20T13:10:12Z</time>
      </trkpt>
      <trkpt lat="45.07956" lon="6.54894">
        <ele>2755.2</ele>
        <time>2017-04-20T13:10:17Z</time>
      </trkpt>
      <trkpt lat="45.07953" lon="6.5487">
        <ele>2752.8</ele>
        <time>2017-04-20T13:10:22Z</time>
      </trkpt>
      <trkpt lat="45.07957" lon="6.54841">
        <ele>2747.2</ele>
        <time>2017-04-20T13:10:27Z</time>
      </trkpt>
      <trkpt lat="45.07959" lon="6.54804">
        <ele>2740.6</ele>
        <time>2017-04-20T13:10:32Z</time>
      </trkpt>
      <trkpt lat="45.0796" lon="6.54765">
        <ele>2733</ele>
        <time>2017-04-20T13:10:37Z</time>
      </trkpt>
      <trkpt lat="45.07961" lon="6.54731">
        <ele>2729.2</ele>
        <time>2017-04-20T13:10:42Z</time>
      </trkpt>
      <trkpt lat="45.07963" lon="6.54704">
        <ele>2728</ele>
        <time>2017-04-20T13:10:47Z</time>
      </trkpt>
      <trkpt lat="45.07962" lon="6.54698">
        <ele>2730.4</ele>
        <time>2017-04-20T13:10:52Z</time>
      </trkpt>
      <trkpt lat="45.07963" lon="6.54696">
        <ele>2727.8</ele>
        <time>2017-04-20T13:12:57Z</time>
      </trkpt>
      <trkpt lat="45.07962" lon="6.54695">
        <ele>2726.4</ele>
        <time>2017-04-20T13:13:02Z</time>
      </trkpt>
      <trkpt lat="45.07963" lon="6.54694">
        <ele>2727</ele>
        <time>2017-04-20T13:14:02Z</time>
      </trkpt>
      <trkpt lat="45.07963" lon="6.54687">
        <ele>2725.8</ele>
        <time>2017-04-20T13:14:07Z</time>
      </trkpt>
      <trkpt lat="45.07961" lon="6.54673">
        <ele>2727.2</ele>
        <time>2017-04-20T13:14:12Z</time>
      </trkpt>
      <trkpt lat="45.07957" lon="6.54656">
        <ele>2726.6</ele>
        <time>2017-04-20T13:14:17Z</time>
      </trkpt>
      <trkpt lat="45.07949" lon="6.54634">
        <ele>2726.4</ele>
        <time>2017-04-20T13:14:22Z</time>
      </trkpt>
      <trkpt lat="45.07942" lon="6.54614">
        <ele>2723.2</ele>
        <time>2017-04-20T13:14:27Z</time>
      </trkpt>
      <trkpt lat="45.07941" lon="6.54593">
        <ele>2718.2</ele>
        <time>2017-04-20T13:14:32Z</time>
      </trkpt>
      <trkpt lat="45.0796" lon="6.54571">
        <ele>2707.4</ele>
        <time>2017-04-20T13:14:37Z</time>
      </trkpt>
      <trkpt lat="45.07977" lon="6.54541">
        <ele>2700.6</ele>
        <time>2017-04-20T13:14:42Z</time>
      </trkpt>
      <trkpt lat="45.07983" lon="6.54497">
        <ele>2690.6</ele>
        <time>2017-04-20T13:14:47Z</time>
      </trkpt>
      <trkpt lat="45.07999" lon="6.54461">
        <ele>2685.4</ele>
        <time>2017-04-20T13:14:52Z</time>
      </trkpt>
      <trkpt lat="45.08014" lon="6.54436">
        <ele>2680.8</ele>
        <time>2017-04-20T13:14:57Z</time>
      </trkpt>
      <trkpt lat="45.08018" lon="6.54426">
        <ele>2678.6</ele>
        <time>2017-04-20T13:15:22Z</time>
      </trkpt>
      <trkpt lat="45.08017" lon="6.54426">
        <ele>2678.2</ele>
        <time>2017-04-20T13:16:37Z</time>
      </trkpt>
      <trkpt lat="45.08018" lon="6.54422">
        <ele>2678.8</ele>
        <time>2017-04-20T13:16:42Z</time>
      </trkpt>
      <trkpt lat="45.08023" lon="6.54415">
        <ele>2677</ele>
        <time>2017-04-20T13:16:47Z</time>
      </trkpt>
      <trkpt lat="45.08032" lon="6.54402">
        <ele>2675.4</ele>
        <time>2017-04-20T13:16:52Z</time>
      </trkpt>
      <trkpt lat="45.08039" lon="6.54387">
        <ele>2676</ele>
        <time>2017-04-20T13:16:57Z</time>
      </trkpt>
      <trkpt lat="45.08042" lon="6.54381">
        <ele>2674.8</ele>
        <time>2017-04-20T13:17:02Z</time>
      </trkpt>
      <trkpt lat="45.08044" lon="6.54378">
        <ele>2675.4</ele>
        <time>2017-04-20T13:17:07Z</time>
      </trkpt>
      <trkpt lat="45.08044" lon="6.54376">
        <ele>2674.2</ele>
        <time>2017-04-20T13:17:12Z</time>
      </trkpt>
      <trkpt lat="45.08044" lon="6.54374">
        <ele>2674.6</ele>
        <time>2017-04-20T13:17:43Z</time>
      </trkpt>
      <trkpt lat="45.08045" lon="6.54374">
        <ele>2674</ele>
        <time>2017-04-20T13:18:43Z</time>
      </trkpt>
      <trkpt lat="45.08047" lon="6.54371">
        <ele>2671.4</ele>
        <time>2017-04-20T13:18:58Z</time>
      </trkpt>
      <trkpt lat="45.08047" lon="6.54369">
        <ele>2672.2</ele>
        <time>2017-04-20T13:19:03Z</time>
      </trkpt>
      <trkpt lat="45.08047" lon="6.54366">
        <ele>2674</ele>
        <time>2017-04-20T13:19:53Z</time>
      </trkpt>
      <trkpt lat="45.08048" lon="6.54362">
        <ele>2672.2</ele>
        <time>2017-04-20T13:19:58Z</time>
      </trkpt>
      <trkpt lat="45.08049" lon="6.54349">
        <ele>2672</ele>
        <time>2017-04-20T13:20:03Z</time>
      </trkpt>
      <trkpt lat="45.08046" lon="6.54323">
        <ele>2667.4</ele>
        <time>2017-04-20T13:20:08Z</time>
      </trkpt>
      <trkpt lat="45.08043" lon="6.54288">
        <ele>2668</ele>
        <time>2017-04-20T13:20:13Z</time>
      </trkpt>
      <trkpt lat="45.08044" lon="6.54254">
        <ele>2668.4</ele>
        <time>2017-04-20T13:20:18Z</time>
      </trkpt>
      <trkpt lat="45.08044" lon="6.5422">
        <ele>2665.6</ele>
        <time>2017-04-20T13:20:23Z</time>
      </trkpt>
      <trkpt lat="45.08045" lon="6.54194">
        <ele>2663.2</ele>
        <time>2017-04-20T13:20:28Z</time>
      </trkpt>
      <trkpt lat="45.08046" lon="6.5417">
        <ele>2660.6</ele>
        <time>2017-04-20T13:20:33Z</time>
      </trkpt>
      <trkpt lat="45.08045" lon="6.54141">
        <ele>2657.2</ele>
        <time>2017-04-20T13:20:38Z</time>
      </trkpt>
      <trkpt lat="45.08053" lon="6.54119">
        <ele>2651.2</ele>
        <time>2017-04-20T13:20:43Z</time>
      </trkpt>
      <trkpt lat="45.08061" lon="6.54079">
        <ele>2646</ele>
        <time>2017-04-20T13:20:48Z</time>
      </trkpt>
      <trkpt lat="45.08067" lon="6.54043">
        <ele>2636</ele>
        <time>2017-04-20T13:20:53Z</time>
      </trkpt>
      <trkpt lat="45.08081" lon="6.54015">
        <ele>2627.4</ele>
        <time>2017-04-20T13:20:58Z</time>
      </trkpt>
      <trkpt lat="45.08078" lon="6.53993">
        <ele>2627.4</ele>
        <time>2017-04-20T13:21:03Z</time>
      </trkpt>
      <trkpt lat="45.08076" lon="6.53968">
        <ele>2623.6</ele>
        <time>2017-04-20T13:21:08Z</time>
      </trkpt>
      <trkpt lat="45.08071" lon="6.53942">
        <ele>2624.8</ele>
        <time>2017-04-20T13:21:13Z</time>
      </trkpt>
      <trkpt lat="45.08066" lon="6.53921">
        <ele>2623</ele>
        <time>2017-04-20T13:21:18Z</time>
      </trkpt>
      <trkpt lat="45.08066" lon="6.53901">
        <ele>2621.6</ele>
        <time>2017-04-20T13:21:23Z</time>
      </trkpt>
      <trkpt lat="45.0808" lon="6.53879">
        <ele>2611.2</ele>
        <time>2017-04-20T13:21:28Z</time>
      </trkpt>
      <trkpt lat="45.08098" lon="6.53854">
        <ele>2607.2</ele>
        <time>2017-04-20T13:21:33Z</time>
      </trkpt>
      <trkpt lat="45.08112" lon="6.53804">
        <ele>2587</ele>
        <time>2017-04-20T13:21:39Z</time>
      </trkpt>
      <trkpt lat="45.08116" lon="6.53765">
        <ele>2577</ele>
        <time>2017-04-20T13:21:44Z</time>
      </trkpt>
      <trkpt lat="45.08126" lon="6.53724">
        <ele>2572.8</ele>
        <time>2017-04-20T13:21:49Z</time>
      </trkpt>
      <trkpt lat="45.08135" lon="6.53685">
        <ele>2566.4</ele>
        <time>2017-04-20T13:21:54Z</time>
      </trkpt>
      <trkpt lat="45.08145" lon="6.53655">
        <ele>2564.4</ele>
        <time>2017-04-20T13:21:59Z</time>
      </trkpt>
      <trkpt lat="45.08154" lon="6.53629">
        <ele>2558.6</ele>
        <time>2017-04-20T13:22:04Z</time>
      </trkpt>
      <trkpt lat="45.08154" lon="6.53597">
        <ele>2555.6</ele>
        <time>2017-04-20T13:22:09Z</time>
      </trkpt>
      <trkpt lat="45.08159" lon="6.53561">
        <ele>2549.2</ele>
        <time>2017-04-20T13:22:14Z</time>
      </trkpt>
      <trkpt lat="45.08169" lon="6.5352">
        <ele>2542.2</ele>
        <time>2017-04-20T13:22:19Z</time>
      </trkpt>
      <trkpt lat="45.08181" lon="6.53483">
        <ele>2536.8</ele>
        <time>2017-04-20T13:22:24Z</time>
      </trkpt>
      <trkpt lat="45.08192" lon="6.53449">
        <ele>2535.6</ele>
        <time>2017-04-20T13:22:29Z</time>
      </trkpt>
      <trkpt lat="45.08199" lon="6.53416">
        <ele>2534</ele>
        <time>2017-04-20T13:22:34Z</time>
      </trkpt>
      <trkpt lat="45.08205" lon="6.53392">
        <ele>2531</ele>
        <time>2017-04-20T13:22:54Z</time>
      </trkpt>
      <trkpt lat="45.08205" lon="6.53393">
        <ele>2530.6</ele>
        <time>2017-04-20T13:23:14Z</time>
      </trkpt>
      <trkpt lat="45.08205" lon="6.53389">
        <ele>2529.4</ele>
        <time>2017-04-20T13:23:19Z</time>
      </trkpt>
      <trkpt lat="45.08208" lon="6.53372">
        <ele>2533.2</ele>
        <time>2017-04-20T13:23:24Z</time>
      </trkpt>
      <trkpt lat="45.08208" lon="6.53354">
        <ele>2531.2</ele>
        <time>2017-04-20T13:23:29Z</time>
      </trkpt>
      <trkpt lat="45.0821" lon="6.53337">
        <ele>2529</ele>
        <time>2017-04-20T13:23:34Z</time>
      </trkpt>
      <trkpt lat="45.08212" lon="6.53318">
        <ele>2529.4</ele>
        <time>2017-04-20T13:23:39Z</time>
      </trkpt>
      <trkpt lat="45.08213" lon="6.53296">
        <ele>2528</ele>
        <time>2017-04-20T13:23:44Z</time>
      </trkpt>
      <trkpt lat="45.08214" lon="6.53272">
        <ele>2524</ele>
        <time>2017-04-20T13:23:49Z</time>
      </trkpt>
      <trkpt lat="45.08218" lon="6.53243">
        <ele>2524.2</ele>
        <time>2017-04-20T13:23:54Z</time>
      </trkpt>
      <trkpt lat="45.08225" lon="6.53214">
        <ele>2520.8</ele>
        <time>2017-04-20T13:23:59Z</time>
      </trkpt>
      <trkpt lat="45.0823" lon="6.53187">
        <ele>2522.4</ele>
        <time>2017-04-20T13:24:04Z</time>
      </trkpt>
      <trkpt lat="45.08231" lon="6.53168">
        <ele>2520.8</ele>
        <time>2017-04-20T13:24:09Z</time>
      </trkpt>
      <trkpt lat="45.08232" lon="6.53161">
        <ele>2519.4</ele>
        <time>2017-04-20T13:24:14Z</time>
      </trkpt>
      <trkpt lat="45.08232" lon="6.53159">
        <ele>2518.6</ele>
        <time>2017-04-20T13:24:19Z</time>
      </trkpt>
      <trkpt lat="45.08233" lon="6.53145">
        <ele>2517.4</ele>
        <time>2017-04-20T13:24:24Z</time>
      </trkpt>
      <trkpt lat="45.08232" lon="6.53124">
        <ele>2516.4</ele>
        <time>2017-04-20T13:24:29Z</time>
      </trkpt>
      <trkpt lat="45.08231" lon="6.53113">
        <ele>2516.8</ele>
        <time>2017-04-20T13:24:34Z</time>
      </trkpt>
      <trkpt lat="45.08231" lon="6.53113">
        <ele>2520.2</ele>
        <time>2017-04-20T13:25:34Z</time>
      </trkpt>
      <trkpt lat="45.08231" lon="6.53106">
        <ele>2518.6</ele>
        <time>2017-04-20T13:25:39Z</time>
      </trkpt>
      <trkpt lat="45.0823" lon="6.53091">
        <ele>2518</ele>
        <time>2017-04-20T13:25:44Z</time>
      </trkpt>
      <trkpt lat="45.08228" lon="6.53071">
        <ele>2513.2</ele>
        <time>2017-04-20T13:25:49Z</time>
      </trkpt>
      <trkpt lat="45.08238" lon="6.53045">
        <ele>2508.8</ele>
        <time>2017-04-20T13:25:54Z</time>
      </trkpt>
      <trkpt lat="45.08253" lon="6.53022">
        <ele>2495.8</ele>
        <time>2017-04-20T13:25:59Z</time>
      </trkpt>
      <trkpt lat="45.0826" lon="6.52994">
        <ele>2491</ele>
        <time>2017-04-20T13:26:04Z</time>
      </trkpt>
      <trkpt lat="45.08274" lon="6.52948">
        <ele>2484.2</ele>
        <time>2017-04-20T13:26:09Z</time>
      </trkpt>
      <trkpt lat="45.08283" lon="6.52903">
        <ele>2480.2</ele>
        <time>2017-04-20T13:26:14Z</time>
      </trkpt>
      <trkpt lat="45.08288" lon="6.52878">
        <ele>2479.8</ele>
        <time>2017-04-20T13:26:19Z</time>
      </trkpt>
      <trkpt lat="45.08289" lon="6.52856">
        <ele>2479.6</ele>
        <time>2017-04-20T13:26:25Z</time>
      </trkpt>
      <trkpt lat="45.08291" lon="6.52837">
        <ele>2477.8</ele>
        <time>2017-04-20T13:26:30Z</time>
      </trkpt>
      <trkpt lat="45.08292" lon="6.52825">
        <ele>2478.6</ele>
        <time>2017-04-20T13:26:35Z</time>
      </trkpt>
      <trkpt lat="45.08296" lon="6.52813">
        <ele>2478.2</ele>
        <time>2017-04-20T13:26:40Z</time>
      </trkpt>
      <trkpt lat="45.08299" lon="6.52796">
        <ele>2478.6</ele>
        <time>2017-04-20T13:26:45Z</time>
      </trkpt>
      <trkpt lat="45.083" lon="6.52777">
        <ele>2475.8</ele>
        <time>2017-04-20T13:26:50Z</time>
      </trkpt>
      <trkpt lat="45.08301" lon="6.5276">
        <ele>2476.8</ele>
        <time>2017-04-20T13:26:55Z</time>
      </trkpt>
      <trkpt lat="45.08301" lon="6.5275">
        <ele>2475</ele>
        <time>2017-04-20T13:27:35Z</time>
      </trkpt>
      <trkpt lat="45.08301" lon="6.52745">
        <ele>2474</ele>
        <time>2017-04-20T13:28:35Z</time>
      </trkpt>
      <trkpt lat="45.08301" lon="6.52743">
        <ele>2474</ele>
        <time>2017-04-20T13:28:40Z</time>
      </trkpt>
      <trkpt lat="45.08301" lon="6.52742">
        <ele>2473.8</ele>
        <time>2017-04-20T13:28:45Z</time>
      </trkpt>
      <trkpt lat="45.08303" lon="6.52736">
        <ele>2473.2</ele>
        <time>2017-04-20T13:28:50Z</time>
      </trkpt>
      <trkpt lat="45.08304" lon="6.52728">
        <ele>2471.2</ele>
        <time>2017-04-20T13:28:55Z</time>
      </trkpt>
      <trkpt lat="45.08304" lon="6.5272">
        <ele>2473</ele>
        <time>2017-04-20T13:29:00Z</time>
      </trkpt>
      <trkpt lat="45.08306" lon="6.52709">
        <ele>2471.4</ele>
        <time>2017-04-20T13:29:05Z</time>
      </trkpt>
      <trkpt lat="45.08308" lon="6.52697">
        <ele>2473.4</ele>
        <time>2017-04-20T13:29:10Z</time>
      </trkpt>
      <trkpt lat="45.08311" lon="6.52686">
        <ele>2473.6</ele>
        <time>2017-04-20T13:29:15Z</time>
      </trkpt>
      <trkpt lat="45.08313" lon="6.52676">
        <ele>2473.8</ele>
        <time>2017-04-20T13:29:20Z</time>
      </trkpt>
      <trkpt lat="45.08316" lon="6.52662">
        <ele>2471.2</ele>
        <time>2017-04-20T13:29:25Z</time>
      </trkpt>
      <trkpt lat="45.08318" lon="6.52644">
        <ele>2470.8</ele>
        <time>2017-04-20T13:29:30Z</time>
      </trkpt>
      <trkpt lat="45.08318" lon="6.52632">
        <ele>2473.8</ele>
        <time>2017-04-20T13:29:35Z</time>
      </trkpt>
      <trkpt lat="45.08318" lon="6.52621">
        <ele>2472</ele>
        <time>2017-04-20T13:29:40Z</time>
      </trkpt>
      <trkpt lat="45.08319" lon="6.52607">
        <ele>2471</ele>
        <time>2017-04-20T13:29:45Z</time>
      </trkpt>
      <trkpt lat="45.08319" lon="6.52592">
        <ele>2471.2</ele>
        <time>2017-04-20T13:29:50Z</time>
      </trkpt>
      <trkpt lat="45.0832" lon="6.52563">
        <ele>2467.6</ele>
        <time>2017-04-20T13:29:55Z</time>
      </trkpt>
      <trkpt lat="45.08327" lon="6.52528">
        <ele>2464.4</ele>
        <time>2017-04-20T13:30:00Z</time>
      </trkpt>
      <trkpt lat="45.0833" lon="6.52509">
        <ele>2465.2</ele>
        <time>2017-04-20T13:30:05Z</time>
      </trkpt>
      <trkpt lat="45.08334" lon="6.52488">
        <ele>2468</ele>
        <time>2017-04-20T13:30:10Z</time>
      </trkpt>
      <trkpt lat="45.08333" lon="6.52466">
        <ele>2463.8</ele>
        <time>2017-04-20T13:30:15Z</time>
      </trkpt>
      <trkpt lat="45.08332" lon="6.52439">
        <ele>2458.4</ele>
        <time>2017-04-20T13:30:20Z</time>
      </trkpt>
      <trkpt lat="45.08328" lon="6.52403">
        <ele>2445.6</ele>
        <time>2017-04-20T13:30:25Z</time>
      </trkpt>
      <trkpt lat="45.08333" lon="6.52354">
        <ele>2437.2</ele>
        <time>2017-04-20T13:30:30Z</time>
      </trkpt>
      <trkpt lat="45.08336" lon="6.52287">
        <ele>2431.2</ele>
        <time>2017-04-20T13:30:35Z</time>
      </trkpt>
      <trkpt lat="45.08342" lon="6.52244">
        <ele>2425.4</ele>
        <time>2017-04-20T13:30:40Z</time>
      </trkpt>
      <trkpt lat="45.08345" lon="6.52216">
        <ele>2426.6</ele>
        <time>2017-04-20T13:30:45Z</time>
      </trkpt>
      <trkpt lat="45.08346" lon="6.52196">
        <ele>2426.6</ele>
        <time>2017-04-20T13:30:50Z</time>
      </trkpt>
      <trkpt lat="45.08347" lon="6.52179">
        <ele>2425.8</ele>
        <time>2017-04-20T13:30:55Z</time>
      </trkpt>
      <trkpt lat="45.08345" lon="6.52166">
        <ele>2425.6</ele>
        <time>2017-04-20T13:31:05Z</time>
      </trkpt>
      <trkpt lat="45.08344" lon="6.52166">
        <ele>2425</ele>
        <time>2017-04-20T13:33:02Z</time>
      </trkpt>
      <trkpt lat="45.08343" lon="6.5216">
        <ele>2423.4</ele>
        <time>2017-04-20T13:33:07Z</time>
      </trkpt>
      <trkpt lat="45.08344" lon="6.52139">
        <ele>2423</ele>
        <time>2017-04-20T13:33:12Z</time>
      </trkpt>
      <trkpt lat="45.0835" lon="6.52109">
        <ele>2419.4</ele>
        <time>2017-04-20T13:33:17Z</time>
      </trkpt>
      <trkpt lat="45.0835" lon="6.5208">
        <ele>2414.6</ele>
        <time>2017-04-20T13:33:22Z</time>
      </trkpt>
      <trkpt lat="45.08364" lon="6.52054">
        <ele>2409</ele>
        <time>2017-04-20T13:33:27Z</time>
      </trkpt>
      <trkpt lat="45.08378" lon="6.52028">
        <ele>2404.6</ele>
        <time>2017-04-20T13:33:32Z</time>
      </trkpt>
      <trkpt lat="45.08397" lon="6.52004">
        <ele>2398.8</ele>
        <time>2017-04-20T13:33:37Z</time>
      </trkpt>
      <trkpt lat="45.08405" lon="6.51972">
        <ele>2394.2</ele>
        <time>2017-04-20T13:33:42Z</time>
      </trkpt>
      <trkpt lat="45.08428" lon="6.51957">
        <ele>2389.2</ele>
        <time>2017-04-20T13:33:47Z</time>
      </trkpt>
      <trkpt lat="45.08433" lon="6.51932">
        <ele>2383.2</ele>
        <time>2017-04-20T13:33:52Z</time>
      </trkpt>
      <trkpt lat="45.08435" lon="6.51911">
        <ele>2376.6</ele>
        <time>2017-04-20T13:33:57Z</time>
      </trkpt>
      <trkpt lat="45.08435" lon="6.51908">
        <ele>2376.8</ele>
        <time>2017-04-20T13:34:02Z</time>
      </trkpt>
      <trkpt lat="45.08432" lon="6.51906">
        <ele>2379</ele>
        <time>2017-04-20T13:34:07Z</time>
      </trkpt>
      <trkpt lat="45.08425" lon="6.519">
        <ele>2381</ele>
        <time>2017-04-20T13:34:12Z</time>
      </trkpt>
      <trkpt lat="45.08421" lon="6.51896">
        <ele>2376.8</ele>
        <time>2017-04-20T13:34:17Z</time>
      </trkpt>
      <trkpt lat="45.08403" lon="6.51878">
        <ele>2374.8</ele>
        <time>2017-04-20T13:34:22Z</time>
      </trkpt>
      <trkpt lat="45.08395" lon="6.51851">
        <ele>2363</ele>
        <time>2017-04-20T13:34:27Z</time>
      </trkpt>
      <trkpt lat="45.08381" lon="6.51818">
        <ele>2355.4</ele>
        <time>2017-04-20T13:34:32Z</time>
      </trkpt>
      <trkpt lat="45.08363" lon="6.51775">
        <ele>2349.8</ele>
        <time>2017-04-20T13:34:37Z</time>
      </trkpt>
      <trkpt lat="45.08359" lon="6.51743">
        <ele>2347.2</ele>
        <time>2017-04-20T13:34:42Z</time>
      </trkpt>
      <trkpt lat="45.08367" lon="6.51715">
        <ele>2344.2</ele>
        <time>2017-04-20T13:34:47Z</time>
      </trkpt>
      <trkpt lat="45.08366" lon="6.51683">
        <ele>2339.6</ele>
        <time>2017-04-20T13:34:52Z</time>
      </trkpt>
      <trkpt lat="45.08356" lon="6.51648">
        <ele>2336.8</ele>
        <time>2017-04-20T13:34:57Z</time>
      </trkpt>
      <trkpt lat="45.08356" lon="6.51619">
        <ele>2330.8</ele>
        <time>2017-04-20T13:35:02Z</time>
      </trkpt>
      <trkpt lat="45.08341" lon="6.51597">
        <ele>2330</ele>
        <time>2017-04-20T13:35:07Z</time>
      </trkpt>
      <trkpt lat="45.08332" lon="6.51583">
        <ele>2330.4</ele>
        <time>2017-04-20T13:35:12Z</time>
      </trkpt>
      <trkpt lat="45.08331" lon="6.51583">
        <ele>2329.2</ele>
        <time>2017-04-20T13:35:22Z</time>
      </trkpt>
      <trkpt lat="45.0833" lon="6.51583">
        <ele>2328.8</ele>
        <time>2017-04-20T13:35:28Z</time>
      </trkpt>
      <trkpt lat="45.08324" lon="6.51575">
        <ele>2328.8</ele>
        <time>2017-04-20T13:35:33Z</time>
      </trkpt>
      <trkpt lat="45.08313" lon="6.51565">
        <ele>2328.2</ele>
        <time>2017-04-20T13:35:38Z</time>
      </trkpt>
      <trkpt lat="45.08305" lon="6.5156">
        <ele>2327</ele>
        <time>2017-04-20T13:35:43Z</time>
      </trkpt>
      <trkpt lat="45.08305" lon="6.5156">
        <ele>2325.4</ele>
        <time>2017-04-20T13:35:58Z</time>
      </trkpt>
      <trkpt lat="45.08303" lon="6.51558">
        <ele>2323.6</ele>
        <time>2017-04-20T13:36:03Z</time>
      </trkpt>
      <trkpt lat="45.08304" lon="6.51543">
        <ele>2319.6</ele>
        <time>2017-04-20T13:36:08Z</time>
      </trkpt>
      <trkpt lat="45.08314" lon="6.51519">
        <ele>2309.2</ele>
        <time>2017-04-20T13:36:13Z</time>
      </trkpt>
      <trkpt lat="45.0832" lon="6.5149">
        <ele>2295.6</ele>
        <time>2017-04-20T13:36:18Z</time>
      </trkpt>
      <trkpt lat="45.08332" lon="6.51466">
        <ele>2283</ele>
        <time>2017-04-20T13:36:23Z</time>
      </trkpt>
      <trkpt lat="45.08342" lon="6.5144">
        <ele>2279.6</ele>
        <time>2017-04-20T13:36:28Z</time>
      </trkpt>
      <trkpt lat="45.08361" lon="6.51422">
        <ele>2273.6</ele>
        <time>2017-04-20T13:36:33Z</time>
      </trkpt>
      <trkpt lat="45.0836" lon="6.51406">
        <ele>2272.6</ele>
        <time>2017-04-20T13:37:08Z</time>
      </trkpt>
      <trkpt lat="45.08363" lon="6.514">
        <ele>2270.8</ele>
        <time>2017-04-20T13:37:13Z</time>
      </trkpt>
      <trkpt lat="45.08362" lon="6.51377">
        <ele>2270.2</ele>
        <time>2017-04-20T13:37:18Z</time>
      </trkpt>
      <trkpt lat="45.08362" lon="6.51366">
        <ele>2269.2</ele>
        <time>2017-04-20T13:37:23Z</time>
      </trkpt>
      <trkpt lat="45.08363" lon="6.51363">
        <ele>2270.2</ele>
        <time>2017-04-20T13:37:28Z</time>
      </trkpt>
      <trkpt lat="45.08362" lon="6.51363">
        <ele>2270.2</ele>
        <time>2017-04-20T13:38:08Z</time>
      </trkpt>
      <trkpt lat="45.08362" lon="6.51362">
        <ele>2269.2</ele>
        <time>2017-04-20T13:38:18Z</time>
      </trkpt>
      <trkpt lat="45.0836" lon="6.51359">
        <ele>2269.8</ele>
        <time>2017-04-20T13:38:23Z</time>
      </trkpt>
      <trkpt lat="45.08359" lon="6.51355">
        <ele>2268.6</ele>
        <time>2017-04-20T13:38:28Z</time>
      </trkpt>
      <trkpt lat="45.08359" lon="6.51353">
        <ele>2267.8</ele>
        <time>2017-04-20T13:39:48Z</time>
      </trkpt>
      <trkpt lat="45.08358" lon="6.51347">
        <ele>2268.8</ele>
        <time>2017-04-20T13:39:53Z</time>
      </trkpt>
      <trkpt lat="45.08354" lon="6.51329">
        <ele>2267.2</ele>
        <time>2017-04-20T13:39:58Z</time>
      </trkpt>
      <trkpt lat="45.0835" lon="6.51304">
        <ele>2266.4</ele>
        <time>2017-04-20T13:40:03Z</time>
      </trkpt>
      <trkpt lat="45.08347" lon="6.51294">
        <ele>2267</ele>
        <time>2017-04-20T13:40:08Z</time>
      </trkpt>
      <trkpt lat="45.08344" lon="6.51279">
        <ele>2265.4</ele>
        <time>2017-04-20T13:40:13Z</time>
      </trkpt>
      <trkpt lat="45.08337" lon="6.5126">
        <ele>2264</ele>
        <time>2017-04-20T13:40:18Z</time>
      </trkpt>
      <trkpt lat="45.08329" lon="6.51255">
        <ele>2262.2</ele>
        <time>2017-04-20T13:40:23Z</time>
      </trkpt>
      <trkpt lat="45.08319" lon="6.51248">
        <ele>2261.2</ele>
        <time>2017-04-20T13:40:28Z</time>
      </trkpt>
      <trkpt lat="45.08312" lon="6.51242">
        <ele>2258.4</ele>
        <time>2017-04-20T13:40:33Z</time>
      </trkpt>
      <trkpt lat="45.08308" lon="6.51239">
        <ele>2257.4</ele>
        <time>2017-04-20T13:40:38Z</time>
      </trkpt>
      <trkpt lat="45.08299" lon="6.51231">
        <ele>2258.6</ele>
        <time>2017-04-20T13:40:44Z</time>
      </trkpt>
      <trkpt lat="45.0829" lon="6.51218">
        <ele>2256.6</ele>
        <time>2017-04-20T13:40:49Z</time>
      </trkpt>
      <trkpt lat="45.08279" lon="6.51197">
        <ele>2253.6</ele>
        <time>2017-04-20T13:40:54Z</time>
      </trkpt>
      <trkpt lat="45.08269" lon="6.51175">
        <ele>2253.8</ele>
        <time>2017-04-20T13:40:59Z</time>
      </trkpt>
      <trkpt lat="45.08273" lon="6.51158">
        <ele>2254.2</ele>
        <time>2017-04-20T13:41:04Z</time>
      </trkpt>
      <trkpt lat="45.08282" lon="6.51138">
        <ele>2252.8</ele>
        <time>2017-04-20T13:41:09Z</time>
      </trkpt>
      <trkpt lat="45.0829" lon="6.51105">
        <ele>2249.8</ele>
        <time>2017-04-20T13:41:14Z</time>
      </trkpt>
      <trkpt lat="45.08292" lon="6.51085">
        <ele>2250.4</ele>
        <time>2017-04-20T13:41:19Z</time>
      </trkpt>
      <trkpt lat="45.08295" lon="6.5106">
        <ele>2247.2</ele>
        <time>2017-04-20T13:41:24Z</time>
      </trkpt>
      <trkpt lat="45.08304" lon="6.51032">
        <ele>2242.4</ele>
        <time>2017-04-20T13:41:29Z</time>
      </trkpt>
      <trkpt lat="45.08308" lon="6.51007">
        <ele>2238.4</ele>
        <time>2017-04-20T13:41:34Z</time>
      </trkpt>
      <trkpt lat="45.08307" lon="6.50965">
        <ele>2235.2</ele>
        <time>2017-04-20T13:41:39Z</time>
      </trkpt>
      <trkpt lat="45.08297" lon="6.50952">
        <ele>2228.2</ele>
        <time>2017-04-20T13:41:44Z</time>
      </trkpt>
      <trkpt lat="45.08284" lon="6.50944">
        <ele>2221.6</ele>
        <time>2017-04-20T13:41:49Z</time>
      </trkpt>
      <trkpt lat="45.08262" lon="6.50965">
        <ele>2219.8</ele>
        <time>2017-04-20T13:41:54Z</time>
      </trkpt>
      <trkpt lat="45.08243" lon="6.50985">
        <ele>2214.8</ele>
        <time>2017-04-20T13:41:59Z</time>
      </trkpt>
      <trkpt lat="45.0823" lon="6.50982">
        <ele>2213.2</ele>
        <time>2017-04-20T13:42:04Z</time>
      </trkpt>
      <trkpt lat="45.08222" lon="6.50962">
        <ele>2204.4</ele>
        <time>2017-04-20T13:42:09Z</time>
      </trkpt>
      <trkpt lat="45.08226" lon="6.5093">
        <ele>2200.2</ele>
        <time>2017-04-20T13:42:14Z</time>
      </trkpt>
      <trkpt lat="45.08237" lon="6.50884">
        <ele>2194</ele>
        <time>2017-04-20T13:42:19Z</time>
      </trkpt>
      <trkpt lat="45.0823" lon="6.50863">
        <ele>2189.8</ele>
        <time>2017-04-20T13:42:24Z</time>
      </trkpt>
      <trkpt lat="45.08224" lon="6.50855">
        <ele>2190.8</ele>
        <time>2017-04-20T13:42:29Z</time>
      </trkpt>
      <trkpt lat="45.08218" lon="6.50851">
        <ele>2192.2</ele>
        <time>2017-04-20T13:42:34Z</time>
      </trkpt>
      <trkpt lat="45.08214" lon="6.50845">
        <ele>2188.8</ele>
        <time>2017-04-20T13:42:39Z</time>
      </trkpt>
      <trkpt lat="45.08212" lon="6.50844">
        <ele>2186.6</ele>
        <time>2017-04-20T13:42:44Z</time>
      </trkpt>
      <trkpt lat="45.08203" lon="6.5084">
        <ele>2189</ele>
        <time>2017-04-20T13:42:49Z</time>
      </trkpt>
      <trkpt lat="45.08191" lon="6.50839">
        <ele>2189.8</ele>
        <time>2017-04-20T13:42:54Z</time>
      </trkpt>
      <trkpt lat="45.08185" lon="6.50836">
        <ele>2189</ele>
        <time>2017-04-20T13:42:59Z</time>
      </trkpt>
      <trkpt lat="45.0818" lon="6.50834">
        <ele>2190.2</ele>
        <time>2017-04-20T13:43:04Z</time>
      </trkpt>
      <trkpt lat="45.08172" lon="6.50832">
        <ele>2188.2</ele>
        <time>2017-04-20T13:43:09Z</time>
      </trkpt>
      <trkpt lat="45.08158" lon="6.50825">
        <ele>2187</ele>
        <time>2017-04-20T13:43:14Z</time>
      </trkpt>
      <trkpt lat="45.08144" lon="6.50822">
        <ele>2186.4</ele>
        <time>2017-04-20T13:43:19Z</time>
      </trkpt>
      <trkpt lat="45.08137" lon="6.50822">
        <ele>2183.8</ele>
        <time>2017-04-20T13:43:24Z</time>
      </trkpt>
      <trkpt lat="45.08133" lon="6.50821">
        <ele>2186.8</ele>
        <time>2017-04-20T13:43:29Z</time>
      </trkpt>
      <trkpt lat="45.08128" lon="6.50821">
        <ele>2186.4</ele>
        <time>2017-04-20T13:43:34Z</time>
      </trkpt>
      <trkpt lat="45.08121" lon="6.50819">
        <ele>2184.2</ele>
        <time>2017-04-20T13:43:39Z</time>
      </trkpt>
      <trkpt lat="45.08115" lon="6.5082">
        <ele>2184.2</ele>
        <time>2017-04-20T13:43:44Z</time>
      </trkpt>
      <trkpt lat="45.08112" lon="6.50821">
        <ele>2186.4</ele>
        <time>2017-04-20T13:43:49Z</time>
      </trkpt>
      <trkpt lat="45.08111" lon="6.50822">
        <ele>2185.8</ele>
        <time>2017-04-20T13:43:54Z</time>
      </trkpt>
    </trkseg>
  </trk>
</gpx>